<?xml version="1.0" encoding="UTF-8" standalone="no" ?>
<gpx xmlns="http://www.topografix.com/GPX/1/1" xmlns:xsi="http://www.w3.org/2001/XMLSchema-instance" xsi:schemaLocation="http://www.topografix.com/GPX/1/1 http://www.topografix.com/GPX/1/1/gpx.xsd" version="1.1" creator="VisuGPX - https://www.visugpx.com">
  <metadata>
    <name>Petite balade de reconnaissance autour de Panthier</name>
    <desc><![CDATA[Petite mise en jambes du début de semaine, ça grimpe dure par moment!!!!]]></desc>
  </metadata>
  <trk>
    <name><![CDATA[Petite balade de reconnaissance autour de Panthier_1]]></name>
    <trkseg>
      <trkpt lat="47.23537" lon="4.62201">
        <ele>377.8</ele>
        <time>2018-08-20T08:11:35Z</time>
      </trkpt>
      <trkpt lat="47.23541" lon="4.62186">
        <ele>382.44693</ele>
        <time>2018-08-20T08:11:37Z</time>
      </trkpt>
      <trkpt lat="47.23543" lon="4.62186">
        <ele>382.415863</ele>
        <time>2018-08-20T08:11:38Z</time>
      </trkpt>
      <trkpt lat="47.23546" lon="4.62189">
        <ele>382.353027</ele>
        <time>2018-08-20T08:11:39Z</time>
      </trkpt>
      <trkpt lat="47.23548" lon="4.62191">
        <ele>382.24585</ele>
        <time>2018-08-20T08:11:40Z</time>
      </trkpt>
      <trkpt lat="47.2355" lon="4.62193">
        <ele>382.090088</ele>
        <time>2018-08-20T08:11:41Z</time>
      </trkpt>
      <trkpt lat="47.23553" lon="4.62196">
        <ele>381.904388</ele>
        <time>2018-08-20T08:11:42Z</time>
      </trkpt>
      <trkpt lat="47.23555" lon="4.62199">
        <ele>381.708893</ele>
        <time>2018-08-20T08:11:43Z</time>
      </trkpt>
      <trkpt lat="47.23557" lon="4.62201">
        <ele>381.495941</ele>
        <time>2018-08-20T08:11:44Z</time>
      </trkpt>
      <trkpt lat="47.2356" lon="4.62204">
        <ele>381.293549</ele>
        <time>2018-08-20T08:11:45Z</time>
      </trkpt>
      <trkpt lat="47.23563" lon="4.62207">
        <ele>381.113922</ele>
        <time>2018-08-20T08:11:46Z</time>
      </trkpt>
      <trkpt lat="47.23565" lon="4.62211">
        <ele>380.954193</ele>
        <time>2018-08-20T08:11:47Z</time>
      </trkpt>
      <trkpt lat="47.23568" lon="4.62214">
        <ele>380.796967</ele>
        <time>2018-08-20T08:11:48Z</time>
      </trkpt>
      <trkpt lat="47.23571" lon="4.62218">
        <ele>380.796967</ele>
        <time>2018-08-20T08:11:49Z</time>
      </trkpt>
      <trkpt lat="47.23574" lon="4.62222">
        <ele>380.629486</ele>
        <time>2018-08-20T08:11:50Z</time>
      </trkpt>
      <trkpt lat="47.23577" lon="4.62227">
        <ele>380.471191</ele>
        <time>2018-08-20T08:11:51Z</time>
      </trkpt>
      <trkpt lat="47.2358" lon="4.62231">
        <ele>380.281738</ele>
        <time>2018-08-20T08:11:52Z</time>
      </trkpt>
      <trkpt lat="47.23587" lon="4.6224">
        <ele>379.925659</ele>
        <time>2018-08-20T08:11:54Z</time>
      </trkpt>
      <trkpt lat="47.23591" lon="4.62245">
        <ele>379.762665</ele>
        <time>2018-08-20T08:11:55Z</time>
      </trkpt>
      <trkpt lat="47.23595" lon="4.62251">
        <ele>379.628754</ele>
        <time>2018-08-20T08:11:56Z</time>
      </trkpt>
      <trkpt lat="47.23599" lon="4.62256">
        <ele>379.467804</ele>
        <time>2018-08-20T08:11:57Z</time>
      </trkpt>
      <trkpt lat="47.23603" lon="4.62262">
        <ele>379.328888</ele>
        <time>2018-08-20T08:11:58Z</time>
      </trkpt>
      <trkpt lat="47.23608" lon="4.62269">
        <ele>379.234375</ele>
        <time>2018-08-20T08:11:59Z</time>
      </trkpt>
      <trkpt lat="47.23612" lon="4.62275">
        <ele>379.190094</ele>
        <time>2018-08-20T08:12:00Z</time>
      </trkpt>
      <trkpt lat="47.23616" lon="4.6228">
        <ele>379.189667</ele>
        <time>2018-08-20T08:12:01Z</time>
      </trkpt>
      <trkpt lat="47.2362" lon="4.62285">
        <ele>379.189667</ele>
        <time>2018-08-20T08:12:02Z</time>
      </trkpt>
      <trkpt lat="47.23623" lon="4.6229">
        <ele>379.189667</ele>
        <time>2018-08-20T08:12:03Z</time>
      </trkpt>
      <trkpt lat="47.23626" lon="4.62295">
        <ele>379.212524</ele>
        <time>2018-08-20T08:12:04Z</time>
      </trkpt>
      <trkpt lat="47.23629" lon="4.623">
        <ele>379.212524</ele>
        <time>2018-08-20T08:12:05Z</time>
      </trkpt>
      <trkpt lat="47.23631" lon="4.62304">
        <ele>379.312103</ele>
        <time>2018-08-20T08:12:06Z</time>
      </trkpt>
      <trkpt lat="47.23634" lon="4.62307">
        <ele>379.473297</ele>
        <time>2018-08-20T08:12:07Z</time>
      </trkpt>
      <trkpt lat="47.23638" lon="4.62311">
        <ele>379.674408</ele>
        <time>2018-08-20T08:12:08Z</time>
      </trkpt>
      <trkpt lat="47.23641" lon="4.62315">
        <ele>379.863525</ele>
        <time>2018-08-20T08:12:09Z</time>
      </trkpt>
      <trkpt lat="47.23644" lon="4.62321">
        <ele>380.042389</ele>
        <time>2018-08-20T08:12:10Z</time>
      </trkpt>
      <trkpt lat="47.23647" lon="4.62326">
        <ele>380.205902</ele>
        <time>2018-08-20T08:12:11Z</time>
      </trkpt>
      <trkpt lat="47.23651" lon="4.62332">
        <ele>380.366241</ele>
        <time>2018-08-20T08:12:12Z</time>
      </trkpt>
      <trkpt lat="47.23654" lon="4.62337">
        <ele>380.528961</ele>
        <time>2018-08-20T08:12:13Z</time>
      </trkpt>
      <trkpt lat="47.23658" lon="4.62342">
        <ele>380.668579</ele>
        <time>2018-08-20T08:12:14Z</time>
      </trkpt>
      <trkpt lat="47.23661" lon="4.62347">
        <ele>380.825409</ele>
        <time>2018-08-20T08:12:15Z</time>
      </trkpt>
      <trkpt lat="47.23665" lon="4.62352">
        <ele>380.995209</ele>
        <time>2018-08-20T08:12:16Z</time>
      </trkpt>
      <trkpt lat="47.23668" lon="4.62358">
        <ele>381.18396</ele>
        <time>2018-08-20T08:12:17Z</time>
      </trkpt>
      <trkpt lat="47.23671" lon="4.62364">
        <ele>381.381622</ele>
        <time>2018-08-20T08:12:18Z</time>
      </trkpt>
      <trkpt lat="47.23675" lon="4.6237">
        <ele>381.563599</ele>
        <time>2018-08-20T08:12:19Z</time>
      </trkpt>
      <trkpt lat="47.23678" lon="4.62376">
        <ele>381.563599</ele>
        <time>2018-08-20T08:12:20Z</time>
      </trkpt>
      <trkpt lat="47.23682" lon="4.62382">
        <ele>381.736938</ele>
        <time>2018-08-20T08:12:21Z</time>
      </trkpt>
      <trkpt lat="47.23685" lon="4.62389">
        <ele>381.911011</ele>
        <time>2018-08-20T08:12:22Z</time>
      </trkpt>
      <trkpt lat="47.23688" lon="4.62395">
        <ele>382.133453</ele>
        <time>2018-08-20T08:12:23Z</time>
      </trkpt>
      <trkpt lat="47.2369" lon="4.62401">
        <ele>382.372192</ele>
        <time>2018-08-20T08:12:24Z</time>
      </trkpt>
      <trkpt lat="47.23694" lon="4.62406">
        <ele>382.627411</ele>
        <time>2018-08-20T08:12:25Z</time>
      </trkpt>
      <trkpt lat="47.23697" lon="4.62412">
        <ele>382.895599</ele>
        <time>2018-08-20T08:12:26Z</time>
      </trkpt>
      <trkpt lat="47.237" lon="4.62417">
        <ele>383.15274</ele>
        <time>2018-08-20T08:12:27Z</time>
      </trkpt>
      <trkpt lat="47.23703" lon="4.62422">
        <ele>383.390411</ele>
        <time>2018-08-20T08:12:28Z</time>
      </trkpt>
      <trkpt lat="47.23705" lon="4.62428">
        <ele>383.567627</ele>
        <time>2018-08-20T08:12:29Z</time>
      </trkpt>
      <trkpt lat="47.23708" lon="4.62433">
        <ele>383.709106</ele>
        <time>2018-08-20T08:12:30Z</time>
      </trkpt>
      <trkpt lat="47.2371" lon="4.62439">
        <ele>383.709106</ele>
        <time>2018-08-20T08:12:31Z</time>
      </trkpt>
      <trkpt lat="47.23713" lon="4.62444">
        <ele>383.817535</ele>
        <time>2018-08-20T08:12:32Z</time>
      </trkpt>
      <trkpt lat="47.23715" lon="4.6245">
        <ele>383.915436</ele>
        <time>2018-08-20T08:12:33Z</time>
      </trkpt>
      <trkpt lat="47.23717" lon="4.62454">
        <ele>384.037384</ele>
        <time>2018-08-20T08:12:34Z</time>
      </trkpt>
      <trkpt lat="47.23719" lon="4.62458">
        <ele>384.157837</ele>
        <time>2018-08-20T08:12:35Z</time>
      </trkpt>
      <trkpt lat="47.2372" lon="4.62461">
        <ele>384.286743</ele>
        <time>2018-08-20T08:12:36Z</time>
      </trkpt>
      <trkpt lat="47.23721" lon="4.62464">
        <ele>384.429443</ele>
        <time>2018-08-20T08:12:37Z</time>
      </trkpt>
      <trkpt lat="47.23722" lon="4.62467">
        <ele>384.577179</ele>
        <time>2018-08-20T08:12:38Z</time>
      </trkpt>
      <trkpt lat="47.23723" lon="4.62471">
        <ele>384.710846</ele>
        <time>2018-08-20T08:12:39Z</time>
      </trkpt>
      <trkpt lat="47.23724" lon="4.62474">
        <ele>384.808563</ele>
        <time>2018-08-20T08:12:40Z</time>
      </trkpt>
      <trkpt lat="47.23725" lon="4.62476">
        <ele>384.907227</ele>
        <time>2018-08-20T08:12:41Z</time>
      </trkpt>
      <trkpt lat="47.23726" lon="4.62479">
        <ele>385.005737</ele>
        <time>2018-08-20T08:12:42Z</time>
      </trkpt>
      <trkpt lat="47.23727" lon="4.6248">
        <ele>385.099487</ele>
        <time>2018-08-20T08:12:43Z</time>
      </trkpt>
      <trkpt lat="47.23729" lon="4.62482">
        <ele>385.168427</ele>
        <time>2018-08-20T08:12:44Z</time>
      </trkpt>
      <trkpt lat="47.23731" lon="4.62485">
        <ele>385.213531</ele>
        <time>2018-08-20T08:12:45Z</time>
      </trkpt>
      <trkpt lat="47.23731" lon="4.6249">
        <ele>385.249512</ele>
        <time>2018-08-20T08:12:46Z</time>
      </trkpt>
      <trkpt lat="47.2373" lon="4.62494">
        <ele>385.249512</ele>
        <time>2018-08-20T08:12:47Z</time>
      </trkpt>
      <trkpt lat="47.23729" lon="4.62499">
        <ele>385.292358</ele>
        <time>2018-08-20T08:12:48Z</time>
      </trkpt>
      <trkpt lat="47.23727" lon="4.62504">
        <ele>385.324677</ele>
        <time>2018-08-20T08:12:49Z</time>
      </trkpt>
      <trkpt lat="47.23726" lon="4.62509">
        <ele>385.432739</ele>
        <time>2018-08-20T08:12:50Z</time>
      </trkpt>
      <trkpt lat="47.23724" lon="4.62515">
        <ele>385.616913</ele>
        <time>2018-08-20T08:12:51Z</time>
      </trkpt>
      <trkpt lat="47.23723" lon="4.6252">
        <ele>385.873779</ele>
        <time>2018-08-20T08:12:52Z</time>
      </trkpt>
      <trkpt lat="47.23721" lon="4.62525">
        <ele>386.227386</ele>
        <time>2018-08-20T08:12:53Z</time>
      </trkpt>
      <trkpt lat="47.2372" lon="4.6253">
        <ele>386.68045</ele>
        <time>2018-08-20T08:12:54Z</time>
      </trkpt>
      <trkpt lat="47.23719" lon="4.62535">
        <ele>387.246826</ele>
        <time>2018-08-20T08:12:55Z</time>
      </trkpt>
      <trkpt lat="47.23718" lon="4.62541">
        <ele>387.246826</ele>
        <time>2018-08-20T08:12:56Z</time>
      </trkpt>
      <trkpt lat="47.23717" lon="4.62546">
        <ele>387.809174</ele>
        <time>2018-08-20T08:12:57Z</time>
      </trkpt>
      <trkpt lat="47.23717" lon="4.62552">
        <ele>388.326508</ele>
        <time>2018-08-20T08:12:58Z</time>
      </trkpt>
      <trkpt lat="47.23716" lon="4.62558">
        <ele>388.83432</ele>
        <time>2018-08-20T08:12:59Z</time>
      </trkpt>
      <trkpt lat="47.23716" lon="4.62564">
        <ele>389.271454</ele>
        <time>2018-08-20T08:13:00Z</time>
      </trkpt>
      <trkpt lat="47.23716" lon="4.62571">
        <ele>389.628784</ele>
        <time>2018-08-20T08:13:01Z</time>
      </trkpt>
      <trkpt lat="47.23715" lon="4.62578">
        <ele>389.913544</ele>
        <time>2018-08-20T08:13:02Z</time>
      </trkpt>
      <trkpt lat="47.23714" lon="4.62584">
        <ele>390.129791</ele>
        <time>2018-08-20T08:13:03Z</time>
      </trkpt>
      <trkpt lat="47.23713" lon="4.62591">
        <ele>390.333588</ele>
        <time>2018-08-20T08:13:04Z</time>
      </trkpt>
      <trkpt lat="47.23713" lon="4.62599">
        <ele>390.485992</ele>
        <time>2018-08-20T08:13:05Z</time>
      </trkpt>
      <trkpt lat="47.23713" lon="4.62606">
        <ele>390.642456</ele>
        <time>2018-08-20T08:13:06Z</time>
      </trkpt>
      <trkpt lat="47.23713" lon="4.62614">
        <ele>390.775543</ele>
        <time>2018-08-20T08:13:07Z</time>
      </trkpt>
      <trkpt lat="47.23713" lon="4.62622">
        <ele>390.842255</ele>
        <time>2018-08-20T08:13:08Z</time>
      </trkpt>
      <trkpt lat="47.23713" lon="4.6263">
        <ele>390.842255</ele>
        <time>2018-08-20T08:13:09Z</time>
      </trkpt>
      <trkpt lat="47.23714" lon="4.62639">
        <ele>390.842255</ele>
        <time>2018-08-20T08:13:10Z</time>
      </trkpt>
      <trkpt lat="47.23715" lon="4.62647">
        <ele>390.839813</ele>
        <time>2018-08-20T08:13:11Z</time>
      </trkpt>
      <trkpt lat="47.23716" lon="4.62656">
        <ele>390.762665</ele>
        <time>2018-08-20T08:13:12Z</time>
      </trkpt>
      <trkpt lat="47.23716" lon="4.62666">
        <ele>390.762665</ele>
        <time>2018-08-20T08:13:13Z</time>
      </trkpt>
      <trkpt lat="47.23717" lon="4.62675">
        <ele>390.606415</ele>
        <time>2018-08-20T08:13:14Z</time>
      </trkpt>
      <trkpt lat="47.23717" lon="4.62684">
        <ele>390.356201</ele>
        <time>2018-08-20T08:13:15Z</time>
      </trkpt>
      <trkpt lat="47.23718" lon="4.62693">
        <ele>389.995514</ele>
        <time>2018-08-20T08:13:16Z</time>
      </trkpt>
      <trkpt lat="47.23718" lon="4.62701">
        <ele>389.611786</ele>
        <time>2018-08-20T08:13:17Z</time>
      </trkpt>
      <trkpt lat="47.23719" lon="4.6271">
        <ele>389.222168</ele>
        <time>2018-08-20T08:13:18Z</time>
      </trkpt>
      <trkpt lat="47.23719" lon="4.62719">
        <ele>388.832245</ele>
        <time>2018-08-20T08:13:19Z</time>
      </trkpt>
      <trkpt lat="47.23719" lon="4.62728">
        <ele>388.439178</ele>
        <time>2018-08-20T08:13:20Z</time>
      </trkpt>
      <trkpt lat="47.23718" lon="4.62736">
        <ele>388.056885</ele>
        <time>2018-08-20T08:13:21Z</time>
      </trkpt>
      <trkpt lat="47.23716" lon="4.62745">
        <ele>387.740234</ele>
        <time>2018-08-20T08:13:22Z</time>
      </trkpt>
      <trkpt lat="47.23714" lon="4.62754">
        <ele>387.451141</ele>
        <time>2018-08-20T08:13:23Z</time>
      </trkpt>
      <trkpt lat="47.23713" lon="4.62762">
        <ele>387.185333</ele>
        <time>2018-08-20T08:13:24Z</time>
      </trkpt>
      <trkpt lat="47.2371" lon="4.6277">
        <ele>386.944855</ele>
        <time>2018-08-20T08:13:25Z</time>
      </trkpt>
      <trkpt lat="47.23708" lon="4.62778">
        <ele>386.944855</ele>
        <time>2018-08-20T08:13:26Z</time>
      </trkpt>
      <trkpt lat="47.23706" lon="4.62785">
        <ele>386.738159</ele>
        <time>2018-08-20T08:13:27Z</time>
      </trkpt>
      <trkpt lat="47.23703" lon="4.62792">
        <ele>386.563354</ele>
        <time>2018-08-20T08:13:28Z</time>
      </trkpt>
      <trkpt lat="47.23701" lon="4.62799">
        <ele>386.401276</ele>
        <time>2018-08-20T08:13:29Z</time>
      </trkpt>
      <trkpt lat="47.23698" lon="4.62806">
        <ele>386.246094</ele>
        <time>2018-08-20T08:13:30Z</time>
      </trkpt>
      <trkpt lat="47.23697" lon="4.62812">
        <ele>386.246094</ele>
        <time>2018-08-20T08:13:31Z</time>
      </trkpt>
      <trkpt lat="47.23695" lon="4.62817">
        <ele>386.092285</ele>
        <time>2018-08-20T08:13:32Z</time>
      </trkpt>
      <trkpt lat="47.23695" lon="4.62823">
        <ele>385.930206</ele>
        <time>2018-08-20T08:13:33Z</time>
      </trkpt>
      <trkpt lat="47.23697" lon="4.62828">
        <ele>385.697601</ele>
        <time>2018-08-20T08:13:34Z</time>
      </trkpt>
      <trkpt lat="47.237" lon="4.62832">
        <ele>385.435333</ele>
        <time>2018-08-20T08:13:35Z</time>
      </trkpt>
      <trkpt lat="47.23703" lon="4.62835">
        <ele>385.435333</ele>
        <time>2018-08-20T08:13:36Z</time>
      </trkpt>
      <trkpt lat="47.23706" lon="4.62837">
        <ele>385.141998</ele>
        <time>2018-08-20T08:13:37Z</time>
      </trkpt>
      <trkpt lat="47.2371" lon="4.62838">
        <ele>384.80896</ele>
        <time>2018-08-20T08:13:38Z</time>
      </trkpt>
      <trkpt lat="47.23711" lon="4.6284">
        <ele>384.390778</ele>
        <time>2018-08-20T08:13:39Z</time>
      </trkpt>
      <trkpt lat="47.23712" lon="4.62844">
        <ele>383.964264</ele>
        <time>2018-08-20T08:13:40Z</time>
      </trkpt>
      <trkpt lat="47.23712" lon="4.62848">
        <ele>383.59433</ele>
        <time>2018-08-20T08:13:41Z</time>
      </trkpt>
      <trkpt lat="47.23712" lon="4.62853">
        <ele>383.219696</ele>
        <time>2018-08-20T08:13:42Z</time>
      </trkpt>
      <trkpt lat="47.23711" lon="4.62859">
        <ele>382.870026</ele>
        <time>2018-08-20T08:13:43Z</time>
      </trkpt>
      <trkpt lat="47.23712" lon="4.62865">
        <ele>382.549896</ele>
        <time>2018-08-20T08:13:44Z</time>
      </trkpt>
      <trkpt lat="47.23713" lon="4.6287">
        <ele>382.296875</ele>
        <time>2018-08-20T08:13:45Z</time>
      </trkpt>
      <trkpt lat="47.23713" lon="4.62876">
        <ele>382.031494</ele>
        <time>2018-08-20T08:13:46Z</time>
      </trkpt>
      <trkpt lat="47.23713" lon="4.62882">
        <ele>381.744141</ele>
        <time>2018-08-20T08:13:47Z</time>
      </trkpt>
      <trkpt lat="47.23713" lon="4.62888">
        <ele>381.449463</ele>
        <time>2018-08-20T08:13:48Z</time>
      </trkpt>
      <trkpt lat="47.23713" lon="4.62894">
        <ele>381.13266</ele>
        <time>2018-08-20T08:13:49Z</time>
      </trkpt>
      <trkpt lat="47.23712" lon="4.62901">
        <ele>380.794922</ele>
        <time>2018-08-20T08:13:50Z</time>
      </trkpt>
      <trkpt lat="47.23711" lon="4.62907">
        <ele>380.446899</ele>
        <time>2018-08-20T08:13:51Z</time>
      </trkpt>
      <trkpt lat="47.2371" lon="4.62912">
        <ele>380.097931</ele>
        <time>2018-08-20T08:13:52Z</time>
      </trkpt>
      <trkpt lat="47.23709" lon="4.62916">
        <ele>379.751678</ele>
        <time>2018-08-20T08:13:53Z</time>
      </trkpt>
      <trkpt lat="47.23708" lon="4.6292">
        <ele>379.751678</ele>
        <time>2018-08-20T08:13:54Z</time>
      </trkpt>
      <trkpt lat="47.23706" lon="4.62923">
        <ele>379.418182</ele>
        <time>2018-08-20T08:13:55Z</time>
      </trkpt>
      <trkpt lat="47.23705" lon="4.62926">
        <ele>379.106934</ele>
        <time>2018-08-20T08:13:56Z</time>
      </trkpt>
      <trkpt lat="47.23705" lon="4.62928">
        <ele>378.783813</ele>
        <time>2018-08-20T08:13:57Z</time>
      </trkpt>
      <trkpt lat="47.23705" lon="4.6293">
        <ele>378.490509</ele>
        <time>2018-08-20T08:13:58Z</time>
      </trkpt>
      <trkpt lat="47.23706" lon="4.62932">
        <ele>378.490509</ele>
        <time>2018-08-20T08:13:59Z</time>
      </trkpt>
      <trkpt lat="47.23706" lon="4.62933">
        <ele>378.226227</ele>
        <time>2018-08-20T08:14:00Z</time>
      </trkpt>
      <trkpt lat="47.23705" lon="4.62936">
        <ele>377.993866</ele>
        <time>2018-08-20T08:14:01Z</time>
      </trkpt>
      <trkpt lat="47.23705" lon="4.62939">
        <ele>377.770355</ele>
        <time>2018-08-20T08:14:02Z</time>
      </trkpt>
      <trkpt lat="47.23706" lon="4.62943">
        <ele>377.572357</ele>
        <time>2018-08-20T08:14:03Z</time>
      </trkpt>
      <trkpt lat="47.23709" lon="4.62947">
        <ele>377.420074</ele>
        <time>2018-08-20T08:14:04Z</time>
      </trkpt>
      <trkpt lat="47.23711" lon="4.62952">
        <ele>377.420074</ele>
        <time>2018-08-20T08:14:05Z</time>
      </trkpt>
      <trkpt lat="47.23714" lon="4.62956">
        <ele>377.257446</ele>
        <time>2018-08-20T08:14:06Z</time>
      </trkpt>
      <trkpt lat="47.23717" lon="4.6296">
        <ele>377.07193</ele>
        <time>2018-08-20T08:14:07Z</time>
      </trkpt>
      <trkpt lat="47.23719" lon="4.62964">
        <ele>376.787445</ele>
        <time>2018-08-20T08:14:08Z</time>
      </trkpt>
      <trkpt lat="47.23722" lon="4.62967">
        <ele>376.476532</ele>
        <time>2018-08-20T08:14:09Z</time>
      </trkpt>
      <trkpt lat="47.23724" lon="4.62971">
        <ele>376.120239</ele>
        <time>2018-08-20T08:14:10Z</time>
      </trkpt>
      <trkpt lat="47.23726" lon="4.62976">
        <ele>375.739594</ele>
        <time>2018-08-20T08:14:11Z</time>
      </trkpt>
      <trkpt lat="47.23729" lon="4.62981">
        <ele>375.345551</ele>
        <time>2018-08-20T08:14:12Z</time>
      </trkpt>
      <trkpt lat="47.23731" lon="4.62986">
        <ele>374.944305</ele>
        <time>2018-08-20T08:14:13Z</time>
      </trkpt>
      <trkpt lat="47.23732" lon="4.62991">
        <ele>374.606934</ele>
        <time>2018-08-20T08:14:14Z</time>
      </trkpt>
      <trkpt lat="47.23735" lon="4.62996">
        <ele>374.27652</ele>
        <time>2018-08-20T08:14:15Z</time>
      </trkpt>
      <trkpt lat="47.23737" lon="4.63">
        <ele>373.950043</ele>
        <time>2018-08-20T08:14:16Z</time>
      </trkpt>
      <trkpt lat="47.23739" lon="4.63005">
        <ele>373.624023</ele>
        <time>2018-08-20T08:14:17Z</time>
      </trkpt>
      <trkpt lat="47.23741" lon="4.6301">
        <ele>373.302979</ele>
        <time>2018-08-20T08:14:18Z</time>
      </trkpt>
      <trkpt lat="47.23743" lon="4.63014">
        <ele>372.991058</ele>
        <time>2018-08-20T08:14:19Z</time>
      </trkpt>
      <trkpt lat="47.23745" lon="4.63019">
        <ele>372.692535</ele>
        <time>2018-08-20T08:14:20Z</time>
      </trkpt>
      <trkpt lat="47.23748" lon="4.63024">
        <ele>372.416107</ele>
        <time>2018-08-20T08:14:21Z</time>
      </trkpt>
      <trkpt lat="47.2375" lon="4.63029">
        <ele>372.164032</ele>
        <time>2018-08-20T08:14:22Z</time>
      </trkpt>
      <trkpt lat="47.23752" lon="4.63034">
        <ele>371.93045</ele>
        <time>2018-08-20T08:14:23Z</time>
      </trkpt>
      <trkpt lat="47.23755" lon="4.6304">
        <ele>371.711029</ele>
        <time>2018-08-20T08:14:24Z</time>
      </trkpt>
      <trkpt lat="47.23757" lon="4.63045">
        <ele>371.505371</ele>
        <time>2018-08-20T08:14:25Z</time>
      </trkpt>
      <trkpt lat="47.23759" lon="4.6305">
        <ele>371.505371</ele>
        <time>2018-08-20T08:14:26Z</time>
      </trkpt>
      <trkpt lat="47.23761" lon="4.63056">
        <ele>371.311127</ele>
        <time>2018-08-20T08:14:27Z</time>
      </trkpt>
      <trkpt lat="47.23764" lon="4.63061">
        <ele>371.122894</ele>
        <time>2018-08-20T08:14:28Z</time>
      </trkpt>
      <trkpt lat="47.23766" lon="4.63067">
        <ele>370.911774</ele>
        <time>2018-08-20T08:14:29Z</time>
      </trkpt>
      <trkpt lat="47.23769" lon="4.63072">
        <ele>370.707855</ele>
        <time>2018-08-20T08:14:30Z</time>
      </trkpt>
      <trkpt lat="47.23771" lon="4.63078">
        <ele>370.512482</ele>
        <time>2018-08-20T08:14:31Z</time>
      </trkpt>
      <trkpt lat="47.23774" lon="4.63083">
        <ele>370.512482</ele>
        <time>2018-08-20T08:14:32Z</time>
      </trkpt>
      <trkpt lat="47.23777" lon="4.63089">
        <ele>370.325775</ele>
        <time>2018-08-20T08:14:33Z</time>
      </trkpt>
      <trkpt lat="47.2378" lon="4.63095">
        <ele>370.151611</ele>
        <time>2018-08-20T08:14:34Z</time>
      </trkpt>
      <trkpt lat="47.23782" lon="4.631">
        <ele>369.979401</ele>
        <time>2018-08-20T08:14:35Z</time>
      </trkpt>
      <trkpt lat="47.23785" lon="4.63106">
        <ele>369.848358</ele>
        <time>2018-08-20T08:14:36Z</time>
      </trkpt>
      <trkpt lat="47.23787" lon="4.63113">
        <ele>369.723145</ele>
        <time>2018-08-20T08:14:37Z</time>
      </trkpt>
      <trkpt lat="47.2379" lon="4.63119">
        <ele>369.601807</ele>
        <time>2018-08-20T08:14:38Z</time>
      </trkpt>
      <trkpt lat="47.23792" lon="4.63125">
        <ele>369.483551</ele>
        <time>2018-08-20T08:14:39Z</time>
      </trkpt>
      <trkpt lat="47.23795" lon="4.63131">
        <ele>369.365723</ele>
        <time>2018-08-20T08:14:40Z</time>
      </trkpt>
      <trkpt lat="47.23798" lon="4.63137">
        <ele>369.258057</ele>
        <time>2018-08-20T08:14:41Z</time>
      </trkpt>
      <trkpt lat="47.23801" lon="4.63143">
        <ele>369.148102</ele>
        <time>2018-08-20T08:14:42Z</time>
      </trkpt>
      <trkpt lat="47.23803" lon="4.63149">
        <ele>369.044952</ele>
        <time>2018-08-20T08:14:43Z</time>
      </trkpt>
      <trkpt lat="47.23806" lon="4.63155">
        <ele>368.947754</ele>
        <time>2018-08-20T08:14:44Z</time>
      </trkpt>
      <trkpt lat="47.23809" lon="4.63161">
        <ele>368.8573</ele>
        <time>2018-08-20T08:14:45Z</time>
      </trkpt>
      <trkpt lat="47.23812" lon="4.63168">
        <ele>368.758423</ele>
        <time>2018-08-20T08:14:46Z</time>
      </trkpt>
      <trkpt lat="47.23815" lon="4.63174">
        <ele>368.651367</ele>
        <time>2018-08-20T08:14:47Z</time>
      </trkpt>
      <trkpt lat="47.23817" lon="4.6318">
        <ele>368.538239</ele>
        <time>2018-08-20T08:14:48Z</time>
      </trkpt>
      <trkpt lat="47.2382" lon="4.63186">
        <ele>368.41626</ele>
        <time>2018-08-20T08:14:49Z</time>
      </trkpt>
      <trkpt lat="47.23823" lon="4.63192">
        <ele>368.41626</ele>
        <time>2018-08-20T08:14:50Z</time>
      </trkpt>
      <trkpt lat="47.23826" lon="4.63199">
        <ele>368.28775</ele>
        <time>2018-08-20T08:14:51Z</time>
      </trkpt>
      <trkpt lat="47.23829" lon="4.63205">
        <ele>368.15332</ele>
        <time>2018-08-20T08:14:52Z</time>
      </trkpt>
      <trkpt lat="47.23832" lon="4.63211">
        <ele>368.008301</ele>
        <time>2018-08-20T08:14:53Z</time>
      </trkpt>
      <trkpt lat="47.23835" lon="4.63217">
        <ele>367.873779</ele>
        <time>2018-08-20T08:14:54Z</time>
      </trkpt>
      <trkpt lat="47.23837" lon="4.63223">
        <ele>367.746704</ele>
        <time>2018-08-20T08:14:55Z</time>
      </trkpt>
      <trkpt lat="47.2384" lon="4.6323">
        <ele>367.627594</ele>
        <time>2018-08-20T08:14:56Z</time>
      </trkpt>
      <trkpt lat="47.23843" lon="4.63236">
        <ele>367.505615</ele>
        <time>2018-08-20T08:14:57Z</time>
      </trkpt>
      <trkpt lat="47.23845" lon="4.63242">
        <ele>367.37793</ele>
        <time>2018-08-20T08:14:58Z</time>
      </trkpt>
      <trkpt lat="47.23848" lon="4.63248">
        <ele>367.263062</ele>
        <time>2018-08-20T08:14:59Z</time>
      </trkpt>
      <trkpt lat="47.2385" lon="4.63253">
        <ele>367.138702</ele>
        <time>2018-08-20T08:15:00Z</time>
      </trkpt>
      <trkpt lat="47.23853" lon="4.63259">
        <ele>367.002686</ele>
        <time>2018-08-20T08:15:01Z</time>
      </trkpt>
      <trkpt lat="47.23856" lon="4.63265">
        <ele>366.848969</ele>
        <time>2018-08-20T08:15:02Z</time>
      </trkpt>
      <trkpt lat="47.23859" lon="4.63271">
        <ele>366.848969</ele>
        <time>2018-08-20T08:15:03Z</time>
      </trkpt>
      <trkpt lat="47.23862" lon="4.63278">
        <ele>366.685913</ele>
        <time>2018-08-20T08:15:04Z</time>
      </trkpt>
      <trkpt lat="47.23864" lon="4.63284">
        <ele>366.516998</ele>
        <time>2018-08-20T08:15:05Z</time>
      </trkpt>
      <trkpt lat="47.23867" lon="4.63291">
        <ele>366.312653</ele>
        <time>2018-08-20T08:15:06Z</time>
      </trkpt>
      <trkpt lat="47.23871" lon="4.63296">
        <ele>366.103668</ele>
        <time>2018-08-20T08:15:07Z</time>
      </trkpt>
      <trkpt lat="47.23876" lon="4.633">
        <ele>365.897369</ele>
        <time>2018-08-20T08:15:08Z</time>
      </trkpt>
      <trkpt lat="47.2388" lon="4.63304">
        <ele>365.707428</ele>
        <time>2018-08-20T08:15:09Z</time>
      </trkpt>
      <trkpt lat="47.23885" lon="4.63307">
        <ele>365.547516</ele>
        <time>2018-08-20T08:15:10Z</time>
      </trkpt>
      <trkpt lat="47.2389" lon="4.63311">
        <ele>365.424957</ele>
        <time>2018-08-20T08:15:11Z</time>
      </trkpt>
      <trkpt lat="47.23895" lon="4.63314">
        <ele>365.368652</ele>
        <time>2018-08-20T08:15:12Z</time>
      </trkpt>
      <trkpt lat="47.23899" lon="4.63318">
        <ele>365.346832</ele>
        <time>2018-08-20T08:15:13Z</time>
      </trkpt>
      <trkpt lat="47.23904" lon="4.63321">
        <ele>365.346832</ele>
        <time>2018-08-20T08:15:14Z</time>
      </trkpt>
      <trkpt lat="47.23908" lon="4.63325">
        <ele>365.346832</ele>
        <time>2018-08-20T08:15:15Z</time>
      </trkpt>
      <trkpt lat="47.23913" lon="4.63329">
        <ele>365.354156</ele>
        <time>2018-08-20T08:15:16Z</time>
      </trkpt>
      <trkpt lat="47.23918" lon="4.63332">
        <ele>365.3815</ele>
        <time>2018-08-20T08:15:17Z</time>
      </trkpt>
      <trkpt lat="47.23922" lon="4.63336">
        <ele>365.415527</ele>
        <time>2018-08-20T08:15:18Z</time>
      </trkpt>
      <trkpt lat="47.23927" lon="4.63339">
        <ele>365.438721</ele>
        <time>2018-08-20T08:15:19Z</time>
      </trkpt>
      <trkpt lat="47.23932" lon="4.63343">
        <ele>365.451019</ele>
        <time>2018-08-20T08:15:20Z</time>
      </trkpt>
      <trkpt lat="47.23937" lon="4.63347">
        <ele>365.45166</ele>
        <time>2018-08-20T08:15:21Z</time>
      </trkpt>
      <trkpt lat="47.23941" lon="4.63351">
        <ele>365.45166</ele>
        <time>2018-08-20T08:15:22Z</time>
      </trkpt>
      <trkpt lat="47.23946" lon="4.63355">
        <ele>365.45166</ele>
        <time>2018-08-20T08:15:23Z</time>
      </trkpt>
      <trkpt lat="47.2395" lon="4.63358">
        <ele>365.45166</ele>
        <time>2018-08-20T08:15:24Z</time>
      </trkpt>
      <trkpt lat="47.23954" lon="4.63362">
        <ele>365.438965</ele>
        <time>2018-08-20T08:15:25Z</time>
      </trkpt>
      <trkpt lat="47.23959" lon="4.63365">
        <ele>365.40567</ele>
        <time>2018-08-20T08:15:26Z</time>
      </trkpt>
      <trkpt lat="47.23963" lon="4.63369">
        <ele>365.361328</ele>
        <time>2018-08-20T08:15:27Z</time>
      </trkpt>
      <trkpt lat="47.23967" lon="4.63372">
        <ele>365.313568</ele>
        <time>2018-08-20T08:15:28Z</time>
      </trkpt>
      <trkpt lat="47.23972" lon="4.63375">
        <ele>365.264557</ele>
        <time>2018-08-20T08:15:29Z</time>
      </trkpt>
      <trkpt lat="47.23976" lon="4.63378">
        <ele>365.216888</ele>
        <time>2018-08-20T08:15:30Z</time>
      </trkpt>
      <trkpt lat="47.2398" lon="4.63382">
        <ele>365.216888</ele>
        <time>2018-08-20T08:15:31Z</time>
      </trkpt>
      <trkpt lat="47.23985" lon="4.63385">
        <ele>365.171051</ele>
        <time>2018-08-20T08:15:32Z</time>
      </trkpt>
      <trkpt lat="47.2399" lon="4.63389">
        <ele>365.135162</ele>
        <time>2018-08-20T08:15:33Z</time>
      </trkpt>
      <trkpt lat="47.23994" lon="4.63392">
        <ele>365.093903</ele>
        <time>2018-08-20T08:15:34Z</time>
      </trkpt>
      <trkpt lat="47.23999" lon="4.63396">
        <ele>365.055573</ele>
        <time>2018-08-20T08:15:35Z</time>
      </trkpt>
      <trkpt lat="47.24003" lon="4.634">
        <ele>365.021729</ele>
        <time>2018-08-20T08:15:36Z</time>
      </trkpt>
      <trkpt lat="47.24007" lon="4.63403">
        <ele>364.989838</ele>
        <time>2018-08-20T08:15:37Z</time>
      </trkpt>
      <trkpt lat="47.24012" lon="4.63407">
        <ele>364.958374</ele>
        <time>2018-08-20T08:15:38Z</time>
      </trkpt>
      <trkpt lat="47.24016" lon="4.63411">
        <ele>364.925507</ele>
        <time>2018-08-20T08:15:39Z</time>
      </trkpt>
      <trkpt lat="47.24021" lon="4.63414">
        <ele>364.897858</ele>
        <time>2018-08-20T08:15:40Z</time>
      </trkpt>
      <trkpt lat="47.24025" lon="4.63418">
        <ele>364.866241</ele>
        <time>2018-08-20T08:15:41Z</time>
      </trkpt>
      <trkpt lat="47.2403" lon="4.63422">
        <ele>364.827148</ele>
        <time>2018-08-20T08:15:42Z</time>
      </trkpt>
      <trkpt lat="47.24034" lon="4.63425">
        <ele>364.780121</ele>
        <time>2018-08-20T08:15:43Z</time>
      </trkpt>
      <trkpt lat="47.24038" lon="4.63429">
        <ele>364.725006</ele>
        <time>2018-08-20T08:15:44Z</time>
      </trkpt>
      <trkpt lat="47.24043" lon="4.63432">
        <ele>364.667877</ele>
        <time>2018-08-20T08:15:45Z</time>
      </trkpt>
      <trkpt lat="47.24047" lon="4.63435">
        <ele>364.609985</ele>
        <time>2018-08-20T08:15:46Z</time>
      </trkpt>
      <trkpt lat="47.24051" lon="4.63439">
        <ele>364.553253</ele>
        <time>2018-08-20T08:15:47Z</time>
      </trkpt>
      <trkpt lat="47.24055" lon="4.63443">
        <ele>364.500488</ele>
        <time>2018-08-20T08:15:48Z</time>
      </trkpt>
      <trkpt lat="47.24059" lon="4.63447">
        <ele>364.453857</ele>
        <time>2018-08-20T08:15:49Z</time>
      </trkpt>
      <trkpt lat="47.24064" lon="4.63451">
        <ele>364.41687</ele>
        <time>2018-08-20T08:15:50Z</time>
      </trkpt>
      <trkpt lat="47.24068" lon="4.63455">
        <ele>364.38443</ele>
        <time>2018-08-20T08:15:51Z</time>
      </trkpt>
      <trkpt lat="47.24073" lon="4.63458">
        <ele>364.353149</ele>
        <time>2018-08-20T08:15:52Z</time>
      </trkpt>
      <trkpt lat="47.24078" lon="4.63462">
        <ele>364.324982</ele>
        <time>2018-08-20T08:15:53Z</time>
      </trkpt>
      <trkpt lat="47.24082" lon="4.63466">
        <ele>364.300446</ele>
        <time>2018-08-20T08:15:54Z</time>
      </trkpt>
      <trkpt lat="47.24087" lon="4.63469">
        <ele>364.276703</ele>
        <time>2018-08-20T08:15:55Z</time>
      </trkpt>
      <trkpt lat="47.24092" lon="4.63473">
        <ele>364.250641</ele>
        <time>2018-08-20T08:15:56Z</time>
      </trkpt>
      <trkpt lat="47.24096" lon="4.63477">
        <ele>364.22226</ele>
        <time>2018-08-20T08:15:57Z</time>
      </trkpt>
      <trkpt lat="47.24101" lon="4.6348">
        <ele>364.192047</ele>
        <time>2018-08-20T08:15:58Z</time>
      </trkpt>
      <trkpt lat="47.24106" lon="4.63483">
        <ele>364.192047</ele>
        <time>2018-08-20T08:15:59Z</time>
      </trkpt>
      <trkpt lat="47.2411" lon="4.63486">
        <ele>364.157074</ele>
        <time>2018-08-20T08:16:00Z</time>
      </trkpt>
      <trkpt lat="47.24115" lon="4.6349">
        <ele>364.114838</ele>
        <time>2018-08-20T08:16:01Z</time>
      </trkpt>
      <trkpt lat="47.2412" lon="4.63494">
        <ele>364.060883</ele>
        <time>2018-08-20T08:16:02Z</time>
      </trkpt>
      <trkpt lat="47.24124" lon="4.63497">
        <ele>364.001556</ele>
        <time>2018-08-20T08:16:03Z</time>
      </trkpt>
      <trkpt lat="47.24129" lon="4.63501">
        <ele>363.932129</ele>
        <time>2018-08-20T08:16:04Z</time>
      </trkpt>
      <trkpt lat="47.24133" lon="4.63505">
        <ele>363.85437</ele>
        <time>2018-08-20T08:16:05Z</time>
      </trkpt>
      <trkpt lat="47.24138" lon="4.63509">
        <ele>363.777557</ele>
        <time>2018-08-20T08:16:06Z</time>
      </trkpt>
      <trkpt lat="47.24143" lon="4.63513">
        <ele>363.703003</ele>
        <time>2018-08-20T08:16:07Z</time>
      </trkpt>
      <trkpt lat="47.24147" lon="4.63517">
        <ele>363.639557</ele>
        <time>2018-08-20T08:16:08Z</time>
      </trkpt>
      <trkpt lat="47.24152" lon="4.63521">
        <ele>363.584381</ele>
        <time>2018-08-20T08:16:09Z</time>
      </trkpt>
      <trkpt lat="47.24157" lon="4.63524">
        <ele>363.540527</ele>
        <time>2018-08-20T08:16:10Z</time>
      </trkpt>
      <trkpt lat="47.24162" lon="4.63528">
        <ele>363.505951</ele>
        <time>2018-08-20T08:16:11Z</time>
      </trkpt>
      <trkpt lat="47.24167" lon="4.63532">
        <ele>363.471527</ele>
        <time>2018-08-20T08:16:12Z</time>
      </trkpt>
      <trkpt lat="47.24171" lon="4.63536">
        <ele>363.439545</ele>
        <time>2018-08-20T08:16:13Z</time>
      </trkpt>
      <trkpt lat="47.24176" lon="4.63539">
        <ele>363.408356</ele>
        <time>2018-08-20T08:16:14Z</time>
      </trkpt>
      <trkpt lat="47.24181" lon="4.63543">
        <ele>363.375977</ele>
        <time>2018-08-20T08:16:15Z</time>
      </trkpt>
      <trkpt lat="47.24186" lon="4.63547">
        <ele>363.343597</ele>
        <time>2018-08-20T08:16:16Z</time>
      </trkpt>
      <trkpt lat="47.2419" lon="4.6355">
        <ele>363.315674</ele>
        <time>2018-08-20T08:16:17Z</time>
      </trkpt>
      <trkpt lat="47.24195" lon="4.63554">
        <ele>363.291016</ele>
        <time>2018-08-20T08:16:18Z</time>
      </trkpt>
      <trkpt lat="47.24199" lon="4.63558">
        <ele>363.270599</ele>
        <time>2018-08-20T08:16:19Z</time>
      </trkpt>
      <trkpt lat="47.24204" lon="4.63562">
        <ele>363.267914</ele>
        <time>2018-08-20T08:16:20Z</time>
      </trkpt>
      <trkpt lat="47.24208" lon="4.63566">
        <ele>363.267914</ele>
        <time>2018-08-20T08:16:21Z</time>
      </trkpt>
      <trkpt lat="47.24213" lon="4.63569">
        <ele>363.267914</ele>
        <time>2018-08-20T08:16:22Z</time>
      </trkpt>
      <trkpt lat="47.24218" lon="4.63573">
        <ele>363.284027</ele>
        <time>2018-08-20T08:16:23Z</time>
      </trkpt>
      <trkpt lat="47.24222" lon="4.63576">
        <ele>363.320557</ele>
        <time>2018-08-20T08:16:24Z</time>
      </trkpt>
      <trkpt lat="47.24227" lon="4.63579">
        <ele>363.376312</ele>
        <time>2018-08-20T08:16:25Z</time>
      </trkpt>
      <trkpt lat="47.24231" lon="4.63582">
        <ele>363.45166</ele>
        <time>2018-08-20T08:16:26Z</time>
      </trkpt>
      <trkpt lat="47.24237" lon="4.63584">
        <ele>363.542969</ele>
        <time>2018-08-20T08:16:27Z</time>
      </trkpt>
      <trkpt lat="47.24242" lon="4.63586">
        <ele>363.639496</ele>
        <time>2018-08-20T08:16:28Z</time>
      </trkpt>
      <trkpt lat="47.24247" lon="4.63589">
        <ele>363.743073</ele>
        <time>2018-08-20T08:16:29Z</time>
      </trkpt>
      <trkpt lat="47.24252" lon="4.63591">
        <ele>363.859528</ele>
        <time>2018-08-20T08:16:30Z</time>
      </trkpt>
      <trkpt lat="47.24257" lon="4.63594">
        <ele>363.987213</ele>
        <time>2018-08-20T08:16:31Z</time>
      </trkpt>
      <trkpt lat="47.24262" lon="4.63597">
        <ele>363.987213</ele>
        <time>2018-08-20T08:16:32Z</time>
      </trkpt>
      <trkpt lat="47.24267" lon="4.63599">
        <ele>364.123627</ele>
        <time>2018-08-20T08:16:33Z</time>
      </trkpt>
      <trkpt lat="47.24271" lon="4.63601">
        <ele>364.266357</ele>
        <time>2018-08-20T08:16:34Z</time>
      </trkpt>
      <trkpt lat="47.24277" lon="4.63604">
        <ele>364.428375</ele>
        <time>2018-08-20T08:16:35Z</time>
      </trkpt>
      <trkpt lat="47.24282" lon="4.63607">
        <ele>364.58194</ele>
        <time>2018-08-20T08:16:36Z</time>
      </trkpt>
      <trkpt lat="47.24287" lon="4.6361">
        <ele>364.719635</ele>
        <time>2018-08-20T08:16:37Z</time>
      </trkpt>
      <trkpt lat="47.24292" lon="4.63612">
        <ele>364.841309</ele>
        <time>2018-08-20T08:16:38Z</time>
      </trkpt>
      <trkpt lat="47.24296" lon="4.63614">
        <ele>364.949066</ele>
        <time>2018-08-20T08:16:39Z</time>
      </trkpt>
      <trkpt lat="47.24302" lon="4.63617">
        <ele>365.046051</ele>
        <time>2018-08-20T08:16:40Z</time>
      </trkpt>
      <trkpt lat="47.24306" lon="4.6362">
        <ele>365.116547</ele>
        <time>2018-08-20T08:16:41Z</time>
      </trkpt>
      <trkpt lat="47.24311" lon="4.63622">
        <ele>365.186035</ele>
        <time>2018-08-20T08:16:42Z</time>
      </trkpt>
      <trkpt lat="47.24316" lon="4.63625">
        <ele>365.255524</ele>
        <time>2018-08-20T08:16:43Z</time>
      </trkpt>
      <trkpt lat="47.24321" lon="4.63627">
        <ele>365.324066</ele>
        <time>2018-08-20T08:16:44Z</time>
      </trkpt>
      <trkpt lat="47.24326" lon="4.6363">
        <ele>365.393707</ele>
        <time>2018-08-20T08:16:45Z</time>
      </trkpt>
      <trkpt lat="47.24331" lon="4.63633">
        <ele>365.466034</ele>
        <time>2018-08-20T08:16:46Z</time>
      </trkpt>
      <trkpt lat="47.24336" lon="4.63635">
        <ele>365.545135</ele>
        <time>2018-08-20T08:16:47Z</time>
      </trkpt>
      <trkpt lat="47.2434" lon="4.63637">
        <ele>365.630615</ele>
        <time>2018-08-20T08:16:48Z</time>
      </trkpt>
      <trkpt lat="47.24345" lon="4.63639">
        <ele>365.730865</ele>
        <time>2018-08-20T08:16:49Z</time>
      </trkpt>
      <trkpt lat="47.24349" lon="4.63642">
        <ele>365.845917</ele>
        <time>2018-08-20T08:16:50Z</time>
      </trkpt>
      <trkpt lat="47.24354" lon="4.63644">
        <ele>365.973633</ele>
        <time>2018-08-20T08:16:51Z</time>
      </trkpt>
      <trkpt lat="47.24358" lon="4.63646">
        <ele>366.111237</ele>
        <time>2018-08-20T08:16:52Z</time>
      </trkpt>
      <trkpt lat="47.24363" lon="4.63648">
        <ele>366.252289</ele>
        <time>2018-08-20T08:16:53Z</time>
      </trkpt>
      <trkpt lat="47.24368" lon="4.63651">
        <ele>366.39856</ele>
        <time>2018-08-20T08:16:54Z</time>
      </trkpt>
      <trkpt lat="47.24373" lon="4.63653">
        <ele>366.540649</ele>
        <time>2018-08-20T08:16:55Z</time>
      </trkpt>
      <trkpt lat="47.24378" lon="4.63656">
        <ele>366.677979</ele>
        <time>2018-08-20T08:16:56Z</time>
      </trkpt>
      <trkpt lat="47.24382" lon="4.63659">
        <ele>366.812988</ele>
        <time>2018-08-20T08:16:57Z</time>
      </trkpt>
      <trkpt lat="47.24387" lon="4.63661">
        <ele>366.943695</ele>
        <time>2018-08-20T08:16:58Z</time>
      </trkpt>
      <trkpt lat="47.24392" lon="4.63664">
        <ele>367.072845</ele>
        <time>2018-08-20T08:16:59Z</time>
      </trkpt>
      <trkpt lat="47.24397" lon="4.63666">
        <ele>367.196136</ele>
        <time>2018-08-20T08:17:00Z</time>
      </trkpt>
      <trkpt lat="47.24402" lon="4.63669">
        <ele>367.314667</ele>
        <time>2018-08-20T08:17:01Z</time>
      </trkpt>
      <trkpt lat="47.24407" lon="4.63671">
        <ele>367.428101</ele>
        <time>2018-08-20T08:17:02Z</time>
      </trkpt>
      <trkpt lat="47.24412" lon="4.63674">
        <ele>367.53067</ele>
        <time>2018-08-20T08:17:03Z</time>
      </trkpt>
      <trkpt lat="47.24417" lon="4.63676">
        <ele>367.53067</ele>
        <time>2018-08-20T08:17:04Z</time>
      </trkpt>
      <trkpt lat="47.24422" lon="4.63679">
        <ele>367.613647</ele>
        <time>2018-08-20T08:17:05Z</time>
      </trkpt>
      <trkpt lat="47.24427" lon="4.63682">
        <ele>367.676727</ele>
        <time>2018-08-20T08:17:06Z</time>
      </trkpt>
      <trkpt lat="47.24432" lon="4.63684">
        <ele>367.721161</ele>
        <time>2018-08-20T08:17:07Z</time>
      </trkpt>
      <trkpt lat="47.24437" lon="4.63687">
        <ele>367.74649</ele>
        <time>2018-08-20T08:17:08Z</time>
      </trkpt>
      <trkpt lat="47.24442" lon="4.63689">
        <ele>367.756012</ele>
        <time>2018-08-20T08:17:09Z</time>
      </trkpt>
      <trkpt lat="47.24447" lon="4.63691">
        <ele>367.756683</ele>
        <time>2018-08-20T08:17:10Z</time>
      </trkpt>
      <trkpt lat="47.24452" lon="4.63694">
        <ele>367.75708</ele>
        <time>2018-08-20T08:17:11Z</time>
      </trkpt>
      <trkpt lat="47.24456" lon="4.63697">
        <ele>367.757172</ele>
        <time>2018-08-20T08:17:12Z</time>
      </trkpt>
      <trkpt lat="47.24462" lon="4.63699">
        <ele>367.757172</ele>
        <time>2018-08-20T08:17:13Z</time>
      </trkpt>
      <trkpt lat="47.24466" lon="4.63702">
        <ele>367.760254</ele>
        <time>2018-08-20T08:17:14Z</time>
      </trkpt>
      <trkpt lat="47.24471" lon="4.63704">
        <ele>367.769043</ele>
        <time>2018-08-20T08:17:15Z</time>
      </trkpt>
      <trkpt lat="47.24476" lon="4.63707">
        <ele>367.783447</ele>
        <time>2018-08-20T08:17:16Z</time>
      </trkpt>
      <trkpt lat="47.2448" lon="4.6371">
        <ele>367.804443</ele>
        <time>2018-08-20T08:17:17Z</time>
      </trkpt>
      <trkpt lat="47.24485" lon="4.63712">
        <ele>367.831879</ele>
        <time>2018-08-20T08:17:18Z</time>
      </trkpt>
      <trkpt lat="47.24488" lon="4.63713">
        <ele>367.864014</ele>
        <time>2018-08-20T08:17:19Z</time>
      </trkpt>
      <trkpt lat="47.24492" lon="4.63715">
        <ele>367.89682</ele>
        <time>2018-08-20T08:17:20Z</time>
      </trkpt>
      <trkpt lat="47.24495" lon="4.63716">
        <ele>367.929108</ele>
        <time>2018-08-20T08:17:21Z</time>
      </trkpt>
      <trkpt lat="47.24498" lon="4.63717">
        <ele>367.96109</ele>
        <time>2018-08-20T08:17:22Z</time>
      </trkpt>
      <trkpt lat="47.24502" lon="4.63718">
        <ele>367.992188</ele>
        <time>2018-08-20T08:17:23Z</time>
      </trkpt>
      <trkpt lat="47.24506" lon="4.63718">
        <ele>368.021729</ele>
        <time>2018-08-20T08:17:24Z</time>
      </trkpt>
      <trkpt lat="47.24511" lon="4.63717">
        <ele>368.052094</ele>
        <time>2018-08-20T08:17:25Z</time>
      </trkpt>
      <trkpt lat="47.24515" lon="4.63716">
        <ele>368.085205</ele>
        <time>2018-08-20T08:17:26Z</time>
      </trkpt>
      <trkpt lat="47.24519" lon="4.63715">
        <ele>368.123688</ele>
        <time>2018-08-20T08:17:27Z</time>
      </trkpt>
      <trkpt lat="47.24523" lon="4.63714">
        <ele>368.123688</ele>
        <time>2018-08-20T08:17:28Z</time>
      </trkpt>
      <trkpt lat="47.24527" lon="4.63713">
        <ele>368.168945</ele>
        <time>2018-08-20T08:17:29Z</time>
      </trkpt>
      <trkpt lat="47.2453" lon="4.63711">
        <ele>368.222321</ele>
        <time>2018-08-20T08:17:30Z</time>
      </trkpt>
      <trkpt lat="47.24534" lon="4.6371">
        <ele>368.295166</ele>
        <time>2018-08-20T08:17:31Z</time>
      </trkpt>
      <trkpt lat="47.24538" lon="4.63709">
        <ele>368.37442</ele>
        <time>2018-08-20T08:17:32Z</time>
      </trkpt>
      <trkpt lat="47.24542" lon="4.63708">
        <ele>368.37442</ele>
        <time>2018-08-20T08:17:33Z</time>
      </trkpt>
      <trkpt lat="47.24546" lon="4.63707">
        <ele>368.458252</ele>
        <time>2018-08-20T08:17:34Z</time>
      </trkpt>
      <trkpt lat="47.2455" lon="4.63705">
        <ele>368.540924</ele>
        <time>2018-08-20T08:17:35Z</time>
      </trkpt>
      <trkpt lat="47.24554" lon="4.63704">
        <ele>368.616791</ele>
        <time>2018-08-20T08:17:36Z</time>
      </trkpt>
      <trkpt lat="47.24558" lon="4.63703">
        <ele>368.682465</ele>
        <time>2018-08-20T08:17:37Z</time>
      </trkpt>
      <trkpt lat="47.24563" lon="4.63702">
        <ele>368.727448</ele>
        <time>2018-08-20T08:17:38Z</time>
      </trkpt>
      <trkpt lat="47.24567" lon="4.63701">
        <ele>368.763672</ele>
        <time>2018-08-20T08:17:39Z</time>
      </trkpt>
      <trkpt lat="47.24571" lon="4.63699">
        <ele>368.790527</ele>
        <time>2018-08-20T08:17:40Z</time>
      </trkpt>
      <trkpt lat="47.24575" lon="4.63698">
        <ele>368.810394</ele>
        <time>2018-08-20T08:17:41Z</time>
      </trkpt>
      <trkpt lat="47.2458" lon="4.63697">
        <ele>368.828125</ele>
        <time>2018-08-20T08:17:42Z</time>
      </trkpt>
      <trkpt lat="47.24583" lon="4.63695">
        <ele>368.845947</ele>
        <time>2018-08-20T08:17:43Z</time>
      </trkpt>
      <trkpt lat="47.24587" lon="4.63694">
        <ele>368.86377</ele>
        <time>2018-08-20T08:17:44Z</time>
      </trkpt>
      <trkpt lat="47.24591" lon="4.63692">
        <ele>368.881592</ele>
        <time>2018-08-20T08:17:45Z</time>
      </trkpt>
      <trkpt lat="47.24595" lon="4.6369">
        <ele>368.900146</ele>
        <time>2018-08-20T08:17:46Z</time>
      </trkpt>
      <trkpt lat="47.24599" lon="4.63687">
        <ele>368.920319</ele>
        <time>2018-08-20T08:17:47Z</time>
      </trkpt>
      <trkpt lat="47.24603" lon="4.63684">
        <ele>368.941406</ele>
        <time>2018-08-20T08:17:48Z</time>
      </trkpt>
      <trkpt lat="47.24606" lon="4.63681">
        <ele>368.964844</ele>
        <time>2018-08-20T08:17:49Z</time>
      </trkpt>
      <trkpt lat="47.2461" lon="4.63679">
        <ele>368.991943</ele>
        <time>2018-08-20T08:17:50Z</time>
      </trkpt>
      <trkpt lat="47.24614" lon="4.63676">
        <ele>369.025055</ele>
        <time>2018-08-20T08:17:51Z</time>
      </trkpt>
      <trkpt lat="47.24617" lon="4.63673">
        <ele>369.068512</ele>
        <time>2018-08-20T08:17:52Z</time>
      </trkpt>
      <trkpt lat="47.24621" lon="4.6367">
        <ele>369.121216</ele>
        <time>2018-08-20T08:17:53Z</time>
      </trkpt>
      <trkpt lat="47.24625" lon="4.63667">
        <ele>369.182617</ele>
        <time>2018-08-20T08:17:54Z</time>
      </trkpt>
      <trkpt lat="47.24629" lon="4.63664">
        <ele>369.251312</ele>
        <time>2018-08-20T08:17:55Z</time>
      </trkpt>
      <trkpt lat="47.24633" lon="4.63662">
        <ele>369.324432</ele>
        <time>2018-08-20T08:17:56Z</time>
      </trkpt>
      <trkpt lat="47.24637" lon="4.63659">
        <ele>369.398895</ele>
        <time>2018-08-20T08:17:57Z</time>
      </trkpt>
      <trkpt lat="47.24641" lon="4.63657">
        <ele>369.469604</ele>
        <time>2018-08-20T08:17:58Z</time>
      </trkpt>
      <trkpt lat="47.24646" lon="4.63656">
        <ele>369.536652</ele>
        <time>2018-08-20T08:17:59Z</time>
      </trkpt>
      <trkpt lat="47.2465" lon="4.63654">
        <ele>369.599731</ele>
        <time>2018-08-20T08:18:00Z</time>
      </trkpt>
      <trkpt lat="47.24655" lon="4.63652">
        <ele>369.657501</ele>
        <time>2018-08-20T08:18:01Z</time>
      </trkpt>
      <trkpt lat="47.2466" lon="4.6365">
        <ele>369.710541</ele>
        <time>2018-08-20T08:18:02Z</time>
      </trkpt>
      <trkpt lat="47.24665" lon="4.63649">
        <ele>369.759399</ele>
        <time>2018-08-20T08:18:03Z</time>
      </trkpt>
      <trkpt lat="47.2467" lon="4.63648">
        <ele>369.804352</ele>
        <time>2018-08-20T08:18:04Z</time>
      </trkpt>
      <trkpt lat="47.24675" lon="4.63646">
        <ele>369.845245</ele>
        <time>2018-08-20T08:18:05Z</time>
      </trkpt>
      <trkpt lat="47.24679" lon="4.63645">
        <ele>369.882477</ele>
        <time>2018-08-20T08:18:06Z</time>
      </trkpt>
      <trkpt lat="47.24683" lon="4.63645">
        <ele>369.917084</ele>
        <time>2018-08-20T08:18:07Z</time>
      </trkpt>
      <trkpt lat="47.24686" lon="4.63645">
        <ele>369.952301</ele>
        <time>2018-08-20T08:18:08Z</time>
      </trkpt>
      <trkpt lat="47.24689" lon="4.63644">
        <ele>369.98877</ele>
        <time>2018-08-20T08:18:09Z</time>
      </trkpt>
      <trkpt lat="47.24692" lon="4.63642">
        <ele>370.025482</ele>
        <time>2018-08-20T08:18:10Z</time>
      </trkpt>
      <trkpt lat="47.24694" lon="4.63639">
        <ele>370.06192</ele>
        <time>2018-08-20T08:18:11Z</time>
      </trkpt>
      <trkpt lat="47.24697" lon="4.63637">
        <ele>370.098419</ele>
        <time>2018-08-20T08:18:12Z</time>
      </trkpt>
      <trkpt lat="47.24701" lon="4.63635">
        <ele>370.136475</ele>
        <time>2018-08-20T08:18:13Z</time>
      </trkpt>
      <trkpt lat="47.24704" lon="4.63634">
        <ele>370.17392</ele>
        <time>2018-08-20T08:18:14Z</time>
      </trkpt>
      <trkpt lat="47.24707" lon="4.63633">
        <ele>370.211426</ele>
        <time>2018-08-20T08:18:15Z</time>
      </trkpt>
      <trkpt lat="47.24711" lon="4.63632">
        <ele>370.250732</ele>
        <time>2018-08-20T08:18:16Z</time>
      </trkpt>
      <trkpt lat="47.24714" lon="4.63632">
        <ele>370.250732</ele>
        <time>2018-08-20T08:18:17Z</time>
      </trkpt>
      <trkpt lat="47.24718" lon="4.63632">
        <ele>370.293304</ele>
        <time>2018-08-20T08:18:18Z</time>
      </trkpt>
      <trkpt lat="47.24721" lon="4.63631">
        <ele>370.339203</ele>
        <time>2018-08-20T08:18:19Z</time>
      </trkpt>
      <trkpt lat="47.24725" lon="4.63629">
        <ele>370.395111</ele>
        <time>2018-08-20T08:18:20Z</time>
      </trkpt>
      <trkpt lat="47.24728" lon="4.63627">
        <ele>370.45166</ele>
        <time>2018-08-20T08:18:21Z</time>
      </trkpt>
      <trkpt lat="47.24731" lon="4.63625">
        <ele>370.509125</ele>
        <time>2018-08-20T08:18:22Z</time>
      </trkpt>
      <trkpt lat="47.24733" lon="4.63622">
        <ele>370.569122</ele>
        <time>2018-08-20T08:18:23Z</time>
      </trkpt>
      <trkpt lat="47.24736" lon="4.63618">
        <ele>370.632202</ele>
        <time>2018-08-20T08:18:24Z</time>
      </trkpt>
      <trkpt lat="47.2474" lon="4.63614">
        <ele>370.697906</ele>
        <time>2018-08-20T08:18:25Z</time>
      </trkpt>
      <trkpt lat="47.24743" lon="4.63611">
        <ele>370.757782</ele>
        <time>2018-08-20T08:18:26Z</time>
      </trkpt>
      <trkpt lat="47.24746" lon="4.63608">
        <ele>370.816803</ele>
        <time>2018-08-20T08:18:27Z</time>
      </trkpt>
      <trkpt lat="47.2475" lon="4.63606">
        <ele>370.87442</ele>
        <time>2018-08-20T08:18:28Z</time>
      </trkpt>
      <trkpt lat="47.24754" lon="4.63603">
        <ele>370.928345</ele>
        <time>2018-08-20T08:18:29Z</time>
      </trkpt>
      <trkpt lat="47.24758" lon="4.636">
        <ele>370.977142</ele>
        <time>2018-08-20T08:18:30Z</time>
      </trkpt>
      <trkpt lat="47.24762" lon="4.63598">
        <ele>371.020966</ele>
        <time>2018-08-20T08:18:31Z</time>
      </trkpt>
      <trkpt lat="47.24766" lon="4.63595">
        <ele>371.060272</ele>
        <time>2018-08-20T08:18:32Z</time>
      </trkpt>
      <trkpt lat="47.24769" lon="4.63592">
        <ele>371.097748</ele>
        <time>2018-08-20T08:18:33Z</time>
      </trkpt>
      <trkpt lat="47.24773" lon="4.63589">
        <ele>371.097748</ele>
        <time>2018-08-20T08:18:34Z</time>
      </trkpt>
      <trkpt lat="47.24777" lon="4.63587">
        <ele>371.132111</ele>
        <time>2018-08-20T08:18:35Z</time>
      </trkpt>
      <trkpt lat="47.24781" lon="4.63586">
        <ele>371.163055</ele>
        <time>2018-08-20T08:18:36Z</time>
      </trkpt>
      <trkpt lat="47.24786" lon="4.63585">
        <ele>371.191284</ele>
        <time>2018-08-20T08:18:37Z</time>
      </trkpt>
      <trkpt lat="47.2479" lon="4.63586">
        <ele>371.215088</ele>
        <time>2018-08-20T08:18:38Z</time>
      </trkpt>
      <trkpt lat="47.24794" lon="4.63587">
        <ele>371.236053</ele>
        <time>2018-08-20T08:18:39Z</time>
      </trkpt>
      <trkpt lat="47.24798" lon="4.63588">
        <ele>371.256561</ele>
        <time>2018-08-20T08:18:40Z</time>
      </trkpt>
      <trkpt lat="47.24802" lon="4.63589">
        <ele>371.278687</ele>
        <time>2018-08-20T08:18:41Z</time>
      </trkpt>
      <trkpt lat="47.24807" lon="4.6359">
        <ele>371.303589</ele>
        <time>2018-08-20T08:18:42Z</time>
      </trkpt>
      <trkpt lat="47.24811" lon="4.63591">
        <ele>371.331299</ele>
        <time>2018-08-20T08:18:43Z</time>
      </trkpt>
      <trkpt lat="47.24816" lon="4.63593">
        <ele>371.364532</ele>
        <time>2018-08-20T08:18:44Z</time>
      </trkpt>
      <trkpt lat="47.24821" lon="4.63595">
        <ele>371.402924</ele>
        <time>2018-08-20T08:18:45Z</time>
      </trkpt>
      <trkpt lat="47.24826" lon="4.63596">
        <ele>371.445679</ele>
        <time>2018-08-20T08:18:46Z</time>
      </trkpt>
      <trkpt lat="47.24831" lon="4.63598">
        <ele>371.491608</ele>
        <time>2018-08-20T08:18:47Z</time>
      </trkpt>
      <trkpt lat="47.24836" lon="4.636">
        <ele>371.539917</ele>
        <time>2018-08-20T08:18:48Z</time>
      </trkpt>
      <trkpt lat="47.24841" lon="4.63602">
        <ele>371.589203</ele>
        <time>2018-08-20T08:18:49Z</time>
      </trkpt>
      <trkpt lat="47.24847" lon="4.63604">
        <ele>371.638153</ele>
        <time>2018-08-20T08:18:50Z</time>
      </trkpt>
      <trkpt lat="47.24852" lon="4.63606">
        <ele>371.686401</ele>
        <time>2018-08-20T08:18:51Z</time>
      </trkpt>
      <trkpt lat="47.24857" lon="4.63608">
        <ele>371.733154</ele>
        <time>2018-08-20T08:18:52Z</time>
      </trkpt>
      <trkpt lat="47.24862" lon="4.63609">
        <ele>371.776947</ele>
        <time>2018-08-20T08:18:53Z</time>
      </trkpt>
      <trkpt lat="47.24867" lon="4.63611">
        <ele>371.817017</ele>
        <time>2018-08-20T08:18:54Z</time>
      </trkpt>
      <trkpt lat="47.24873" lon="4.63612">
        <ele>371.853882</ele>
        <time>2018-08-20T08:18:55Z</time>
      </trkpt>
      <trkpt lat="47.24878" lon="4.63614">
        <ele>371.88736</ele>
        <time>2018-08-20T08:18:56Z</time>
      </trkpt>
      <trkpt lat="47.24883" lon="4.63615">
        <ele>371.916718</ele>
        <time>2018-08-20T08:18:57Z</time>
      </trkpt>
      <trkpt lat="47.24889" lon="4.63616">
        <ele>371.941437</ele>
        <time>2018-08-20T08:18:58Z</time>
      </trkpt>
      <trkpt lat="47.24894" lon="4.63616">
        <ele>371.961639</ele>
        <time>2018-08-20T08:18:59Z</time>
      </trkpt>
      <trkpt lat="47.24899" lon="4.63616">
        <ele>371.976837</ele>
        <time>2018-08-20T08:19:00Z</time>
      </trkpt>
      <trkpt lat="47.24905" lon="4.63616">
        <ele>371.987579</ele>
        <time>2018-08-20T08:19:01Z</time>
      </trkpt>
      <trkpt lat="47.24911" lon="4.63616">
        <ele>371.994537</ele>
        <time>2018-08-20T08:19:02Z</time>
      </trkpt>
      <trkpt lat="47.24916" lon="4.63615">
        <ele>371.998535</ele>
        <time>2018-08-20T08:19:03Z</time>
      </trkpt>
      <trkpt lat="47.24922" lon="4.63615">
        <ele>372</ele>
        <time>2018-08-20T08:19:04Z</time>
      </trkpt>
      <trkpt lat="47.24927" lon="4.63614">
        <ele>372</ele>
        <time>2018-08-20T08:19:05Z</time>
      </trkpt>
      <trkpt lat="47.24933" lon="4.63614">
        <ele>372</ele>
        <time>2018-08-20T08:19:06Z</time>
      </trkpt>
      <trkpt lat="47.24938" lon="4.63613">
        <ele>372</ele>
        <time>2018-08-20T08:19:07Z</time>
      </trkpt>
      <trkpt lat="47.24943" lon="4.63611">
        <ele>372</ele>
        <time>2018-08-20T08:19:08Z</time>
      </trkpt>
      <trkpt lat="47.24948" lon="4.63609">
        <ele>372</ele>
        <time>2018-08-20T08:19:09Z</time>
      </trkpt>
      <trkpt lat="47.24952" lon="4.63605">
        <ele>372</ele>
        <time>2018-08-20T08:19:10Z</time>
      </trkpt>
      <trkpt lat="47.24956" lon="4.63599">
        <ele>372</ele>
        <time>2018-08-20T08:19:11Z</time>
      </trkpt>
      <trkpt lat="47.24958" lon="4.63593">
        <ele>372</ele>
        <time>2018-08-20T08:19:12Z</time>
      </trkpt>
      <trkpt lat="47.24962" lon="4.63588">
        <ele>372</ele>
        <time>2018-08-20T08:19:13Z</time>
      </trkpt>
      <trkpt lat="47.24964" lon="4.63582">
        <ele>372</ele>
        <time>2018-08-20T08:19:14Z</time>
      </trkpt>
      <trkpt lat="47.24966" lon="4.63577">
        <ele>372</ele>
        <time>2018-08-20T08:19:15Z</time>
      </trkpt>
      <trkpt lat="47.24968" lon="4.63573">
        <ele>372</ele>
        <time>2018-08-20T08:19:16Z</time>
      </trkpt>
      <trkpt lat="47.2497" lon="4.63568">
        <ele>372</ele>
        <time>2018-08-20T08:19:17Z</time>
      </trkpt>
      <trkpt lat="47.2497" lon="4.63565">
        <ele>372</ele>
        <time>2018-08-20T08:19:18Z</time>
      </trkpt>
      <trkpt lat="47.24971" lon="4.63561">
        <ele>372</ele>
        <time>2018-08-20T08:19:19Z</time>
      </trkpt>
      <trkpt lat="47.24973" lon="4.63557">
        <ele>372</ele>
        <time>2018-08-20T08:19:20Z</time>
      </trkpt>
      <trkpt lat="47.24975" lon="4.63555">
        <ele>372</ele>
        <time>2018-08-20T08:19:21Z</time>
      </trkpt>
      <trkpt lat="47.24978" lon="4.63552">
        <ele>372</ele>
        <time>2018-08-20T08:19:22Z</time>
      </trkpt>
      <trkpt lat="47.2498" lon="4.63547">
        <ele>372</ele>
        <time>2018-08-20T08:19:23Z</time>
      </trkpt>
      <trkpt lat="47.24982" lon="4.63542">
        <ele>372</ele>
        <time>2018-08-20T08:19:24Z</time>
      </trkpt>
      <trkpt lat="47.24984" lon="4.63537">
        <ele>371.993011</ele>
        <time>2018-08-20T08:19:25Z</time>
      </trkpt>
      <trkpt lat="47.24986" lon="4.63533">
        <ele>371.993011</ele>
        <time>2018-08-20T08:19:26Z</time>
      </trkpt>
      <trkpt lat="47.24988" lon="4.63528">
        <ele>371.975433</ele>
        <time>2018-08-20T08:19:27Z</time>
      </trkpt>
      <trkpt lat="47.24991" lon="4.63523">
        <ele>371.946136</ele>
        <time>2018-08-20T08:19:28Z</time>
      </trkpt>
      <trkpt lat="47.24992" lon="4.63518">
        <ele>371.892975</ele>
        <time>2018-08-20T08:19:29Z</time>
      </trkpt>
      <trkpt lat="47.24994" lon="4.63513">
        <ele>371.828949</ele>
        <time>2018-08-20T08:19:30Z</time>
      </trkpt>
      <trkpt lat="47.24995" lon="4.63507">
        <ele>371.75351</ele>
        <time>2018-08-20T08:19:31Z</time>
      </trkpt>
      <trkpt lat="47.24997" lon="4.635">
        <ele>371.672943</ele>
        <time>2018-08-20T08:19:32Z</time>
      </trkpt>
      <trkpt lat="47.24999" lon="4.63494">
        <ele>371.589203</ele>
        <time>2018-08-20T08:19:33Z</time>
      </trkpt>
      <trkpt lat="47.25" lon="4.63487">
        <ele>371.502594</ele>
        <time>2018-08-20T08:19:34Z</time>
      </trkpt>
      <trkpt lat="47.25002" lon="4.63481">
        <ele>371.424469</ele>
        <time>2018-08-20T08:19:35Z</time>
      </trkpt>
      <trkpt lat="47.25003" lon="4.63474">
        <ele>371.424469</ele>
        <time>2018-08-20T08:19:36Z</time>
      </trkpt>
      <trkpt lat="47.25005" lon="4.63467">
        <ele>371.341553</ele>
        <time>2018-08-20T08:19:37Z</time>
      </trkpt>
      <trkpt lat="47.25006" lon="4.6346">
        <ele>371.253815</ele>
        <time>2018-08-20T08:19:38Z</time>
      </trkpt>
      <trkpt lat="47.25007" lon="4.63454">
        <ele>371.145844</ele>
        <time>2018-08-20T08:19:39Z</time>
      </trkpt>
      <trkpt lat="47.25009" lon="4.63447">
        <ele>371.0354</ele>
        <time>2018-08-20T08:19:40Z</time>
      </trkpt>
      <trkpt lat="47.2501" lon="4.63442">
        <ele>370.922943</ele>
        <time>2018-08-20T08:19:41Z</time>
      </trkpt>
      <trkpt lat="47.2501" lon="4.63436">
        <ele>370.809723</ele>
        <time>2018-08-20T08:19:42Z</time>
      </trkpt>
      <trkpt lat="47.25011" lon="4.6343">
        <ele>370.696869</ele>
        <time>2018-08-20T08:19:43Z</time>
      </trkpt>
      <trkpt lat="47.25013" lon="4.63425">
        <ele>370.586426</ele>
        <time>2018-08-20T08:19:44Z</time>
      </trkpt>
      <trkpt lat="47.25014" lon="4.63419">
        <ele>370.494629</ele>
        <time>2018-08-20T08:19:45Z</time>
      </trkpt>
      <trkpt lat="47.25015" lon="4.63414">
        <ele>370.405273</ele>
        <time>2018-08-20T08:19:46Z</time>
      </trkpt>
      <trkpt lat="47.25016" lon="4.63409">
        <ele>370.318756</ele>
        <time>2018-08-20T08:19:47Z</time>
      </trkpt>
      <trkpt lat="47.25017" lon="4.63403">
        <ele>370.23526</ele>
        <time>2018-08-20T08:19:48Z</time>
      </trkpt>
      <trkpt lat="47.25018" lon="4.63397">
        <ele>370.169769</ele>
        <time>2018-08-20T08:19:49Z</time>
      </trkpt>
      <trkpt lat="47.2502" lon="4.63391">
        <ele>370.169769</ele>
        <time>2018-08-20T08:19:50Z</time>
      </trkpt>
      <trkpt lat="47.2502" lon="4.63385">
        <ele>370.123688</ele>
        <time>2018-08-20T08:19:51Z</time>
      </trkpt>
      <trkpt lat="47.2502" lon="4.63379">
        <ele>370.092529</ele>
        <time>2018-08-20T08:19:52Z</time>
      </trkpt>
      <trkpt lat="47.2502" lon="4.63372">
        <ele>370.075104</ele>
        <time>2018-08-20T08:19:53Z</time>
      </trkpt>
      <trkpt lat="47.25019" lon="4.63365">
        <ele>370.070313</ele>
        <time>2018-08-20T08:19:54Z</time>
      </trkpt>
      <trkpt lat="47.25019" lon="4.63358">
        <ele>370.068359</ele>
        <time>2018-08-20T08:19:55Z</time>
      </trkpt>
      <trkpt lat="47.25019" lon="4.6335">
        <ele>370.066406</ele>
        <time>2018-08-20T08:19:56Z</time>
      </trkpt>
      <trkpt lat="47.25019" lon="4.63343">
        <ele>370.07431</ele>
        <time>2018-08-20T08:19:57Z</time>
      </trkpt>
      <trkpt lat="47.25019" lon="4.63336">
        <ele>370.079681</ele>
        <time>2018-08-20T08:19:58Z</time>
      </trkpt>
      <trkpt lat="47.25019" lon="4.63329">
        <ele>370.081024</ele>
        <time>2018-08-20T08:19:59Z</time>
      </trkpt>
      <trkpt lat="47.25019" lon="4.63322">
        <ele>370.082977</ele>
        <time>2018-08-20T08:20:00Z</time>
      </trkpt>
      <trkpt lat="47.25018" lon="4.63315">
        <ele>370.084106</ele>
        <time>2018-08-20T08:20:01Z</time>
      </trkpt>
      <trkpt lat="47.25018" lon="4.63308">
        <ele>370.084137</ele>
        <time>2018-08-20T08:20:02Z</time>
      </trkpt>
      <trkpt lat="47.25019" lon="4.63301">
        <ele>370.084137</ele>
        <time>2018-08-20T08:20:03Z</time>
      </trkpt>
      <trkpt lat="47.25018" lon="4.63294">
        <ele>370.085449</ele>
        <time>2018-08-20T08:20:04Z</time>
      </trkpt>
      <trkpt lat="47.25018" lon="4.63287">
        <ele>370.088379</ele>
        <time>2018-08-20T08:20:05Z</time>
      </trkpt>
      <trkpt lat="47.25018" lon="4.6328">
        <ele>370.094727</ele>
        <time>2018-08-20T08:20:06Z</time>
      </trkpt>
      <trkpt lat="47.25018" lon="4.63273">
        <ele>370.101318</ele>
        <time>2018-08-20T08:20:07Z</time>
      </trkpt>
      <trkpt lat="47.25018" lon="4.63266">
        <ele>370.107208</ele>
        <time>2018-08-20T08:20:08Z</time>
      </trkpt>
      <trkpt lat="47.25018" lon="4.63258">
        <ele>370.112793</ele>
        <time>2018-08-20T08:20:09Z</time>
      </trkpt>
      <trkpt lat="47.25018" lon="4.63251">
        <ele>370.133545</ele>
        <time>2018-08-20T08:20:10Z</time>
      </trkpt>
      <trkpt lat="47.25018" lon="4.63243">
        <ele>370.171478</ele>
        <time>2018-08-20T08:20:11Z</time>
      </trkpt>
      <trkpt lat="47.25019" lon="4.63236">
        <ele>370.224609</ele>
        <time>2018-08-20T08:20:12Z</time>
      </trkpt>
      <trkpt lat="47.2502" lon="4.63229">
        <ele>370.295654</ele>
        <time>2018-08-20T08:20:13Z</time>
      </trkpt>
      <trkpt lat="47.2502" lon="4.63221">
        <ele>370.295654</ele>
        <time>2018-08-20T08:20:14Z</time>
      </trkpt>
      <trkpt lat="47.25021" lon="4.63214">
        <ele>370.385162</ele>
        <time>2018-08-20T08:20:15Z</time>
      </trkpt>
      <trkpt lat="47.25021" lon="4.63206">
        <ele>370.495453</ele>
        <time>2018-08-20T08:20:16Z</time>
      </trkpt>
      <trkpt lat="47.25022" lon="4.63199">
        <ele>370.63208</ele>
        <time>2018-08-20T08:20:17Z</time>
      </trkpt>
      <trkpt lat="47.25022" lon="4.63191">
        <ele>370.771576</ele>
        <time>2018-08-20T08:20:18Z</time>
      </trkpt>
      <trkpt lat="47.25023" lon="4.63184">
        <ele>370.91391</ele>
        <time>2018-08-20T08:20:19Z</time>
      </trkpt>
      <trkpt lat="47.25024" lon="4.63177">
        <ele>371.058258</ele>
        <time>2018-08-20T08:20:20Z</time>
      </trkpt>
      <trkpt lat="47.25024" lon="4.6317">
        <ele>371.204254</ele>
        <time>2018-08-20T08:20:21Z</time>
      </trkpt>
      <trkpt lat="47.25025" lon="4.63162">
        <ele>371.35025</ele>
        <time>2018-08-20T08:20:22Z</time>
      </trkpt>
      <trkpt lat="47.25026" lon="4.63155">
        <ele>371.474945</ele>
        <time>2018-08-20T08:20:23Z</time>
      </trkpt>
      <trkpt lat="47.25026" lon="4.63148">
        <ele>371.599609</ele>
        <time>2018-08-20T08:20:24Z</time>
      </trkpt>
      <trkpt lat="47.25027" lon="4.63141">
        <ele>371.724365</ele>
        <time>2018-08-20T08:20:25Z</time>
      </trkpt>
      <trkpt lat="47.25028" lon="4.63134">
        <ele>371.849365</ele>
        <time>2018-08-20T08:20:26Z</time>
      </trkpt>
      <trkpt lat="47.25028" lon="4.63126">
        <ele>371.974701</ele>
        <time>2018-08-20T08:20:27Z</time>
      </trkpt>
      <trkpt lat="47.25029" lon="4.63119">
        <ele>372.100006</ele>
        <time>2018-08-20T08:20:28Z</time>
      </trkpt>
      <trkpt lat="47.25029" lon="4.63112">
        <ele>372.228149</ele>
        <time>2018-08-20T08:20:29Z</time>
      </trkpt>
      <trkpt lat="47.2503" lon="4.63105">
        <ele>372.359741</ele>
        <time>2018-08-20T08:20:30Z</time>
      </trkpt>
      <trkpt lat="47.25031" lon="4.63098">
        <ele>372.359741</ele>
        <time>2018-08-20T08:20:31Z</time>
      </trkpt>
      <trkpt lat="47.25031" lon="4.63091">
        <ele>372.494537</ele>
        <time>2018-08-20T08:20:32Z</time>
      </trkpt>
      <trkpt lat="47.25032" lon="4.63083">
        <ele>372.634003</ele>
        <time>2018-08-20T08:20:33Z</time>
      </trkpt>
      <trkpt lat="47.25032" lon="4.63076">
        <ele>372.804199</ele>
        <time>2018-08-20T08:20:34Z</time>
      </trkpt>
      <trkpt lat="47.25033" lon="4.63069">
        <ele>372.978119</ele>
        <time>2018-08-20T08:20:35Z</time>
      </trkpt>
      <trkpt lat="47.25033" lon="4.63062">
        <ele>372.978119</ele>
        <time>2018-08-20T08:20:36Z</time>
      </trkpt>
      <trkpt lat="47.25033" lon="4.63055">
        <ele>373.154327</ele>
        <time>2018-08-20T08:20:37Z</time>
      </trkpt>
      <trkpt lat="47.25033" lon="4.63047">
        <ele>373.331512</ele>
        <time>2018-08-20T08:20:38Z</time>
      </trkpt>
      <trkpt lat="47.25034" lon="4.6304">
        <ele>373.331512</ele>
        <time>2018-08-20T08:20:39Z</time>
      </trkpt>
      <trkpt lat="47.25034" lon="4.63033">
        <ele>373.53479</ele>
        <time>2018-08-20T08:20:40Z</time>
      </trkpt>
      <trkpt lat="47.25035" lon="4.63026">
        <ele>373.736542</ele>
        <time>2018-08-20T08:20:41Z</time>
      </trkpt>
      <trkpt lat="47.25035" lon="4.63019">
        <ele>373.937775</ele>
        <time>2018-08-20T08:20:42Z</time>
      </trkpt>
      <trkpt lat="47.25036" lon="4.63012">
        <ele>374.140594</ele>
        <time>2018-08-20T08:20:43Z</time>
      </trkpt>
      <trkpt lat="47.25036" lon="4.63004">
        <ele>374.341949</ele>
        <time>2018-08-20T08:20:44Z</time>
      </trkpt>
      <trkpt lat="47.25036" lon="4.62997">
        <ele>374.545654</ele>
        <time>2018-08-20T08:20:45Z</time>
      </trkpt>
      <trkpt lat="47.25036" lon="4.62989">
        <ele>374.728729</ele>
        <time>2018-08-20T08:20:46Z</time>
      </trkpt>
      <trkpt lat="47.25036" lon="4.62982">
        <ele>374.915405</ele>
        <time>2018-08-20T08:20:47Z</time>
      </trkpt>
      <trkpt lat="47.25036" lon="4.62975">
        <ele>375.077026</ele>
        <time>2018-08-20T08:20:48Z</time>
      </trkpt>
      <trkpt lat="47.25036" lon="4.62969">
        <ele>375.238373</ele>
        <time>2018-08-20T08:20:49Z</time>
      </trkpt>
      <trkpt lat="47.25036" lon="4.62962">
        <ele>375.397705</ele>
        <time>2018-08-20T08:20:50Z</time>
      </trkpt>
      <trkpt lat="47.25035" lon="4.62955">
        <ele>375.549408</ele>
        <time>2018-08-20T08:20:51Z</time>
      </trkpt>
      <trkpt lat="47.25034" lon="4.62948">
        <ele>375.689209</ele>
        <time>2018-08-20T08:20:52Z</time>
      </trkpt>
      <trkpt lat="47.25033" lon="4.62941">
        <ele>375.689209</ele>
        <time>2018-08-20T08:20:53Z</time>
      </trkpt>
      <trkpt lat="47.25032" lon="4.62934">
        <ele>375.817505</ele>
        <time>2018-08-20T08:20:54Z</time>
      </trkpt>
      <trkpt lat="47.25031" lon="4.62927">
        <ele>375.933594</ele>
        <time>2018-08-20T08:20:55Z</time>
      </trkpt>
      <trkpt lat="47.2503" lon="4.6292">
        <ele>376.044067</ele>
        <time>2018-08-20T08:20:56Z</time>
      </trkpt>
      <trkpt lat="47.25029" lon="4.62913">
        <ele>376.138275</ele>
        <time>2018-08-20T08:20:57Z</time>
      </trkpt>
      <trkpt lat="47.25028" lon="4.62906">
        <ele>376.215729</ele>
        <time>2018-08-20T08:20:58Z</time>
      </trkpt>
      <trkpt lat="47.25027" lon="4.62899">
        <ele>376.278778</ele>
        <time>2018-08-20T08:20:59Z</time>
      </trkpt>
      <trkpt lat="47.25026" lon="4.62891">
        <ele>376.327759</ele>
        <time>2018-08-20T08:21:00Z</time>
      </trkpt>
      <trkpt lat="47.25025" lon="4.62884">
        <ele>376.365204</ele>
        <time>2018-08-20T08:21:01Z</time>
      </trkpt>
      <trkpt lat="47.25024" lon="4.62877">
        <ele>376.385223</ele>
        <time>2018-08-20T08:21:02Z</time>
      </trkpt>
      <trkpt lat="47.25023" lon="4.6287">
        <ele>376.401764</ele>
        <time>2018-08-20T08:21:03Z</time>
      </trkpt>
      <trkpt lat="47.25022" lon="4.62863">
        <ele>376.419525</ele>
        <time>2018-08-20T08:21:04Z</time>
      </trkpt>
      <trkpt lat="47.25021" lon="4.62856">
        <ele>376.4375</ele>
        <time>2018-08-20T08:21:05Z</time>
      </trkpt>
      <trkpt lat="47.2502" lon="4.62849">
        <ele>376.445526</ele>
        <time>2018-08-20T08:21:06Z</time>
      </trkpt>
      <trkpt lat="47.25019" lon="4.62842">
        <ele>376.445526</ele>
        <time>2018-08-20T08:21:07Z</time>
      </trkpt>
      <trkpt lat="47.25018" lon="4.62835">
        <ele>376.445526</ele>
        <time>2018-08-20T08:21:08Z</time>
      </trkpt>
      <trkpt lat="47.25016" lon="4.62828">
        <ele>376.445526</ele>
        <time>2018-08-20T08:21:09Z</time>
      </trkpt>
      <trkpt lat="47.25015" lon="4.62821">
        <ele>376.44458</ele>
        <time>2018-08-20T08:21:10Z</time>
      </trkpt>
      <trkpt lat="47.25013" lon="4.62813">
        <ele>376.430267</ele>
        <time>2018-08-20T08:21:11Z</time>
      </trkpt>
      <trkpt lat="47.25011" lon="4.62806">
        <ele>376.385406</ele>
        <time>2018-08-20T08:21:12Z</time>
      </trkpt>
      <trkpt lat="47.2501" lon="4.62799">
        <ele>376.317993</ele>
        <time>2018-08-20T08:21:13Z</time>
      </trkpt>
      <trkpt lat="47.25008" lon="4.62792">
        <ele>376.230743</ele>
        <time>2018-08-20T08:21:14Z</time>
      </trkpt>
      <trkpt lat="47.25006" lon="4.62785">
        <ele>376.140503</ele>
        <time>2018-08-20T08:21:15Z</time>
      </trkpt>
      <trkpt lat="47.25004" lon="4.62779">
        <ele>376.045166</ele>
        <time>2018-08-20T08:21:16Z</time>
      </trkpt>
      <trkpt lat="47.25002" lon="4.62772">
        <ele>375.960205</ele>
        <time>2018-08-20T08:21:17Z</time>
      </trkpt>
      <trkpt lat="47.25" lon="4.62766">
        <ele>375.900604</ele>
        <time>2018-08-20T08:21:18Z</time>
      </trkpt>
      <trkpt lat="47.24999" lon="4.62759">
        <ele>375.859589</ele>
        <time>2018-08-20T08:21:19Z</time>
      </trkpt>
      <trkpt lat="47.24997" lon="4.62753">
        <ele>375.834442</ele>
        <time>2018-08-20T08:21:20Z</time>
      </trkpt>
      <trkpt lat="47.24995" lon="4.62747">
        <ele>375.820099</ele>
        <time>2018-08-20T08:21:21Z</time>
      </trkpt>
      <trkpt lat="47.24994" lon="4.6274">
        <ele>375.816284</ele>
        <time>2018-08-20T08:21:22Z</time>
      </trkpt>
      <trkpt lat="47.24992" lon="4.62734">
        <ele>375.808197</ele>
        <time>2018-08-20T08:21:23Z</time>
      </trkpt>
      <trkpt lat="47.24991" lon="4.62727">
        <ele>375.808197</ele>
        <time>2018-08-20T08:21:24Z</time>
      </trkpt>
      <trkpt lat="47.24989" lon="4.62721">
        <ele>375.796906</ele>
        <time>2018-08-20T08:21:25Z</time>
      </trkpt>
      <trkpt lat="47.24987" lon="4.62715">
        <ele>375.781219</ele>
        <time>2018-08-20T08:21:26Z</time>
      </trkpt>
      <trkpt lat="47.24985" lon="4.62709">
        <ele>375.749908</ele>
        <time>2018-08-20T08:21:27Z</time>
      </trkpt>
      <trkpt lat="47.24983" lon="4.62703">
        <ele>375.702789</ele>
        <time>2018-08-20T08:21:28Z</time>
      </trkpt>
      <trkpt lat="47.24981" lon="4.62697">
        <ele>375.639252</ele>
        <time>2018-08-20T08:21:29Z</time>
      </trkpt>
      <trkpt lat="47.24979" lon="4.6269">
        <ele>375.562531</ele>
        <time>2018-08-20T08:21:30Z</time>
      </trkpt>
      <trkpt lat="47.24978" lon="4.62684">
        <ele>375.471191</ele>
        <time>2018-08-20T08:21:31Z</time>
      </trkpt>
      <trkpt lat="47.24976" lon="4.62678">
        <ele>375.366211</ele>
        <time>2018-08-20T08:21:32Z</time>
      </trkpt>
      <trkpt lat="47.24974" lon="4.62672">
        <ele>375.25943</ele>
        <time>2018-08-20T08:21:33Z</time>
      </trkpt>
      <trkpt lat="47.24972" lon="4.62666">
        <ele>375.151031</ele>
        <time>2018-08-20T08:21:34Z</time>
      </trkpt>
      <trkpt lat="47.24971" lon="4.62661">
        <ele>375.042633</ele>
        <time>2018-08-20T08:21:35Z</time>
      </trkpt>
      <trkpt lat="47.2497" lon="4.62655">
        <ele>374.935547</ele>
        <time>2018-08-20T08:21:36Z</time>
      </trkpt>
      <trkpt lat="47.24968" lon="4.6265">
        <ele>374.935547</ele>
        <time>2018-08-20T08:21:37Z</time>
      </trkpt>
      <trkpt lat="47.24967" lon="4.62645">
        <ele>374.833649</ele>
        <time>2018-08-20T08:21:38Z</time>
      </trkpt>
      <trkpt lat="47.24965" lon="4.62642">
        <ele>374.737061</ele>
        <time>2018-08-20T08:21:39Z</time>
      </trkpt>
      <trkpt lat="47.24963" lon="4.62639">
        <ele>374.648895</ele>
        <time>2018-08-20T08:21:40Z</time>
      </trkpt>
      <trkpt lat="47.2496" lon="4.62638">
        <ele>374.648895</ele>
        <time>2018-08-20T08:21:41Z</time>
      </trkpt>
      <trkpt lat="47.24958" lon="4.62638">
        <ele>374.57254</ele>
        <time>2018-08-20T08:21:42Z</time>
      </trkpt>
      <trkpt lat="47.24956" lon="4.62638">
        <ele>374.501099</ele>
        <time>2018-08-20T08:21:43Z</time>
      </trkpt>
      <trkpt lat="47.24953" lon="4.62636">
        <ele>374.396118</ele>
        <time>2018-08-20T08:21:44Z</time>
      </trkpt>
      <trkpt lat="47.24951" lon="4.62632">
        <ele>374.280914</ele>
        <time>2018-08-20T08:21:45Z</time>
      </trkpt>
      <trkpt lat="47.24947" lon="4.62629">
        <ele>374.150024</ele>
        <time>2018-08-20T08:21:46Z</time>
      </trkpt>
      <trkpt lat="47.24942" lon="4.62625">
        <ele>374.00061</ele>
        <time>2018-08-20T08:21:47Z</time>
      </trkpt>
      <trkpt lat="47.24938" lon="4.62622">
        <ele>373.829559</ele>
        <time>2018-08-20T08:21:48Z</time>
      </trkpt>
      <trkpt lat="47.24933" lon="4.62618">
        <ele>373.628815</ele>
        <time>2018-08-20T08:21:49Z</time>
      </trkpt>
      <trkpt lat="47.24929" lon="4.62614">
        <ele>373.444794</ele>
        <time>2018-08-20T08:21:50Z</time>
      </trkpt>
      <trkpt lat="47.24925" lon="4.62611">
        <ele>373.269745</ele>
        <time>2018-08-20T08:21:51Z</time>
      </trkpt>
      <trkpt lat="47.2492" lon="4.62607">
        <ele>373.1091</ele>
        <time>2018-08-20T08:21:52Z</time>
      </trkpt>
      <trkpt lat="47.24916" lon="4.62604">
        <ele>372.963837</ele>
        <time>2018-08-20T08:21:53Z</time>
      </trkpt>
      <trkpt lat="47.24912" lon="4.62601">
        <ele>372.835205</ele>
        <time>2018-08-20T08:21:54Z</time>
      </trkpt>
      <trkpt lat="47.24908" lon="4.62598">
        <ele>372.739532</ele>
        <time>2018-08-20T08:21:55Z</time>
      </trkpt>
      <trkpt lat="47.24904" lon="4.62594">
        <ele>372.667938</ele>
        <time>2018-08-20T08:21:56Z</time>
      </trkpt>
      <trkpt lat="47.249" lon="4.62591">
        <ele>372.603973</ele>
        <time>2018-08-20T08:21:57Z</time>
      </trkpt>
      <trkpt lat="47.24896" lon="4.62587">
        <ele>372.547028</ele>
        <time>2018-08-20T08:21:58Z</time>
      </trkpt>
      <trkpt lat="47.24892" lon="4.62584">
        <ele>372.497192</ele>
        <time>2018-08-20T08:21:59Z</time>
      </trkpt>
      <trkpt lat="47.24887" lon="4.6258">
        <ele>372.452362</ele>
        <time>2018-08-20T08:22:00Z</time>
      </trkpt>
      <trkpt lat="47.24883" lon="4.62577">
        <ele>372.409668</ele>
        <time>2018-08-20T08:22:01Z</time>
      </trkpt>
      <trkpt lat="47.2488" lon="4.62574">
        <ele>372.366577</ele>
        <time>2018-08-20T08:22:02Z</time>
      </trkpt>
      <trkpt lat="47.24875" lon="4.62571">
        <ele>372.320709</ele>
        <time>2018-08-20T08:22:03Z</time>
      </trkpt>
      <trkpt lat="47.24871" lon="4.62568">
        <ele>372.270416</ele>
        <time>2018-08-20T08:22:04Z</time>
      </trkpt>
      <trkpt lat="47.24867" lon="4.62565">
        <ele>372.270416</ele>
        <time>2018-08-20T08:22:05Z</time>
      </trkpt>
      <trkpt lat="47.24863" lon="4.62562">
        <ele>372.214233</ele>
        <time>2018-08-20T08:22:06Z</time>
      </trkpt>
      <trkpt lat="47.24859" lon="4.62558">
        <ele>372.154907</ele>
        <time>2018-08-20T08:22:07Z</time>
      </trkpt>
      <trkpt lat="47.24855" lon="4.62555">
        <ele>372.10318</ele>
        <time>2018-08-20T08:22:08Z</time>
      </trkpt>
      <trkpt lat="47.24851" lon="4.62551">
        <ele>372.060913</ele>
        <time>2018-08-20T08:22:09Z</time>
      </trkpt>
      <trkpt lat="47.24846" lon="4.62548">
        <ele>372.029388</ele>
        <time>2018-08-20T08:22:10Z</time>
      </trkpt>
      <trkpt lat="47.24841" lon="4.62545">
        <ele>372.009125</ele>
        <time>2018-08-20T08:22:11Z</time>
      </trkpt>
      <trkpt lat="47.24836" lon="4.62541">
        <ele>372</ele>
        <time>2018-08-20T08:22:12Z</time>
      </trkpt>
      <trkpt lat="47.24831" lon="4.62538">
        <ele>372</ele>
        <time>2018-08-20T08:22:13Z</time>
      </trkpt>
      <trkpt lat="47.24827" lon="4.62533">
        <ele>372</ele>
        <time>2018-08-20T08:22:14Z</time>
      </trkpt>
      <trkpt lat="47.24822" lon="4.6253">
        <ele>372</ele>
        <time>2018-08-20T08:22:15Z</time>
      </trkpt>
      <trkpt lat="47.24818" lon="4.62526">
        <ele>372</ele>
        <time>2018-08-20T08:22:16Z</time>
      </trkpt>
      <trkpt lat="47.24813" lon="4.62523">
        <ele>372</ele>
        <time>2018-08-20T08:22:17Z</time>
      </trkpt>
      <trkpt lat="47.24808" lon="4.62519">
        <ele>372</ele>
        <time>2018-08-20T08:22:18Z</time>
      </trkpt>
      <trkpt lat="47.24804" lon="4.62516">
        <ele>372</ele>
        <time>2018-08-20T08:22:19Z</time>
      </trkpt>
      <trkpt lat="47.24799" lon="4.62513">
        <ele>372</ele>
        <time>2018-08-20T08:22:20Z</time>
      </trkpt>
      <trkpt lat="47.24795" lon="4.6251">
        <ele>372</ele>
        <time>2018-08-20T08:22:21Z</time>
      </trkpt>
      <trkpt lat="47.2479" lon="4.62506">
        <ele>371.99881</ele>
        <time>2018-08-20T08:22:22Z</time>
      </trkpt>
      <trkpt lat="47.24785" lon="4.62504">
        <ele>371.99527</ele>
        <time>2018-08-20T08:22:23Z</time>
      </trkpt>
      <trkpt lat="47.2478" lon="4.62501">
        <ele>371.988403</ele>
        <time>2018-08-20T08:22:24Z</time>
      </trkpt>
      <trkpt lat="47.24775" lon="4.62499">
        <ele>371.977051</ele>
        <time>2018-08-20T08:22:25Z</time>
      </trkpt>
      <trkpt lat="47.24771" lon="4.62496">
        <ele>371.960358</ele>
        <time>2018-08-20T08:22:26Z</time>
      </trkpt>
      <trkpt lat="47.24767" lon="4.62493">
        <ele>371.937866</ele>
        <time>2018-08-20T08:22:27Z</time>
      </trkpt>
      <trkpt lat="47.24762" lon="4.62491">
        <ele>371.910065</ele>
        <time>2018-08-20T08:22:28Z</time>
      </trkpt>
      <trkpt lat="47.24759" lon="4.62488">
        <ele>371.877106</ele>
        <time>2018-08-20T08:22:29Z</time>
      </trkpt>
      <trkpt lat="47.24754" lon="4.62485">
        <ele>371.838989</ele>
        <time>2018-08-20T08:22:30Z</time>
      </trkpt>
      <trkpt lat="47.24749" lon="4.62483">
        <ele>371.796387</ele>
        <time>2018-08-20T08:22:31Z</time>
      </trkpt>
      <trkpt lat="47.24745" lon="4.62481">
        <ele>371.74942</ele>
        <time>2018-08-20T08:22:32Z</time>
      </trkpt>
      <trkpt lat="47.24741" lon="4.62479">
        <ele>371.697723</ele>
        <time>2018-08-20T08:22:33Z</time>
      </trkpt>
      <trkpt lat="47.24736" lon="4.62477">
        <ele>371.641602</ele>
        <time>2018-08-20T08:22:34Z</time>
      </trkpt>
      <trkpt lat="47.24731" lon="4.62474">
        <ele>371.581818</ele>
        <time>2018-08-20T08:22:35Z</time>
      </trkpt>
      <trkpt lat="47.24727" lon="4.62472">
        <ele>371.581818</ele>
        <time>2018-08-20T08:22:36Z</time>
      </trkpt>
      <trkpt lat="47.24722" lon="4.6247">
        <ele>371.522247</ele>
        <time>2018-08-20T08:22:37Z</time>
      </trkpt>
      <trkpt lat="47.24717" lon="4.62468">
        <ele>371.476349</ele>
        <time>2018-08-20T08:22:38Z</time>
      </trkpt>
      <trkpt lat="47.24712" lon="4.62465">
        <ele>371.445892</ele>
        <time>2018-08-20T08:22:39Z</time>
      </trkpt>
      <trkpt lat="47.24707" lon="4.62462">
        <ele>371.432343</ele>
        <time>2018-08-20T08:22:40Z</time>
      </trkpt>
      <trkpt lat="47.24703" lon="4.6246">
        <ele>371.432343</ele>
        <time>2018-08-20T08:22:41Z</time>
      </trkpt>
      <trkpt lat="47.24697" lon="4.62458">
        <ele>371.432343</ele>
        <time>2018-08-20T08:22:42Z</time>
      </trkpt>
      <trkpt lat="47.24692" lon="4.62455">
        <ele>371.436279</ele>
        <time>2018-08-20T08:22:43Z</time>
      </trkpt>
      <trkpt lat="47.24687" lon="4.62453">
        <ele>371.459564</ele>
        <time>2018-08-20T08:22:44Z</time>
      </trkpt>
      <trkpt lat="47.24682" lon="4.62451">
        <ele>371.500519</ele>
        <time>2018-08-20T08:22:45Z</time>
      </trkpt>
      <trkpt lat="47.24677" lon="4.62448">
        <ele>371.547607</ele>
        <time>2018-08-20T08:22:46Z</time>
      </trkpt>
      <trkpt lat="47.24672" lon="4.62446">
        <ele>371.601044</ele>
        <time>2018-08-20T08:22:47Z</time>
      </trkpt>
      <trkpt lat="47.24667" lon="4.62444">
        <ele>371.660278</ele>
        <time>2018-08-20T08:22:48Z</time>
      </trkpt>
      <trkpt lat="47.24662" lon="4.62441">
        <ele>371.725342</ele>
        <time>2018-08-20T08:22:49Z</time>
      </trkpt>
      <trkpt lat="47.24657" lon="4.62439">
        <ele>371.781586</ele>
        <time>2018-08-20T08:22:50Z</time>
      </trkpt>
      <trkpt lat="47.24652" lon="4.62437">
        <ele>371.820038</ele>
        <time>2018-08-20T08:22:51Z</time>
      </trkpt>
      <trkpt lat="47.24646" lon="4.62434">
        <ele>371.839722</ele>
        <time>2018-08-20T08:22:52Z</time>
      </trkpt>
      <trkpt lat="47.24641" lon="4.62432">
        <ele>371.840363</ele>
        <time>2018-08-20T08:22:53Z</time>
      </trkpt>
      <trkpt lat="47.24636" lon="4.62429">
        <ele>371.840363</ele>
        <time>2018-08-20T08:22:54Z</time>
      </trkpt>
      <trkpt lat="47.24632" lon="4.62427">
        <ele>371.840363</ele>
        <time>2018-08-20T08:22:55Z</time>
      </trkpt>
      <trkpt lat="47.24627" lon="4.62425">
        <ele>371.823334</ele>
        <time>2018-08-20T08:22:56Z</time>
      </trkpt>
      <trkpt lat="47.24622" lon="4.62422">
        <ele>371.788666</ele>
        <time>2018-08-20T08:22:57Z</time>
      </trkpt>
      <trkpt lat="47.24617" lon="4.6242">
        <ele>371.750031</ele>
        <time>2018-08-20T08:22:58Z</time>
      </trkpt>
      <trkpt lat="47.24612" lon="4.62418">
        <ele>371.716644</ele>
        <time>2018-08-20T08:22:59Z</time>
      </trkpt>
      <trkpt lat="47.24608" lon="4.62415">
        <ele>371.689545</ele>
        <time>2018-08-20T08:23:00Z</time>
      </trkpt>
      <trkpt lat="47.24603" lon="4.62413">
        <ele>371.668304</ele>
        <time>2018-08-20T08:23:01Z</time>
      </trkpt>
      <trkpt lat="47.24598" lon="4.6241">
        <ele>371.652191</ele>
        <time>2018-08-20T08:23:02Z</time>
      </trkpt>
      <trkpt lat="47.24593" lon="4.62408">
        <ele>371.646484</ele>
        <time>2018-08-20T08:23:03Z</time>
      </trkpt>
      <trkpt lat="47.24588" lon="4.62406">
        <ele>371.646484</ele>
        <time>2018-08-20T08:23:04Z</time>
      </trkpt>
      <trkpt lat="47.24583" lon="4.62403">
        <ele>371.646484</ele>
        <time>2018-08-20T08:23:05Z</time>
      </trkpt>
      <trkpt lat="47.24578" lon="4.62401">
        <ele>371.651093</ele>
        <time>2018-08-20T08:23:06Z</time>
      </trkpt>
      <trkpt lat="47.24573" lon="4.62399">
        <ele>371.664551</ele>
        <time>2018-08-20T08:23:07Z</time>
      </trkpt>
      <trkpt lat="47.24568" lon="4.62396">
        <ele>371.685425</ele>
        <time>2018-08-20T08:23:08Z</time>
      </trkpt>
      <trkpt lat="47.24563" lon="4.62394">
        <ele>371.712921</ele>
        <time>2018-08-20T08:23:09Z</time>
      </trkpt>
      <trkpt lat="47.24558" lon="4.62392">
        <ele>371.746979</ele>
        <time>2018-08-20T08:23:10Z</time>
      </trkpt>
      <trkpt lat="47.24554" lon="4.62389">
        <ele>371.78183</ele>
        <time>2018-08-20T08:23:11Z</time>
      </trkpt>
      <trkpt lat="47.24549" lon="4.62387">
        <ele>371.816559</ele>
        <time>2018-08-20T08:23:12Z</time>
      </trkpt>
      <trkpt lat="47.24544" lon="4.62384">
        <ele>371.850983</ele>
        <time>2018-08-20T08:23:13Z</time>
      </trkpt>
      <trkpt lat="47.24539" lon="4.62382">
        <ele>371.885345</ele>
        <time>2018-08-20T08:23:14Z</time>
      </trkpt>
      <trkpt lat="47.24534" lon="4.62379">
        <ele>371.919098</ele>
        <time>2018-08-20T08:23:15Z</time>
      </trkpt>
      <trkpt lat="47.24529" lon="4.62377">
        <ele>371.946777</ele>
        <time>2018-08-20T08:23:16Z</time>
      </trkpt>
      <trkpt lat="47.24524" lon="4.62374">
        <ele>371.948639</ele>
        <time>2018-08-20T08:23:17Z</time>
      </trkpt>
      <trkpt lat="47.24519" lon="4.62372">
        <ele>371.948639</ele>
        <time>2018-08-20T08:23:18Z</time>
      </trkpt>
      <trkpt lat="47.24514" lon="4.62369">
        <ele>371.948639</ele>
        <time>2018-08-20T08:23:19Z</time>
      </trkpt>
      <trkpt lat="47.24509" lon="4.62366">
        <ele>371.921478</ele>
        <time>2018-08-20T08:23:20Z</time>
      </trkpt>
      <trkpt lat="47.24505" lon="4.62364">
        <ele>371.864594</ele>
        <time>2018-08-20T08:23:21Z</time>
      </trkpt>
      <trkpt lat="47.245" lon="4.62362">
        <ele>371.777832</ele>
        <time>2018-08-20T08:23:22Z</time>
      </trkpt>
      <trkpt lat="47.24495" lon="4.62359">
        <ele>371.777832</ele>
        <time>2018-08-20T08:23:23Z</time>
      </trkpt>
      <trkpt lat="47.2449" lon="4.62357">
        <ele>371.662598</ele>
        <time>2018-08-20T08:23:24Z</time>
      </trkpt>
      <trkpt lat="47.24485" lon="4.62354">
        <ele>371.523102</ele>
        <time>2018-08-20T08:23:25Z</time>
      </trkpt>
      <trkpt lat="47.2448" lon="4.62352">
        <ele>371.355621</ele>
        <time>2018-08-20T08:23:26Z</time>
      </trkpt>
      <trkpt lat="47.24475" lon="4.62349">
        <ele>371.188965</ele>
        <time>2018-08-20T08:23:27Z</time>
      </trkpt>
      <trkpt lat="47.2447" lon="4.62347">
        <ele>371.022308</ele>
        <time>2018-08-20T08:23:28Z</time>
      </trkpt>
      <trkpt lat="47.24465" lon="4.62344">
        <ele>370.855621</ele>
        <time>2018-08-20T08:23:29Z</time>
      </trkpt>
      <trkpt lat="47.2446" lon="4.62342">
        <ele>370.687347</ele>
        <time>2018-08-20T08:23:30Z</time>
      </trkpt>
      <trkpt lat="47.24455" lon="4.62339">
        <ele>370.519867</ele>
        <time>2018-08-20T08:23:31Z</time>
      </trkpt>
      <trkpt lat="47.2445" lon="4.62337">
        <ele>370.377441</ele>
        <time>2018-08-20T08:23:32Z</time>
      </trkpt>
      <trkpt lat="47.24446" lon="4.62334">
        <ele>370.244049</ele>
        <time>2018-08-20T08:23:33Z</time>
      </trkpt>
      <trkpt lat="47.24441" lon="4.62332">
        <ele>370.122955</ele>
        <time>2018-08-20T08:23:34Z</time>
      </trkpt>
      <trkpt lat="47.24436" lon="4.62329">
        <ele>370.013916</ele>
        <time>2018-08-20T08:23:35Z</time>
      </trkpt>
      <trkpt lat="47.24431" lon="4.62327">
        <ele>370.013916</ele>
        <time>2018-08-20T08:23:36Z</time>
      </trkpt>
      <trkpt lat="47.24427" lon="4.62324">
        <ele>369.918213</ele>
        <time>2018-08-20T08:23:37Z</time>
      </trkpt>
      <trkpt lat="47.24423" lon="4.62322">
        <ele>369.834229</ele>
        <time>2018-08-20T08:23:38Z</time>
      </trkpt>
      <trkpt lat="47.24418" lon="4.6232">
        <ele>369.750244</ele>
        <time>2018-08-20T08:23:39Z</time>
      </trkpt>
      <trkpt lat="47.24413" lon="4.62318">
        <ele>369.668945</ele>
        <time>2018-08-20T08:23:40Z</time>
      </trkpt>
      <trkpt lat="47.24408" lon="4.62316">
        <ele>369.589203</ele>
        <time>2018-08-20T08:23:41Z</time>
      </trkpt>
      <trkpt lat="47.24404" lon="4.62314">
        <ele>369.510345</ele>
        <time>2018-08-20T08:23:42Z</time>
      </trkpt>
      <trkpt lat="47.24399" lon="4.62312">
        <ele>369.431976</ele>
        <time>2018-08-20T08:23:43Z</time>
      </trkpt>
      <trkpt lat="47.24394" lon="4.6231">
        <ele>369.35495</ele>
        <time>2018-08-20T08:23:44Z</time>
      </trkpt>
      <trkpt lat="47.2439" lon="4.62307">
        <ele>369.28952</ele>
        <time>2018-08-20T08:23:45Z</time>
      </trkpt>
      <trkpt lat="47.24386" lon="4.62305">
        <ele>369.243164</ele>
        <time>2018-08-20T08:23:46Z</time>
      </trkpt>
      <trkpt lat="47.24381" lon="4.62303">
        <ele>369.231842</ele>
        <time>2018-08-20T08:23:47Z</time>
      </trkpt>
      <trkpt lat="47.24377" lon="4.623">
        <ele>369.231842</ele>
        <time>2018-08-20T08:23:48Z</time>
      </trkpt>
      <trkpt lat="47.24373" lon="4.62298">
        <ele>369.231842</ele>
        <time>2018-08-20T08:23:49Z</time>
      </trkpt>
      <trkpt lat="47.24368" lon="4.62296">
        <ele>369.256317</ele>
        <time>2018-08-20T08:23:50Z</time>
      </trkpt>
      <trkpt lat="47.24363" lon="4.62294">
        <ele>369.317017</ele>
        <time>2018-08-20T08:23:51Z</time>
      </trkpt>
      <trkpt lat="47.24359" lon="4.62292">
        <ele>369.414581</ele>
        <time>2018-08-20T08:23:52Z</time>
      </trkpt>
      <trkpt lat="47.24355" lon="4.6229">
        <ele>369.550323</ele>
        <time>2018-08-20T08:23:53Z</time>
      </trkpt>
      <trkpt lat="47.24351" lon="4.62288">
        <ele>369.706543</ele>
        <time>2018-08-20T08:23:54Z</time>
      </trkpt>
      <trkpt lat="47.24347" lon="4.62286">
        <ele>369.865692</ele>
        <time>2018-08-20T08:23:55Z</time>
      </trkpt>
      <trkpt lat="47.24342" lon="4.62284">
        <ele>370.027985</ele>
        <time>2018-08-20T08:23:56Z</time>
      </trkpt>
      <trkpt lat="47.24338" lon="4.62283">
        <ele>370.19165</ele>
        <time>2018-08-20T08:23:57Z</time>
      </trkpt>
      <trkpt lat="47.24333" lon="4.6228">
        <ele>370.356842</ele>
        <time>2018-08-20T08:23:58Z</time>
      </trkpt>
      <trkpt lat="47.24329" lon="4.62279">
        <ele>370.52475</ele>
        <time>2018-08-20T08:23:59Z</time>
      </trkpt>
      <trkpt lat="47.24324" lon="4.62277">
        <ele>370.695038</ele>
        <time>2018-08-20T08:24:00Z</time>
      </trkpt>
      <trkpt lat="47.2432" lon="4.62275">
        <ele>370.695038</ele>
        <time>2018-08-20T08:24:01Z</time>
      </trkpt>
      <trkpt lat="47.24316" lon="4.62273">
        <ele>370.869171</ele>
        <time>2018-08-20T08:24:02Z</time>
      </trkpt>
      <trkpt lat="47.24311" lon="4.6227">
        <ele>371.047882</ele>
        <time>2018-08-20T08:24:03Z</time>
      </trkpt>
      <trkpt lat="47.24307" lon="4.62269">
        <ele>371.28476</ele>
        <time>2018-08-20T08:24:04Z</time>
      </trkpt>
      <trkpt lat="47.24303" lon="4.62267">
        <ele>371.53775</ele>
        <time>2018-08-20T08:24:05Z</time>
      </trkpt>
      <trkpt lat="47.24299" lon="4.62265">
        <ele>371.804443</ele>
        <time>2018-08-20T08:24:06Z</time>
      </trkpt>
      <trkpt lat="47.24295" lon="4.62263">
        <ele>372.084961</ele>
        <time>2018-08-20T08:24:07Z</time>
      </trkpt>
      <trkpt lat="47.24292" lon="4.62261">
        <ele>372.379425</ele>
        <time>2018-08-20T08:24:08Z</time>
      </trkpt>
      <trkpt lat="47.24288" lon="4.6226">
        <ele>372.684418</ele>
        <time>2018-08-20T08:24:09Z</time>
      </trkpt>
      <trkpt lat="47.24284" lon="4.62258">
        <ele>372.944702</ele>
        <time>2018-08-20T08:24:10Z</time>
      </trkpt>
      <trkpt lat="47.2428" lon="4.62256">
        <ele>373.199615</ele>
        <time>2018-08-20T08:24:11Z</time>
      </trkpt>
      <trkpt lat="47.24276" lon="4.62254">
        <ele>373.452972</ele>
        <time>2018-08-20T08:24:12Z</time>
      </trkpt>
      <trkpt lat="47.24272" lon="4.62252">
        <ele>373.703949</ele>
        <time>2018-08-20T08:24:13Z</time>
      </trkpt>
      <trkpt lat="47.24268" lon="4.6225">
        <ele>373.953156</ele>
        <time>2018-08-20T08:24:14Z</time>
      </trkpt>
      <trkpt lat="47.24264" lon="4.62248">
        <ele>374.203766</ele>
        <time>2018-08-20T08:24:15Z</time>
      </trkpt>
      <trkpt lat="47.2426" lon="4.62247">
        <ele>374.46347</ele>
        <time>2018-08-20T08:24:16Z</time>
      </trkpt>
      <trkpt lat="47.24255" lon="4.62245">
        <ele>374.731598</ele>
        <time>2018-08-20T08:24:17Z</time>
      </trkpt>
      <trkpt lat="47.24251" lon="4.62243">
        <ele>374.995941</ele>
        <time>2018-08-20T08:24:18Z</time>
      </trkpt>
      <trkpt lat="47.24246" lon="4.62241">
        <ele>375.22403</ele>
        <time>2018-08-20T08:24:19Z</time>
      </trkpt>
      <trkpt lat="47.24241" lon="4.62239">
        <ele>375.383057</ele>
        <time>2018-08-20T08:24:20Z</time>
      </trkpt>
      <trkpt lat="47.24237" lon="4.62238">
        <ele>375.473145</ele>
        <time>2018-08-20T08:24:21Z</time>
      </trkpt>
      <trkpt lat="47.24232" lon="4.62236">
        <ele>375.490723</ele>
        <time>2018-08-20T08:24:22Z</time>
      </trkpt>
      <trkpt lat="47.24227" lon="4.62234">
        <ele>375.490723</ele>
        <time>2018-08-20T08:24:23Z</time>
      </trkpt>
      <trkpt lat="47.24222" lon="4.62232">
        <ele>375.490723</ele>
        <time>2018-08-20T08:24:24Z</time>
      </trkpt>
      <trkpt lat="47.24218" lon="4.6223">
        <ele>375.436432</ele>
        <time>2018-08-20T08:24:25Z</time>
      </trkpt>
      <trkpt lat="47.24212" lon="4.6223">
        <ele>375.320526</ele>
        <time>2018-08-20T08:24:26Z</time>
      </trkpt>
      <trkpt lat="47.24207" lon="4.62229">
        <ele>375.175171</ele>
        <time>2018-08-20T08:24:27Z</time>
      </trkpt>
      <trkpt lat="47.24202" lon="4.62229">
        <ele>375.033844</ele>
        <time>2018-08-20T08:24:28Z</time>
      </trkpt>
      <trkpt lat="47.24197" lon="4.62228">
        <ele>374.895874</ele>
        <time>2018-08-20T08:24:29Z</time>
      </trkpt>
      <trkpt lat="47.24192" lon="4.62228">
        <ele>374.760132</ele>
        <time>2018-08-20T08:24:30Z</time>
      </trkpt>
      <trkpt lat="47.24188" lon="4.62227">
        <ele>374.628082</ele>
        <time>2018-08-20T08:24:31Z</time>
      </trkpt>
      <trkpt lat="47.24183" lon="4.62227">
        <ele>374.499298</ele>
        <time>2018-08-20T08:24:32Z</time>
      </trkpt>
      <trkpt lat="47.24178" lon="4.62226">
        <ele>374.373322</ele>
        <time>2018-08-20T08:24:33Z</time>
      </trkpt>
      <trkpt lat="47.24174" lon="4.62226">
        <ele>374.247437</ele>
        <time>2018-08-20T08:24:34Z</time>
      </trkpt>
      <trkpt lat="47.2417" lon="4.62226">
        <ele>374.119598</ele>
        <time>2018-08-20T08:24:35Z</time>
      </trkpt>
      <trkpt lat="47.24167" lon="4.62225">
        <ele>373.990601</ele>
        <time>2018-08-20T08:24:36Z</time>
      </trkpt>
      <trkpt lat="47.24163" lon="4.62226">
        <ele>373.990601</ele>
        <time>2018-08-20T08:24:37Z</time>
      </trkpt>
      <trkpt lat="47.24161" lon="4.62226">
        <ele>373.86142</ele>
        <time>2018-08-20T08:24:38Z</time>
      </trkpt>
      <trkpt lat="47.24157" lon="4.62227">
        <ele>373.733643</ele>
        <time>2018-08-20T08:24:39Z</time>
      </trkpt>
      <trkpt lat="47.24154" lon="4.62228">
        <ele>373.596527</ele>
        <time>2018-08-20T08:24:40Z</time>
      </trkpt>
      <trkpt lat="47.2415" lon="4.62229">
        <ele>373.466309</ele>
        <time>2018-08-20T08:24:41Z</time>
      </trkpt>
      <trkpt lat="47.24145" lon="4.6223">
        <ele>373.344086</ele>
        <time>2018-08-20T08:24:42Z</time>
      </trkpt>
      <trkpt lat="47.24141" lon="4.62231">
        <ele>373.225922</ele>
        <time>2018-08-20T08:24:43Z</time>
      </trkpt>
      <trkpt lat="47.24136" lon="4.62232">
        <ele>373.108551</ele>
        <time>2018-08-20T08:24:44Z</time>
      </trkpt>
      <trkpt lat="47.24132" lon="4.62232">
        <ele>372.988922</ele>
        <time>2018-08-20T08:24:45Z</time>
      </trkpt>
      <trkpt lat="47.24127" lon="4.62234">
        <ele>372.878082</ele>
        <time>2018-08-20T08:24:46Z</time>
      </trkpt>
      <trkpt lat="47.24123" lon="4.62235">
        <ele>372.759918</ele>
        <time>2018-08-20T08:24:47Z</time>
      </trkpt>
      <trkpt lat="47.24118" lon="4.62235">
        <ele>372.635406</ele>
        <time>2018-08-20T08:24:48Z</time>
      </trkpt>
      <trkpt lat="47.24114" lon="4.62236">
        <ele>372.50766</ele>
        <time>2018-08-20T08:24:49Z</time>
      </trkpt>
      <trkpt lat="47.2411" lon="4.62238">
        <ele>372.378082</ele>
        <time>2018-08-20T08:24:50Z</time>
      </trkpt>
      <trkpt lat="47.24105" lon="4.62239">
        <ele>372.254395</ele>
        <time>2018-08-20T08:24:51Z</time>
      </trkpt>
      <trkpt lat="47.24101" lon="4.62242">
        <ele>372.140961</ele>
        <time>2018-08-20T08:24:52Z</time>
      </trkpt>
      <trkpt lat="47.24096" lon="4.62244">
        <ele>372.038818</ele>
        <time>2018-08-20T08:24:53Z</time>
      </trkpt>
      <trkpt lat="47.24091" lon="4.62246">
        <ele>371.947906</ele>
        <time>2018-08-20T08:24:54Z</time>
      </trkpt>
      <trkpt lat="47.24087" lon="4.62249">
        <ele>371.86792</ele>
        <time>2018-08-20T08:24:55Z</time>
      </trkpt>
      <trkpt lat="47.24082" lon="4.62251">
        <ele>371.798584</ele>
        <time>2018-08-20T08:24:56Z</time>
      </trkpt>
      <trkpt lat="47.24078" lon="4.62253">
        <ele>371.73349</ele>
        <time>2018-08-20T08:24:57Z</time>
      </trkpt>
      <trkpt lat="47.24073" lon="4.62256">
        <ele>371.667969</ele>
        <time>2018-08-20T08:24:58Z</time>
      </trkpt>
      <trkpt lat="47.24068" lon="4.62258">
        <ele>371.599854</ele>
        <time>2018-08-20T08:24:59Z</time>
      </trkpt>
      <trkpt lat="47.24064" lon="4.62261">
        <ele>371.527252</ele>
        <time>2018-08-20T08:25:00Z</time>
      </trkpt>
      <trkpt lat="47.2406" lon="4.62264">
        <ele>371.449615</ele>
        <time>2018-08-20T08:25:01Z</time>
      </trkpt>
      <trkpt lat="47.24056" lon="4.62266">
        <ele>371.366852</ele>
        <time>2018-08-20T08:25:02Z</time>
      </trkpt>
      <trkpt lat="47.24052" lon="4.62269">
        <ele>371.277832</ele>
        <time>2018-08-20T08:25:03Z</time>
      </trkpt>
      <trkpt lat="47.24048" lon="4.62271">
        <ele>371.182526</ele>
        <time>2018-08-20T08:25:04Z</time>
      </trkpt>
      <trkpt lat="47.24043" lon="4.62274">
        <ele>371.082428</ele>
        <time>2018-08-20T08:25:05Z</time>
      </trkpt>
      <trkpt lat="47.24039" lon="4.62276">
        <ele>370.97934</ele>
        <time>2018-08-20T08:25:06Z</time>
      </trkpt>
      <trkpt lat="47.24034" lon="4.62278">
        <ele>370.876068</ele>
        <time>2018-08-20T08:25:07Z</time>
      </trkpt>
      <trkpt lat="47.24029" lon="4.62281">
        <ele>370.772949</ele>
        <time>2018-08-20T08:25:08Z</time>
      </trkpt>
      <trkpt lat="47.24024" lon="4.62284">
        <ele>370.772949</ele>
        <time>2018-08-20T08:25:09Z</time>
      </trkpt>
      <trkpt lat="47.24019" lon="4.62287">
        <ele>370.670074</ele>
        <time>2018-08-20T08:25:10Z</time>
      </trkpt>
      <trkpt lat="47.24014" lon="4.6229">
        <ele>370.56778</ele>
        <time>2018-08-20T08:25:11Z</time>
      </trkpt>
      <trkpt lat="47.24009" lon="4.62293">
        <ele>370.447021</ele>
        <time>2018-08-20T08:25:12Z</time>
      </trkpt>
      <trkpt lat="47.24004" lon="4.62296">
        <ele>370.324066</ele>
        <time>2018-08-20T08:25:13Z</time>
      </trkpt>
      <trkpt lat="47.23999" lon="4.62299">
        <ele>370.197357</ele>
        <time>2018-08-20T08:25:14Z</time>
      </trkpt>
      <trkpt lat="47.23994" lon="4.62302">
        <ele>370.066742</ele>
        <time>2018-08-20T08:25:15Z</time>
      </trkpt>
      <trkpt lat="47.23989" lon="4.62304">
        <ele>369.933197</ele>
        <time>2018-08-20T08:25:16Z</time>
      </trkpt>
      <trkpt lat="47.23984" lon="4.62306">
        <ele>369.797272</ele>
        <time>2018-08-20T08:25:17Z</time>
      </trkpt>
      <trkpt lat="47.2398" lon="4.62309">
        <ele>369.679932</ele>
        <time>2018-08-20T08:25:18Z</time>
      </trkpt>
      <trkpt lat="47.23974" lon="4.62312">
        <ele>369.565521</ele>
        <time>2018-08-20T08:25:19Z</time>
      </trkpt>
      <trkpt lat="47.23969" lon="4.62315">
        <ele>369.453461</ele>
        <time>2018-08-20T08:25:20Z</time>
      </trkpt>
      <trkpt lat="47.23964" lon="4.62318">
        <ele>369.34375</ele>
        <time>2018-08-20T08:25:21Z</time>
      </trkpt>
      <trkpt lat="47.2396" lon="4.62321">
        <ele>369.233734</ele>
        <time>2018-08-20T08:25:22Z</time>
      </trkpt>
      <trkpt lat="47.23955" lon="4.62324">
        <ele>369.123291</ele>
        <time>2018-08-20T08:25:23Z</time>
      </trkpt>
      <trkpt lat="47.23951" lon="4.62326">
        <ele>369.01123</ele>
        <time>2018-08-20T08:25:24Z</time>
      </trkpt>
      <trkpt lat="47.23946" lon="4.62329">
        <ele>368.904144</ele>
        <time>2018-08-20T08:25:25Z</time>
      </trkpt>
      <trkpt lat="47.23941" lon="4.62331">
        <ele>368.803223</ele>
        <time>2018-08-20T08:25:26Z</time>
      </trkpt>
      <trkpt lat="47.23937" lon="4.62335">
        <ele>368.709564</ele>
        <time>2018-08-20T08:25:27Z</time>
      </trkpt>
      <trkpt lat="47.23932" lon="4.62337">
        <ele>368.62558</ele>
        <time>2018-08-20T08:25:28Z</time>
      </trkpt>
      <trkpt lat="47.23928" lon="4.6234">
        <ele>368.550446</ele>
        <time>2018-08-20T08:25:29Z</time>
      </trkpt>
      <trkpt lat="47.23923" lon="4.62343">
        <ele>368.483887</ele>
        <time>2018-08-20T08:25:30Z</time>
      </trkpt>
      <trkpt lat="47.23918" lon="4.62346">
        <ele>368.417969</ele>
        <time>2018-08-20T08:25:31Z</time>
      </trkpt>
      <trkpt lat="47.23914" lon="4.62349">
        <ele>368.351959</ele>
        <time>2018-08-20T08:25:32Z</time>
      </trkpt>
      <trkpt lat="47.23909" lon="4.62352">
        <ele>368.285645</ele>
        <time>2018-08-20T08:25:33Z</time>
      </trkpt>
      <trkpt lat="47.23904" lon="4.62355">
        <ele>368.218109</ele>
        <time>2018-08-20T08:25:34Z</time>
      </trkpt>
      <trkpt lat="47.239" lon="4.62357">
        <ele>368.167358</ele>
        <time>2018-08-20T08:25:35Z</time>
      </trkpt>
      <trkpt lat="47.23896" lon="4.62359">
        <ele>368.134277</ele>
        <time>2018-08-20T08:25:36Z</time>
      </trkpt>
      <trkpt lat="47.23891" lon="4.62362">
        <ele>368.120117</ele>
        <time>2018-08-20T08:25:37Z</time>
      </trkpt>
      <trkpt lat="47.23887" lon="4.62365">
        <ele>368.120117</ele>
        <time>2018-08-20T08:25:38Z</time>
      </trkpt>
      <trkpt lat="47.23883" lon="4.62367">
        <ele>368.120117</ele>
        <time>2018-08-20T08:25:39Z</time>
      </trkpt>
      <trkpt lat="47.23879" lon="4.6237">
        <ele>368.120117</ele>
        <time>2018-08-20T08:25:40Z</time>
      </trkpt>
      <trkpt lat="47.23874" lon="4.62372">
        <ele>368.134918</ele>
        <time>2018-08-20T08:25:41Z</time>
      </trkpt>
      <trkpt lat="47.2387" lon="4.62375">
        <ele>368.170776</ele>
        <time>2018-08-20T08:25:42Z</time>
      </trkpt>
      <trkpt lat="47.23866" lon="4.62378">
        <ele>368.229004</ele>
        <time>2018-08-20T08:25:43Z</time>
      </trkpt>
      <trkpt lat="47.23862" lon="4.6238">
        <ele>368.292877</ele>
        <time>2018-08-20T08:25:44Z</time>
      </trkpt>
      <trkpt lat="47.23857" lon="4.62382">
        <ele>368.361847</ele>
        <time>2018-08-20T08:25:45Z</time>
      </trkpt>
      <trkpt lat="47.23853" lon="4.62384">
        <ele>368.43692</ele>
        <time>2018-08-20T08:25:46Z</time>
      </trkpt>
      <trkpt lat="47.23849" lon="4.62387">
        <ele>368.508148</ele>
        <time>2018-08-20T08:25:47Z</time>
      </trkpt>
      <trkpt lat="47.23844" lon="4.62389">
        <ele>368.582764</ele>
        <time>2018-08-20T08:25:48Z</time>
      </trkpt>
      <trkpt lat="47.2384" lon="4.62392">
        <ele>368.660858</ele>
        <time>2018-08-20T08:25:49Z</time>
      </trkpt>
      <trkpt lat="47.23836" lon="4.62394">
        <ele>368.743408</ele>
        <time>2018-08-20T08:25:50Z</time>
      </trkpt>
      <trkpt lat="47.23832" lon="4.62396">
        <ele>368.851532</ele>
        <time>2018-08-20T08:25:51Z</time>
      </trkpt>
      <trkpt lat="47.23828" lon="4.62398">
        <ele>369.006744</ele>
        <time>2018-08-20T08:25:52Z</time>
      </trkpt>
      <trkpt lat="47.23824" lon="4.624">
        <ele>369.205292</ele>
        <time>2018-08-20T08:25:53Z</time>
      </trkpt>
      <trkpt lat="47.2382" lon="4.62402">
        <ele>369.450165</ele>
        <time>2018-08-20T08:25:54Z</time>
      </trkpt>
      <trkpt lat="47.23817" lon="4.62404">
        <ele>369.73938</ele>
        <time>2018-08-20T08:25:55Z</time>
      </trkpt>
      <trkpt lat="47.23813" lon="4.62407">
        <ele>370.068512</ele>
        <time>2018-08-20T08:25:56Z</time>
      </trkpt>
      <trkpt lat="47.2381" lon="4.62409">
        <ele>370.416962</ele>
        <time>2018-08-20T08:25:57Z</time>
      </trkpt>
      <trkpt lat="47.23806" lon="4.62411">
        <ele>370.761597</ele>
        <time>2018-08-20T08:25:58Z</time>
      </trkpt>
      <trkpt lat="47.23802" lon="4.62414">
        <ele>371.109619</ele>
        <time>2018-08-20T08:25:59Z</time>
      </trkpt>
      <trkpt lat="47.23798" lon="4.62416">
        <ele>371.455658</ele>
        <time>2018-08-20T08:26:00Z</time>
      </trkpt>
      <trkpt lat="47.23795" lon="4.62418">
        <ele>371.809082</ele>
        <time>2018-08-20T08:26:01Z</time>
      </trkpt>
      <trkpt lat="47.23791" lon="4.62421">
        <ele>372.173431</ele>
        <time>2018-08-20T08:26:02Z</time>
      </trkpt>
      <trkpt lat="47.23788" lon="4.62422">
        <ele>372.545898</ele>
        <time>2018-08-20T08:26:03Z</time>
      </trkpt>
      <trkpt lat="47.23784" lon="4.62425">
        <ele>372.928345</ele>
        <time>2018-08-20T08:26:04Z</time>
      </trkpt>
      <trkpt lat="47.23781" lon="4.62427">
        <ele>372.928345</ele>
        <time>2018-08-20T08:26:05Z</time>
      </trkpt>
      <trkpt lat="47.23778" lon="4.62429">
        <ele>373.316406</ele>
        <time>2018-08-20T08:26:06Z</time>
      </trkpt>
      <trkpt lat="47.23775" lon="4.62431">
        <ele>373.709351</ele>
        <time>2018-08-20T08:26:07Z</time>
      </trkpt>
      <trkpt lat="47.23772" lon="4.62433">
        <ele>374.160553</ele>
        <time>2018-08-20T08:26:08Z</time>
      </trkpt>
      <trkpt lat="47.2377" lon="4.62435">
        <ele>374.607269</ele>
        <time>2018-08-20T08:26:09Z</time>
      </trkpt>
      <trkpt lat="47.23768" lon="4.62437">
        <ele>375.054657</ele>
        <time>2018-08-20T08:26:10Z</time>
      </trkpt>
      <trkpt lat="47.23766" lon="4.6244">
        <ele>375.054657</ele>
        <time>2018-08-20T08:26:11Z</time>
      </trkpt>
      <trkpt lat="47.23765" lon="4.62442">
        <ele>375.503418</ele>
        <time>2018-08-20T08:26:12Z</time>
      </trkpt>
      <trkpt lat="47.23763" lon="4.62443">
        <ele>375.947266</ele>
        <time>2018-08-20T08:26:13Z</time>
      </trkpt>
      <trkpt lat="47.23761" lon="4.62444">
        <ele>376.444977</ele>
        <time>2018-08-20T08:26:14Z</time>
      </trkpt>
      <trkpt lat="47.23759" lon="4.62445">
        <ele>376.873535</ele>
        <time>2018-08-20T08:26:15Z</time>
      </trkpt>
      <trkpt lat="47.23758" lon="4.62447">
        <ele>377.29126</ele>
        <time>2018-08-20T08:26:16Z</time>
      </trkpt>
      <trkpt lat="47.23756" lon="4.6245">
        <ele>377.688751</ele>
        <time>2018-08-20T08:26:17Z</time>
      </trkpt>
      <trkpt lat="47.23755" lon="4.62452">
        <ele>378.05954</ele>
        <time>2018-08-20T08:26:18Z</time>
      </trkpt>
      <trkpt lat="47.23753" lon="4.62452">
        <ele>378.418945</ele>
        <time>2018-08-20T08:26:19Z</time>
      </trkpt>
      <trkpt lat="47.23751" lon="4.62451">
        <ele>378.71347</ele>
        <time>2018-08-20T08:26:20Z</time>
      </trkpt>
      <trkpt lat="47.23749" lon="4.62448">
        <ele>379.006378</ele>
        <time>2018-08-20T08:26:21Z</time>
      </trkpt>
      <trkpt lat="47.23748" lon="4.62444">
        <ele>379.295258</ele>
        <time>2018-08-20T08:26:22Z</time>
      </trkpt>
      <trkpt lat="47.23749" lon="4.6244">
        <ele>379.543793</ele>
        <time>2018-08-20T08:26:23Z</time>
      </trkpt>
      <trkpt lat="47.23751" lon="4.62434">
        <ele>379.69278</ele>
        <time>2018-08-20T08:26:24Z</time>
      </trkpt>
      <trkpt lat="47.23753" lon="4.62429">
        <ele>379.702759</ele>
        <time>2018-08-20T08:26:25Z</time>
      </trkpt>
      <trkpt lat="47.23756" lon="4.62423">
        <ele>379.702759</ele>
        <time>2018-08-20T08:26:26Z</time>
      </trkpt>
      <trkpt lat="47.23758" lon="4.62416">
        <ele>379.702759</ele>
        <time>2018-08-20T08:26:27Z</time>
      </trkpt>
      <trkpt lat="47.23761" lon="4.62409">
        <ele>379.702759</ele>
        <time>2018-08-20T08:26:28Z</time>
      </trkpt>
      <trkpt lat="47.23763" lon="4.62402">
        <ele>379.459137</ele>
        <time>2018-08-20T08:26:29Z</time>
      </trkpt>
      <trkpt lat="47.23766" lon="4.62395">
        <ele>379.061035</ele>
        <time>2018-08-20T08:26:30Z</time>
      </trkpt>
      <trkpt lat="47.23768" lon="4.62388">
        <ele>378.506622</ele>
        <time>2018-08-20T08:26:31Z</time>
      </trkpt>
      <trkpt lat="47.23771" lon="4.6238">
        <ele>377.83847</ele>
        <time>2018-08-20T08:26:32Z</time>
      </trkpt>
      <trkpt lat="47.23774" lon="4.62372">
        <ele>377.126251</ele>
        <time>2018-08-20T08:26:33Z</time>
      </trkpt>
      <trkpt lat="47.23777" lon="4.62365">
        <ele>376.399933</ele>
        <time>2018-08-20T08:26:34Z</time>
      </trkpt>
      <trkpt lat="47.2378" lon="4.62357">
        <ele>375.755524</ele>
        <time>2018-08-20T08:26:35Z</time>
      </trkpt>
      <trkpt lat="47.23783" lon="4.6235">
        <ele>375.095734</ele>
        <time>2018-08-20T08:26:36Z</time>
      </trkpt>
      <trkpt lat="47.23786" lon="4.62343">
        <ele>374.43277</ele>
        <time>2018-08-20T08:26:37Z</time>
      </trkpt>
      <trkpt lat="47.23788" lon="4.62335">
        <ele>373.776733</ele>
        <time>2018-08-20T08:26:38Z</time>
      </trkpt>
      <trkpt lat="47.23791" lon="4.62327">
        <ele>373.776733</ele>
        <time>2018-08-20T08:26:39Z</time>
      </trkpt>
      <trkpt lat="47.23793" lon="4.62318">
        <ele>373.132202</ele>
        <time>2018-08-20T08:26:40Z</time>
      </trkpt>
      <trkpt lat="47.23795" lon="4.62309">
        <ele>372.505768</ele>
        <time>2018-08-20T08:26:41Z</time>
      </trkpt>
      <trkpt lat="47.23797" lon="4.623">
        <ele>371.827637</ele>
        <time>2018-08-20T08:26:42Z</time>
      </trkpt>
      <trkpt lat="47.23798" lon="4.62291">
        <ele>371.184052</ele>
        <time>2018-08-20T08:26:43Z</time>
      </trkpt>
      <trkpt lat="47.23799" lon="4.62283">
        <ele>370.611664</ele>
        <time>2018-08-20T08:26:44Z</time>
      </trkpt>
      <trkpt lat="47.238" lon="4.62274">
        <ele>370.611664</ele>
        <time>2018-08-20T08:26:45Z</time>
      </trkpt>
      <trkpt lat="47.238" lon="4.62265">
        <ele>370.101166</ele>
        <time>2018-08-20T08:26:46Z</time>
      </trkpt>
      <trkpt lat="47.23801" lon="4.62256">
        <ele>369.645508</ele>
        <time>2018-08-20T08:26:47Z</time>
      </trkpt>
      <trkpt lat="47.23801" lon="4.62247">
        <ele>369.213135</ele>
        <time>2018-08-20T08:26:48Z</time>
      </trkpt>
      <trkpt lat="47.23803" lon="4.62238">
        <ele>368.922485</ele>
        <time>2018-08-20T08:26:49Z</time>
      </trkpt>
      <trkpt lat="47.23804" lon="4.6223">
        <ele>368.731903</ele>
        <time>2018-08-20T08:26:50Z</time>
      </trkpt>
      <trkpt lat="47.23804" lon="4.62221">
        <ele>368.631622</ele>
        <time>2018-08-20T08:26:51Z</time>
      </trkpt>
      <trkpt lat="47.23805" lon="4.62213">
        <ele>368.619873</ele>
        <time>2018-08-20T08:26:52Z</time>
      </trkpt>
      <trkpt lat="47.23805" lon="4.62205">
        <ele>368.619873</ele>
        <time>2018-08-20T08:26:53Z</time>
      </trkpt>
      <trkpt lat="47.23806" lon="4.62197">
        <ele>368.619873</ele>
        <time>2018-08-20T08:26:54Z</time>
      </trkpt>
      <trkpt lat="47.23807" lon="4.62189">
        <ele>368.693207</ele>
        <time>2018-08-20T08:26:55Z</time>
      </trkpt>
      <trkpt lat="47.23808" lon="4.62181">
        <ele>368.876556</ele>
        <time>2018-08-20T08:26:56Z</time>
      </trkpt>
      <trkpt lat="47.23809" lon="4.62173">
        <ele>369.13797</ele>
        <time>2018-08-20T08:26:57Z</time>
      </trkpt>
      <trkpt lat="47.23811" lon="4.62166">
        <ele>369.429718</ele>
        <time>2018-08-20T08:26:58Z</time>
      </trkpt>
      <trkpt lat="47.23812" lon="4.62158">
        <ele>369.719513</ele>
        <time>2018-08-20T08:26:59Z</time>
      </trkpt>
      <trkpt lat="47.23814" lon="4.62151">
        <ele>370.020599</ele>
        <time>2018-08-20T08:27:00Z</time>
      </trkpt>
      <trkpt lat="47.23815" lon="4.62144">
        <ele>370.020599</ele>
        <time>2018-08-20T08:27:01Z</time>
      </trkpt>
      <trkpt lat="47.23817" lon="4.62138">
        <ele>370.331879</ele>
        <time>2018-08-20T08:27:02Z</time>
      </trkpt>
      <trkpt lat="47.23818" lon="4.62132">
        <ele>370.652679</ele>
        <time>2018-08-20T08:27:03Z</time>
      </trkpt>
      <trkpt lat="47.23821" lon="4.62126">
        <ele>371.03299</ele>
        <time>2018-08-20T08:27:04Z</time>
      </trkpt>
      <trkpt lat="47.23823" lon="4.62121">
        <ele>371.415131</ele>
        <time>2018-08-20T08:27:05Z</time>
      </trkpt>
      <trkpt lat="47.23825" lon="4.62116">
        <ele>371.797852</ele>
        <time>2018-08-20T08:27:06Z</time>
      </trkpt>
      <trkpt lat="47.23828" lon="4.62111">
        <ele>372.167633</ele>
        <time>2018-08-20T08:27:07Z</time>
      </trkpt>
      <trkpt lat="47.2383" lon="4.62106">
        <ele>372.52359</ele>
        <time>2018-08-20T08:27:08Z</time>
      </trkpt>
      <trkpt lat="47.23834" lon="4.62101">
        <ele>372.863922</ele>
        <time>2018-08-20T08:27:09Z</time>
      </trkpt>
      <trkpt lat="47.23836" lon="4.62097">
        <ele>373.141815</ele>
        <time>2018-08-20T08:27:10Z</time>
      </trkpt>
      <trkpt lat="47.23839" lon="4.62092">
        <ele>373.141815</ele>
        <time>2018-08-20T08:27:11Z</time>
      </trkpt>
      <trkpt lat="47.23842" lon="4.62088">
        <ele>373.413971</ele>
        <time>2018-08-20T08:27:12Z</time>
      </trkpt>
      <trkpt lat="47.23844" lon="4.62083">
        <ele>373.680023</ele>
        <time>2018-08-20T08:27:13Z</time>
      </trkpt>
      <trkpt lat="47.23846" lon="4.62079">
        <ele>373.978027</ele>
        <time>2018-08-20T08:27:14Z</time>
      </trkpt>
      <trkpt lat="47.23849" lon="4.62075">
        <ele>374.268768</ele>
        <time>2018-08-20T08:27:15Z</time>
      </trkpt>
      <trkpt lat="47.23851" lon="4.62071">
        <ele>374.553314</ele>
        <time>2018-08-20T08:27:16Z</time>
      </trkpt>
      <trkpt lat="47.23854" lon="4.62067">
        <ele>374.827606</ele>
        <time>2018-08-20T08:27:17Z</time>
      </trkpt>
      <trkpt lat="47.23856" lon="4.62062">
        <ele>375.081696</ele>
        <time>2018-08-20T08:27:18Z</time>
      </trkpt>
      <trkpt lat="47.23859" lon="4.62058">
        <ele>375.316803</ele>
        <time>2018-08-20T08:27:19Z</time>
      </trkpt>
      <trkpt lat="47.23862" lon="4.62052">
        <ele>375.497223</ele>
        <time>2018-08-20T08:27:20Z</time>
      </trkpt>
      <trkpt lat="47.23864" lon="4.62047">
        <ele>375.664795</ele>
        <time>2018-08-20T08:27:21Z</time>
      </trkpt>
      <trkpt lat="47.23866" lon="4.62042">
        <ele>375.825317</ele>
        <time>2018-08-20T08:27:22Z</time>
      </trkpt>
      <trkpt lat="47.23869" lon="4.62037">
        <ele>375.982758</ele>
        <time>2018-08-20T08:27:23Z</time>
      </trkpt>
      <trkpt lat="47.23871" lon="4.62031">
        <ele>376.146576</ele>
        <time>2018-08-20T08:27:24Z</time>
      </trkpt>
      <trkpt lat="47.23872" lon="4.62026">
        <ele>376.318207</ele>
        <time>2018-08-20T08:27:25Z</time>
      </trkpt>
      <trkpt lat="47.23875" lon="4.6202">
        <ele>376.318207</ele>
        <time>2018-08-20T08:27:26Z</time>
      </trkpt>
      <trkpt lat="47.23877" lon="4.62014">
        <ele>376.495941</ele>
        <time>2018-08-20T08:27:27Z</time>
      </trkpt>
      <trkpt lat="47.23879" lon="4.62009">
        <ele>376.67691</ele>
        <time>2018-08-20T08:27:28Z</time>
      </trkpt>
      <trkpt lat="47.2388" lon="4.62003">
        <ele>376.887787</ele>
        <time>2018-08-20T08:27:29Z</time>
      </trkpt>
      <trkpt lat="47.23882" lon="4.61997">
        <ele>377.096527</ele>
        <time>2018-08-20T08:27:30Z</time>
      </trkpt>
      <trkpt lat="47.23884" lon="4.61991">
        <ele>377.304047</ele>
        <time>2018-08-20T08:27:31Z</time>
      </trkpt>
      <trkpt lat="47.23886" lon="4.61985">
        <ele>377.508789</ele>
        <time>2018-08-20T08:27:32Z</time>
      </trkpt>
      <trkpt lat="47.23888" lon="4.61979">
        <ele>377.71228</ele>
        <time>2018-08-20T08:27:33Z</time>
      </trkpt>
      <trkpt lat="47.2389" lon="4.61973">
        <ele>377.915405</ele>
        <time>2018-08-20T08:27:34Z</time>
      </trkpt>
      <trkpt lat="47.23891" lon="4.61967">
        <ele>378.08609</ele>
        <time>2018-08-20T08:27:35Z</time>
      </trkpt>
      <trkpt lat="47.23893" lon="4.61961">
        <ele>378.252777</ele>
        <time>2018-08-20T08:27:36Z</time>
      </trkpt>
      <trkpt lat="47.23895" lon="4.61955">
        <ele>378.411713</ele>
        <time>2018-08-20T08:27:37Z</time>
      </trkpt>
      <trkpt lat="47.23897" lon="4.6195">
        <ele>378.559235</ele>
        <time>2018-08-20T08:27:38Z</time>
      </trkpt>
      <trkpt lat="47.23899" lon="4.61944">
        <ele>378.693939</ele>
        <time>2018-08-20T08:27:39Z</time>
      </trkpt>
      <trkpt lat="47.239" lon="4.61938">
        <ele>378.693939</ele>
        <time>2018-08-20T08:27:40Z</time>
      </trkpt>
      <trkpt lat="47.23902" lon="4.61932">
        <ele>378.816559</ele>
        <time>2018-08-20T08:27:41Z</time>
      </trkpt>
      <trkpt lat="47.23904" lon="4.61926">
        <ele>378.929932</ele>
        <time>2018-08-20T08:27:42Z</time>
      </trkpt>
      <trkpt lat="47.23905" lon="4.6192">
        <ele>379.053558</ele>
        <time>2018-08-20T08:27:43Z</time>
      </trkpt>
      <trkpt lat="47.23907" lon="4.61915">
        <ele>379.175934</ele>
        <time>2018-08-20T08:27:44Z</time>
      </trkpt>
      <trkpt lat="47.23909" lon="4.61909">
        <ele>379.301392</ele>
        <time>2018-08-20T08:27:45Z</time>
      </trkpt>
      <trkpt lat="47.23911" lon="4.61904">
        <ele>379.301392</ele>
        <time>2018-08-20T08:27:46Z</time>
      </trkpt>
      <trkpt lat="47.23912" lon="4.61899">
        <ele>379.431763</ele>
        <time>2018-08-20T08:27:47Z</time>
      </trkpt>
      <trkpt lat="47.23914" lon="4.61894">
        <ele>379.567413</ele>
        <time>2018-08-20T08:27:48Z</time>
      </trkpt>
      <trkpt lat="47.23915" lon="4.61889">
        <ele>379.721191</ele>
        <time>2018-08-20T08:27:49Z</time>
      </trkpt>
      <trkpt lat="47.23917" lon="4.61884">
        <ele>379.847748</ele>
        <time>2018-08-20T08:27:50Z</time>
      </trkpt>
      <trkpt lat="47.23919" lon="4.61879">
        <ele>379.847748</ele>
        <time>2018-08-20T08:27:51Z</time>
      </trkpt>
      <trkpt lat="47.2392" lon="4.61874">
        <ele>379.961517</ele>
        <time>2018-08-20T08:27:52Z</time>
      </trkpt>
      <trkpt lat="47.23922" lon="4.61869">
        <ele>380.062256</ele>
        <time>2018-08-20T08:27:53Z</time>
      </trkpt>
      <trkpt lat="47.23924" lon="4.61864">
        <ele>380.144775</ele>
        <time>2018-08-20T08:27:54Z</time>
      </trkpt>
      <trkpt lat="47.23925" lon="4.61859">
        <ele>380.20932</ele>
        <time>2018-08-20T08:27:55Z</time>
      </trkpt>
      <trkpt lat="47.23926" lon="4.61854">
        <ele>380.242554</ele>
        <time>2018-08-20T08:27:56Z</time>
      </trkpt>
      <trkpt lat="47.23927" lon="4.61849">
        <ele>380.271027</ele>
        <time>2018-08-20T08:27:57Z</time>
      </trkpt>
      <trkpt lat="47.23929" lon="4.61844">
        <ele>380.29837</ele>
        <time>2018-08-20T08:27:58Z</time>
      </trkpt>
      <trkpt lat="47.2393" lon="4.6184">
        <ele>380.32605</ele>
        <time>2018-08-20T08:27:59Z</time>
      </trkpt>
      <trkpt lat="47.23931" lon="4.61835">
        <ele>380.358063</ele>
        <time>2018-08-20T08:28:00Z</time>
      </trkpt>
      <trkpt lat="47.23933" lon="4.61831">
        <ele>380.394623</ele>
        <time>2018-08-20T08:28:01Z</time>
      </trkpt>
      <trkpt lat="47.23934" lon="4.61826">
        <ele>380.433838</ele>
        <time>2018-08-20T08:28:02Z</time>
      </trkpt>
      <trkpt lat="47.23935" lon="4.6182">
        <ele>380.475922</ele>
        <time>2018-08-20T08:28:03Z</time>
      </trkpt>
      <trkpt lat="47.23937" lon="4.61815">
        <ele>380.518311</ele>
        <time>2018-08-20T08:28:04Z</time>
      </trkpt>
      <trkpt lat="47.23938" lon="4.6181">
        <ele>380.518311</ele>
        <time>2018-08-20T08:28:05Z</time>
      </trkpt>
      <trkpt lat="47.23939" lon="4.61805">
        <ele>380.562988</ele>
        <time>2018-08-20T08:28:06Z</time>
      </trkpt>
      <trkpt lat="47.2394" lon="4.618">
        <ele>380.611328</ele>
        <time>2018-08-20T08:28:07Z</time>
      </trkpt>
      <trkpt lat="47.23941" lon="4.61796">
        <ele>380.673187</ele>
        <time>2018-08-20T08:28:08Z</time>
      </trkpt>
      <trkpt lat="47.23942" lon="4.61791">
        <ele>380.74057</ele>
        <time>2018-08-20T08:28:09Z</time>
      </trkpt>
      <trkpt lat="47.23943" lon="4.61786">
        <ele>380.813324</ele>
        <time>2018-08-20T08:28:10Z</time>
      </trkpt>
      <trkpt lat="47.23945" lon="4.61781">
        <ele>380.891693</ele>
        <time>2018-08-20T08:28:11Z</time>
      </trkpt>
      <trkpt lat="47.23946" lon="4.61776">
        <ele>380.973175</ele>
        <time>2018-08-20T08:28:12Z</time>
      </trkpt>
      <trkpt lat="47.23947" lon="4.6177">
        <ele>381.056152</ele>
        <time>2018-08-20T08:28:13Z</time>
      </trkpt>
      <trkpt lat="47.23948" lon="4.61765">
        <ele>381.1315</ele>
        <time>2018-08-20T08:28:14Z</time>
      </trkpt>
      <trkpt lat="47.2395" lon="4.6176">
        <ele>381.210327</ele>
        <time>2018-08-20T08:28:15Z</time>
      </trkpt>
      <trkpt lat="47.23951" lon="4.61754">
        <ele>381.292267</ele>
        <time>2018-08-20T08:28:16Z</time>
      </trkpt>
      <trkpt lat="47.23953" lon="4.61749">
        <ele>381.382294</ele>
        <time>2018-08-20T08:28:17Z</time>
      </trkpt>
      <trkpt lat="47.23954" lon="4.61743">
        <ele>381.48349</ele>
        <time>2018-08-20T08:28:18Z</time>
      </trkpt>
      <trkpt lat="47.23956" lon="4.61738">
        <ele>381.595306</ele>
        <time>2018-08-20T08:28:19Z</time>
      </trkpt>
      <trkpt lat="47.23957" lon="4.61733">
        <ele>381.715454</ele>
        <time>2018-08-20T08:28:20Z</time>
      </trkpt>
      <trkpt lat="47.23959" lon="4.61727">
        <ele>381.842041</ele>
        <time>2018-08-20T08:28:21Z</time>
      </trkpt>
      <trkpt lat="47.23961" lon="4.61721">
        <ele>381.975189</ele>
        <time>2018-08-20T08:28:22Z</time>
      </trkpt>
      <trkpt lat="47.23962" lon="4.61716">
        <ele>382.111084</ele>
        <time>2018-08-20T08:28:23Z</time>
      </trkpt>
      <trkpt lat="47.23964" lon="4.6171">
        <ele>382.247314</ele>
        <time>2018-08-20T08:28:24Z</time>
      </trkpt>
      <trkpt lat="47.23966" lon="4.61705">
        <ele>382.383942</ele>
        <time>2018-08-20T08:28:25Z</time>
      </trkpt>
      <trkpt lat="47.23967" lon="4.617">
        <ele>382.521088</ele>
        <time>2018-08-20T08:28:26Z</time>
      </trkpt>
      <trkpt lat="47.23969" lon="4.61694">
        <ele>382.659821</ele>
        <time>2018-08-20T08:28:27Z</time>
      </trkpt>
      <trkpt lat="47.2397" lon="4.61689">
        <ele>382.798492</ele>
        <time>2018-08-20T08:28:28Z</time>
      </trkpt>
      <trkpt lat="47.23972" lon="4.61684">
        <ele>382.943695</ele>
        <time>2018-08-20T08:28:29Z</time>
      </trkpt>
      <trkpt lat="47.23974" lon="4.61679">
        <ele>383.133057</ele>
        <time>2018-08-20T08:28:30Z</time>
      </trkpt>
      <trkpt lat="47.23975" lon="4.61674">
        <ele>383.368896</ele>
        <time>2018-08-20T08:28:31Z</time>
      </trkpt>
      <trkpt lat="47.23977" lon="4.61669">
        <ele>383.652863</ele>
        <time>2018-08-20T08:28:32Z</time>
      </trkpt>
      <trkpt lat="47.23978" lon="4.61665">
        <ele>383.980438</ele>
        <time>2018-08-20T08:28:33Z</time>
      </trkpt>
      <trkpt lat="47.2398" lon="4.6166">
        <ele>384.349609</ele>
        <time>2018-08-20T08:28:34Z</time>
      </trkpt>
      <trkpt lat="47.23982" lon="4.61656">
        <ele>384.753448</ele>
        <time>2018-08-20T08:28:35Z</time>
      </trkpt>
      <trkpt lat="47.23983" lon="4.61651">
        <ele>385.154907</ele>
        <time>2018-08-20T08:28:36Z</time>
      </trkpt>
      <trkpt lat="47.23985" lon="4.61647">
        <ele>385.551392</ele>
        <time>2018-08-20T08:28:37Z</time>
      </trkpt>
      <trkpt lat="47.23987" lon="4.61643">
        <ele>385.942657</ele>
        <time>2018-08-20T08:28:38Z</time>
      </trkpt>
      <trkpt lat="47.23989" lon="4.61639">
        <ele>386.331085</ele>
        <time>2018-08-20T08:28:39Z</time>
      </trkpt>
      <trkpt lat="47.23991" lon="4.61635">
        <ele>386.714447</ele>
        <time>2018-08-20T08:28:40Z</time>
      </trkpt>
      <trkpt lat="47.23993" lon="4.61632">
        <ele>387.091766</ele>
        <time>2018-08-20T08:28:41Z</time>
      </trkpt>
      <trkpt lat="47.23994" lon="4.61628">
        <ele>387.461548</ele>
        <time>2018-08-20T08:28:42Z</time>
      </trkpt>
      <trkpt lat="47.23996" lon="4.61624">
        <ele>387.822052</ele>
        <time>2018-08-20T08:28:43Z</time>
      </trkpt>
      <trkpt lat="47.23998" lon="4.6162">
        <ele>388.173828</ele>
        <time>2018-08-20T08:28:44Z</time>
      </trkpt>
      <trkpt lat="47.23999" lon="4.61616">
        <ele>388.173828</ele>
        <time>2018-08-20T08:28:45Z</time>
      </trkpt>
      <trkpt lat="47.24001" lon="4.61612">
        <ele>388.526367</ele>
        <time>2018-08-20T08:28:46Z</time>
      </trkpt>
      <trkpt lat="47.24003" lon="4.61608">
        <ele>388.885498</ele>
        <time>2018-08-20T08:28:47Z</time>
      </trkpt>
      <trkpt lat="47.24005" lon="4.61604">
        <ele>389.316498</ele>
        <time>2018-08-20T08:28:48Z</time>
      </trkpt>
      <trkpt lat="47.24006" lon="4.616">
        <ele>389.754303</ele>
        <time>2018-08-20T08:28:49Z</time>
      </trkpt>
      <trkpt lat="47.24008" lon="4.61596">
        <ele>390.210541</ele>
        <time>2018-08-20T08:28:50Z</time>
      </trkpt>
      <trkpt lat="47.2401" lon="4.61592">
        <ele>390.680511</ele>
        <time>2018-08-20T08:28:51Z</time>
      </trkpt>
      <trkpt lat="47.24012" lon="4.61588">
        <ele>391.150482</ele>
        <time>2018-08-20T08:28:52Z</time>
      </trkpt>
      <trkpt lat="47.24014" lon="4.61584">
        <ele>391.626129</ele>
        <time>2018-08-20T08:28:53Z</time>
      </trkpt>
      <trkpt lat="47.24016" lon="4.6158">
        <ele>392.042572</ele>
        <time>2018-08-20T08:28:54Z</time>
      </trkpt>
      <trkpt lat="47.24018" lon="4.61577">
        <ele>392.458984</ele>
        <time>2018-08-20T08:28:55Z</time>
      </trkpt>
      <trkpt lat="47.24019" lon="4.61573">
        <ele>392.863434</ele>
        <time>2018-08-20T08:28:56Z</time>
      </trkpt>
      <trkpt lat="47.24022" lon="4.6157">
        <ele>393.262787</ele>
        <time>2018-08-20T08:28:57Z</time>
      </trkpt>
      <trkpt lat="47.24023" lon="4.61566">
        <ele>393.662109</ele>
        <time>2018-08-20T08:28:58Z</time>
      </trkpt>
      <trkpt lat="47.24025" lon="4.61562">
        <ele>394.050629</ele>
        <time>2018-08-20T08:28:59Z</time>
      </trkpt>
      <trkpt lat="47.24027" lon="4.61559">
        <ele>394.427155</ele>
        <time>2018-08-20T08:29:00Z</time>
      </trkpt>
      <trkpt lat="47.24029" lon="4.61555">
        <ele>394.800873</ele>
        <time>2018-08-20T08:29:01Z</time>
      </trkpt>
      <trkpt lat="47.24031" lon="4.61552">
        <ele>395.17041</ele>
        <time>2018-08-20T08:29:02Z</time>
      </trkpt>
      <trkpt lat="47.24033" lon="4.61548">
        <ele>395.516754</ele>
        <time>2018-08-20T08:29:03Z</time>
      </trkpt>
      <trkpt lat="47.24035" lon="4.61545">
        <ele>395.842529</ele>
        <time>2018-08-20T08:29:04Z</time>
      </trkpt>
      <trkpt lat="47.24037" lon="4.61542">
        <ele>396.14917</ele>
        <time>2018-08-20T08:29:05Z</time>
      </trkpt>
      <trkpt lat="47.24039" lon="4.61539">
        <ele>396.436859</ele>
        <time>2018-08-20T08:29:06Z</time>
      </trkpt>
      <trkpt lat="47.24041" lon="4.61535">
        <ele>396.703125</ele>
        <time>2018-08-20T08:29:07Z</time>
      </trkpt>
      <trkpt lat="47.24043" lon="4.61532">
        <ele>396.949707</ele>
        <time>2018-08-20T08:29:08Z</time>
      </trkpt>
      <trkpt lat="47.24045" lon="4.61529">
        <ele>397.194672</ele>
        <time>2018-08-20T08:29:09Z</time>
      </trkpt>
      <trkpt lat="47.24047" lon="4.61526">
        <ele>397.433502</ele>
        <time>2018-08-20T08:29:10Z</time>
      </trkpt>
      <trkpt lat="47.24049" lon="4.61523">
        <ele>397.669922</ele>
        <time>2018-08-20T08:29:11Z</time>
      </trkpt>
      <trkpt lat="47.24051" lon="4.6152">
        <ele>397.900635</ele>
        <time>2018-08-20T08:29:12Z</time>
      </trkpt>
      <trkpt lat="47.24052" lon="4.61518">
        <ele>398.128906</ele>
        <time>2018-08-20T08:29:13Z</time>
      </trkpt>
      <trkpt lat="47.24055" lon="4.61515">
        <ele>398.35556</ele>
        <time>2018-08-20T08:29:14Z</time>
      </trkpt>
      <trkpt lat="47.24057" lon="4.61512">
        <ele>398.577728</ele>
        <time>2018-08-20T08:29:15Z</time>
      </trkpt>
      <trkpt lat="47.24059" lon="4.61509">
        <ele>398.793549</ele>
        <time>2018-08-20T08:29:16Z</time>
      </trkpt>
      <trkpt lat="47.24061" lon="4.61507">
        <ele>398.998444</ele>
        <time>2018-08-20T08:29:17Z</time>
      </trkpt>
      <trkpt lat="47.24063" lon="4.61504">
        <ele>399.19809</ele>
        <time>2018-08-20T08:29:18Z</time>
      </trkpt>
      <trkpt lat="47.24065" lon="4.61502">
        <ele>399.388763</ele>
        <time>2018-08-20T08:29:19Z</time>
      </trkpt>
      <trkpt lat="47.24067" lon="4.615">
        <ele>399.570557</ele>
        <time>2018-08-20T08:29:20Z</time>
      </trkpt>
      <trkpt lat="47.24068" lon="4.61498">
        <ele>399.739746</ele>
        <time>2018-08-20T08:29:21Z</time>
      </trkpt>
      <trkpt lat="47.2407" lon="4.61496">
        <ele>399.90274</ele>
        <time>2018-08-20T08:29:22Z</time>
      </trkpt>
      <trkpt lat="47.24071" lon="4.61494">
        <ele>400.060394</ele>
        <time>2018-08-20T08:29:23Z</time>
      </trkpt>
      <trkpt lat="47.24073" lon="4.61493">
        <ele>400.208649</ele>
        <time>2018-08-20T08:29:24Z</time>
      </trkpt>
      <trkpt lat="47.24075" lon="4.61491">
        <ele>400.34433</ele>
        <time>2018-08-20T08:29:25Z</time>
      </trkpt>
      <trkpt lat="47.24076" lon="4.6149">
        <ele>400.469574</ele>
        <time>2018-08-20T08:29:26Z</time>
      </trkpt>
      <trkpt lat="47.24078" lon="4.61489">
        <ele>400.580688</ele>
        <time>2018-08-20T08:29:27Z</time>
      </trkpt>
      <trkpt lat="47.24079" lon="4.61487">
        <ele>400.673584</ele>
        <time>2018-08-20T08:29:28Z</time>
      </trkpt>
      <trkpt lat="47.24081" lon="4.61486">
        <ele>400.752228</ele>
        <time>2018-08-20T08:29:29Z</time>
      </trkpt>
      <trkpt lat="47.24082" lon="4.61485">
        <ele>400.81839</ele>
        <time>2018-08-20T08:29:30Z</time>
      </trkpt>
      <trkpt lat="47.24083" lon="4.61484">
        <ele>400.875641</ele>
        <time>2018-08-20T08:29:31Z</time>
      </trkpt>
      <trkpt lat="47.24084" lon="4.61484">
        <ele>400.920013</ele>
        <time>2018-08-20T08:29:32Z</time>
      </trkpt>
      <trkpt lat="47.24085" lon="4.61483">
        <ele>400.960449</ele>
        <time>2018-08-20T08:29:33Z</time>
      </trkpt>
      <trkpt lat="47.24086" lon="4.61481">
        <ele>400.998322</ele>
        <time>2018-08-20T08:29:34Z</time>
      </trkpt>
      <trkpt lat="47.24085" lon="4.61479">
        <ele>401.031982</ele>
        <time>2018-08-20T08:29:35Z</time>
      </trkpt>
      <trkpt lat="47.24085" lon="4.61478">
        <ele>401.062469</ele>
        <time>2018-08-20T08:29:36Z</time>
      </trkpt>
      <trkpt lat="47.24083" lon="4.61479">
        <ele>401.098602</ele>
        <time>2018-08-20T08:29:37Z</time>
      </trkpt>
      <trkpt lat="47.24081" lon="4.61481">
        <ele>401.149078</ele>
        <time>2018-08-20T08:29:38Z</time>
      </trkpt>
      <trkpt lat="47.24078" lon="4.61482">
        <ele>401.191864</ele>
        <time>2018-08-20T08:29:39Z</time>
      </trkpt>
      <trkpt lat="47.24076" lon="4.61484">
        <ele>401.221558</ele>
        <time>2018-08-20T08:29:40Z</time>
      </trkpt>
      <trkpt lat="47.24073" lon="4.61486">
        <ele>401.221558</ele>
        <time>2018-08-20T08:29:41Z</time>
      </trkpt>
      <trkpt lat="47.2407" lon="4.61488">
        <ele>401.228027</ele>
        <time>2018-08-20T08:29:42Z</time>
      </trkpt>
      <trkpt lat="47.24067" lon="4.6149">
        <ele>401.228027</ele>
        <time>2018-08-20T08:29:43Z</time>
      </trkpt>
      <trkpt lat="47.24065" lon="4.61492">
        <ele>401.228027</ele>
        <time>2018-08-20T08:29:44Z</time>
      </trkpt>
      <trkpt lat="47.24063" lon="4.61494">
        <ele>401.221771</ele>
        <time>2018-08-20T08:29:45Z</time>
      </trkpt>
      <trkpt lat="47.24061" lon="4.61497">
        <ele>401.194824</ele>
        <time>2018-08-20T08:29:46Z</time>
      </trkpt>
      <trkpt lat="47.24059" lon="4.61498">
        <ele>401.13736</ele>
        <time>2018-08-20T08:29:47Z</time>
      </trkpt>
      <trkpt lat="47.24059" lon="4.61499">
        <ele>401.063873</ele>
        <time>2018-08-20T08:29:48Z</time>
      </trkpt>
      <trkpt lat="47.24058" lon="4.615">
        <ele>400.973236</ele>
        <time>2018-08-20T08:29:49Z</time>
      </trkpt>
      <trkpt lat="47.24067" lon="4.61497">
        <ele>400.591888</ele>
        <time>2018-08-20T08:30:55Z</time>
      </trkpt>
      <trkpt lat="47.24071" lon="4.61496">
        <ele>400.613617</ele>
        <time>2018-08-20T08:30:57Z</time>
      </trkpt>
      <trkpt lat="47.24074" lon="4.61494">
        <ele>400.63501</ele>
        <time>2018-08-20T08:30:58Z</time>
      </trkpt>
      <trkpt lat="47.24077" lon="4.61492">
        <ele>400.657471</ele>
        <time>2018-08-20T08:30:59Z</time>
      </trkpt>
      <trkpt lat="47.2408" lon="4.6149">
        <ele>400.681</ele>
        <time>2018-08-20T08:31:00Z</time>
      </trkpt>
      <trkpt lat="47.24083" lon="4.61488">
        <ele>400.704742</ele>
        <time>2018-08-20T08:31:01Z</time>
      </trkpt>
      <trkpt lat="47.24085" lon="4.61486">
        <ele>400.724121</ele>
        <time>2018-08-20T08:31:02Z</time>
      </trkpt>
      <trkpt lat="47.24088" lon="4.61483">
        <ele>400.73819</ele>
        <time>2018-08-20T08:31:03Z</time>
      </trkpt>
      <trkpt lat="47.24091" lon="4.61481">
        <ele>400.764771</ele>
        <time>2018-08-20T08:31:04Z</time>
      </trkpt>
      <trkpt lat="47.24093" lon="4.61478">
        <ele>400.809845</ele>
        <time>2018-08-20T08:31:05Z</time>
      </trkpt>
      <trkpt lat="47.24096" lon="4.61476">
        <ele>400.877167</ele>
        <time>2018-08-20T08:31:06Z</time>
      </trkpt>
      <trkpt lat="47.241" lon="4.61475">
        <ele>400.950531</ele>
        <time>2018-08-20T08:31:07Z</time>
      </trkpt>
      <trkpt lat="47.24103" lon="4.61473">
        <ele>401.023773</ele>
        <time>2018-08-20T08:31:08Z</time>
      </trkpt>
      <trkpt lat="47.24107" lon="4.61471">
        <ele>401.091156</ele>
        <time>2018-08-20T08:31:09Z</time>
      </trkpt>
      <trkpt lat="47.2411" lon="4.6147">
        <ele>401.1492</ele>
        <time>2018-08-20T08:31:10Z</time>
      </trkpt>
      <trkpt lat="47.24114" lon="4.61468">
        <ele>401.20108</ele>
        <time>2018-08-20T08:31:11Z</time>
      </trkpt>
      <trkpt lat="47.24117" lon="4.61466">
        <ele>401.243866</ele>
        <time>2018-08-20T08:31:12Z</time>
      </trkpt>
      <trkpt lat="47.2412" lon="4.61464">
        <ele>401.271698</ele>
        <time>2018-08-20T08:31:13Z</time>
      </trkpt>
      <trkpt lat="47.24125" lon="4.61463">
        <ele>401.287964</ele>
        <time>2018-08-20T08:31:14Z</time>
      </trkpt>
      <trkpt lat="47.24129" lon="4.61461">
        <ele>401.300171</ele>
        <time>2018-08-20T08:31:15Z</time>
      </trkpt>
      <trkpt lat="47.24133" lon="4.61459">
        <ele>401.311981</ele>
        <time>2018-08-20T08:31:16Z</time>
      </trkpt>
      <trkpt lat="47.24138" lon="4.61458">
        <ele>401.311981</ele>
        <time>2018-08-20T08:31:17Z</time>
      </trkpt>
      <trkpt lat="47.24142" lon="4.61456">
        <ele>401.319977</ele>
        <time>2018-08-20T08:31:18Z</time>
      </trkpt>
      <trkpt lat="47.24146" lon="4.61453">
        <ele>401.325958</ele>
        <time>2018-08-20T08:31:19Z</time>
      </trkpt>
      <trkpt lat="47.24151" lon="4.61451">
        <ele>401.337372</ele>
        <time>2018-08-20T08:31:20Z</time>
      </trkpt>
      <trkpt lat="47.24155" lon="4.6145">
        <ele>401.351044</ele>
        <time>2018-08-20T08:31:21Z</time>
      </trkpt>
      <trkpt lat="47.24159" lon="4.61449">
        <ele>401.368622</ele>
        <time>2018-08-20T08:31:22Z</time>
      </trkpt>
      <trkpt lat="47.24163" lon="4.61447">
        <ele>401.389404</ele>
        <time>2018-08-20T08:31:23Z</time>
      </trkpt>
      <trkpt lat="47.24168" lon="4.61446">
        <ele>401.407806</ele>
        <time>2018-08-20T08:31:24Z</time>
      </trkpt>
      <trkpt lat="47.24172" lon="4.61444">
        <ele>401.427094</ele>
        <time>2018-08-20T08:31:25Z</time>
      </trkpt>
      <trkpt lat="47.24177" lon="4.61442">
        <ele>401.442474</ele>
        <time>2018-08-20T08:31:26Z</time>
      </trkpt>
      <trkpt lat="47.24182" lon="4.6144">
        <ele>401.454987</ele>
        <time>2018-08-20T08:31:27Z</time>
      </trkpt>
      <trkpt lat="47.24186" lon="4.61438">
        <ele>401.462982</ele>
        <time>2018-08-20T08:31:28Z</time>
      </trkpt>
      <trkpt lat="47.24191" lon="4.61436">
        <ele>401.468597</ele>
        <time>2018-08-20T08:31:29Z</time>
      </trkpt>
      <trkpt lat="47.24196" lon="4.61434">
        <ele>401.474121</ele>
        <time>2018-08-20T08:31:30Z</time>
      </trkpt>
      <trkpt lat="47.242" lon="4.61433">
        <ele>401.472656</ele>
        <time>2018-08-20T08:31:31Z</time>
      </trkpt>
      <trkpt lat="47.24205" lon="4.61431">
        <ele>401.469482</ele>
        <time>2018-08-20T08:31:32Z</time>
      </trkpt>
      <trkpt lat="47.2421" lon="4.61429">
        <ele>401.46875</ele>
        <time>2018-08-20T08:31:33Z</time>
      </trkpt>
      <trkpt lat="47.24214" lon="4.61426">
        <ele>401.46109</ele>
        <time>2018-08-20T08:31:34Z</time>
      </trkpt>
      <trkpt lat="47.24219" lon="4.61424">
        <ele>401.44043</ele>
        <time>2018-08-20T08:31:35Z</time>
      </trkpt>
      <trkpt lat="47.24224" lon="4.61421">
        <ele>401.410645</ele>
        <time>2018-08-20T08:31:36Z</time>
      </trkpt>
      <trkpt lat="47.24228" lon="4.61418">
        <ele>401.376709</ele>
        <time>2018-08-20T08:31:37Z</time>
      </trkpt>
      <trkpt lat="47.24233" lon="4.61416">
        <ele>401.309723</ele>
        <time>2018-08-20T08:31:38Z</time>
      </trkpt>
      <trkpt lat="47.24237" lon="4.61413">
        <ele>401.211182</ele>
        <time>2018-08-20T08:31:39Z</time>
      </trkpt>
      <trkpt lat="47.24242" lon="4.61411">
        <ele>401.087006</ele>
        <time>2018-08-20T08:31:40Z</time>
      </trkpt>
      <trkpt lat="47.24246" lon="4.61408">
        <ele>400.939789</ele>
        <time>2018-08-20T08:31:41Z</time>
      </trkpt>
      <trkpt lat="47.2425" lon="4.61406">
        <ele>400.939789</ele>
        <time>2018-08-20T08:31:42Z</time>
      </trkpt>
      <trkpt lat="47.24254" lon="4.61403">
        <ele>400.764984</ele>
        <time>2018-08-20T08:31:43Z</time>
      </trkpt>
      <trkpt lat="47.24259" lon="4.61401">
        <ele>400.560394</ele>
        <time>2018-08-20T08:31:44Z</time>
      </trkpt>
      <trkpt lat="47.24263" lon="4.61399">
        <ele>400.32193</ele>
        <time>2018-08-20T08:31:45Z</time>
      </trkpt>
      <trkpt lat="47.24267" lon="4.61396">
        <ele>400.087402</ele>
        <time>2018-08-20T08:31:46Z</time>
      </trkpt>
      <trkpt lat="47.24271" lon="4.61394">
        <ele>399.854462</ele>
        <time>2018-08-20T08:31:47Z</time>
      </trkpt>
      <trkpt lat="47.24276" lon="4.61392">
        <ele>399.617676</ele>
        <time>2018-08-20T08:31:48Z</time>
      </trkpt>
      <trkpt lat="47.2428" lon="4.6139">
        <ele>399.376221</ele>
        <time>2018-08-20T08:31:49Z</time>
      </trkpt>
      <trkpt lat="47.24284" lon="4.61388">
        <ele>399.132568</ele>
        <time>2018-08-20T08:31:50Z</time>
      </trkpt>
      <trkpt lat="47.24288" lon="4.61385">
        <ele>398.920319</ele>
        <time>2018-08-20T08:31:51Z</time>
      </trkpt>
      <trkpt lat="47.24292" lon="4.61383">
        <ele>398.706268</ele>
        <time>2018-08-20T08:31:52Z</time>
      </trkpt>
      <trkpt lat="47.24296" lon="4.61381">
        <ele>398.49292</ele>
        <time>2018-08-20T08:31:53Z</time>
      </trkpt>
      <trkpt lat="47.243" lon="4.61378">
        <ele>398.28537</ele>
        <time>2018-08-20T08:31:54Z</time>
      </trkpt>
      <trkpt lat="47.24304" lon="4.61376">
        <ele>398.083954</ele>
        <time>2018-08-20T08:31:55Z</time>
      </trkpt>
      <trkpt lat="47.24308" lon="4.61374">
        <ele>397.886505</ele>
        <time>2018-08-20T08:31:56Z</time>
      </trkpt>
      <trkpt lat="47.24312" lon="4.61372">
        <ele>397.693756</ele>
        <time>2018-08-20T08:31:57Z</time>
      </trkpt>
      <trkpt lat="47.24316" lon="4.6137">
        <ele>397.506439</ele>
        <time>2018-08-20T08:31:58Z</time>
      </trkpt>
      <trkpt lat="47.2432" lon="4.61367">
        <ele>397.322632</ele>
        <time>2018-08-20T08:31:59Z</time>
      </trkpt>
      <trkpt lat="47.24324" lon="4.61365">
        <ele>397.143646</ele>
        <time>2018-08-20T08:32:00Z</time>
      </trkpt>
      <trkpt lat="47.24328" lon="4.61363">
        <ele>396.968964</ele>
        <time>2018-08-20T08:32:01Z</time>
      </trkpt>
      <trkpt lat="47.24332" lon="4.61361">
        <ele>396.797211</ele>
        <time>2018-08-20T08:32:02Z</time>
      </trkpt>
      <trkpt lat="47.24337" lon="4.6136">
        <ele>396.628571</ele>
        <time>2018-08-20T08:32:03Z</time>
      </trkpt>
      <trkpt lat="47.24341" lon="4.61358">
        <ele>396.463287</ele>
        <time>2018-08-20T08:32:04Z</time>
      </trkpt>
      <trkpt lat="47.24346" lon="4.61356">
        <ele>396.301605</ele>
        <time>2018-08-20T08:32:05Z</time>
      </trkpt>
      <trkpt lat="47.24351" lon="4.61354">
        <ele>396.142548</ele>
        <time>2018-08-20T08:32:06Z</time>
      </trkpt>
      <trkpt lat="47.24355" lon="4.61353">
        <ele>395.984039</ele>
        <time>2018-08-20T08:32:07Z</time>
      </trkpt>
      <trkpt lat="47.2436" lon="4.61351">
        <ele>395.823517</ele>
        <time>2018-08-20T08:32:08Z</time>
      </trkpt>
      <trkpt lat="47.24365" lon="4.61349">
        <ele>395.661133</ele>
        <time>2018-08-20T08:32:09Z</time>
      </trkpt>
      <trkpt lat="47.24371" lon="4.61347">
        <ele>395.496979</ele>
        <time>2018-08-20T08:32:10Z</time>
      </trkpt>
      <trkpt lat="47.24375" lon="4.61346">
        <ele>395.328461</ele>
        <time>2018-08-20T08:32:11Z</time>
      </trkpt>
      <trkpt lat="47.2438" lon="4.61344">
        <ele>395.155731</ele>
        <time>2018-08-20T08:32:12Z</time>
      </trkpt>
      <trkpt lat="47.24385" lon="4.61342">
        <ele>394.980835</ele>
        <time>2018-08-20T08:32:13Z</time>
      </trkpt>
      <trkpt lat="47.2439" lon="4.61341">
        <ele>394.808014</ele>
        <time>2018-08-20T08:32:14Z</time>
      </trkpt>
      <trkpt lat="47.24395" lon="4.6134">
        <ele>394.637604</ele>
        <time>2018-08-20T08:32:15Z</time>
      </trkpt>
      <trkpt lat="47.244" lon="4.61339">
        <ele>394.468353</ele>
        <time>2018-08-20T08:32:16Z</time>
      </trkpt>
      <trkpt lat="47.24405" lon="4.61337">
        <ele>394.302856</ele>
        <time>2018-08-20T08:32:17Z</time>
      </trkpt>
      <trkpt lat="47.2441" lon="4.61336">
        <ele>394.142731</ele>
        <time>2018-08-20T08:32:18Z</time>
      </trkpt>
      <trkpt lat="47.24414" lon="4.61335">
        <ele>394.002106</ele>
        <time>2018-08-20T08:32:19Z</time>
      </trkpt>
      <trkpt lat="47.24419" lon="4.61333">
        <ele>393.882202</ele>
        <time>2018-08-20T08:32:20Z</time>
      </trkpt>
      <trkpt lat="47.24424" lon="4.61332">
        <ele>393.782013</ele>
        <time>2018-08-20T08:32:21Z</time>
      </trkpt>
      <trkpt lat="47.24429" lon="4.6133">
        <ele>393.701874</ele>
        <time>2018-08-20T08:32:22Z</time>
      </trkpt>
      <trkpt lat="47.24434" lon="4.61329">
        <ele>393.642426</ele>
        <time>2018-08-20T08:32:23Z</time>
      </trkpt>
      <trkpt lat="47.24439" lon="4.61328">
        <ele>393.603149</ele>
        <time>2018-08-20T08:32:24Z</time>
      </trkpt>
      <trkpt lat="47.24443" lon="4.61326">
        <ele>393.603149</ele>
        <time>2018-08-20T08:32:25Z</time>
      </trkpt>
      <trkpt lat="47.24448" lon="4.61324">
        <ele>393.570282</ele>
        <time>2018-08-20T08:32:26Z</time>
      </trkpt>
      <trkpt lat="47.24453" lon="4.61323">
        <ele>393.542847</ele>
        <time>2018-08-20T08:32:27Z</time>
      </trkpt>
      <trkpt lat="47.24458" lon="4.61321">
        <ele>393.524292</ele>
        <time>2018-08-20T08:32:28Z</time>
      </trkpt>
      <trkpt lat="47.24463" lon="4.6132">
        <ele>393.514893</ele>
        <time>2018-08-20T08:32:29Z</time>
      </trkpt>
      <trkpt lat="47.24469" lon="4.61318">
        <ele>393.514801</ele>
        <time>2018-08-20T08:32:30Z</time>
      </trkpt>
      <trkpt lat="47.24474" lon="4.61316">
        <ele>393.514801</ele>
        <time>2018-08-20T08:32:31Z</time>
      </trkpt>
      <trkpt lat="47.24479" lon="4.61314">
        <ele>393.514801</ele>
        <time>2018-08-20T08:32:32Z</time>
      </trkpt>
      <trkpt lat="47.24484" lon="4.61313">
        <ele>393.524536</ele>
        <time>2018-08-20T08:32:33Z</time>
      </trkpt>
      <trkpt lat="47.2449" lon="4.61311">
        <ele>393.545044</ele>
        <time>2018-08-20T08:32:34Z</time>
      </trkpt>
      <trkpt lat="47.24495" lon="4.61309">
        <ele>393.576019</ele>
        <time>2018-08-20T08:32:35Z</time>
      </trkpt>
      <trkpt lat="47.245" lon="4.61308">
        <ele>393.61499</ele>
        <time>2018-08-20T08:32:36Z</time>
      </trkpt>
      <trkpt lat="47.24505" lon="4.61306">
        <ele>393.661652</ele>
        <time>2018-08-20T08:32:37Z</time>
      </trkpt>
      <trkpt lat="47.24511" lon="4.61305">
        <ele>393.71701</ele>
        <time>2018-08-20T08:32:38Z</time>
      </trkpt>
      <trkpt lat="47.24516" lon="4.61303">
        <ele>393.778687</ele>
        <time>2018-08-20T08:32:39Z</time>
      </trkpt>
      <trkpt lat="47.24521" lon="4.61302">
        <ele>393.845612</ele>
        <time>2018-08-20T08:32:40Z</time>
      </trkpt>
      <trkpt lat="47.24527" lon="4.613">
        <ele>393.918365</ele>
        <time>2018-08-20T08:32:41Z</time>
      </trkpt>
      <trkpt lat="47.24533" lon="4.61298">
        <ele>393.918365</ele>
        <time>2018-08-20T08:32:42Z</time>
      </trkpt>
      <trkpt lat="47.24538" lon="4.61295">
        <ele>393.997223</ele>
        <time>2018-08-20T08:32:43Z</time>
      </trkpt>
      <trkpt lat="47.24544" lon="4.61293">
        <ele>394.083496</ele>
        <time>2018-08-20T08:32:44Z</time>
      </trkpt>
      <trkpt lat="47.2455" lon="4.61291">
        <ele>394.203094</ele>
        <time>2018-08-20T08:32:45Z</time>
      </trkpt>
      <trkpt lat="47.24554" lon="4.61289">
        <ele>394.33963</ele>
        <time>2018-08-20T08:32:46Z</time>
      </trkpt>
      <trkpt lat="47.2456" lon="4.61287">
        <ele>394.490234</ele>
        <time>2018-08-20T08:32:47Z</time>
      </trkpt>
      <trkpt lat="47.24565" lon="4.61284">
        <ele>394.654938</ele>
        <time>2018-08-20T08:32:48Z</time>
      </trkpt>
      <trkpt lat="47.24571" lon="4.61282">
        <ele>394.835724</ele>
        <time>2018-08-20T08:32:49Z</time>
      </trkpt>
      <trkpt lat="47.24575" lon="4.61279">
        <ele>395.033844</ele>
        <time>2018-08-20T08:32:50Z</time>
      </trkpt>
      <trkpt lat="47.2458" lon="4.61276">
        <ele>395.223755</ele>
        <time>2018-08-20T08:32:51Z</time>
      </trkpt>
      <trkpt lat="47.24586" lon="4.61274">
        <ele>395.427979</ele>
        <time>2018-08-20T08:32:52Z</time>
      </trkpt>
      <trkpt lat="47.24591" lon="4.61272">
        <ele>395.648224</ele>
        <time>2018-08-20T08:32:53Z</time>
      </trkpt>
      <trkpt lat="47.24596" lon="4.61269">
        <ele>395.885223</ele>
        <time>2018-08-20T08:32:54Z</time>
      </trkpt>
      <trkpt lat="47.246" lon="4.61267">
        <ele>396.13327</ele>
        <time>2018-08-20T08:32:55Z</time>
      </trkpt>
      <trkpt lat="47.24605" lon="4.61264">
        <ele>396.387665</ele>
        <time>2018-08-20T08:32:56Z</time>
      </trkpt>
      <trkpt lat="47.2461" lon="4.61261">
        <ele>396.646729</ele>
        <time>2018-08-20T08:32:57Z</time>
      </trkpt>
      <trkpt lat="47.24615" lon="4.61258">
        <ele>396.909424</ele>
        <time>2018-08-20T08:32:58Z</time>
      </trkpt>
      <trkpt lat="47.24619" lon="4.61256">
        <ele>397.171234</ele>
        <time>2018-08-20T08:32:59Z</time>
      </trkpt>
      <trkpt lat="47.24624" lon="4.61253">
        <ele>397.427399</ele>
        <time>2018-08-20T08:33:00Z</time>
      </trkpt>
      <trkpt lat="47.24629" lon="4.61251">
        <ele>397.676483</ele>
        <time>2018-08-20T08:33:01Z</time>
      </trkpt>
      <trkpt lat="47.24634" lon="4.61249">
        <ele>397.920288</ele>
        <time>2018-08-20T08:33:02Z</time>
      </trkpt>
      <trkpt lat="47.24638" lon="4.61247">
        <ele>398.159637</ele>
        <time>2018-08-20T08:33:03Z</time>
      </trkpt>
      <trkpt lat="47.24643" lon="4.61244">
        <ele>398.388641</ele>
        <time>2018-08-20T08:33:04Z</time>
      </trkpt>
      <trkpt lat="47.24648" lon="4.61242">
        <ele>398.612457</ele>
        <time>2018-08-20T08:33:05Z</time>
      </trkpt>
      <trkpt lat="47.24652" lon="4.6124">
        <ele>398.832855</ele>
        <time>2018-08-20T08:33:06Z</time>
      </trkpt>
      <trkpt lat="47.24657" lon="4.61238">
        <ele>399.055664</ele>
        <time>2018-08-20T08:33:07Z</time>
      </trkpt>
      <trkpt lat="47.24661" lon="4.61236">
        <ele>399.27652</ele>
        <time>2018-08-20T08:33:08Z</time>
      </trkpt>
      <trkpt lat="47.24664" lon="4.61234">
        <ele>399.49472</ele>
        <time>2018-08-20T08:33:09Z</time>
      </trkpt>
      <trkpt lat="47.24668" lon="4.61232">
        <ele>399.709076</ele>
        <time>2018-08-20T08:33:10Z</time>
      </trkpt>
      <trkpt lat="47.24671" lon="4.6123">
        <ele>399.922211</ele>
        <time>2018-08-20T08:33:11Z</time>
      </trkpt>
      <trkpt lat="47.24673" lon="4.61228">
        <ele>400.135376</ele>
        <time>2018-08-20T08:33:12Z</time>
      </trkpt>
      <trkpt lat="47.24676" lon="4.61227">
        <ele>400.348053</ele>
        <time>2018-08-20T08:33:13Z</time>
      </trkpt>
      <trkpt lat="47.24679" lon="4.61225">
        <ele>400.557953</ele>
        <time>2018-08-20T08:33:14Z</time>
      </trkpt>
      <trkpt lat="47.24682" lon="4.61223">
        <ele>400.747955</ele>
        <time>2018-08-20T08:33:15Z</time>
      </trkpt>
      <trkpt lat="47.24686" lon="4.61221">
        <ele>400.916107</ele>
        <time>2018-08-20T08:33:16Z</time>
      </trkpt>
      <trkpt lat="47.24691" lon="4.61219">
        <ele>401.063232</ele>
        <time>2018-08-20T08:33:17Z</time>
      </trkpt>
      <trkpt lat="47.24694" lon="4.61218">
        <ele>401.184418</ele>
        <time>2018-08-20T08:33:18Z</time>
      </trkpt>
      <trkpt lat="47.24699" lon="4.61216">
        <ele>401.272797</ele>
        <time>2018-08-20T08:33:19Z</time>
      </trkpt>
      <trkpt lat="47.24704" lon="4.61214">
        <ele>401.334625</ele>
        <time>2018-08-20T08:33:20Z</time>
      </trkpt>
      <trkpt lat="47.24708" lon="4.61212">
        <ele>401.381195</ele>
        <time>2018-08-20T08:33:21Z</time>
      </trkpt>
      <trkpt lat="47.24713" lon="4.61209">
        <ele>401.41684</ele>
        <time>2018-08-20T08:33:22Z</time>
      </trkpt>
      <trkpt lat="47.24717" lon="4.61207">
        <ele>401.44043</ele>
        <time>2018-08-20T08:33:23Z</time>
      </trkpt>
      <trkpt lat="47.24722" lon="4.61204">
        <ele>401.457764</ele>
        <time>2018-08-20T08:33:24Z</time>
      </trkpt>
      <trkpt lat="47.24727" lon="4.61202">
        <ele>401.475983</ele>
        <time>2018-08-20T08:33:25Z</time>
      </trkpt>
      <trkpt lat="47.24731" lon="4.61199">
        <ele>401.497559</ele>
        <time>2018-08-20T08:33:26Z</time>
      </trkpt>
      <trkpt lat="47.24735" lon="4.61197">
        <ele>401.527252</ele>
        <time>2018-08-20T08:33:27Z</time>
      </trkpt>
      <trkpt lat="47.2474" lon="4.61194">
        <ele>401.569427</ele>
        <time>2018-08-20T08:33:28Z</time>
      </trkpt>
      <trkpt lat="47.24744" lon="4.61192">
        <ele>401.569427</ele>
        <time>2018-08-20T08:33:29Z</time>
      </trkpt>
      <trkpt lat="47.24748" lon="4.6119">
        <ele>401.617676</ele>
        <time>2018-08-20T08:33:30Z</time>
      </trkpt>
      <trkpt lat="47.24752" lon="4.61187">
        <ele>401.660004</ele>
        <time>2018-08-20T08:33:31Z</time>
      </trkpt>
      <trkpt lat="47.24757" lon="4.61185">
        <ele>401.688873</ele>
        <time>2018-08-20T08:33:32Z</time>
      </trkpt>
      <trkpt lat="47.24762" lon="4.61182">
        <ele>401.698639</ele>
        <time>2018-08-20T08:33:33Z</time>
      </trkpt>
      <trkpt lat="47.24766" lon="4.61179">
        <ele>401.698639</ele>
        <time>2018-08-20T08:33:34Z</time>
      </trkpt>
      <trkpt lat="47.2477" lon="4.61177">
        <ele>401.698639</ele>
        <time>2018-08-20T08:33:35Z</time>
      </trkpt>
      <trkpt lat="47.24775" lon="4.61174">
        <ele>401.692261</ele>
        <time>2018-08-20T08:33:36Z</time>
      </trkpt>
      <trkpt lat="47.2478" lon="4.61172">
        <ele>401.663849</ele>
        <time>2018-08-20T08:33:37Z</time>
      </trkpt>
      <trkpt lat="47.24784" lon="4.61169">
        <ele>401.618652</ele>
        <time>2018-08-20T08:33:38Z</time>
      </trkpt>
      <trkpt lat="47.24789" lon="4.61167">
        <ele>401.564972</ele>
        <time>2018-08-20T08:33:39Z</time>
      </trkpt>
      <trkpt lat="47.24793" lon="4.61164">
        <ele>401.503937</ele>
        <time>2018-08-20T08:33:40Z</time>
      </trkpt>
      <trkpt lat="47.24798" lon="4.61161">
        <ele>401.439056</ele>
        <time>2018-08-20T08:33:41Z</time>
      </trkpt>
      <trkpt lat="47.24802" lon="4.61158">
        <ele>401.367035</ele>
        <time>2018-08-20T08:33:42Z</time>
      </trkpt>
      <trkpt lat="47.24807" lon="4.61156">
        <ele>401.367035</ele>
        <time>2018-08-20T08:33:43Z</time>
      </trkpt>
      <trkpt lat="47.24812" lon="4.61153">
        <ele>401.290527</ele>
        <time>2018-08-20T08:33:44Z</time>
      </trkpt>
      <trkpt lat="47.24817" lon="4.6115">
        <ele>401.20755</ele>
        <time>2018-08-20T08:33:45Z</time>
      </trkpt>
      <trkpt lat="47.24822" lon="4.61147">
        <ele>401.098358</ele>
        <time>2018-08-20T08:33:46Z</time>
      </trkpt>
      <trkpt lat="47.24826" lon="4.61144">
        <ele>400.995605</ele>
        <time>2018-08-20T08:33:47Z</time>
      </trkpt>
      <trkpt lat="47.24831" lon="4.61141">
        <ele>400.916382</ele>
        <time>2018-08-20T08:33:48Z</time>
      </trkpt>
      <trkpt lat="47.24835" lon="4.61138">
        <ele>400.857025</ele>
        <time>2018-08-20T08:33:49Z</time>
      </trkpt>
      <trkpt lat="47.2484" lon="4.61136">
        <ele>400.818115</ele>
        <time>2018-08-20T08:33:50Z</time>
      </trkpt>
      <trkpt lat="47.24844" lon="4.61132">
        <ele>400.796753</ele>
        <time>2018-08-20T08:33:51Z</time>
      </trkpt>
      <trkpt lat="47.24849" lon="4.61129">
        <ele>400.796753</ele>
        <time>2018-08-20T08:33:52Z</time>
      </trkpt>
      <trkpt lat="47.24853" lon="4.61126">
        <ele>400.796753</ele>
        <time>2018-08-20T08:33:53Z</time>
      </trkpt>
      <trkpt lat="47.24857" lon="4.61122">
        <ele>400.81955</ele>
        <time>2018-08-20T08:33:54Z</time>
      </trkpt>
      <trkpt lat="47.24861" lon="4.61119">
        <ele>400.859589</ele>
        <time>2018-08-20T08:33:55Z</time>
      </trkpt>
      <trkpt lat="47.24866" lon="4.61115">
        <ele>400.898926</ele>
        <time>2018-08-20T08:33:56Z</time>
      </trkpt>
      <trkpt lat="47.2487" lon="4.61112">
        <ele>400.940277</ele>
        <time>2018-08-20T08:33:57Z</time>
      </trkpt>
      <trkpt lat="47.24874" lon="4.61108">
        <ele>400.985199</ele>
        <time>2018-08-20T08:33:58Z</time>
      </trkpt>
      <trkpt lat="47.24878" lon="4.61104">
        <ele>401.035645</ele>
        <time>2018-08-20T08:33:59Z</time>
      </trkpt>
      <trkpt lat="47.24882" lon="4.611">
        <ele>401.08847</ele>
        <time>2018-08-20T08:34:00Z</time>
      </trkpt>
      <trkpt lat="47.24886" lon="4.61096">
        <ele>401.145172</ele>
        <time>2018-08-20T08:34:01Z</time>
      </trkpt>
      <trkpt lat="47.24889" lon="4.61092">
        <ele>401.205414</ele>
        <time>2018-08-20T08:34:02Z</time>
      </trkpt>
      <trkpt lat="47.24893" lon="4.61088">
        <ele>401.274323</ele>
        <time>2018-08-20T08:34:03Z</time>
      </trkpt>
      <trkpt lat="47.24897" lon="4.61085">
        <ele>401.346771</ele>
        <time>2018-08-20T08:34:04Z</time>
      </trkpt>
      <trkpt lat="47.249" lon="4.61081">
        <ele>401.421387</ele>
        <time>2018-08-20T08:34:05Z</time>
      </trkpt>
      <trkpt lat="47.24905" lon="4.61077">
        <ele>401.495239</ele>
        <time>2018-08-20T08:34:06Z</time>
      </trkpt>
      <trkpt lat="47.24909" lon="4.61074">
        <ele>401.555023</ele>
        <time>2018-08-20T08:34:07Z</time>
      </trkpt>
      <trkpt lat="47.24913" lon="4.61071">
        <ele>401.59494</ele>
        <time>2018-08-20T08:34:08Z</time>
      </trkpt>
      <trkpt lat="47.24919" lon="4.61069">
        <ele>401.602936</ele>
        <time>2018-08-20T08:34:09Z</time>
      </trkpt>
      <trkpt lat="47.24924" lon="4.61067">
        <ele>401.602936</ele>
        <time>2018-08-20T08:34:10Z</time>
      </trkpt>
      <trkpt lat="47.24929" lon="4.61066">
        <ele>401.602936</ele>
        <time>2018-08-20T08:34:11Z</time>
      </trkpt>
      <trkpt lat="47.24935" lon="4.61065">
        <ele>401.570068</ele>
        <time>2018-08-20T08:34:12Z</time>
      </trkpt>
      <trkpt lat="47.24941" lon="4.61064">
        <ele>401.490845</ele>
        <time>2018-08-20T08:34:13Z</time>
      </trkpt>
      <trkpt lat="47.24947" lon="4.61064">
        <ele>401.363922</ele>
        <time>2018-08-20T08:34:14Z</time>
      </trkpt>
      <trkpt lat="47.24954" lon="4.61064">
        <ele>401.191071</ele>
        <time>2018-08-20T08:34:15Z</time>
      </trkpt>
      <trkpt lat="47.2496" lon="4.61063">
        <ele>400.972656</ele>
        <time>2018-08-20T08:34:16Z</time>
      </trkpt>
      <trkpt lat="47.24966" lon="4.61063">
        <ele>400.728058</ele>
        <time>2018-08-20T08:34:17Z</time>
      </trkpt>
      <trkpt lat="47.24973" lon="4.61063">
        <ele>400.488525</ele>
        <time>2018-08-20T08:34:18Z</time>
      </trkpt>
      <trkpt lat="47.24979" lon="4.61063">
        <ele>400.262085</ele>
        <time>2018-08-20T08:34:19Z</time>
      </trkpt>
      <trkpt lat="47.24985" lon="4.61064">
        <ele>400.052094</ele>
        <time>2018-08-20T08:34:20Z</time>
      </trkpt>
      <trkpt lat="47.24991" lon="4.61064">
        <ele>399.866241</ele>
        <time>2018-08-20T08:34:21Z</time>
      </trkpt>
      <trkpt lat="47.24997" lon="4.61064">
        <ele>399.708405</ele>
        <time>2018-08-20T08:34:22Z</time>
      </trkpt>
      <trkpt lat="47.25003" lon="4.61063">
        <ele>399.708405</ele>
        <time>2018-08-20T08:34:23Z</time>
      </trkpt>
      <trkpt lat="47.25008" lon="4.61062">
        <ele>399.566895</ele>
        <time>2018-08-20T08:34:24Z</time>
      </trkpt>
      <trkpt lat="47.25013" lon="4.61061">
        <ele>399.423248</ele>
        <time>2018-08-20T08:34:25Z</time>
      </trkpt>
      <trkpt lat="47.25019" lon="4.61059">
        <ele>399.261719</ele>
        <time>2018-08-20T08:34:26Z</time>
      </trkpt>
      <trkpt lat="47.25023" lon="4.61056">
        <ele>399.111572</ele>
        <time>2018-08-20T08:34:27Z</time>
      </trkpt>
      <trkpt lat="47.25028" lon="4.61052">
        <ele>399.004669</ele>
        <time>2018-08-20T08:34:28Z</time>
      </trkpt>
      <trkpt lat="47.25032" lon="4.61048">
        <ele>398.946198</ele>
        <time>2018-08-20T08:34:29Z</time>
      </trkpt>
      <trkpt lat="47.25036" lon="4.61043">
        <ele>398.937042</ele>
        <time>2018-08-20T08:34:30Z</time>
      </trkpt>
      <trkpt lat="47.2504" lon="4.61039">
        <ele>398.937042</ele>
        <time>2018-08-20T08:34:31Z</time>
      </trkpt>
      <trkpt lat="47.25045" lon="4.61035">
        <ele>398.937042</ele>
        <time>2018-08-20T08:34:32Z</time>
      </trkpt>
      <trkpt lat="47.25049" lon="4.61031">
        <ele>398.974823</ele>
        <time>2018-08-20T08:34:33Z</time>
      </trkpt>
      <trkpt lat="47.25053" lon="4.61028">
        <ele>399.073883</ele>
        <time>2018-08-20T08:34:34Z</time>
      </trkpt>
      <trkpt lat="47.25057" lon="4.61025">
        <ele>399.20285</ele>
        <time>2018-08-20T08:34:35Z</time>
      </trkpt>
      <trkpt lat="47.25061" lon="4.61022">
        <ele>399.328247</ele>
        <time>2018-08-20T08:34:36Z</time>
      </trkpt>
      <trkpt lat="47.25066" lon="4.61019">
        <ele>399.445435</ele>
        <time>2018-08-20T08:34:37Z</time>
      </trkpt>
      <trkpt lat="47.2507" lon="4.61018">
        <ele>399.552582</ele>
        <time>2018-08-20T08:34:38Z</time>
      </trkpt>
      <trkpt lat="47.25074" lon="4.61016">
        <ele>399.647736</ele>
        <time>2018-08-20T08:34:39Z</time>
      </trkpt>
      <trkpt lat="47.25079" lon="4.61015">
        <ele>399.730194</ele>
        <time>2018-08-20T08:34:40Z</time>
      </trkpt>
      <trkpt lat="47.25082" lon="4.61014">
        <ele>399.800049</ele>
        <time>2018-08-20T08:34:41Z</time>
      </trkpt>
      <trkpt lat="47.25087" lon="4.61012">
        <ele>399.856689</ele>
        <time>2018-08-20T08:34:42Z</time>
      </trkpt>
      <trkpt lat="47.2509" lon="4.6101">
        <ele>399.856689</ele>
        <time>2018-08-20T08:34:43Z</time>
      </trkpt>
      <trkpt lat="47.25095" lon="4.61008">
        <ele>399.902252</ele>
        <time>2018-08-20T08:34:44Z</time>
      </trkpt>
      <trkpt lat="47.25098" lon="4.61006">
        <ele>399.939209</ele>
        <time>2018-08-20T08:34:45Z</time>
      </trkpt>
      <trkpt lat="47.25102" lon="4.61003">
        <ele>400.01355</ele>
        <time>2018-08-20T08:34:46Z</time>
      </trkpt>
      <trkpt lat="47.25105" lon="4.61001">
        <ele>400.105438</ele>
        <time>2018-08-20T08:34:47Z</time>
      </trkpt>
      <trkpt lat="47.25108" lon="4.60998">
        <ele>400.21701</ele>
        <time>2018-08-20T08:34:48Z</time>
      </trkpt>
      <trkpt lat="47.25111" lon="4.60996">
        <ele>400.349976</ele>
        <time>2018-08-20T08:34:49Z</time>
      </trkpt>
      <trkpt lat="47.25113" lon="4.60993">
        <ele>400.503296</ele>
        <time>2018-08-20T08:34:50Z</time>
      </trkpt>
      <trkpt lat="47.25115" lon="4.6099">
        <ele>400.676971</ele>
        <time>2018-08-20T08:34:51Z</time>
      </trkpt>
      <trkpt lat="47.25118" lon="4.60987">
        <ele>400.826782</ele>
        <time>2018-08-20T08:34:52Z</time>
      </trkpt>
      <trkpt lat="47.2512" lon="4.60985">
        <ele>400.974854</ele>
        <time>2018-08-20T08:34:53Z</time>
      </trkpt>
      <trkpt lat="47.25122" lon="4.60982">
        <ele>401.119385</ele>
        <time>2018-08-20T08:34:54Z</time>
      </trkpt>
      <trkpt lat="47.25124" lon="4.60979">
        <ele>401.261383</ele>
        <time>2018-08-20T08:34:55Z</time>
      </trkpt>
      <trkpt lat="47.25127" lon="4.60976">
        <ele>401.402191</ele>
        <time>2018-08-20T08:34:56Z</time>
      </trkpt>
      <trkpt lat="47.25129" lon="4.60973">
        <ele>401.541351</ele>
        <time>2018-08-20T08:34:57Z</time>
      </trkpt>
      <trkpt lat="47.25131" lon="4.60971">
        <ele>401.682465</ele>
        <time>2018-08-20T08:34:58Z</time>
      </trkpt>
      <trkpt lat="47.25134" lon="4.60968">
        <ele>401.824249</ele>
        <time>2018-08-20T08:34:59Z</time>
      </trkpt>
      <trkpt lat="47.25135" lon="4.60965">
        <ele>401.969727</ele>
        <time>2018-08-20T08:35:00Z</time>
      </trkpt>
      <trkpt lat="47.25137" lon="4.60962">
        <ele>402.118256</ele>
        <time>2018-08-20T08:35:01Z</time>
      </trkpt>
      <trkpt lat="47.25139" lon="4.60959">
        <ele>402.269623</ele>
        <time>2018-08-20T08:35:02Z</time>
      </trkpt>
      <trkpt lat="47.25141" lon="4.60957">
        <ele>402.422974</ele>
        <time>2018-08-20T08:35:03Z</time>
      </trkpt>
      <trkpt lat="47.25143" lon="4.60956">
        <ele>402.57431</ele>
        <time>2018-08-20T08:35:04Z</time>
      </trkpt>
      <trkpt lat="47.25146" lon="4.60956">
        <ele>402.727814</ele>
        <time>2018-08-20T08:35:05Z</time>
      </trkpt>
      <trkpt lat="47.25149" lon="4.60956">
        <ele>402.876862</ele>
        <time>2018-08-20T08:35:06Z</time>
      </trkpt>
      <trkpt lat="47.25152" lon="4.60957">
        <ele>403.021729</ele>
        <time>2018-08-20T08:35:07Z</time>
      </trkpt>
      <trkpt lat="47.25155" lon="4.60959">
        <ele>403.161743</ele>
        <time>2018-08-20T08:35:08Z</time>
      </trkpt>
      <trkpt lat="47.25157" lon="4.60961">
        <ele>403.294037</ele>
        <time>2018-08-20T08:35:09Z</time>
      </trkpt>
      <trkpt lat="47.2516" lon="4.60964">
        <ele>403.421295</ele>
        <time>2018-08-20T08:35:10Z</time>
      </trkpt>
      <trkpt lat="47.25161" lon="4.60967">
        <ele>403.550903</ele>
        <time>2018-08-20T08:35:11Z</time>
      </trkpt>
      <trkpt lat="47.25163" lon="4.60971">
        <ele>403.684113</ele>
        <time>2018-08-20T08:35:12Z</time>
      </trkpt>
      <trkpt lat="47.25166" lon="4.60974">
        <ele>403.814606</ele>
        <time>2018-08-20T08:35:13Z</time>
      </trkpt>
      <trkpt lat="47.25168" lon="4.60978">
        <ele>403.937775</ele>
        <time>2018-08-20T08:35:14Z</time>
      </trkpt>
      <trkpt lat="47.2517" lon="4.60981">
        <ele>404.051605</ele>
        <time>2018-08-20T08:35:15Z</time>
      </trkpt>
      <trkpt lat="47.25172" lon="4.60984">
        <ele>404.153961</ele>
        <time>2018-08-20T08:35:16Z</time>
      </trkpt>
      <trkpt lat="47.25175" lon="4.60987">
        <ele>404.153961</ele>
        <time>2018-08-20T08:35:17Z</time>
      </trkpt>
      <trkpt lat="47.25177" lon="4.60989">
        <ele>404.23645</ele>
        <time>2018-08-20T08:35:18Z</time>
      </trkpt>
      <trkpt lat="47.2518" lon="4.60991">
        <ele>404.305145</ele>
        <time>2018-08-20T08:35:19Z</time>
      </trkpt>
      <trkpt lat="47.25183" lon="4.60993">
        <ele>404.387817</ele>
        <time>2018-08-20T08:35:20Z</time>
      </trkpt>
      <trkpt lat="47.25185" lon="4.60995">
        <ele>404.480194</ele>
        <time>2018-08-20T08:35:21Z</time>
      </trkpt>
      <trkpt lat="47.25188" lon="4.60997">
        <ele>404.584473</ele>
        <time>2018-08-20T08:35:22Z</time>
      </trkpt>
      <trkpt lat="47.2519" lon="4.60999">
        <ele>404.702515</ele>
        <time>2018-08-20T08:35:23Z</time>
      </trkpt>
      <trkpt lat="47.25193" lon="4.61001">
        <ele>404.83255</ele>
        <time>2018-08-20T08:35:24Z</time>
      </trkpt>
      <trkpt lat="47.25196" lon="4.61003">
        <ele>404.973724</ele>
        <time>2018-08-20T08:35:25Z</time>
      </trkpt>
      <trkpt lat="47.25199" lon="4.61005">
        <ele>405.104889</ele>
        <time>2018-08-20T08:35:26Z</time>
      </trkpt>
      <trkpt lat="47.25202" lon="4.61007">
        <ele>405.230438</ele>
        <time>2018-08-20T08:35:27Z</time>
      </trkpt>
      <trkpt lat="47.25205" lon="4.61008">
        <ele>405.35788</ele>
        <time>2018-08-20T08:35:28Z</time>
      </trkpt>
      <trkpt lat="47.25207" lon="4.61011">
        <ele>405.489349</ele>
        <time>2018-08-20T08:35:29Z</time>
      </trkpt>
      <trkpt lat="47.2521" lon="4.61013">
        <ele>405.626068</ele>
        <time>2018-08-20T08:35:30Z</time>
      </trkpt>
      <trkpt lat="47.25213" lon="4.61016">
        <ele>405.763824</ele>
        <time>2018-08-20T08:35:31Z</time>
      </trkpt>
      <trkpt lat="47.25214" lon="4.61018">
        <ele>405.89505</ele>
        <time>2018-08-20T08:35:32Z</time>
      </trkpt>
      <trkpt lat="47.25216" lon="4.6102">
        <ele>406.024933</ele>
        <time>2018-08-20T08:35:33Z</time>
      </trkpt>
      <trkpt lat="47.25218" lon="4.61023">
        <ele>406.147369</ele>
        <time>2018-08-20T08:35:34Z</time>
      </trkpt>
      <trkpt lat="47.2522" lon="4.61025">
        <ele>406.257355</ele>
        <time>2018-08-20T08:35:35Z</time>
      </trkpt>
      <trkpt lat="47.25222" lon="4.61027">
        <ele>406.353546</ele>
        <time>2018-08-20T08:35:36Z</time>
      </trkpt>
      <trkpt lat="47.25224" lon="4.61029">
        <ele>406.438629</ele>
        <time>2018-08-20T08:35:37Z</time>
      </trkpt>
      <trkpt lat="47.25225" lon="4.6103">
        <ele>406.626831</ele>
        <time>2018-08-20T08:35:38Z</time>
      </trkpt>
      <trkpt lat="47.25228" lon="4.61032">
        <ele>406.752441</ele>
        <time>2018-08-20T08:35:40Z</time>
      </trkpt>
      <trkpt lat="47.2523" lon="4.61033">
        <ele>406.865082</ele>
        <time>2018-08-20T08:35:41Z</time>
      </trkpt>
      <trkpt lat="47.25233" lon="4.61035">
        <ele>406.98526</ele>
        <time>2018-08-20T08:35:42Z</time>
      </trkpt>
      <trkpt lat="47.25235" lon="4.61036">
        <ele>407.138336</ele>
        <time>2018-08-20T08:35:43Z</time>
      </trkpt>
      <trkpt lat="47.25237" lon="4.61038">
        <ele>407.138336</ele>
        <time>2018-08-20T08:35:44Z</time>
      </trkpt>
      <trkpt lat="47.25239" lon="4.61039">
        <ele>407.317047</ele>
        <time>2018-08-20T08:35:45Z</time>
      </trkpt>
      <trkpt lat="47.25242" lon="4.6104">
        <ele>407.501495</ele>
        <time>2018-08-20T08:35:46Z</time>
      </trkpt>
      <trkpt lat="47.25244" lon="4.61041">
        <ele>407.719116</ele>
        <time>2018-08-20T08:35:47Z</time>
      </trkpt>
      <trkpt lat="47.25247" lon="4.61041">
        <ele>407.97287</ele>
        <time>2018-08-20T08:35:48Z</time>
      </trkpt>
      <trkpt lat="47.2525" lon="4.61041">
        <ele>408.251831</ele>
        <time>2018-08-20T08:35:49Z</time>
      </trkpt>
      <trkpt lat="47.25252" lon="4.6104">
        <ele>408.530975</ele>
        <time>2018-08-20T08:35:50Z</time>
      </trkpt>
      <trkpt lat="47.25255" lon="4.61039">
        <ele>408.818085</ele>
        <time>2018-08-20T08:35:51Z</time>
      </trkpt>
      <trkpt lat="47.25258" lon="4.61039">
        <ele>409.125885</ele>
        <time>2018-08-20T08:35:52Z</time>
      </trkpt>
      <trkpt lat="47.25261" lon="4.61038">
        <ele>409.428558</ele>
        <time>2018-08-20T08:35:53Z</time>
      </trkpt>
      <trkpt lat="47.25264" lon="4.61037">
        <ele>409.755402</ele>
        <time>2018-08-20T08:35:54Z</time>
      </trkpt>
      <trkpt lat="47.25267" lon="4.61036">
        <ele>410.098511</ele>
        <time>2018-08-20T08:35:55Z</time>
      </trkpt>
      <trkpt lat="47.2527" lon="4.61035">
        <ele>410.462067</ele>
        <time>2018-08-20T08:35:56Z</time>
      </trkpt>
      <trkpt lat="47.25272" lon="4.61034">
        <ele>410.846527</ele>
        <time>2018-08-20T08:35:57Z</time>
      </trkpt>
      <trkpt lat="47.25275" lon="4.61033">
        <ele>411.244537</ele>
        <time>2018-08-20T08:35:58Z</time>
      </trkpt>
      <trkpt lat="47.25278" lon="4.61032">
        <ele>411.649994</ele>
        <time>2018-08-20T08:35:59Z</time>
      </trkpt>
      <trkpt lat="47.25281" lon="4.61031">
        <ele>412.069977</ele>
        <time>2018-08-20T08:36:00Z</time>
      </trkpt>
      <trkpt lat="47.25284" lon="4.6103">
        <ele>412.505615</ele>
        <time>2018-08-20T08:36:01Z</time>
      </trkpt>
      <trkpt lat="47.25287" lon="4.61028">
        <ele>412.955414</ele>
        <time>2018-08-20T08:36:02Z</time>
      </trkpt>
      <trkpt lat="47.25291" lon="4.61027">
        <ele>413.415771</ele>
        <time>2018-08-20T08:36:03Z</time>
      </trkpt>
      <trkpt lat="47.25294" lon="4.61026">
        <ele>413.884979</ele>
        <time>2018-08-20T08:36:04Z</time>
      </trkpt>
      <trkpt lat="47.25297" lon="4.61024">
        <ele>414.367065</ele>
        <time>2018-08-20T08:36:05Z</time>
      </trkpt>
      <trkpt lat="47.253" lon="4.61023">
        <ele>414.862091</ele>
        <time>2018-08-20T08:36:06Z</time>
      </trkpt>
      <trkpt lat="47.25304" lon="4.61021">
        <ele>415.37207</ele>
        <time>2018-08-20T08:36:07Z</time>
      </trkpt>
      <trkpt lat="47.25307" lon="4.6102">
        <ele>415.893646</ele>
        <time>2018-08-20T08:36:08Z</time>
      </trkpt>
      <trkpt lat="47.2531" lon="4.61019">
        <ele>416.41745</ele>
        <time>2018-08-20T08:36:09Z</time>
      </trkpt>
      <trkpt lat="47.25314" lon="4.61018">
        <ele>416.950043</ele>
        <time>2018-08-20T08:36:10Z</time>
      </trkpt>
      <trkpt lat="47.25317" lon="4.61018">
        <ele>417.489899</ele>
        <time>2018-08-20T08:36:11Z</time>
      </trkpt>
      <trkpt lat="47.2532" lon="4.61018">
        <ele>418.026489</ele>
        <time>2018-08-20T08:36:12Z</time>
      </trkpt>
      <trkpt lat="47.25324" lon="4.61018">
        <ele>418.55954</ele>
        <time>2018-08-20T08:36:13Z</time>
      </trkpt>
      <trkpt lat="47.25328" lon="4.61018">
        <ele>419.08139</ele>
        <time>2018-08-20T08:36:14Z</time>
      </trkpt>
      <trkpt lat="47.25332" lon="4.61018">
        <ele>419.597656</ele>
        <time>2018-08-20T08:36:15Z</time>
      </trkpt>
      <trkpt lat="47.25335" lon="4.61017">
        <ele>420.102997</ele>
        <time>2018-08-20T08:36:16Z</time>
      </trkpt>
      <trkpt lat="47.25338" lon="4.61017">
        <ele>420.593262</ele>
        <time>2018-08-20T08:36:17Z</time>
      </trkpt>
      <trkpt lat="47.25342" lon="4.61016">
        <ele>421.074219</ele>
        <time>2018-08-20T08:36:18Z</time>
      </trkpt>
      <trkpt lat="47.25345" lon="4.61015">
        <ele>421.548553</ele>
        <time>2018-08-20T08:36:19Z</time>
      </trkpt>
      <trkpt lat="47.25348" lon="4.61013">
        <ele>422.02005</ele>
        <time>2018-08-20T08:36:20Z</time>
      </trkpt>
      <trkpt lat="47.25351" lon="4.61011">
        <ele>422.504303</ele>
        <time>2018-08-20T08:36:21Z</time>
      </trkpt>
      <trkpt lat="47.25354" lon="4.61009">
        <ele>423.00473</ele>
        <time>2018-08-20T08:36:22Z</time>
      </trkpt>
      <trkpt lat="47.25356" lon="4.61007">
        <ele>423.522003</ele>
        <time>2018-08-20T08:36:23Z</time>
      </trkpt>
      <trkpt lat="47.25359" lon="4.61005">
        <ele>424.07663</ele>
        <time>2018-08-20T08:36:24Z</time>
      </trkpt>
      <trkpt lat="47.25362" lon="4.61003">
        <ele>424.07663</ele>
        <time>2018-08-20T08:36:25Z</time>
      </trkpt>
      <trkpt lat="47.25364" lon="4.61001">
        <ele>424.657623</ele>
        <time>2018-08-20T08:36:26Z</time>
      </trkpt>
      <trkpt lat="47.25367" lon="4.60999">
        <ele>425.264801</ele>
        <time>2018-08-20T08:36:27Z</time>
      </trkpt>
      <trkpt lat="47.25369" lon="4.60997">
        <ele>425.897369</ele>
        <time>2018-08-20T08:36:28Z</time>
      </trkpt>
      <trkpt lat="47.25372" lon="4.60995">
        <ele>426.489471</ele>
        <time>2018-08-20T08:36:29Z</time>
      </trkpt>
      <trkpt lat="47.25373" lon="4.60993">
        <ele>427.033447</ele>
        <time>2018-08-20T08:36:30Z</time>
      </trkpt>
      <trkpt lat="47.25375" lon="4.60991">
        <ele>427.510345</ele>
        <time>2018-08-20T08:36:31Z</time>
      </trkpt>
      <trkpt lat="47.25378" lon="4.60989">
        <ele>427.929077</ele>
        <time>2018-08-20T08:36:32Z</time>
      </trkpt>
      <trkpt lat="47.2538" lon="4.60986">
        <ele>428.289764</ele>
        <time>2018-08-20T08:36:33Z</time>
      </trkpt>
      <trkpt lat="47.25382" lon="4.60984">
        <ele>428.581879</ele>
        <time>2018-08-20T08:36:34Z</time>
      </trkpt>
      <trkpt lat="47.25383" lon="4.60982">
        <ele>428.866821</ele>
        <time>2018-08-20T08:36:35Z</time>
      </trkpt>
      <trkpt lat="47.25385" lon="4.6098">
        <ele>429.154907</ele>
        <time>2018-08-20T08:36:36Z</time>
      </trkpt>
      <trkpt lat="47.25387" lon="4.60978">
        <ele>429.445953</ele>
        <time>2018-08-20T08:36:37Z</time>
      </trkpt>
      <trkpt lat="47.25388" lon="4.60976">
        <ele>429.727997</ele>
        <time>2018-08-20T08:36:38Z</time>
      </trkpt>
      <trkpt lat="47.2539" lon="4.60973">
        <ele>429.997711</ele>
        <time>2018-08-20T08:36:39Z</time>
      </trkpt>
      <trkpt lat="47.25392" lon="4.60971">
        <ele>430.265259</ele>
        <time>2018-08-20T08:36:40Z</time>
      </trkpt>
      <trkpt lat="47.25394" lon="4.60969">
        <ele>430.53006</ele>
        <time>2018-08-20T08:36:41Z</time>
      </trkpt>
      <trkpt lat="47.25395" lon="4.60967">
        <ele>430.785309</ele>
        <time>2018-08-20T08:36:42Z</time>
      </trkpt>
      <trkpt lat="47.25397" lon="4.60965">
        <ele>431.029663</ele>
        <time>2018-08-20T08:36:43Z</time>
      </trkpt>
      <trkpt lat="47.25399" lon="4.60963">
        <ele>431.269409</ele>
        <time>2018-08-20T08:36:44Z</time>
      </trkpt>
      <trkpt lat="47.254" lon="4.60961">
        <ele>431.269409</ele>
        <time>2018-08-20T08:36:45Z</time>
      </trkpt>
      <trkpt lat="47.25402" lon="4.60959">
        <ele>431.514069</ele>
        <time>2018-08-20T08:36:46Z</time>
      </trkpt>
      <trkpt lat="47.25404" lon="4.60957">
        <ele>431.744781</ele>
        <time>2018-08-20T08:36:47Z</time>
      </trkpt>
      <trkpt lat="47.25406" lon="4.60954">
        <ele>432.00119</ele>
        <time>2018-08-20T08:36:48Z</time>
      </trkpt>
      <trkpt lat="47.25407" lon="4.60952">
        <ele>432.252899</ele>
        <time>2018-08-20T08:36:49Z</time>
      </trkpt>
      <trkpt lat="47.25409" lon="4.6095">
        <ele>432.504639</ele>
        <time>2018-08-20T08:36:50Z</time>
      </trkpt>
      <trkpt lat="47.25411" lon="4.60948">
        <ele>432.756683</ele>
        <time>2018-08-20T08:36:51Z</time>
      </trkpt>
      <trkpt lat="47.25412" lon="4.60946">
        <ele>433.003571</ele>
        <time>2018-08-20T08:36:52Z</time>
      </trkpt>
      <trkpt lat="47.25414" lon="4.60943">
        <ele>433.247681</ele>
        <time>2018-08-20T08:36:53Z</time>
      </trkpt>
      <trkpt lat="47.25415" lon="4.60941">
        <ele>433.455597</ele>
        <time>2018-08-20T08:36:54Z</time>
      </trkpt>
      <trkpt lat="47.25417" lon="4.60938">
        <ele>433.658447</ele>
        <time>2018-08-20T08:36:55Z</time>
      </trkpt>
      <trkpt lat="47.25419" lon="4.60936">
        <ele>433.860229</ele>
        <time>2018-08-20T08:36:56Z</time>
      </trkpt>
      <trkpt lat="47.25421" lon="4.60934">
        <ele>434.06485</ele>
        <time>2018-08-20T08:36:57Z</time>
      </trkpt>
      <trkpt lat="47.25423" lon="4.60932">
        <ele>434.274414</ele>
        <time>2018-08-20T08:36:58Z</time>
      </trkpt>
      <trkpt lat="47.25424" lon="4.6093">
        <ele>434.487152</ele>
        <time>2018-08-20T08:36:59Z</time>
      </trkpt>
      <trkpt lat="47.25426" lon="4.60928">
        <ele>434.696869</ele>
        <time>2018-08-20T08:37:00Z</time>
      </trkpt>
      <trkpt lat="47.25428" lon="4.60926">
        <ele>434.908447</ele>
        <time>2018-08-20T08:37:01Z</time>
      </trkpt>
      <trkpt lat="47.2543" lon="4.60924">
        <ele>435.110107</ele>
        <time>2018-08-20T08:37:02Z</time>
      </trkpt>
      <trkpt lat="47.25431" lon="4.60922">
        <ele>435.302002</ele>
        <time>2018-08-20T08:37:03Z</time>
      </trkpt>
      <trkpt lat="47.25433" lon="4.6092">
        <ele>435.480347</ele>
        <time>2018-08-20T08:37:04Z</time>
      </trkpt>
      <trkpt lat="47.25435" lon="4.60919">
        <ele>435.648102</ele>
        <time>2018-08-20T08:37:05Z</time>
      </trkpt>
      <trkpt lat="47.25437" lon="4.60917">
        <ele>435.80069</ele>
        <time>2018-08-20T08:37:06Z</time>
      </trkpt>
      <trkpt lat="47.25438" lon="4.60915">
        <ele>435.938477</ele>
        <time>2018-08-20T08:37:07Z</time>
      </trkpt>
      <trkpt lat="47.2544" lon="4.60913">
        <ele>436.067871</ele>
        <time>2018-08-20T08:37:08Z</time>
      </trkpt>
      <trkpt lat="47.25442" lon="4.60911">
        <ele>436.181396</ele>
        <time>2018-08-20T08:37:09Z</time>
      </trkpt>
      <trkpt lat="47.25444" lon="4.60909">
        <ele>436.284576</ele>
        <time>2018-08-20T08:37:10Z</time>
      </trkpt>
      <trkpt lat="47.25445" lon="4.60907">
        <ele>436.386353</ele>
        <time>2018-08-20T08:37:11Z</time>
      </trkpt>
      <trkpt lat="47.25447" lon="4.60905">
        <ele>436.489746</ele>
        <time>2018-08-20T08:37:12Z</time>
      </trkpt>
      <trkpt lat="47.25449" lon="4.60903">
        <ele>436.593597</ele>
        <time>2018-08-20T08:37:13Z</time>
      </trkpt>
      <trkpt lat="47.25451" lon="4.60901">
        <ele>436.593597</ele>
        <time>2018-08-20T08:37:14Z</time>
      </trkpt>
      <trkpt lat="47.25452" lon="4.60898">
        <ele>436.702301</ele>
        <time>2018-08-20T08:37:15Z</time>
      </trkpt>
      <trkpt lat="47.25454" lon="4.60896">
        <ele>436.817383</ele>
        <time>2018-08-20T08:37:16Z</time>
      </trkpt>
      <trkpt lat="47.25456" lon="4.60894">
        <ele>436.956085</ele>
        <time>2018-08-20T08:37:17Z</time>
      </trkpt>
      <trkpt lat="47.25457" lon="4.60892">
        <ele>437.095856</ele>
        <time>2018-08-20T08:37:18Z</time>
      </trkpt>
      <trkpt lat="47.25459" lon="4.6089">
        <ele>437.235077</ele>
        <time>2018-08-20T08:37:19Z</time>
      </trkpt>
      <trkpt lat="47.25461" lon="4.60888">
        <ele>437.37146</ele>
        <time>2018-08-20T08:37:20Z</time>
      </trkpt>
      <trkpt lat="47.25463" lon="4.60887">
        <ele>437.498047</ele>
        <time>2018-08-20T08:37:21Z</time>
      </trkpt>
      <trkpt lat="47.25464" lon="4.60884">
        <ele>437.619049</ele>
        <time>2018-08-20T08:37:22Z</time>
      </trkpt>
      <trkpt lat="47.25466" lon="4.60882">
        <ele>437.712738</ele>
        <time>2018-08-20T08:37:23Z</time>
      </trkpt>
      <trkpt lat="47.25468" lon="4.6088">
        <ele>437.796112</ele>
        <time>2018-08-20T08:37:24Z</time>
      </trkpt>
      <trkpt lat="47.25469" lon="4.60878">
        <ele>437.880249</ele>
        <time>2018-08-20T08:37:25Z</time>
      </trkpt>
      <trkpt lat="47.25471" lon="4.60876">
        <ele>437.966339</ele>
        <time>2018-08-20T08:37:26Z</time>
      </trkpt>
      <trkpt lat="47.25472" lon="4.60874">
        <ele>438.054047</ele>
        <time>2018-08-20T08:37:27Z</time>
      </trkpt>
      <trkpt lat="47.25474" lon="4.60872">
        <ele>438.138428</ele>
        <time>2018-08-20T08:37:28Z</time>
      </trkpt>
      <trkpt lat="47.25476" lon="4.6087">
        <ele>438.227539</ele>
        <time>2018-08-20T08:37:29Z</time>
      </trkpt>
      <trkpt lat="47.25477" lon="4.60868">
        <ele>438.327881</ele>
        <time>2018-08-20T08:37:30Z</time>
      </trkpt>
      <trkpt lat="47.25479" lon="4.60866">
        <ele>438.427094</ele>
        <time>2018-08-20T08:37:31Z</time>
      </trkpt>
      <trkpt lat="47.2548" lon="4.60864">
        <ele>438.529327</ele>
        <time>2018-08-20T08:37:32Z</time>
      </trkpt>
      <trkpt lat="47.25482" lon="4.60862">
        <ele>438.643921</ele>
        <time>2018-08-20T08:37:33Z</time>
      </trkpt>
      <trkpt lat="47.25484" lon="4.6086">
        <ele>438.771484</ele>
        <time>2018-08-20T08:37:34Z</time>
      </trkpt>
      <trkpt lat="47.25485" lon="4.60858">
        <ele>438.900909</ele>
        <time>2018-08-20T08:37:35Z</time>
      </trkpt>
      <trkpt lat="47.25486" lon="4.60856">
        <ele>439.0271</ele>
        <time>2018-08-20T08:37:36Z</time>
      </trkpt>
      <trkpt lat="47.25488" lon="4.60854">
        <ele>439.160492</ele>
        <time>2018-08-20T08:37:37Z</time>
      </trkpt>
      <trkpt lat="47.25489" lon="4.60852">
        <ele>439.302338</ele>
        <time>2018-08-20T08:37:38Z</time>
      </trkpt>
      <trkpt lat="47.25491" lon="4.6085">
        <ele>439.442596</ele>
        <time>2018-08-20T08:37:39Z</time>
      </trkpt>
      <trkpt lat="47.25493" lon="4.60848">
        <ele>439.578827</ele>
        <time>2018-08-20T08:37:40Z</time>
      </trkpt>
      <trkpt lat="47.25494" lon="4.60847">
        <ele>439.71875</ele>
        <time>2018-08-20T08:37:41Z</time>
      </trkpt>
      <trkpt lat="47.25496" lon="4.60845">
        <ele>439.71875</ele>
        <time>2018-08-20T08:37:42Z</time>
      </trkpt>
      <trkpt lat="47.25497" lon="4.60844">
        <ele>439.865814</ele>
        <time>2018-08-20T08:37:43Z</time>
      </trkpt>
      <trkpt lat="47.25499" lon="4.60842">
        <ele>440.011017</ele>
        <time>2018-08-20T08:37:44Z</time>
      </trkpt>
      <trkpt lat="47.255" lon="4.6084">
        <ele>440.173553</ele>
        <time>2018-08-20T08:37:45Z</time>
      </trkpt>
      <trkpt lat="47.25501" lon="4.60838">
        <ele>440.173553</ele>
        <time>2018-08-20T08:37:46Z</time>
      </trkpt>
      <trkpt lat="47.25503" lon="4.60836">
        <ele>440.3479</ele>
        <time>2018-08-20T08:37:47Z</time>
      </trkpt>
      <trkpt lat="47.25505" lon="4.60834">
        <ele>440.541718</ele>
        <time>2018-08-20T08:37:48Z</time>
      </trkpt>
      <trkpt lat="47.25506" lon="4.60832">
        <ele>440.792114</ele>
        <time>2018-08-20T08:37:49Z</time>
      </trkpt>
      <trkpt lat="47.25508" lon="4.6083">
        <ele>441.049103</ele>
        <time>2018-08-20T08:37:50Z</time>
      </trkpt>
      <trkpt lat="47.25509" lon="4.60829">
        <ele>441.317047</ele>
        <time>2018-08-20T08:37:51Z</time>
      </trkpt>
      <trkpt lat="47.25511" lon="4.60827">
        <ele>441.578613</ele>
        <time>2018-08-20T08:37:52Z</time>
      </trkpt>
      <trkpt lat="47.25512" lon="4.60825">
        <ele>441.841461</ele>
        <time>2018-08-20T08:37:53Z</time>
      </trkpt>
      <trkpt lat="47.25514" lon="4.60823">
        <ele>442.100311</ele>
        <time>2018-08-20T08:37:54Z</time>
      </trkpt>
      <trkpt lat="47.25515" lon="4.60821">
        <ele>442.314423</ele>
        <time>2018-08-20T08:37:55Z</time>
      </trkpt>
      <trkpt lat="47.25517" lon="4.6082">
        <ele>442.530396</ele>
        <time>2018-08-20T08:37:56Z</time>
      </trkpt>
      <trkpt lat="47.25518" lon="4.60818">
        <ele>442.748199</ele>
        <time>2018-08-20T08:37:57Z</time>
      </trkpt>
      <trkpt lat="47.2552" lon="4.60816">
        <ele>442.964752</ele>
        <time>2018-08-20T08:37:58Z</time>
      </trkpt>
      <trkpt lat="47.25521" lon="4.60814">
        <ele>443.174408</ele>
        <time>2018-08-20T08:37:59Z</time>
      </trkpt>
      <trkpt lat="47.25522" lon="4.60812">
        <ele>443.378998</ele>
        <time>2018-08-20T08:38:00Z</time>
      </trkpt>
      <trkpt lat="47.25524" lon="4.60811">
        <ele>443.588531</ele>
        <time>2018-08-20T08:38:01Z</time>
      </trkpt>
      <trkpt lat="47.25526" lon="4.6081">
        <ele>443.80368</ele>
        <time>2018-08-20T08:38:02Z</time>
      </trkpt>
      <trkpt lat="47.25528" lon="4.60809">
        <ele>444.013947</ele>
        <time>2018-08-20T08:38:03Z</time>
      </trkpt>
      <trkpt lat="47.25529" lon="4.60808">
        <ele>444.210785</ele>
        <time>2018-08-20T08:38:04Z</time>
      </trkpt>
      <trkpt lat="47.25531" lon="4.60806">
        <ele>444.394257</ele>
        <time>2018-08-20T08:38:05Z</time>
      </trkpt>
      <trkpt lat="47.25532" lon="4.60804">
        <ele>444.568207</ele>
        <time>2018-08-20T08:38:06Z</time>
      </trkpt>
      <trkpt lat="47.25534" lon="4.60802">
        <ele>444.724701</ele>
        <time>2018-08-20T08:38:07Z</time>
      </trkpt>
      <trkpt lat="47.25535" lon="4.608">
        <ele>444.885345</ele>
        <time>2018-08-20T08:38:08Z</time>
      </trkpt>
      <trkpt lat="47.25537" lon="4.60799">
        <ele>444.885345</ele>
        <time>2018-08-20T08:38:09Z</time>
      </trkpt>
      <trkpt lat="47.25538" lon="4.60797">
        <ele>445.06015</ele>
        <time>2018-08-20T08:38:10Z</time>
      </trkpt>
      <trkpt lat="47.25539" lon="4.60795">
        <ele>445.259277</ele>
        <time>2018-08-20T08:38:11Z</time>
      </trkpt>
      <trkpt lat="47.2554" lon="4.60794">
        <ele>445.537445</ele>
        <time>2018-08-20T08:38:12Z</time>
      </trkpt>
      <trkpt lat="47.25542" lon="4.60792">
        <ele>445.843262</ele>
        <time>2018-08-20T08:38:13Z</time>
      </trkpt>
      <trkpt lat="47.25543" lon="4.6079">
        <ele>446.172699</ele>
        <time>2018-08-20T08:38:14Z</time>
      </trkpt>
      <trkpt lat="47.25545" lon="4.60788">
        <ele>446.49765</ele>
        <time>2018-08-20T08:38:15Z</time>
      </trkpt>
      <trkpt lat="47.25547" lon="4.60787">
        <ele>446.822601</ele>
        <time>2018-08-20T08:38:16Z</time>
      </trkpt>
      <trkpt lat="47.25548" lon="4.60785">
        <ele>447.151123</ele>
        <time>2018-08-20T08:38:17Z</time>
      </trkpt>
      <trkpt lat="47.2555" lon="4.60784">
        <ele>447.426849</ele>
        <time>2018-08-20T08:38:18Z</time>
      </trkpt>
      <trkpt lat="47.25551" lon="4.60782">
        <ele>447.689117</ele>
        <time>2018-08-20T08:38:19Z</time>
      </trkpt>
      <trkpt lat="47.25553" lon="4.6078">
        <ele>447.952301</ele>
        <time>2018-08-20T08:38:20Z</time>
      </trkpt>
      <trkpt lat="47.25555" lon="4.60779">
        <ele>448.219086</ele>
        <time>2018-08-20T08:38:21Z</time>
      </trkpt>
      <trkpt lat="47.25556" lon="4.60777">
        <ele>448.48584</ele>
        <time>2018-08-20T08:38:22Z</time>
      </trkpt>
      <trkpt lat="47.25558" lon="4.60775">
        <ele>448.744537</ele>
        <time>2018-08-20T08:38:23Z</time>
      </trkpt>
      <trkpt lat="47.2556" lon="4.60773">
        <ele>449.006836</ele>
        <time>2018-08-20T08:38:24Z</time>
      </trkpt>
      <trkpt lat="47.25561" lon="4.60772">
        <ele>449.278076</ele>
        <time>2018-08-20T08:38:25Z</time>
      </trkpt>
      <trkpt lat="47.25563" lon="4.60771">
        <ele>449.549316</ele>
        <time>2018-08-20T08:38:26Z</time>
      </trkpt>
      <trkpt lat="47.25564" lon="4.60769">
        <ele>449.825928</ele>
        <time>2018-08-20T08:38:27Z</time>
      </trkpt>
      <trkpt lat="47.25566" lon="4.60768">
        <ele>450.092682</ele>
        <time>2018-08-20T08:38:28Z</time>
      </trkpt>
      <trkpt lat="47.25567" lon="4.60766">
        <ele>450.350494</ele>
        <time>2018-08-20T08:38:29Z</time>
      </trkpt>
      <trkpt lat="47.25569" lon="4.60764">
        <ele>450.606659</ele>
        <time>2018-08-20T08:38:30Z</time>
      </trkpt>
      <trkpt lat="47.2557" lon="4.60763">
        <ele>450.870819</ele>
        <time>2018-08-20T08:38:31Z</time>
      </trkpt>
      <trkpt lat="47.25571" lon="4.60761">
        <ele>451.141357</ele>
        <time>2018-08-20T08:38:32Z</time>
      </trkpt>
      <trkpt lat="47.25573" lon="4.6076">
        <ele>451.415192</ele>
        <time>2018-08-20T08:38:33Z</time>
      </trkpt>
      <trkpt lat="47.25574" lon="4.60758">
        <ele>451.700073</ele>
        <time>2018-08-20T08:38:34Z</time>
      </trkpt>
      <trkpt lat="47.25576" lon="4.60756">
        <ele>451.990326</ele>
        <time>2018-08-20T08:38:35Z</time>
      </trkpt>
      <trkpt lat="47.25577" lon="4.60755">
        <ele>452.283081</ele>
        <time>2018-08-20T08:38:36Z</time>
      </trkpt>
      <trkpt lat="47.25578" lon="4.60753">
        <ele>452.283081</ele>
        <time>2018-08-20T08:38:37Z</time>
      </trkpt>
      <trkpt lat="47.2558" lon="4.60752">
        <ele>452.567749</ele>
        <time>2018-08-20T08:38:38Z</time>
      </trkpt>
      <trkpt lat="47.25582" lon="4.60751">
        <ele>452.854004</ele>
        <time>2018-08-20T08:38:39Z</time>
      </trkpt>
      <trkpt lat="47.25583" lon="4.60749">
        <ele>453.182861</ele>
        <time>2018-08-20T08:38:40Z</time>
      </trkpt>
      <trkpt lat="47.25585" lon="4.60748">
        <ele>453.501465</ele>
        <time>2018-08-20T08:38:41Z</time>
      </trkpt>
      <trkpt lat="47.25586" lon="4.60747">
        <ele>453.81778</ele>
        <time>2018-08-20T08:38:42Z</time>
      </trkpt>
      <trkpt lat="47.25588" lon="4.60745">
        <ele>454.118378</ele>
        <time>2018-08-20T08:38:43Z</time>
      </trkpt>
      <trkpt lat="47.25589" lon="4.60744">
        <ele>454.404572</ele>
        <time>2018-08-20T08:38:44Z</time>
      </trkpt>
      <trkpt lat="47.25591" lon="4.60743">
        <ele>454.675659</ele>
        <time>2018-08-20T08:38:45Z</time>
      </trkpt>
      <trkpt lat="47.25592" lon="4.60741">
        <ele>454.675659</ele>
        <time>2018-08-20T08:38:46Z</time>
      </trkpt>
      <trkpt lat="47.25594" lon="4.6074">
        <ele>454.896393</ele>
        <time>2018-08-20T08:38:47Z</time>
      </trkpt>
      <trkpt lat="47.25595" lon="4.60738">
        <ele>455.12085</ele>
        <time>2018-08-20T08:38:48Z</time>
      </trkpt>
      <trkpt lat="47.25597" lon="4.60737">
        <ele>455.382538</ele>
        <time>2018-08-20T08:38:49Z</time>
      </trkpt>
      <trkpt lat="47.25597" lon="4.60736">
        <ele>455.650116</ele>
        <time>2018-08-20T08:38:50Z</time>
      </trkpt>
      <trkpt lat="47.25599" lon="4.60735">
        <ele>455.922577</ele>
        <time>2018-08-20T08:38:51Z</time>
      </trkpt>
      <trkpt lat="47.256" lon="4.60734">
        <ele>456.189117</ele>
        <time>2018-08-20T08:38:52Z</time>
      </trkpt>
      <trkpt lat="47.25602" lon="4.60733">
        <ele>456.438354</ele>
        <time>2018-08-20T08:38:53Z</time>
      </trkpt>
      <trkpt lat="47.25604" lon="4.60732">
        <ele>456.683563</ele>
        <time>2018-08-20T08:38:54Z</time>
      </trkpt>
      <trkpt lat="47.25605" lon="4.6073">
        <ele>456.88028</ele>
        <time>2018-08-20T08:38:55Z</time>
      </trkpt>
      <trkpt lat="47.25606" lon="4.60729">
        <ele>457.067719</ele>
        <time>2018-08-20T08:38:56Z</time>
      </trkpt>
      <trkpt lat="47.25607" lon="4.60727">
        <ele>457.246552</ele>
        <time>2018-08-20T08:38:57Z</time>
      </trkpt>
      <trkpt lat="47.25608" lon="4.60726">
        <ele>457.424042</ele>
        <time>2018-08-20T08:38:58Z</time>
      </trkpt>
      <trkpt lat="47.2561" lon="4.60725">
        <ele>457.611938</ele>
        <time>2018-08-20T08:38:59Z</time>
      </trkpt>
      <trkpt lat="47.25611" lon="4.60724">
        <ele>457.802277</ele>
        <time>2018-08-20T08:39:00Z</time>
      </trkpt>
      <trkpt lat="47.25613" lon="4.60723">
        <ele>457.997803</ele>
        <time>2018-08-20T08:39:01Z</time>
      </trkpt>
      <trkpt lat="47.25613" lon="4.60721">
        <ele>458.189056</ele>
        <time>2018-08-20T08:39:02Z</time>
      </trkpt>
      <trkpt lat="47.25615" lon="4.6072">
        <ele>458.379059</ele>
        <time>2018-08-20T08:39:03Z</time>
      </trkpt>
      <trkpt lat="47.25617" lon="4.60719">
        <ele>458.575195</ele>
        <time>2018-08-20T08:39:04Z</time>
      </trkpt>
      <trkpt lat="47.25618" lon="4.60717">
        <ele>458.765167</ele>
        <time>2018-08-20T08:39:05Z</time>
      </trkpt>
      <trkpt lat="47.25619" lon="4.60716">
        <ele>458.945953</ele>
        <time>2018-08-20T08:39:06Z</time>
      </trkpt>
      <trkpt lat="47.2562" lon="4.60715">
        <ele>459.12207</ele>
        <time>2018-08-20T08:39:07Z</time>
      </trkpt>
      <trkpt lat="47.25621" lon="4.60714">
        <ele>459.308197</ele>
        <time>2018-08-20T08:39:08Z</time>
      </trkpt>
      <trkpt lat="47.25623" lon="4.60712">
        <ele>459.50058</ele>
        <time>2018-08-20T08:39:09Z</time>
      </trkpt>
      <trkpt lat="47.25624" lon="4.60712">
        <ele>459.686981</ele>
        <time>2018-08-20T08:39:10Z</time>
      </trkpt>
      <trkpt lat="47.25626" lon="4.60711">
        <ele>459.868988</ele>
        <time>2018-08-20T08:39:11Z</time>
      </trkpt>
      <trkpt lat="47.25627" lon="4.6071">
        <ele>460.053467</ele>
        <time>2018-08-20T08:39:12Z</time>
      </trkpt>
      <trkpt lat="47.25629" lon="4.60709">
        <ele>460.225586</ele>
        <time>2018-08-20T08:39:13Z</time>
      </trkpt>
      <trkpt lat="47.2563" lon="4.60708">
        <ele>460.377563</ele>
        <time>2018-08-20T08:39:14Z</time>
      </trkpt>
      <trkpt lat="47.25631" lon="4.60707">
        <ele>460.513519</ele>
        <time>2018-08-20T08:39:15Z</time>
      </trkpt>
      <trkpt lat="47.25633" lon="4.60706">
        <ele>460.6409</ele>
        <time>2018-08-20T08:39:16Z</time>
      </trkpt>
      <trkpt lat="47.25634" lon="4.60705">
        <ele>460.767181</ele>
        <time>2018-08-20T08:39:17Z</time>
      </trkpt>
      <trkpt lat="47.25636" lon="4.60704">
        <ele>460.884766</ele>
        <time>2018-08-20T08:39:18Z</time>
      </trkpt>
      <trkpt lat="47.25637" lon="4.60704">
        <ele>460.884766</ele>
        <time>2018-08-20T08:39:19Z</time>
      </trkpt>
      <trkpt lat="47.25639" lon="4.60703">
        <ele>461.018188</ele>
        <time>2018-08-20T08:39:20Z</time>
      </trkpt>
      <trkpt lat="47.2564" lon="4.60702">
        <ele>461.165283</ele>
        <time>2018-08-20T08:39:21Z</time>
      </trkpt>
      <trkpt lat="47.25642" lon="4.60701">
        <ele>461.363647</ele>
        <time>2018-08-20T08:39:22Z</time>
      </trkpt>
      <trkpt lat="47.25643" lon="4.607">
        <ele>461.567841</ele>
        <time>2018-08-20T08:39:23Z</time>
      </trkpt>
      <trkpt lat="47.25645" lon="4.607">
        <ele>461.783356</ele>
        <time>2018-08-20T08:39:24Z</time>
      </trkpt>
      <trkpt lat="47.25646" lon="4.60699">
        <ele>462.009766</ele>
        <time>2018-08-20T08:39:25Z</time>
      </trkpt>
      <trkpt lat="47.25648" lon="4.60698">
        <ele>462.229004</ele>
        <time>2018-08-20T08:39:26Z</time>
      </trkpt>
      <trkpt lat="47.2565" lon="4.60698">
        <ele>462.444824</ele>
        <time>2018-08-20T08:39:27Z</time>
      </trkpt>
      <trkpt lat="47.25652" lon="4.60697">
        <ele>462.619415</ele>
        <time>2018-08-20T08:39:28Z</time>
      </trkpt>
      <trkpt lat="47.25653" lon="4.60696">
        <ele>462.791718</ele>
        <time>2018-08-20T08:39:29Z</time>
      </trkpt>
      <trkpt lat="47.25655" lon="4.60696">
        <ele>462.952423</ele>
        <time>2018-08-20T08:39:30Z</time>
      </trkpt>
      <trkpt lat="47.25656" lon="4.60695">
        <ele>463.106903</ele>
        <time>2018-08-20T08:39:31Z</time>
      </trkpt>
      <trkpt lat="47.25658" lon="4.60694">
        <ele>463.258667</ele>
        <time>2018-08-20T08:39:32Z</time>
      </trkpt>
      <trkpt lat="47.25659" lon="4.60694">
        <ele>463.4021</ele>
        <time>2018-08-20T08:39:33Z</time>
      </trkpt>
      <trkpt lat="47.25661" lon="4.60693">
        <ele>463.54306</ele>
        <time>2018-08-20T08:39:34Z</time>
      </trkpt>
      <trkpt lat="47.25662" lon="4.60693">
        <ele>463.685211</ele>
        <time>2018-08-20T08:39:35Z</time>
      </trkpt>
      <trkpt lat="47.25664" lon="4.60692">
        <ele>463.825897</ele>
        <time>2018-08-20T08:39:36Z</time>
      </trkpt>
      <trkpt lat="47.25665" lon="4.60692">
        <ele>463.959808</ele>
        <time>2018-08-20T08:39:37Z</time>
      </trkpt>
      <trkpt lat="47.25666" lon="4.60691">
        <ele>464.088531</ele>
        <time>2018-08-20T08:39:38Z</time>
      </trkpt>
      <trkpt lat="47.25668" lon="4.60691">
        <ele>464.216797</ele>
        <time>2018-08-20T08:39:39Z</time>
      </trkpt>
      <trkpt lat="47.2567" lon="4.60691">
        <ele>464.338715</ele>
        <time>2018-08-20T08:39:40Z</time>
      </trkpt>
      <trkpt lat="47.25671" lon="4.60691">
        <ele>464.451538</ele>
        <time>2018-08-20T08:39:41Z</time>
      </trkpt>
      <trkpt lat="47.25673" lon="4.6069">
        <ele>464.554901</ele>
        <time>2018-08-20T08:39:42Z</time>
      </trkpt>
      <trkpt lat="47.25674" lon="4.6069">
        <ele>464.650543</ele>
        <time>2018-08-20T08:39:43Z</time>
      </trkpt>
      <trkpt lat="47.25676" lon="4.60689">
        <ele>464.742828</ele>
        <time>2018-08-20T08:39:44Z</time>
      </trkpt>
      <trkpt lat="47.25678" lon="4.60689">
        <ele>464.832489</ele>
        <time>2018-08-20T08:39:45Z</time>
      </trkpt>
      <trkpt lat="47.25679" lon="4.60688">
        <ele>464.921875</ele>
        <time>2018-08-20T08:39:46Z</time>
      </trkpt>
      <trkpt lat="47.25681" lon="4.60688">
        <ele>464.921875</ele>
        <time>2018-08-20T08:39:47Z</time>
      </trkpt>
      <trkpt lat="47.25682" lon="4.60687">
        <ele>465.012604</ele>
        <time>2018-08-20T08:39:48Z</time>
      </trkpt>
      <trkpt lat="47.25684" lon="4.60686">
        <ele>465.101959</ele>
        <time>2018-08-20T08:39:49Z</time>
      </trkpt>
      <trkpt lat="47.25685" lon="4.60686">
        <ele>465.210419</ele>
        <time>2018-08-20T08:39:50Z</time>
      </trkpt>
      <trkpt lat="47.25686" lon="4.60685">
        <ele>465.322021</ele>
        <time>2018-08-20T08:39:51Z</time>
      </trkpt>
      <trkpt lat="47.25688" lon="4.60684">
        <ele>465.435028</ele>
        <time>2018-08-20T08:39:52Z</time>
      </trkpt>
      <trkpt lat="47.25689" lon="4.60684">
        <ele>465.547394</ele>
        <time>2018-08-20T08:39:53Z</time>
      </trkpt>
      <trkpt lat="47.25691" lon="4.60683">
        <ele>465.653473</ele>
        <time>2018-08-20T08:39:54Z</time>
      </trkpt>
      <trkpt lat="47.25692" lon="4.60682">
        <ele>465.762421</ele>
        <time>2018-08-20T08:39:55Z</time>
      </trkpt>
      <trkpt lat="47.25694" lon="4.60681">
        <ele>465.854279</ele>
        <time>2018-08-20T08:39:56Z</time>
      </trkpt>
      <trkpt lat="47.25695" lon="4.6068">
        <ele>465.945404</ele>
        <time>2018-08-20T08:39:57Z</time>
      </trkpt>
      <trkpt lat="47.25697" lon="4.60679">
        <ele>466.040314</ele>
        <time>2018-08-20T08:39:58Z</time>
      </trkpt>
      <trkpt lat="47.25698" lon="4.60679">
        <ele>466.135651</ele>
        <time>2018-08-20T08:39:59Z</time>
      </trkpt>
      <trkpt lat="47.257" lon="4.60678">
        <ele>466.229279</ele>
        <time>2018-08-20T08:40:00Z</time>
      </trkpt>
      <trkpt lat="47.25702" lon="4.60677">
        <ele>466.31778</ele>
        <time>2018-08-20T08:40:01Z</time>
      </trkpt>
      <trkpt lat="47.25703" lon="4.60677">
        <ele>466.4021</ele>
        <time>2018-08-20T08:40:02Z</time>
      </trkpt>
      <trkpt lat="47.25705" lon="4.60676">
        <ele>466.483795</ele>
        <time>2018-08-20T08:40:03Z</time>
      </trkpt>
      <trkpt lat="47.25707" lon="4.60675">
        <ele>466.569977</ele>
        <time>2018-08-20T08:40:04Z</time>
      </trkpt>
      <trkpt lat="47.25708" lon="4.60675">
        <ele>466.663818</ele>
        <time>2018-08-20T08:40:05Z</time>
      </trkpt>
      <trkpt lat="47.2571" lon="4.60674">
        <ele>466.77182</ele>
        <time>2018-08-20T08:40:06Z</time>
      </trkpt>
      <trkpt lat="47.25711" lon="4.60673">
        <ele>466.894623</ele>
        <time>2018-08-20T08:40:07Z</time>
      </trkpt>
      <trkpt lat="47.25713" lon="4.60672">
        <ele>467.035065</ele>
        <time>2018-08-20T08:40:08Z</time>
      </trkpt>
      <trkpt lat="47.25715" lon="4.60672">
        <ele>467.187469</ele>
        <time>2018-08-20T08:40:09Z</time>
      </trkpt>
      <trkpt lat="47.25716" lon="4.60671">
        <ele>467.339264</ele>
        <time>2018-08-20T08:40:10Z</time>
      </trkpt>
      <trkpt lat="47.25718" lon="4.6067">
        <ele>467.488159</ele>
        <time>2018-08-20T08:40:11Z</time>
      </trkpt>
      <trkpt lat="47.25719" lon="4.60669">
        <ele>467.634369</ele>
        <time>2018-08-20T08:40:12Z</time>
      </trkpt>
      <trkpt lat="47.2572" lon="4.60668">
        <ele>467.778168</ele>
        <time>2018-08-20T08:40:13Z</time>
      </trkpt>
      <trkpt lat="47.25721" lon="4.60667">
        <ele>467.920624</ele>
        <time>2018-08-20T08:40:14Z</time>
      </trkpt>
      <trkpt lat="47.25723" lon="4.60666">
        <ele>468.061432</ele>
        <time>2018-08-20T08:40:15Z</time>
      </trkpt>
      <trkpt lat="47.25724" lon="4.60665">
        <ele>468.203949</ele>
        <time>2018-08-20T08:40:16Z</time>
      </trkpt>
      <trkpt lat="47.25725" lon="4.60663">
        <ele>468.355804</ele>
        <time>2018-08-20T08:40:17Z</time>
      </trkpt>
      <trkpt lat="47.25727" lon="4.60662">
        <ele>468.512482</ele>
        <time>2018-08-20T08:40:18Z</time>
      </trkpt>
      <trkpt lat="47.25728" lon="4.60661">
        <ele>468.672943</ele>
        <time>2018-08-20T08:40:19Z</time>
      </trkpt>
      <trkpt lat="47.25729" lon="4.6066">
        <ele>468.833008</ele>
        <time>2018-08-20T08:40:20Z</time>
      </trkpt>
      <trkpt lat="47.25731" lon="4.60659">
        <ele>468.994293</ele>
        <time>2018-08-20T08:40:21Z</time>
      </trkpt>
      <trkpt lat="47.25732" lon="4.60658">
        <ele>469.155792</ele>
        <time>2018-08-20T08:40:22Z</time>
      </trkpt>
      <trkpt lat="47.25733" lon="4.60657">
        <ele>469.312225</ele>
        <time>2018-08-20T08:40:23Z</time>
      </trkpt>
      <trkpt lat="47.25734" lon="4.60655">
        <ele>469.464203</ele>
        <time>2018-08-20T08:40:24Z</time>
      </trkpt>
      <trkpt lat="47.25736" lon="4.60654">
        <ele>469.464203</ele>
        <time>2018-08-20T08:40:25Z</time>
      </trkpt>
      <trkpt lat="47.25737" lon="4.60652">
        <ele>469.612823</ele>
        <time>2018-08-20T08:40:26Z</time>
      </trkpt>
      <trkpt lat="47.25737" lon="4.6065">
        <ele>469.759644</ele>
        <time>2018-08-20T08:40:27Z</time>
      </trkpt>
      <trkpt lat="47.25739" lon="4.60649">
        <ele>469.928314</ele>
        <time>2018-08-20T08:40:28Z</time>
      </trkpt>
      <trkpt lat="47.2574" lon="4.60648">
        <ele>470.09433</ele>
        <time>2018-08-20T08:40:29Z</time>
      </trkpt>
      <trkpt lat="47.25742" lon="4.60647">
        <ele>470.25882</ele>
        <time>2018-08-20T08:40:30Z</time>
      </trkpt>
      <trkpt lat="47.25743" lon="4.60646">
        <ele>470.420532</ele>
        <time>2018-08-20T08:40:31Z</time>
      </trkpt>
      <trkpt lat="47.25744" lon="4.60644">
        <ele>470.5784</ele>
        <time>2018-08-20T08:40:32Z</time>
      </trkpt>
      <trkpt lat="47.25746" lon="4.60643">
        <ele>470.731201</ele>
        <time>2018-08-20T08:40:33Z</time>
      </trkpt>
      <trkpt lat="47.25747" lon="4.60642">
        <ele>470.85733</ele>
        <time>2018-08-20T08:40:34Z</time>
      </trkpt>
      <trkpt lat="47.25748" lon="4.60641">
        <ele>470.97995</ele>
        <time>2018-08-20T08:40:35Z</time>
      </trkpt>
      <trkpt lat="47.2575" lon="4.6064">
        <ele>471.095581</ele>
        <time>2018-08-20T08:40:36Z</time>
      </trkpt>
      <trkpt lat="47.25751" lon="4.60639">
        <ele>471.206909</ele>
        <time>2018-08-20T08:40:37Z</time>
      </trkpt>
      <trkpt lat="47.25752" lon="4.60637">
        <ele>471.314484</ele>
        <time>2018-08-20T08:40:38Z</time>
      </trkpt>
      <trkpt lat="47.25753" lon="4.60636">
        <ele>471.41983</ele>
        <time>2018-08-20T08:40:39Z</time>
      </trkpt>
      <trkpt lat="47.25754" lon="4.60634">
        <ele>471.52066</ele>
        <time>2018-08-20T08:40:40Z</time>
      </trkpt>
      <trkpt lat="47.25755" lon="4.60632">
        <ele>471.615997</ele>
        <time>2018-08-20T08:40:41Z</time>
      </trkpt>
      <trkpt lat="47.25757" lon="4.60631">
        <ele>471.708893</ele>
        <time>2018-08-20T08:40:42Z</time>
      </trkpt>
      <trkpt lat="47.25758" lon="4.6063">
        <ele>471.801117</ele>
        <time>2018-08-20T08:40:43Z</time>
      </trkpt>
      <trkpt lat="47.25759" lon="4.60629">
        <ele>471.891846</ele>
        <time>2018-08-20T08:40:44Z</time>
      </trkpt>
      <trkpt lat="47.2576" lon="4.60627">
        <ele>471.97934</ele>
        <time>2018-08-20T08:40:45Z</time>
      </trkpt>
      <trkpt lat="47.25762" lon="4.60626">
        <ele>472.062653</ele>
        <time>2018-08-20T08:40:46Z</time>
      </trkpt>
      <trkpt lat="47.25763" lon="4.60624">
        <ele>472.142914</ele>
        <time>2018-08-20T08:40:47Z</time>
      </trkpt>
      <trkpt lat="47.25764" lon="4.60623">
        <ele>472.142914</ele>
        <time>2018-08-20T08:40:48Z</time>
      </trkpt>
      <trkpt lat="47.25766" lon="4.60621">
        <ele>472.220551</ele>
        <time>2018-08-20T08:40:49Z</time>
      </trkpt>
      <trkpt lat="47.25767" lon="4.6062">
        <ele>472.294312</ele>
        <time>2018-08-20T08:40:50Z</time>
      </trkpt>
      <trkpt lat="47.25768" lon="4.60618">
        <ele>472.373627</ele>
        <time>2018-08-20T08:40:51Z</time>
      </trkpt>
      <trkpt lat="47.2577" lon="4.60617">
        <ele>472.447906</ele>
        <time>2018-08-20T08:40:52Z</time>
      </trkpt>
      <trkpt lat="47.25771" lon="4.60616">
        <ele>472.520844</ele>
        <time>2018-08-20T08:40:53Z</time>
      </trkpt>
      <trkpt lat="47.25773" lon="4.60614">
        <ele>472.590729</ele>
        <time>2018-08-20T08:40:54Z</time>
      </trkpt>
      <trkpt lat="47.25774" lon="4.60613">
        <ele>472.669281</ele>
        <time>2018-08-20T08:40:55Z</time>
      </trkpt>
      <trkpt lat="47.25775" lon="4.60612">
        <ele>472.769775</ele>
        <time>2018-08-20T08:40:56Z</time>
      </trkpt>
      <trkpt lat="47.25776" lon="4.6061">
        <ele>472.883392</ele>
        <time>2018-08-20T08:40:57Z</time>
      </trkpt>
      <trkpt lat="47.25778" lon="4.60608">
        <ele>473.020905</ele>
        <time>2018-08-20T08:40:58Z</time>
      </trkpt>
      <trkpt lat="47.25779" lon="4.60607">
        <ele>473.181488</ele>
        <time>2018-08-20T08:40:59Z</time>
      </trkpt>
      <trkpt lat="47.2578" lon="4.60605">
        <ele>473.368011</ele>
        <time>2018-08-20T08:41:00Z</time>
      </trkpt>
      <trkpt lat="47.25782" lon="4.60604">
        <ele>473.567383</ele>
        <time>2018-08-20T08:41:01Z</time>
      </trkpt>
      <trkpt lat="47.25783" lon="4.60602">
        <ele>473.567383</ele>
        <time>2018-08-20T08:41:02Z</time>
      </trkpt>
      <trkpt lat="47.25784" lon="4.60601">
        <ele>473.762054</ele>
        <time>2018-08-20T08:41:03Z</time>
      </trkpt>
      <trkpt lat="47.25786" lon="4.60599">
        <ele>473.958344</ele>
        <time>2018-08-20T08:41:04Z</time>
      </trkpt>
      <trkpt lat="47.25787" lon="4.60598">
        <ele>474.185303</ele>
        <time>2018-08-20T08:41:05Z</time>
      </trkpt>
      <trkpt lat="47.25789" lon="4.60596">
        <ele>474.441864</ele>
        <time>2018-08-20T08:41:06Z</time>
      </trkpt>
      <trkpt lat="47.2579" lon="4.60595">
        <ele>474.731049</ele>
        <time>2018-08-20T08:41:07Z</time>
      </trkpt>
      <trkpt lat="47.25792" lon="4.60594">
        <ele>475.056976</ele>
        <time>2018-08-20T08:41:08Z</time>
      </trkpt>
      <trkpt lat="47.25793" lon="4.60592">
        <ele>475.415863</ele>
        <time>2018-08-20T08:41:09Z</time>
      </trkpt>
      <trkpt lat="47.25794" lon="4.60591">
        <ele>475.804199</ele>
        <time>2018-08-20T08:41:10Z</time>
      </trkpt>
      <trkpt lat="47.25795" lon="4.60589">
        <ele>476.18869</ele>
        <time>2018-08-20T08:41:11Z</time>
      </trkpt>
      <trkpt lat="47.25796" lon="4.60588">
        <ele>476.578705</ele>
        <time>2018-08-20T08:41:12Z</time>
      </trkpt>
      <trkpt lat="47.25797" lon="4.60586">
        <ele>476.963379</ele>
        <time>2018-08-20T08:41:13Z</time>
      </trkpt>
      <trkpt lat="47.25799" lon="4.60585">
        <ele>477.334259</ele>
        <time>2018-08-20T08:41:14Z</time>
      </trkpt>
      <trkpt lat="47.25799" lon="4.60583">
        <ele>477.698761</ele>
        <time>2018-08-20T08:41:15Z</time>
      </trkpt>
      <trkpt lat="47.258" lon="4.6058">
        <ele>478.062225</ele>
        <time>2018-08-20T08:41:16Z</time>
      </trkpt>
      <trkpt lat="47.25802" lon="4.60578">
        <ele>478.421295</ele>
        <time>2018-08-20T08:41:17Z</time>
      </trkpt>
      <trkpt lat="47.25803" lon="4.60577">
        <ele>478.778839</ele>
        <time>2018-08-20T08:41:18Z</time>
      </trkpt>
      <trkpt lat="47.25804" lon="4.60576">
        <ele>479.147125</ele>
        <time>2018-08-20T08:41:19Z</time>
      </trkpt>
      <trkpt lat="47.25805" lon="4.60574">
        <ele>479.529785</ele>
        <time>2018-08-20T08:41:20Z</time>
      </trkpt>
      <trkpt lat="47.25806" lon="4.60573">
        <ele>479.912628</ele>
        <time>2018-08-20T08:41:21Z</time>
      </trkpt>
      <trkpt lat="47.25807" lon="4.60571">
        <ele>480.285278</ele>
        <time>2018-08-20T08:41:22Z</time>
      </trkpt>
      <trkpt lat="47.25808" lon="4.60569">
        <ele>480.659515</ele>
        <time>2018-08-20T08:41:23Z</time>
      </trkpt>
      <trkpt lat="47.25809" lon="4.60567">
        <ele>481.023712</ele>
        <time>2018-08-20T08:41:24Z</time>
      </trkpt>
      <trkpt lat="47.25811" lon="4.60566">
        <ele>481.37561</ele>
        <time>2018-08-20T08:41:25Z</time>
      </trkpt>
      <trkpt lat="47.25811" lon="4.60564">
        <ele>481.712891</ele>
        <time>2018-08-20T08:41:26Z</time>
      </trkpt>
      <trkpt lat="47.25812" lon="4.60562">
        <ele>482.054535</ele>
        <time>2018-08-20T08:41:27Z</time>
      </trkpt>
      <trkpt lat="47.25813" lon="4.6056">
        <ele>482.396942</ele>
        <time>2018-08-20T08:41:28Z</time>
      </trkpt>
      <trkpt lat="47.25814" lon="4.60558">
        <ele>482.738617</ele>
        <time>2018-08-20T08:41:29Z</time>
      </trkpt>
      <trkpt lat="47.25815" lon="4.60556">
        <ele>482.738617</ele>
        <time>2018-08-20T08:41:30Z</time>
      </trkpt>
      <trkpt lat="47.25816" lon="4.60554">
        <ele>483.080231</ele>
        <time>2018-08-20T08:41:31Z</time>
      </trkpt>
      <trkpt lat="47.25816" lon="4.60552">
        <ele>483.42041</ele>
        <time>2018-08-20T08:41:32Z</time>
      </trkpt>
      <trkpt lat="47.25818" lon="4.60551">
        <ele>483.824066</ele>
        <time>2018-08-20T08:41:33Z</time>
      </trkpt>
      <trkpt lat="47.25819" lon="4.60549">
        <ele>484.21875</ele>
        <time>2018-08-20T08:41:34Z</time>
      </trkpt>
      <trkpt lat="47.25819" lon="4.60547">
        <ele>484.61972</ele>
        <time>2018-08-20T08:41:35Z</time>
      </trkpt>
      <trkpt lat="47.25821" lon="4.60545">
        <ele>485.021027</ele>
        <time>2018-08-20T08:41:36Z</time>
      </trkpt>
      <trkpt lat="47.25822" lon="4.60543">
        <ele>485.421173</ele>
        <time>2018-08-20T08:41:37Z</time>
      </trkpt>
      <trkpt lat="47.25823" lon="4.60542">
        <ele>485.825104</ele>
        <time>2018-08-20T08:41:38Z</time>
      </trkpt>
      <trkpt lat="47.25824" lon="4.60541">
        <ele>486.16745</ele>
        <time>2018-08-20T08:41:39Z</time>
      </trkpt>
      <trkpt lat="47.25825" lon="4.60539">
        <ele>486.512848</ele>
        <time>2018-08-20T08:41:40Z</time>
      </trkpt>
      <trkpt lat="47.25826" lon="4.60537">
        <ele>486.840942</ele>
        <time>2018-08-20T08:41:41Z</time>
      </trkpt>
      <trkpt lat="47.25827" lon="4.60536">
        <ele>487.156128</ele>
        <time>2018-08-20T08:41:42Z</time>
      </trkpt>
      <trkpt lat="47.25828" lon="4.60534">
        <ele>487.465698</ele>
        <time>2018-08-20T08:41:43Z</time>
      </trkpt>
      <trkpt lat="47.25829" lon="4.60532">
        <ele>487.761505</ele>
        <time>2018-08-20T08:41:44Z</time>
      </trkpt>
      <trkpt lat="47.2583" lon="4.60531">
        <ele>488.045624</ele>
        <time>2018-08-20T08:41:45Z</time>
      </trkpt>
      <trkpt lat="47.25832" lon="4.60529">
        <ele>488.325043</ele>
        <time>2018-08-20T08:41:46Z</time>
      </trkpt>
      <trkpt lat="47.25833" lon="4.60528">
        <ele>488.619904</ele>
        <time>2018-08-20T08:41:47Z</time>
      </trkpt>
      <trkpt lat="47.25834" lon="4.60527">
        <ele>488.933472</ele>
        <time>2018-08-20T08:41:48Z</time>
      </trkpt>
      <trkpt lat="47.25835" lon="4.60525">
        <ele>488.933472</ele>
        <time>2018-08-20T08:41:49Z</time>
      </trkpt>
      <trkpt lat="47.25836" lon="4.60523">
        <ele>489.257202</ele>
        <time>2018-08-20T08:41:50Z</time>
      </trkpt>
      <trkpt lat="47.25837" lon="4.60522">
        <ele>489.588776</ele>
        <time>2018-08-20T08:41:51Z</time>
      </trkpt>
      <trkpt lat="47.25839" lon="4.6052">
        <ele>489.978516</ele>
        <time>2018-08-20T08:41:52Z</time>
      </trkpt>
      <trkpt lat="47.2584" lon="4.60519">
        <ele>490.380127</ele>
        <time>2018-08-20T08:41:53Z</time>
      </trkpt>
      <trkpt lat="47.25841" lon="4.60517">
        <ele>490.7789</ele>
        <time>2018-08-20T08:41:54Z</time>
      </trkpt>
      <trkpt lat="47.25842" lon="4.60515">
        <ele>491.181274</ele>
        <time>2018-08-20T08:41:55Z</time>
      </trkpt>
      <trkpt lat="47.25843" lon="4.60514">
        <ele>491.590546</ele>
        <time>2018-08-20T08:41:56Z</time>
      </trkpt>
      <trkpt lat="47.25844" lon="4.60513">
        <ele>492.010468</ele>
        <time>2018-08-20T08:41:57Z</time>
      </trkpt>
      <trkpt lat="47.25845" lon="4.60512">
        <ele>492.389496</ele>
        <time>2018-08-20T08:41:58Z</time>
      </trkpt>
      <trkpt lat="47.25847" lon="4.6051">
        <ele>492.756927</ele>
        <time>2018-08-20T08:41:59Z</time>
      </trkpt>
      <trkpt lat="47.25848" lon="4.60508">
        <ele>493.125641</ele>
        <time>2018-08-20T08:42:00Z</time>
      </trkpt>
      <trkpt lat="47.25849" lon="4.60507">
        <ele>493.484131</ele>
        <time>2018-08-20T08:42:01Z</time>
      </trkpt>
      <trkpt lat="47.2585" lon="4.60506">
        <ele>493.840363</ele>
        <time>2018-08-20T08:42:02Z</time>
      </trkpt>
      <trkpt lat="47.25858" lon="4.60495">
        <ele>496.329437</ele>
        <time>2018-08-20T08:44:26Z</time>
      </trkpt>
      <trkpt lat="47.25859" lon="4.60494">
        <ele>496.626831</ele>
        <time>2018-08-20T08:44:28Z</time>
      </trkpt>
      <trkpt lat="47.2586" lon="4.60492">
        <ele>496.934784</ele>
        <time>2018-08-20T08:44:29Z</time>
      </trkpt>
      <trkpt lat="47.25861" lon="4.6049">
        <ele>497.253662</ele>
        <time>2018-08-20T08:44:30Z</time>
      </trkpt>
      <trkpt lat="47.25861" lon="4.60489">
        <ele>497.575073</ele>
        <time>2018-08-20T08:44:31Z</time>
      </trkpt>
      <trkpt lat="47.25863" lon="4.60488">
        <ele>497.89563</ele>
        <time>2018-08-20T08:44:32Z</time>
      </trkpt>
      <trkpt lat="47.25864" lon="4.60487">
        <ele>498.212067</ele>
        <time>2018-08-20T08:44:33Z</time>
      </trkpt>
      <trkpt lat="47.25865" lon="4.60485">
        <ele>498.52475</ele>
        <time>2018-08-20T08:44:34Z</time>
      </trkpt>
      <trkpt lat="47.25866" lon="4.60484">
        <ele>498.52475</ele>
        <time>2018-08-20T08:44:35Z</time>
      </trkpt>
      <trkpt lat="47.25867" lon="4.60482">
        <ele>498.835602</ele>
        <time>2018-08-20T08:44:36Z</time>
      </trkpt>
      <trkpt lat="47.25868" lon="4.60481">
        <ele>499.141205</ele>
        <time>2018-08-20T08:44:37Z</time>
      </trkpt>
      <trkpt lat="47.25869" lon="4.6048">
        <ele>499.48584</ele>
        <time>2018-08-20T08:44:38Z</time>
      </trkpt>
      <trkpt lat="47.2587" lon="4.60478">
        <ele>499.821442</ele>
        <time>2018-08-20T08:44:39Z</time>
      </trkpt>
      <trkpt lat="47.25871" lon="4.60476">
        <ele>500.142212</ele>
        <time>2018-08-20T08:44:40Z</time>
      </trkpt>
      <trkpt lat="47.25872" lon="4.60475">
        <ele>500.460663</ele>
        <time>2018-08-20T08:44:41Z</time>
      </trkpt>
      <trkpt lat="47.25873" lon="4.60473">
        <ele>500.786377</ele>
        <time>2018-08-20T08:44:42Z</time>
      </trkpt>
      <trkpt lat="47.25874" lon="4.60471">
        <ele>501.121216</ele>
        <time>2018-08-20T08:44:43Z</time>
      </trkpt>
      <trkpt lat="47.25876" lon="4.6047">
        <ele>501.414703</ele>
        <time>2018-08-20T08:44:44Z</time>
      </trkpt>
      <trkpt lat="47.25877" lon="4.60468">
        <ele>501.712006</ele>
        <time>2018-08-20T08:44:45Z</time>
      </trkpt>
      <trkpt lat="47.25877" lon="4.60466">
        <ele>502.022125</ele>
        <time>2018-08-20T08:44:46Z</time>
      </trkpt>
      <trkpt lat="47.25879" lon="4.60465">
        <ele>502.334961</ele>
        <time>2018-08-20T08:44:47Z</time>
      </trkpt>
      <trkpt lat="47.2588" lon="4.60463">
        <ele>502.645508</ele>
        <time>2018-08-20T08:44:48Z</time>
      </trkpt>
      <trkpt lat="47.25881" lon="4.60462">
        <ele>502.947998</ele>
        <time>2018-08-20T08:44:49Z</time>
      </trkpt>
      <trkpt lat="47.25882" lon="4.60461">
        <ele>502.947998</ele>
        <time>2018-08-20T08:44:50Z</time>
      </trkpt>
      <trkpt lat="47.25882" lon="4.6046">
        <ele>503.245209</ele>
        <time>2018-08-20T08:44:51Z</time>
      </trkpt>
      <trkpt lat="47.25883" lon="4.60459">
        <ele>503.532379</ele>
        <time>2018-08-20T08:44:52Z</time>
      </trkpt>
      <trkpt lat="47.25884" lon="4.60458">
        <ele>503.833099</ele>
        <time>2018-08-20T08:44:53Z</time>
      </trkpt>
      <trkpt lat="47.25884" lon="4.60456">
        <ele>504.115692</ele>
        <time>2018-08-20T08:44:54Z</time>
      </trkpt>
      <trkpt lat="47.25885" lon="4.60454">
        <ele>504.392181</ele>
        <time>2018-08-20T08:44:55Z</time>
      </trkpt>
      <trkpt lat="47.25886" lon="4.60453">
        <ele>504.660522</ele>
        <time>2018-08-20T08:44:56Z</time>
      </trkpt>
      <trkpt lat="47.25886" lon="4.6045">
        <ele>504.922028</ele>
        <time>2018-08-20T08:44:57Z</time>
      </trkpt>
      <trkpt lat="47.25887" lon="4.60448">
        <ele>505.1875</ele>
        <time>2018-08-20T08:44:58Z</time>
      </trkpt>
      <trkpt lat="47.25887" lon="4.60447">
        <ele>505.433838</ele>
        <time>2018-08-20T08:44:59Z</time>
      </trkpt>
      <trkpt lat="47.25888" lon="4.60445">
        <ele>505.700775</ele>
        <time>2018-08-20T08:45:00Z</time>
      </trkpt>
      <trkpt lat="47.25889" lon="4.60443">
        <ele>505.9758</ele>
        <time>2018-08-20T08:45:01Z</time>
      </trkpt>
      <trkpt lat="47.2589" lon="4.60442">
        <ele>506.260254</ele>
        <time>2018-08-20T08:45:02Z</time>
      </trkpt>
      <trkpt lat="47.2589" lon="4.6044">
        <ele>506.544525</ele>
        <time>2018-08-20T08:45:03Z</time>
      </trkpt>
      <trkpt lat="47.25891" lon="4.60439">
        <ele>506.832031</ele>
        <time>2018-08-20T08:45:04Z</time>
      </trkpt>
      <trkpt lat="47.25892" lon="4.60437">
        <ele>507.114624</ele>
        <time>2018-08-20T08:45:05Z</time>
      </trkpt>
      <trkpt lat="47.25893" lon="4.60435">
        <ele>507.382416</ele>
        <time>2018-08-20T08:45:06Z</time>
      </trkpt>
      <trkpt lat="47.25893" lon="4.60432">
        <ele>507.640137</ele>
        <time>2018-08-20T08:45:07Z</time>
      </trkpt>
      <trkpt lat="47.25894" lon="4.6043">
        <ele>507.892181</ele>
        <time>2018-08-20T08:45:08Z</time>
      </trkpt>
      <trkpt lat="47.25895" lon="4.60429">
        <ele>508.159332</ele>
        <time>2018-08-20T08:45:09Z</time>
      </trkpt>
      <trkpt lat="47.25896" lon="4.60427">
        <ele>508.427399</ele>
        <time>2018-08-20T08:45:10Z</time>
      </trkpt>
      <trkpt lat="47.25897" lon="4.60425">
        <ele>508.706787</ele>
        <time>2018-08-20T08:45:11Z</time>
      </trkpt>
      <trkpt lat="47.25897" lon="4.60423">
        <ele>508.987335</ele>
        <time>2018-08-20T08:45:12Z</time>
      </trkpt>
      <trkpt lat="47.25897" lon="4.60421">
        <ele>509.268433</ele>
        <time>2018-08-20T08:45:13Z</time>
      </trkpt>
      <trkpt lat="47.25898" lon="4.6042">
        <ele>509.549591</ele>
        <time>2018-08-20T08:45:14Z</time>
      </trkpt>
      <trkpt lat="47.25898" lon="4.60418">
        <ele>509.82016</ele>
        <time>2018-08-20T08:45:15Z</time>
      </trkpt>
      <trkpt lat="47.25898" lon="4.60416">
        <ele>510.082764</ele>
        <time>2018-08-20T08:45:16Z</time>
      </trkpt>
      <trkpt lat="47.25898" lon="4.60414">
        <ele>510.327148</ele>
        <time>2018-08-20T08:45:17Z</time>
      </trkpt>
      <trkpt lat="47.25899" lon="4.60412">
        <ele>510.572906</ele>
        <time>2018-08-20T08:45:18Z</time>
      </trkpt>
      <trkpt lat="47.25899" lon="4.6041">
        <ele>510.819122</ele>
        <time>2018-08-20T08:45:19Z</time>
      </trkpt>
      <trkpt lat="47.259" lon="4.60408">
        <ele>511.069366</ele>
        <time>2018-08-20T08:45:20Z</time>
      </trkpt>
      <trkpt lat="47.259" lon="4.60406">
        <ele>511.315704</ele>
        <time>2018-08-20T08:45:21Z</time>
      </trkpt>
      <trkpt lat="47.25901" lon="4.60405">
        <ele>511.554199</ele>
        <time>2018-08-20T08:45:22Z</time>
      </trkpt>
      <trkpt lat="47.25901" lon="4.60403">
        <ele>511.795868</ele>
        <time>2018-08-20T08:45:23Z</time>
      </trkpt>
      <trkpt lat="47.25902" lon="4.60402">
        <ele>512.038635</ele>
        <time>2018-08-20T08:45:24Z</time>
      </trkpt>
      <trkpt lat="47.25903" lon="4.60401">
        <ele>512.038635</ele>
        <time>2018-08-20T08:45:25Z</time>
      </trkpt>
      <trkpt lat="47.25903" lon="4.60399">
        <ele>512.276367</ele>
        <time>2018-08-20T08:45:26Z</time>
      </trkpt>
      <trkpt lat="47.25904" lon="4.60397">
        <ele>512.497803</ele>
        <time>2018-08-20T08:45:27Z</time>
      </trkpt>
      <trkpt lat="47.25905" lon="4.60395">
        <ele>512.732849</ele>
        <time>2018-08-20T08:45:28Z</time>
      </trkpt>
      <trkpt lat="47.25906" lon="4.60393">
        <ele>512.97406</ele>
        <time>2018-08-20T08:45:29Z</time>
      </trkpt>
      <trkpt lat="47.25907" lon="4.60392">
        <ele>513.217041</ele>
        <time>2018-08-20T08:45:30Z</time>
      </trkpt>
      <trkpt lat="47.25907" lon="4.6039">
        <ele>513.457825</ele>
        <time>2018-08-20T08:45:31Z</time>
      </trkpt>
      <trkpt lat="47.25908" lon="4.60388">
        <ele>513.696716</ele>
        <time>2018-08-20T08:45:32Z</time>
      </trkpt>
      <trkpt lat="47.25908" lon="4.60386">
        <ele>513.937561</ele>
        <time>2018-08-20T08:45:33Z</time>
      </trkpt>
      <trkpt lat="47.25909" lon="4.60385">
        <ele>514.162598</ele>
        <time>2018-08-20T08:45:34Z</time>
      </trkpt>
      <trkpt lat="47.2591" lon="4.60383">
        <ele>514.390015</ele>
        <time>2018-08-20T08:45:35Z</time>
      </trkpt>
      <trkpt lat="47.2591" lon="4.6038">
        <ele>514.608887</ele>
        <time>2018-08-20T08:45:36Z</time>
      </trkpt>
      <trkpt lat="47.25911" lon="4.60379">
        <ele>514.823181</ele>
        <time>2018-08-20T08:45:37Z</time>
      </trkpt>
      <trkpt lat="47.25913" lon="4.60377">
        <ele>515.037659</ele>
        <time>2018-08-20T08:45:38Z</time>
      </trkpt>
      <trkpt lat="47.25914" lon="4.60376">
        <ele>515.269226</ele>
        <time>2018-08-20T08:45:39Z</time>
      </trkpt>
      <trkpt lat="47.25914" lon="4.60374">
        <ele>515.494873</ele>
        <time>2018-08-20T08:45:40Z</time>
      </trkpt>
      <trkpt lat="47.25915" lon="4.60372">
        <ele>515.706604</ele>
        <time>2018-08-20T08:45:41Z</time>
      </trkpt>
      <trkpt lat="47.25916" lon="4.60371">
        <ele>515.916809</ele>
        <time>2018-08-20T08:45:42Z</time>
      </trkpt>
      <trkpt lat="47.25917" lon="4.60368">
        <ele>516.124695</ele>
        <time>2018-08-20T08:45:43Z</time>
      </trkpt>
      <trkpt lat="47.25917" lon="4.60366">
        <ele>516.329163</ele>
        <time>2018-08-20T08:45:44Z</time>
      </trkpt>
      <trkpt lat="47.25917" lon="4.60364">
        <ele>516.514832</ele>
        <time>2018-08-20T08:45:45Z</time>
      </trkpt>
      <trkpt lat="47.25918" lon="4.60362">
        <ele>516.708984</ele>
        <time>2018-08-20T08:45:46Z</time>
      </trkpt>
      <trkpt lat="47.25919" lon="4.6036">
        <ele>516.908447</ele>
        <time>2018-08-20T08:45:47Z</time>
      </trkpt>
      <trkpt lat="47.25919" lon="4.60358">
        <ele>517.110962</ele>
        <time>2018-08-20T08:45:48Z</time>
      </trkpt>
      <trkpt lat="47.25919" lon="4.60356">
        <ele>517.317139</ele>
        <time>2018-08-20T08:45:49Z</time>
      </trkpt>
      <trkpt lat="47.2592" lon="4.60354">
        <ele>517.523743</ele>
        <time>2018-08-20T08:45:50Z</time>
      </trkpt>
      <trkpt lat="47.2592" lon="4.60352">
        <ele>517.736877</ele>
        <time>2018-08-20T08:45:51Z</time>
      </trkpt>
      <trkpt lat="47.25921" lon="4.6035">
        <ele>517.945129</ele>
        <time>2018-08-20T08:45:52Z</time>
      </trkpt>
      <trkpt lat="47.25921" lon="4.60348">
        <ele>518.151428</ele>
        <time>2018-08-20T08:45:53Z</time>
      </trkpt>
      <trkpt lat="47.25921" lon="4.60346">
        <ele>518.358826</ele>
        <time>2018-08-20T08:45:54Z</time>
      </trkpt>
      <trkpt lat="47.25922" lon="4.60344">
        <ele>518.564575</ele>
        <time>2018-08-20T08:45:55Z</time>
      </trkpt>
      <trkpt lat="47.25923" lon="4.60342">
        <ele>518.771423</ele>
        <time>2018-08-20T08:45:56Z</time>
      </trkpt>
      <trkpt lat="47.25923" lon="4.6034">
        <ele>518.771423</ele>
        <time>2018-08-20T08:45:57Z</time>
      </trkpt>
      <trkpt lat="47.25923" lon="4.60337">
        <ele>518.974121</ele>
        <time>2018-08-20T08:45:58Z</time>
      </trkpt>
      <trkpt lat="47.25924" lon="4.60335">
        <ele>519.173767</ele>
        <time>2018-08-20T08:45:59Z</time>
      </trkpt>
      <trkpt lat="47.25924" lon="4.60333">
        <ele>519.404419</ele>
        <time>2018-08-20T08:46:00Z</time>
      </trkpt>
      <trkpt lat="47.25925" lon="4.60331">
        <ele>519.633606</ele>
        <time>2018-08-20T08:46:01Z</time>
      </trkpt>
      <trkpt lat="47.25926" lon="4.60329">
        <ele>519.864685</ele>
        <time>2018-08-20T08:46:02Z</time>
      </trkpt>
      <trkpt lat="47.25927" lon="4.60328">
        <ele>520.095032</ele>
        <time>2018-08-20T08:46:03Z</time>
      </trkpt>
      <trkpt lat="47.25928" lon="4.60326">
        <ele>520.326965</ele>
        <time>2018-08-20T08:46:04Z</time>
      </trkpt>
      <trkpt lat="47.25929" lon="4.60325">
        <ele>520.545837</ele>
        <time>2018-08-20T08:46:05Z</time>
      </trkpt>
      <trkpt lat="47.25929" lon="4.60322">
        <ele>520.70929</ele>
        <time>2018-08-20T08:46:06Z</time>
      </trkpt>
      <trkpt lat="47.2593" lon="4.60321">
        <ele>520.848572</ele>
        <time>2018-08-20T08:46:07Z</time>
      </trkpt>
      <trkpt lat="47.2593" lon="4.60319">
        <ele>520.960938</ele>
        <time>2018-08-20T08:46:08Z</time>
      </trkpt>
      <trkpt lat="47.25932" lon="4.60317">
        <ele>521.053894</ele>
        <time>2018-08-20T08:46:09Z</time>
      </trkpt>
      <trkpt lat="47.25933" lon="4.60315">
        <ele>521.120178</ele>
        <time>2018-08-20T08:46:10Z</time>
      </trkpt>
      <trkpt lat="47.25934" lon="4.60314">
        <ele>521.171082</ele>
        <time>2018-08-20T08:46:11Z</time>
      </trkpt>
      <trkpt lat="47.25935" lon="4.60312">
        <ele>521.213684</ele>
        <time>2018-08-20T08:46:12Z</time>
      </trkpt>
      <trkpt lat="47.25935" lon="4.6031">
        <ele>521.249329</ele>
        <time>2018-08-20T08:46:13Z</time>
      </trkpt>
      <trkpt lat="47.25936" lon="4.60308">
        <ele>521.277283</ele>
        <time>2018-08-20T08:46:14Z</time>
      </trkpt>
      <trkpt lat="47.25936" lon="4.60306">
        <ele>521.298767</ele>
        <time>2018-08-20T08:46:15Z</time>
      </trkpt>
      <trkpt lat="47.25937" lon="4.60304">
        <ele>521.320618</ele>
        <time>2018-08-20T08:46:16Z</time>
      </trkpt>
      <trkpt lat="47.25937" lon="4.60302">
        <ele>521.343567</ele>
        <time>2018-08-20T08:46:17Z</time>
      </trkpt>
      <trkpt lat="47.25938" lon="4.603">
        <ele>521.375671</ele>
        <time>2018-08-20T08:46:18Z</time>
      </trkpt>
      <trkpt lat="47.25939" lon="4.60298">
        <ele>521.413147</ele>
        <time>2018-08-20T08:46:19Z</time>
      </trkpt>
      <trkpt lat="47.2594" lon="4.60296">
        <ele>521.456238</ele>
        <time>2018-08-20T08:46:20Z</time>
      </trkpt>
      <trkpt lat="47.2594" lon="4.60294">
        <ele>521.500244</ele>
        <time>2018-08-20T08:46:21Z</time>
      </trkpt>
      <trkpt lat="47.25942" lon="4.60292">
        <ele>521.544739</ele>
        <time>2018-08-20T08:46:22Z</time>
      </trkpt>
      <trkpt lat="47.25942" lon="4.60291">
        <ele>521.589417</ele>
        <time>2018-08-20T08:46:23Z</time>
      </trkpt>
      <trkpt lat="47.25943" lon="4.60288">
        <ele>521.631104</ele>
        <time>2018-08-20T08:46:24Z</time>
      </trkpt>
      <trkpt lat="47.25944" lon="4.60286">
        <ele>521.664978</ele>
        <time>2018-08-20T08:46:25Z</time>
      </trkpt>
      <trkpt lat="47.25945" lon="4.60285">
        <ele>521.696716</ele>
        <time>2018-08-20T08:46:26Z</time>
      </trkpt>
      <trkpt lat="47.25946" lon="4.60283">
        <ele>521.72876</ele>
        <time>2018-08-20T08:46:27Z</time>
      </trkpt>
      <trkpt lat="47.25948" lon="4.60282">
        <ele>521.752136</ele>
        <time>2018-08-20T08:46:28Z</time>
      </trkpt>
      <trkpt lat="47.2595" lon="4.6028">
        <ele>521.766052</ele>
        <time>2018-08-20T08:46:29Z</time>
      </trkpt>
      <trkpt lat="47.25951" lon="4.60279">
        <ele>521.766113</ele>
        <time>2018-08-20T08:46:30Z</time>
      </trkpt>
      <trkpt lat="47.25952" lon="4.60277">
        <ele>521.766113</ele>
        <time>2018-08-20T08:46:31Z</time>
      </trkpt>
      <trkpt lat="47.25953" lon="4.60276">
        <ele>521.766113</ele>
        <time>2018-08-20T08:46:32Z</time>
      </trkpt>
      <trkpt lat="47.25955" lon="4.60275">
        <ele>521.762207</ele>
        <time>2018-08-20T08:46:33Z</time>
      </trkpt>
      <trkpt lat="47.25957" lon="4.60274">
        <ele>521.750916</ele>
        <time>2018-08-20T08:46:34Z</time>
      </trkpt>
      <trkpt lat="47.25958" lon="4.60273">
        <ele>521.729309</ele>
        <time>2018-08-20T08:46:35Z</time>
      </trkpt>
      <trkpt lat="47.25959" lon="4.60272">
        <ele>521.7005</ele>
        <time>2018-08-20T08:46:36Z</time>
      </trkpt>
      <trkpt lat="47.25961" lon="4.60272">
        <ele>521.661621</ele>
        <time>2018-08-20T08:46:37Z</time>
      </trkpt>
      <trkpt lat="47.25962" lon="4.60271">
        <ele>521.624939</ele>
        <time>2018-08-20T08:46:38Z</time>
      </trkpt>
      <trkpt lat="47.25963" lon="4.60271">
        <ele>521.587097</ele>
        <time>2018-08-20T08:46:39Z</time>
      </trkpt>
      <trkpt lat="47.25965" lon="4.60271">
        <ele>521.539795</ele>
        <time>2018-08-20T08:46:40Z</time>
      </trkpt>
      <trkpt lat="47.25966" lon="4.60271">
        <ele>521.485535</ele>
        <time>2018-08-20T08:46:41Z</time>
      </trkpt>
      <trkpt lat="47.25967" lon="4.60271">
        <ele>521.432373</ele>
        <time>2018-08-20T08:46:42Z</time>
      </trkpt>
      <trkpt lat="47.25969" lon="4.60271">
        <ele>521.379944</ele>
        <time>2018-08-20T08:46:43Z</time>
      </trkpt>
      <trkpt lat="47.2597" lon="4.60271">
        <ele>521.320679</ele>
        <time>2018-08-20T08:46:44Z</time>
      </trkpt>
      <trkpt lat="47.25972" lon="4.60272">
        <ele>521.251892</ele>
        <time>2018-08-20T08:46:45Z</time>
      </trkpt>
      <trkpt lat="47.25973" lon="4.60272">
        <ele>521.182678</ele>
        <time>2018-08-20T08:46:46Z</time>
      </trkpt>
      <trkpt lat="47.25975" lon="4.60272">
        <ele>521.110413</ele>
        <time>2018-08-20T08:46:47Z</time>
      </trkpt>
      <trkpt lat="47.25976" lon="4.60273">
        <ele>521.029419</ele>
        <time>2018-08-20T08:46:48Z</time>
      </trkpt>
      <trkpt lat="47.25977" lon="4.60273">
        <ele>520.944397</ele>
        <time>2018-08-20T08:46:49Z</time>
      </trkpt>
      <trkpt lat="47.25979" lon="4.60273">
        <ele>520.856018</ele>
        <time>2018-08-20T08:46:50Z</time>
      </trkpt>
      <trkpt lat="47.2598" lon="4.60273">
        <ele>520.771729</ele>
        <time>2018-08-20T08:46:51Z</time>
      </trkpt>
      <trkpt lat="47.25982" lon="4.60274">
        <ele>520.694763</ele>
        <time>2018-08-20T08:46:52Z</time>
      </trkpt>
      <trkpt lat="47.25983" lon="4.60274">
        <ele>520.694763</ele>
        <time>2018-08-20T08:46:53Z</time>
      </trkpt>
      <trkpt lat="47.25985" lon="4.60275">
        <ele>520.624268</ele>
        <time>2018-08-20T08:46:54Z</time>
      </trkpt>
      <trkpt lat="47.25987" lon="4.60276">
        <ele>520.561279</ele>
        <time>2018-08-20T08:46:55Z</time>
      </trkpt>
      <trkpt lat="47.25988" lon="4.60277">
        <ele>520.495789</ele>
        <time>2018-08-20T08:46:56Z</time>
      </trkpt>
      <trkpt lat="47.2599" lon="4.60277">
        <ele>520.43457</ele>
        <time>2018-08-20T08:46:57Z</time>
      </trkpt>
      <trkpt lat="47.25991" lon="4.60278">
        <ele>520.372009</ele>
        <time>2018-08-20T08:46:58Z</time>
      </trkpt>
      <trkpt lat="47.25993" lon="4.60278">
        <ele>520.304382</ele>
        <time>2018-08-20T08:46:59Z</time>
      </trkpt>
      <trkpt lat="47.25994" lon="4.60279">
        <ele>520.235657</ele>
        <time>2018-08-20T08:47:00Z</time>
      </trkpt>
      <trkpt lat="47.25995" lon="4.6028">
        <ele>520.167847</ele>
        <time>2018-08-20T08:47:01Z</time>
      </trkpt>
      <trkpt lat="47.25997" lon="4.60281">
        <ele>520.11145</ele>
        <time>2018-08-20T08:47:02Z</time>
      </trkpt>
      <trkpt lat="47.25999" lon="4.60281">
        <ele>520.057068</ele>
        <time>2018-08-20T08:47:03Z</time>
      </trkpt>
      <trkpt lat="47.26001" lon="4.60282">
        <ele>520.003845</ele>
        <time>2018-08-20T08:47:04Z</time>
      </trkpt>
      <trkpt lat="47.26002" lon="4.60282">
        <ele>519.951721</ele>
        <time>2018-08-20T08:47:05Z</time>
      </trkpt>
      <trkpt lat="47.26004" lon="4.60283">
        <ele>519.898743</ele>
        <time>2018-08-20T08:47:06Z</time>
      </trkpt>
      <trkpt lat="47.26006" lon="4.60282">
        <ele>519.844055</ele>
        <time>2018-08-20T08:47:07Z</time>
      </trkpt>
      <trkpt lat="47.26008" lon="4.60282">
        <ele>519.787659</ele>
        <time>2018-08-20T08:47:08Z</time>
      </trkpt>
      <trkpt lat="47.26008" lon="4.60281">
        <ele>519.732239</ele>
        <time>2018-08-20T08:47:09Z</time>
      </trkpt>
      <trkpt lat="47.2601" lon="4.6028">
        <ele>519.681824</ele>
        <time>2018-08-20T08:47:10Z</time>
      </trkpt>
      <trkpt lat="47.26011" lon="4.60278">
        <ele>519.638</ele>
        <time>2018-08-20T08:47:11Z</time>
      </trkpt>
      <trkpt lat="47.26011" lon="4.60277">
        <ele>519.601318</ele>
        <time>2018-08-20T08:47:12Z</time>
      </trkpt>
      <trkpt lat="47.26011" lon="4.60275">
        <ele>519.578125</ele>
        <time>2018-08-20T08:47:13Z</time>
      </trkpt>
      <trkpt lat="47.26011" lon="4.60273">
        <ele>519.571594</ele>
        <time>2018-08-20T08:47:14Z</time>
      </trkpt>
      <trkpt lat="47.26011" lon="4.60271">
        <ele>519.571594</ele>
        <time>2018-08-20T08:47:15Z</time>
      </trkpt>
      <trkpt lat="47.26011" lon="4.60269">
        <ele>519.571594</ele>
        <time>2018-08-20T08:47:16Z</time>
      </trkpt>
      <trkpt lat="47.2601" lon="4.60267">
        <ele>519.580872</ele>
        <time>2018-08-20T08:47:17Z</time>
      </trkpt>
      <trkpt lat="47.2601" lon="4.60265">
        <ele>519.602783</ele>
        <time>2018-08-20T08:47:18Z</time>
      </trkpt>
      <trkpt lat="47.2601" lon="4.60264">
        <ele>519.63562</ele>
        <time>2018-08-20T08:47:19Z</time>
      </trkpt>
      <trkpt lat="47.2601" lon="4.60262">
        <ele>519.678162</ele>
        <time>2018-08-20T08:47:20Z</time>
      </trkpt>
      <trkpt lat="47.2601" lon="4.6026">
        <ele>519.723572</ele>
        <time>2018-08-20T08:47:21Z</time>
      </trkpt>
      <trkpt lat="47.2601" lon="4.60257">
        <ele>519.769104</ele>
        <time>2018-08-20T08:47:22Z</time>
      </trkpt>
      <trkpt lat="47.2601" lon="4.60255">
        <ele>519.813354</ele>
        <time>2018-08-20T08:47:23Z</time>
      </trkpt>
      <trkpt lat="47.2601" lon="4.60254">
        <ele>519.85675</ele>
        <time>2018-08-20T08:47:24Z</time>
      </trkpt>
      <trkpt lat="47.2601" lon="4.60252">
        <ele>519.901428</ele>
        <time>2018-08-20T08:47:25Z</time>
      </trkpt>
      <trkpt lat="47.2601" lon="4.6025">
        <ele>519.949158</ele>
        <time>2018-08-20T08:47:26Z</time>
      </trkpt>
      <trkpt lat="47.26009" lon="4.60248">
        <ele>519.998169</ele>
        <time>2018-08-20T08:47:27Z</time>
      </trkpt>
      <trkpt lat="47.26009" lon="4.60245">
        <ele>520.048645</ele>
        <time>2018-08-20T08:47:28Z</time>
      </trkpt>
      <trkpt lat="47.26009" lon="4.60243">
        <ele>520.101624</ele>
        <time>2018-08-20T08:47:29Z</time>
      </trkpt>
      <trkpt lat="47.26009" lon="4.60241">
        <ele>520.160339</ele>
        <time>2018-08-20T08:47:30Z</time>
      </trkpt>
      <trkpt lat="47.26009" lon="4.60239">
        <ele>520.221863</ele>
        <time>2018-08-20T08:47:31Z</time>
      </trkpt>
      <trkpt lat="47.26009" lon="4.60237">
        <ele>520.282532</ele>
        <time>2018-08-20T08:47:32Z</time>
      </trkpt>
      <trkpt lat="47.2601" lon="4.60234">
        <ele>520.34491</ele>
        <time>2018-08-20T08:47:33Z</time>
      </trkpt>
      <trkpt lat="47.2601" lon="4.60232">
        <ele>520.408875</ele>
        <time>2018-08-20T08:47:34Z</time>
      </trkpt>
      <trkpt lat="47.2601" lon="4.6023">
        <ele>520.474304</ele>
        <time>2018-08-20T08:47:35Z</time>
      </trkpt>
      <trkpt lat="47.2601" lon="4.60227">
        <ele>520.538269</ele>
        <time>2018-08-20T08:47:36Z</time>
      </trkpt>
      <trkpt lat="47.26009" lon="4.60225">
        <ele>520.601257</ele>
        <time>2018-08-20T08:47:37Z</time>
      </trkpt>
      <trkpt lat="47.26009" lon="4.60223">
        <ele>520.666016</ele>
        <time>2018-08-20T08:47:38Z</time>
      </trkpt>
      <trkpt lat="47.26009" lon="4.60221">
        <ele>520.731628</ele>
        <time>2018-08-20T08:47:39Z</time>
      </trkpt>
      <trkpt lat="47.26009" lon="4.60218">
        <ele>520.797852</ele>
        <time>2018-08-20T08:47:40Z</time>
      </trkpt>
      <trkpt lat="47.26009" lon="4.60215">
        <ele>520.865906</ele>
        <time>2018-08-20T08:47:41Z</time>
      </trkpt>
      <trkpt lat="47.26009" lon="4.60213">
        <ele>520.93457</ele>
        <time>2018-08-20T08:47:42Z</time>
      </trkpt>
      <trkpt lat="47.26009" lon="4.6021">
        <ele>521.004211</ele>
        <time>2018-08-20T08:47:43Z</time>
      </trkpt>
      <trkpt lat="47.26009" lon="4.60206">
        <ele>521.076172</ele>
        <time>2018-08-20T08:47:44Z</time>
      </trkpt>
      <trkpt lat="47.26009" lon="4.60203">
        <ele>521.150574</ele>
        <time>2018-08-20T08:47:45Z</time>
      </trkpt>
      <trkpt lat="47.26009" lon="4.60201">
        <ele>521.228333</ele>
        <time>2018-08-20T08:47:46Z</time>
      </trkpt>
      <trkpt lat="47.26009" lon="4.60198">
        <ele>521.310059</ele>
        <time>2018-08-20T08:47:47Z</time>
      </trkpt>
      <trkpt lat="47.26009" lon="4.60196">
        <ele>521.39502</ele>
        <time>2018-08-20T08:47:48Z</time>
      </trkpt>
      <trkpt lat="47.26009" lon="4.60194">
        <ele>521.47998</ele>
        <time>2018-08-20T08:47:49Z</time>
      </trkpt>
      <trkpt lat="47.26009" lon="4.60192">
        <ele>521.563477</ele>
        <time>2018-08-20T08:47:50Z</time>
      </trkpt>
      <trkpt lat="47.26009" lon="4.60189">
        <ele>521.64502</ele>
        <time>2018-08-20T08:47:51Z</time>
      </trkpt>
      <trkpt lat="47.26009" lon="4.60187">
        <ele>521.72168</ele>
        <time>2018-08-20T08:47:52Z</time>
      </trkpt>
      <trkpt lat="47.26009" lon="4.60185">
        <ele>521.793457</ele>
        <time>2018-08-20T08:47:53Z</time>
      </trkpt>
      <trkpt lat="47.26009" lon="4.60182">
        <ele>521.862976</ele>
        <time>2018-08-20T08:47:54Z</time>
      </trkpt>
      <trkpt lat="47.26008" lon="4.6018">
        <ele>521.931641</ele>
        <time>2018-08-20T08:47:55Z</time>
      </trkpt>
      <trkpt lat="47.26008" lon="4.60177">
        <ele>521.998535</ele>
        <time>2018-08-20T08:47:56Z</time>
      </trkpt>
      <trkpt lat="47.26008" lon="4.60175">
        <ele>521.998535</ele>
        <time>2018-08-20T08:47:57Z</time>
      </trkpt>
      <trkpt lat="47.26008" lon="4.60173">
        <ele>522.066589</ele>
        <time>2018-08-20T08:47:58Z</time>
      </trkpt>
      <trkpt lat="47.26008" lon="4.6017">
        <ele>522.137695</ele>
        <time>2018-08-20T08:47:59Z</time>
      </trkpt>
      <trkpt lat="47.26008" lon="4.60168">
        <ele>522.221008</ele>
        <time>2018-08-20T08:48:00Z</time>
      </trkpt>
      <trkpt lat="47.26008" lon="4.60165">
        <ele>522.303528</ele>
        <time>2018-08-20T08:48:01Z</time>
      </trkpt>
      <trkpt lat="47.26008" lon="4.60163">
        <ele>522.386047</ele>
        <time>2018-08-20T08:48:02Z</time>
      </trkpt>
      <trkpt lat="47.26008" lon="4.60161">
        <ele>522.469421</ele>
        <time>2018-08-20T08:48:03Z</time>
      </trkpt>
      <trkpt lat="47.26008" lon="4.60158">
        <ele>522.552734</ele>
        <time>2018-08-20T08:48:04Z</time>
      </trkpt>
      <trkpt lat="47.26008" lon="4.60156">
        <ele>522.635254</ele>
        <time>2018-08-20T08:48:05Z</time>
      </trkpt>
      <trkpt lat="47.26008" lon="4.60153">
        <ele>522.704895</ele>
        <time>2018-08-20T08:48:06Z</time>
      </trkpt>
      <trkpt lat="47.26008" lon="4.60151">
        <ele>522.775391</ele>
        <time>2018-08-20T08:48:07Z</time>
      </trkpt>
      <trkpt lat="47.26008" lon="4.60148">
        <ele>522.845703</ele>
        <time>2018-08-20T08:48:08Z</time>
      </trkpt>
      <trkpt lat="47.26008" lon="4.60145">
        <ele>522.917786</ele>
        <time>2018-08-20T08:48:09Z</time>
      </trkpt>
      <trkpt lat="47.26008" lon="4.60143">
        <ele>522.989746</ele>
        <time>2018-08-20T08:48:10Z</time>
      </trkpt>
      <trkpt lat="47.26008" lon="4.6014">
        <ele>523.06427</ele>
        <time>2018-08-20T08:48:11Z</time>
      </trkpt>
      <trkpt lat="47.26008" lon="4.60137">
        <ele>523.142761</ele>
        <time>2018-08-20T08:48:12Z</time>
      </trkpt>
      <trkpt lat="47.26007" lon="4.60135">
        <ele>523.223633</ele>
        <time>2018-08-20T08:48:13Z</time>
      </trkpt>
      <trkpt lat="47.26007" lon="4.60132">
        <ele>523.305359</ele>
        <time>2018-08-20T08:48:14Z</time>
      </trkpt>
      <trkpt lat="47.26006" lon="4.60129">
        <ele>523.387878</ele>
        <time>2018-08-20T08:48:15Z</time>
      </trkpt>
      <trkpt lat="47.26006" lon="4.60126">
        <ele>523.471985</ele>
        <time>2018-08-20T08:48:16Z</time>
      </trkpt>
      <trkpt lat="47.26006" lon="4.60123">
        <ele>523.556946</ele>
        <time>2018-08-20T08:48:17Z</time>
      </trkpt>
      <trkpt lat="47.26005" lon="4.6012">
        <ele>523.642883</ele>
        <time>2018-08-20T08:48:18Z</time>
      </trkpt>
      <trkpt lat="47.26005" lon="4.60118">
        <ele>523.729492</ele>
        <time>2018-08-20T08:48:19Z</time>
      </trkpt>
      <trkpt lat="47.26005" lon="4.60115">
        <ele>523.818665</ele>
        <time>2018-08-20T08:48:20Z</time>
      </trkpt>
      <trkpt lat="47.26005" lon="4.60112">
        <ele>523.908997</ele>
        <time>2018-08-20T08:48:21Z</time>
      </trkpt>
      <trkpt lat="47.26004" lon="4.60109">
        <ele>523.994812</ele>
        <time>2018-08-20T08:48:22Z</time>
      </trkpt>
      <trkpt lat="47.26004" lon="4.60106">
        <ele>524.076416</ele>
        <time>2018-08-20T08:48:23Z</time>
      </trkpt>
      <trkpt lat="47.26004" lon="4.60103">
        <ele>524.15448</ele>
        <time>2018-08-20T08:48:24Z</time>
      </trkpt>
      <trkpt lat="47.26004" lon="4.60101">
        <ele>524.228577</ele>
        <time>2018-08-20T08:48:25Z</time>
      </trkpt>
      <trkpt lat="47.26003" lon="4.601">
        <ele>524.299316</ele>
        <time>2018-08-20T08:48:26Z</time>
      </trkpt>
      <trkpt lat="47.26003" lon="4.60098">
        <ele>524.365173</ele>
        <time>2018-08-20T08:48:27Z</time>
      </trkpt>
      <trkpt lat="47.26003" lon="4.60096">
        <ele>524.429382</ele>
        <time>2018-08-20T08:48:28Z</time>
      </trkpt>
      <trkpt lat="47.26003" lon="4.60094">
        <ele>524.488098</ele>
        <time>2018-08-20T08:48:29Z</time>
      </trkpt>
      <trkpt lat="47.26003" lon="4.60093">
        <ele>524.540588</ele>
        <time>2018-08-20T08:48:30Z</time>
      </trkpt>
      <trkpt lat="47.26003" lon="4.60091">
        <ele>524.588623</ele>
        <time>2018-08-20T08:48:31Z</time>
      </trkpt>
      <trkpt lat="47.26002" lon="4.60089">
        <ele>524.632813</ele>
        <time>2018-08-20T08:48:32Z</time>
      </trkpt>
      <trkpt lat="47.26002" lon="4.60087">
        <ele>524.673157</ele>
        <time>2018-08-20T08:48:33Z</time>
      </trkpt>
      <trkpt lat="47.26001" lon="4.60085">
        <ele>524.71283</ele>
        <time>2018-08-20T08:48:34Z</time>
      </trkpt>
      <trkpt lat="47.26001" lon="4.60084">
        <ele>524.7547</ele>
        <time>2018-08-20T08:48:35Z</time>
      </trkpt>
      <trkpt lat="47.26001" lon="4.60082">
        <ele>524.798279</ele>
        <time>2018-08-20T08:48:36Z</time>
      </trkpt>
      <trkpt lat="47.26001" lon="4.60081">
        <ele>524.842468</ele>
        <time>2018-08-20T08:48:37Z</time>
      </trkpt>
      <trkpt lat="47.26" lon="4.60064">
        <ele>525.07843</ele>
        <time>2018-08-20T08:48:50Z</time>
      </trkpt>
      <trkpt lat="47.26" lon="4.6006">
        <ele>525.101868</ele>
        <time>2018-08-20T08:48:52Z</time>
      </trkpt>
      <trkpt lat="47.26" lon="4.60056">
        <ele>525.135315</ele>
        <time>2018-08-20T08:48:53Z</time>
      </trkpt>
      <trkpt lat="47.26" lon="4.60052">
        <ele>525.193542</ele>
        <time>2018-08-20T08:48:54Z</time>
      </trkpt>
      <trkpt lat="47.26" lon="4.60048">
        <ele>525.261475</ele>
        <time>2018-08-20T08:48:55Z</time>
      </trkpt>
      <trkpt lat="47.26" lon="4.60043">
        <ele>525.337097</ele>
        <time>2018-08-20T08:48:56Z</time>
      </trkpt>
      <trkpt lat="47.26" lon="4.60038">
        <ele>525.419739</ele>
        <time>2018-08-20T08:48:57Z</time>
      </trkpt>
      <trkpt lat="47.26" lon="4.60033">
        <ele>525.49408</ele>
        <time>2018-08-20T08:48:58Z</time>
      </trkpt>
      <trkpt lat="47.26" lon="4.60028">
        <ele>525.558044</ele>
        <time>2018-08-20T08:48:59Z</time>
      </trkpt>
      <trkpt lat="47.26001" lon="4.60023">
        <ele>525.597351</ele>
        <time>2018-08-20T08:49:00Z</time>
      </trkpt>
      <trkpt lat="47.26001" lon="4.60017">
        <ele>525.597351</ele>
        <time>2018-08-20T08:49:01Z</time>
      </trkpt>
      <trkpt lat="47.26001" lon="4.60012">
        <ele>525.621948</ele>
        <time>2018-08-20T08:49:02Z</time>
      </trkpt>
      <trkpt lat="47.26001" lon="4.60006">
        <ele>525.632568</ele>
        <time>2018-08-20T08:49:03Z</time>
      </trkpt>
      <trkpt lat="47.26001" lon="4.60001">
        <ele>525.632568</ele>
        <time>2018-08-20T08:49:04Z</time>
      </trkpt>
      <trkpt lat="47.26002" lon="4.59996">
        <ele>525.632568</ele>
        <time>2018-08-20T08:49:05Z</time>
      </trkpt>
      <trkpt lat="47.26002" lon="4.5999">
        <ele>525.629333</ele>
        <time>2018-08-20T08:49:06Z</time>
      </trkpt>
      <trkpt lat="47.26002" lon="4.59985">
        <ele>525.625671</ele>
        <time>2018-08-20T08:49:07Z</time>
      </trkpt>
      <trkpt lat="47.26003" lon="4.59979">
        <ele>525.621582</ele>
        <time>2018-08-20T08:49:08Z</time>
      </trkpt>
      <trkpt lat="47.26003" lon="4.59974">
        <ele>525.617126</ele>
        <time>2018-08-20T08:49:09Z</time>
      </trkpt>
      <trkpt lat="47.26004" lon="4.59969">
        <ele>525.61261</ele>
        <time>2018-08-20T08:49:10Z</time>
      </trkpt>
      <trkpt lat="47.26004" lon="4.59964">
        <ele>525.596436</ele>
        <time>2018-08-20T08:49:11Z</time>
      </trkpt>
      <trkpt lat="47.26006" lon="4.59959">
        <ele>525.566895</ele>
        <time>2018-08-20T08:49:12Z</time>
      </trkpt>
      <trkpt lat="47.26007" lon="4.59954">
        <ele>525.524414</ele>
        <time>2018-08-20T08:49:13Z</time>
      </trkpt>
      <trkpt lat="47.26008" lon="4.59949">
        <ele>525.468567</ele>
        <time>2018-08-20T08:49:14Z</time>
      </trkpt>
      <trkpt lat="47.26008" lon="4.59944">
        <ele>525.398621</ele>
        <time>2018-08-20T08:49:15Z</time>
      </trkpt>
      <trkpt lat="47.2601" lon="4.59939">
        <ele>525.315247</ele>
        <time>2018-08-20T08:49:16Z</time>
      </trkpt>
      <trkpt lat="47.26011" lon="4.59934">
        <ele>525.230713</ele>
        <time>2018-08-20T08:49:17Z</time>
      </trkpt>
      <trkpt lat="47.26012" lon="4.59929">
        <ele>525.146179</ele>
        <time>2018-08-20T08:49:18Z</time>
      </trkpt>
      <trkpt lat="47.26014" lon="4.59925">
        <ele>525.060059</ele>
        <time>2018-08-20T08:49:19Z</time>
      </trkpt>
      <trkpt lat="47.26015" lon="4.5992">
        <ele>524.972656</ele>
        <time>2018-08-20T08:49:20Z</time>
      </trkpt>
      <trkpt lat="47.26017" lon="4.59915">
        <ele>524.885681</ele>
        <time>2018-08-20T08:49:21Z</time>
      </trkpt>
      <trkpt lat="47.26019" lon="4.5991">
        <ele>524.797852</ele>
        <time>2018-08-20T08:49:22Z</time>
      </trkpt>
      <trkpt lat="47.26021" lon="4.59905">
        <ele>524.708496</ele>
        <time>2018-08-20T08:49:23Z</time>
      </trkpt>
      <trkpt lat="47.26023" lon="4.599">
        <ele>524.617493</ele>
        <time>2018-08-20T08:49:24Z</time>
      </trkpt>
      <trkpt lat="47.26025" lon="4.59895">
        <ele>524.537354</ele>
        <time>2018-08-20T08:49:25Z</time>
      </trkpt>
      <trkpt lat="47.26027" lon="4.5989">
        <ele>524.468262</ele>
        <time>2018-08-20T08:49:26Z</time>
      </trkpt>
      <trkpt lat="47.26028" lon="4.59885">
        <ele>524.408447</ele>
        <time>2018-08-20T08:49:27Z</time>
      </trkpt>
      <trkpt lat="47.26031" lon="4.5988">
        <ele>524.358704</ele>
        <time>2018-08-20T08:49:28Z</time>
      </trkpt>
      <trkpt lat="47.26033" lon="4.59875">
        <ele>524.319519</ele>
        <time>2018-08-20T08:49:29Z</time>
      </trkpt>
      <trkpt lat="47.26035" lon="4.5987">
        <ele>524.291199</ele>
        <time>2018-08-20T08:49:30Z</time>
      </trkpt>
      <trkpt lat="47.26037" lon="4.59865">
        <ele>524.262451</ele>
        <time>2018-08-20T08:49:31Z</time>
      </trkpt>
      <trkpt lat="47.2604" lon="4.59859">
        <ele>524.23291</ele>
        <time>2018-08-20T08:49:32Z</time>
      </trkpt>
      <trkpt lat="47.26042" lon="4.59854">
        <ele>524.202942</ele>
        <time>2018-08-20T08:49:33Z</time>
      </trkpt>
      <trkpt lat="47.26045" lon="4.59849">
        <ele>524.17218</ele>
        <time>2018-08-20T08:49:34Z</time>
      </trkpt>
      <trkpt lat="47.26047" lon="4.59843">
        <ele>524.140625</ele>
        <time>2018-08-20T08:49:35Z</time>
      </trkpt>
      <trkpt lat="47.26049" lon="4.59838">
        <ele>524.11908</ele>
        <time>2018-08-20T08:49:36Z</time>
      </trkpt>
      <trkpt lat="47.26052" lon="4.59833">
        <ele>524.11322</ele>
        <time>2018-08-20T08:49:37Z</time>
      </trkpt>
      <trkpt lat="47.26054" lon="4.59828">
        <ele>524.11322</ele>
        <time>2018-08-20T08:49:38Z</time>
      </trkpt>
      <trkpt lat="47.26057" lon="4.59823">
        <ele>524.11322</ele>
        <time>2018-08-20T08:49:39Z</time>
      </trkpt>
      <trkpt lat="47.26059" lon="4.59818">
        <ele>524.122559</ele>
        <time>2018-08-20T08:49:40Z</time>
      </trkpt>
      <trkpt lat="47.26062" lon="4.59812">
        <ele>524.14563</ele>
        <time>2018-08-20T08:49:41Z</time>
      </trkpt>
      <trkpt lat="47.26064" lon="4.59807">
        <ele>524.182373</ele>
        <time>2018-08-20T08:49:42Z</time>
      </trkpt>
      <trkpt lat="47.26067" lon="4.59802">
        <ele>524.231873</ele>
        <time>2018-08-20T08:49:43Z</time>
      </trkpt>
      <trkpt lat="47.2607" lon="4.59797">
        <ele>524.282532</ele>
        <time>2018-08-20T08:49:44Z</time>
      </trkpt>
      <trkpt lat="47.26072" lon="4.59792">
        <ele>524.328369</ele>
        <time>2018-08-20T08:49:45Z</time>
      </trkpt>
      <trkpt lat="47.26075" lon="4.59786">
        <ele>524.36908</ele>
        <time>2018-08-20T08:49:46Z</time>
      </trkpt>
      <trkpt lat="47.26077" lon="4.59781">
        <ele>524.404968</ele>
        <time>2018-08-20T08:49:47Z</time>
      </trkpt>
      <trkpt lat="47.2608" lon="4.59776">
        <ele>524.435242</ele>
        <time>2018-08-20T08:49:48Z</time>
      </trkpt>
      <trkpt lat="47.26083" lon="4.5977">
        <ele>524.460205</ele>
        <time>2018-08-20T08:49:49Z</time>
      </trkpt>
      <trkpt lat="47.26086" lon="4.59765">
        <ele>524.479919</ele>
        <time>2018-08-20T08:49:50Z</time>
      </trkpt>
      <trkpt lat="47.26089" lon="4.59759">
        <ele>524.502625</ele>
        <time>2018-08-20T08:49:51Z</time>
      </trkpt>
      <trkpt lat="47.26091" lon="4.59753">
        <ele>524.54071</ele>
        <time>2018-08-20T08:49:52Z</time>
      </trkpt>
      <trkpt lat="47.26094" lon="4.59748">
        <ele>524.595032</ele>
        <time>2018-08-20T08:49:53Z</time>
      </trkpt>
      <trkpt lat="47.26096" lon="4.59742">
        <ele>524.667542</ele>
        <time>2018-08-20T08:49:54Z</time>
      </trkpt>
      <trkpt lat="47.26099" lon="4.59737">
        <ele>524.758362</ele>
        <time>2018-08-20T08:49:55Z</time>
      </trkpt>
      <trkpt lat="47.26102" lon="4.59732">
        <ele>524.867676</ele>
        <time>2018-08-20T08:49:56Z</time>
      </trkpt>
      <trkpt lat="47.26104" lon="4.59727">
        <ele>524.867676</ele>
        <time>2018-08-20T08:49:57Z</time>
      </trkpt>
      <trkpt lat="47.26107" lon="4.59722">
        <ele>524.987793</ele>
        <time>2018-08-20T08:49:58Z</time>
      </trkpt>
      <trkpt lat="47.26109" lon="4.59717">
        <ele>525.106689</ele>
        <time>2018-08-20T08:49:59Z</time>
      </trkpt>
      <trkpt lat="47.26112" lon="4.59712">
        <ele>525.243103</ele>
        <time>2018-08-20T08:50:00Z</time>
      </trkpt>
      <trkpt lat="47.26114" lon="4.59707">
        <ele>525.377014</ele>
        <time>2018-08-20T08:50:01Z</time>
      </trkpt>
      <trkpt lat="47.26117" lon="4.59702">
        <ele>525.508972</ele>
        <time>2018-08-20T08:50:02Z</time>
      </trkpt>
      <trkpt lat="47.26119" lon="4.59697">
        <ele>525.640076</ele>
        <time>2018-08-20T08:50:03Z</time>
      </trkpt>
      <trkpt lat="47.26122" lon="4.59692">
        <ele>525.763855</ele>
        <time>2018-08-20T08:50:04Z</time>
      </trkpt>
      <trkpt lat="47.26124" lon="4.59688">
        <ele>525.874695</ele>
        <time>2018-08-20T08:50:05Z</time>
      </trkpt>
      <trkpt lat="47.26127" lon="4.59683">
        <ele>525.954285</ele>
        <time>2018-08-20T08:50:06Z</time>
      </trkpt>
      <trkpt lat="47.26129" lon="4.59678">
        <ele>526.021729</ele>
        <time>2018-08-20T08:50:07Z</time>
      </trkpt>
      <trkpt lat="47.26131" lon="4.59673">
        <ele>526.07666</ele>
        <time>2018-08-20T08:50:08Z</time>
      </trkpt>
      <trkpt lat="47.26133" lon="4.59668">
        <ele>526.118652</ele>
        <time>2018-08-20T08:50:09Z</time>
      </trkpt>
      <trkpt lat="47.26135" lon="4.59663">
        <ele>526.15387</ele>
        <time>2018-08-20T08:50:10Z</time>
      </trkpt>
      <trkpt lat="47.26138" lon="4.59659">
        <ele>526.18866</ele>
        <time>2018-08-20T08:50:11Z</time>
      </trkpt>
      <trkpt lat="47.2614" lon="4.59654">
        <ele>526.222229</ele>
        <time>2018-08-20T08:50:12Z</time>
      </trkpt>
      <trkpt lat="47.26143" lon="4.59649">
        <ele>526.255432</ele>
        <time>2018-08-20T08:50:13Z</time>
      </trkpt>
      <trkpt lat="47.26145" lon="4.59644">
        <ele>526.322693</ele>
        <time>2018-08-20T08:50:14Z</time>
      </trkpt>
      <trkpt lat="47.26147" lon="4.59639">
        <ele>526.356201</ele>
        <time>2018-08-20T08:50:15Z</time>
      </trkpt>
      <trkpt lat="47.26149" lon="4.59633">
        <ele>526.356201</ele>
        <time>2018-08-20T08:50:16Z</time>
      </trkpt>
      <trkpt lat="47.26151" lon="4.59628">
        <ele>526.384094</ele>
        <time>2018-08-20T08:50:17Z</time>
      </trkpt>
      <trkpt lat="47.26151" lon="4.59622">
        <ele>526.412842</ele>
        <time>2018-08-20T08:50:18Z</time>
      </trkpt>
      <trkpt lat="47.2615" lon="4.59616">
        <ele>526.444702</ele>
        <time>2018-08-20T08:50:19Z</time>
      </trkpt>
      <trkpt lat="47.26148" lon="4.59611">
        <ele>526.468201</ele>
        <time>2018-08-20T08:50:20Z</time>
      </trkpt>
      <trkpt lat="47.26146" lon="4.59607">
        <ele>526.48407</ele>
        <time>2018-08-20T08:50:21Z</time>
      </trkpt>
      <trkpt lat="47.26142" lon="4.59603">
        <ele>526.493835</ele>
        <time>2018-08-20T08:50:22Z</time>
      </trkpt>
      <trkpt lat="47.26139" lon="4.596">
        <ele>526.504578</ele>
        <time>2018-08-20T08:50:23Z</time>
      </trkpt>
      <trkpt lat="47.26135" lon="4.59596">
        <ele>526.512207</ele>
        <time>2018-08-20T08:50:24Z</time>
      </trkpt>
      <trkpt lat="47.26132" lon="4.59592">
        <ele>526.517029</ele>
        <time>2018-08-20T08:50:25Z</time>
      </trkpt>
      <trkpt lat="47.26128" lon="4.59588">
        <ele>526.5224</ele>
        <time>2018-08-20T08:50:26Z</time>
      </trkpt>
      <trkpt lat="47.26125" lon="4.59585">
        <ele>526.525879</ele>
        <time>2018-08-20T08:50:27Z</time>
      </trkpt>
      <trkpt lat="47.2612" lon="4.59582">
        <ele>526.535156</ele>
        <time>2018-08-20T08:50:28Z</time>
      </trkpt>
      <trkpt lat="47.26117" lon="4.5958">
        <ele>526.553955</ele>
        <time>2018-08-20T08:50:29Z</time>
      </trkpt>
      <trkpt lat="47.26113" lon="4.59577">
        <ele>526.585022</ele>
        <time>2018-08-20T08:50:30Z</time>
      </trkpt>
      <trkpt lat="47.2611" lon="4.59574">
        <ele>526.628479</ele>
        <time>2018-08-20T08:50:31Z</time>
      </trkpt>
      <trkpt lat="47.26106" lon="4.59571">
        <ele>526.680847</ele>
        <time>2018-08-20T08:50:32Z</time>
      </trkpt>
      <trkpt lat="47.26102" lon="4.59568">
        <ele>526.742126</ele>
        <time>2018-08-20T08:50:33Z</time>
      </trkpt>
      <trkpt lat="47.26099" lon="4.59565">
        <ele>526.80603</ele>
        <time>2018-08-20T08:50:34Z</time>
      </trkpt>
      <trkpt lat="47.26095" lon="4.59562">
        <ele>526.865784</ele>
        <time>2018-08-20T08:50:35Z</time>
      </trkpt>
      <trkpt lat="47.26091" lon="4.59558">
        <ele>526.865784</ele>
        <time>2018-08-20T08:50:36Z</time>
      </trkpt>
      <trkpt lat="47.26087" lon="4.59555">
        <ele>526.915588</ele>
        <time>2018-08-20T08:50:37Z</time>
      </trkpt>
      <trkpt lat="47.26083" lon="4.59552">
        <ele>526.954529</ele>
        <time>2018-08-20T08:50:38Z</time>
      </trkpt>
      <trkpt lat="47.2608" lon="4.59549">
        <ele>526.981873</ele>
        <time>2018-08-20T08:50:39Z</time>
      </trkpt>
      <trkpt lat="47.26076" lon="4.59546">
        <ele>526.995605</ele>
        <time>2018-08-20T08:50:40Z</time>
      </trkpt>
      <trkpt lat="47.26072" lon="4.59543">
        <ele>527</ele>
        <time>2018-08-20T08:50:41Z</time>
      </trkpt>
      <trkpt lat="47.26068" lon="4.59539">
        <ele>527</ele>
        <time>2018-08-20T08:50:42Z</time>
      </trkpt>
      <trkpt lat="47.26064" lon="4.59536">
        <ele>527</ele>
        <time>2018-08-20T08:50:43Z</time>
      </trkpt>
      <trkpt lat="47.2606" lon="4.59533">
        <ele>527</ele>
        <time>2018-08-20T08:50:44Z</time>
      </trkpt>
      <trkpt lat="47.26057" lon="4.5953">
        <ele>527</ele>
        <time>2018-08-20T08:50:45Z</time>
      </trkpt>
      <trkpt lat="47.26053" lon="4.59527">
        <ele>527</ele>
        <time>2018-08-20T08:50:46Z</time>
      </trkpt>
      <trkpt lat="47.26049" lon="4.59524">
        <ele>527</ele>
        <time>2018-08-20T08:50:47Z</time>
      </trkpt>
      <trkpt lat="47.26045" lon="4.59521">
        <ele>527</ele>
        <time>2018-08-20T08:50:48Z</time>
      </trkpt>
      <trkpt lat="47.26042" lon="4.59518">
        <ele>527</ele>
        <time>2018-08-20T08:50:49Z</time>
      </trkpt>
      <trkpt lat="47.26038" lon="4.59515">
        <ele>527</ele>
        <time>2018-08-20T08:50:50Z</time>
      </trkpt>
      <trkpt lat="47.26034" lon="4.59512">
        <ele>527</ele>
        <time>2018-08-20T08:50:51Z</time>
      </trkpt>
      <trkpt lat="47.2603" lon="4.59509">
        <ele>526.998962</ele>
        <time>2018-08-20T08:50:52Z</time>
      </trkpt>
      <trkpt lat="47.26026" lon="4.59506">
        <ele>526.996521</ele>
        <time>2018-08-20T08:50:53Z</time>
      </trkpt>
      <trkpt lat="47.26022" lon="4.59503">
        <ele>526.99469</ele>
        <time>2018-08-20T08:50:54Z</time>
      </trkpt>
      <trkpt lat="47.26017" lon="4.595">
        <ele>526.99469</ele>
        <time>2018-08-20T08:50:55Z</time>
      </trkpt>
      <trkpt lat="47.26013" lon="4.59496">
        <ele>526.99176</ele>
        <time>2018-08-20T08:50:56Z</time>
      </trkpt>
      <trkpt lat="47.26009" lon="4.59493">
        <ele>526.988647</ele>
        <time>2018-08-20T08:50:57Z</time>
      </trkpt>
      <trkpt lat="47.26004" lon="4.5949">
        <ele>526.985352</ele>
        <time>2018-08-20T08:50:58Z</time>
      </trkpt>
      <trkpt lat="47.26" lon="4.59487">
        <ele>526.978943</ele>
        <time>2018-08-20T08:50:59Z</time>
      </trkpt>
      <trkpt lat="47.25995" lon="4.59483">
        <ele>526.968201</ele>
        <time>2018-08-20T08:51:00Z</time>
      </trkpt>
      <trkpt lat="47.25991" lon="4.5948">
        <ele>526.951965</ele>
        <time>2018-08-20T08:51:01Z</time>
      </trkpt>
      <trkpt lat="47.25987" lon="4.59476">
        <ele>526.929016</ele>
        <time>2018-08-20T08:51:02Z</time>
      </trkpt>
      <trkpt lat="47.25982" lon="4.59473">
        <ele>526.897766</ele>
        <time>2018-08-20T08:51:03Z</time>
      </trkpt>
      <trkpt lat="47.25977" lon="4.5947">
        <ele>526.857056</ele>
        <time>2018-08-20T08:51:04Z</time>
      </trkpt>
      <trkpt lat="47.25973" lon="4.59467">
        <ele>526.809998</ele>
        <time>2018-08-20T08:51:05Z</time>
      </trkpt>
      <trkpt lat="47.25968" lon="4.59463">
        <ele>526.757202</ele>
        <time>2018-08-20T08:51:06Z</time>
      </trkpt>
      <trkpt lat="47.25963" lon="4.59459">
        <ele>526.697998</ele>
        <time>2018-08-20T08:51:07Z</time>
      </trkpt>
      <trkpt lat="47.25959" lon="4.59456">
        <ele>526.629578</ele>
        <time>2018-08-20T08:51:08Z</time>
      </trkpt>
      <trkpt lat="47.25954" lon="4.59453">
        <ele>526.549377</ele>
        <time>2018-08-20T08:51:09Z</time>
      </trkpt>
      <trkpt lat="47.25949" lon="4.5945">
        <ele>526.458496</ele>
        <time>2018-08-20T08:51:10Z</time>
      </trkpt>
      <trkpt lat="47.25945" lon="4.59447">
        <ele>526.35907</ele>
        <time>2018-08-20T08:51:11Z</time>
      </trkpt>
      <trkpt lat="47.2594" lon="4.59444">
        <ele>526.250854</ele>
        <time>2018-08-20T08:51:12Z</time>
      </trkpt>
      <trkpt lat="47.25935" lon="4.59441">
        <ele>526.136047</ele>
        <time>2018-08-20T08:51:13Z</time>
      </trkpt>
      <trkpt lat="47.2593" lon="4.59438">
        <ele>526.018738</ele>
        <time>2018-08-20T08:51:14Z</time>
      </trkpt>
      <trkpt lat="47.25925" lon="4.59435">
        <ele>525.903076</ele>
        <time>2018-08-20T08:51:15Z</time>
      </trkpt>
      <trkpt lat="47.2592" lon="4.59433">
        <ele>525.789001</ele>
        <time>2018-08-20T08:51:16Z</time>
      </trkpt>
      <trkpt lat="47.25914" lon="4.5943">
        <ele>525.674988</ele>
        <time>2018-08-20T08:51:17Z</time>
      </trkpt>
      <trkpt lat="47.25909" lon="4.59428">
        <ele>525.562073</ele>
        <time>2018-08-20T08:51:18Z</time>
      </trkpt>
      <trkpt lat="47.25904" lon="4.59425">
        <ele>525.453674</ele>
        <time>2018-08-20T08:51:19Z</time>
      </trkpt>
      <trkpt lat="47.25899" lon="4.59423">
        <ele>525.351379</ele>
        <time>2018-08-20T08:51:20Z</time>
      </trkpt>
      <trkpt lat="47.25893" lon="4.59421">
        <ele>525.255127</ele>
        <time>2018-08-20T08:51:21Z</time>
      </trkpt>
      <trkpt lat="47.25888" lon="4.59419">
        <ele>525.165039</ele>
        <time>2018-08-20T08:51:22Z</time>
      </trkpt>
      <trkpt lat="47.25883" lon="4.59417">
        <ele>525.080994</ele>
        <time>2018-08-20T08:51:23Z</time>
      </trkpt>
      <trkpt lat="47.25878" lon="4.59414">
        <ele>525.002625</ele>
        <time>2018-08-20T08:51:24Z</time>
      </trkpt>
      <trkpt lat="47.25872" lon="4.59412">
        <ele>524.926208</ele>
        <time>2018-08-20T08:51:25Z</time>
      </trkpt>
      <trkpt lat="47.25867" lon="4.5941">
        <ele>524.850098</ele>
        <time>2018-08-20T08:51:26Z</time>
      </trkpt>
      <trkpt lat="47.25861" lon="4.59408">
        <ele>524.773987</ele>
        <time>2018-08-20T08:51:27Z</time>
      </trkpt>
      <trkpt lat="47.25856" lon="4.59406">
        <ele>524.69751</ele>
        <time>2018-08-20T08:51:28Z</time>
      </trkpt>
      <trkpt lat="47.25851" lon="4.59404">
        <ele>524.620605</ele>
        <time>2018-08-20T08:51:29Z</time>
      </trkpt>
      <trkpt lat="47.25845" lon="4.59402">
        <ele>524.543274</ele>
        <time>2018-08-20T08:51:30Z</time>
      </trkpt>
      <trkpt lat="47.25839" lon="4.594">
        <ele>524.465149</ele>
        <time>2018-08-20T08:51:31Z</time>
      </trkpt>
      <trkpt lat="47.25834" lon="4.59399">
        <ele>524.386292</ele>
        <time>2018-08-20T08:51:32Z</time>
      </trkpt>
      <trkpt lat="47.25829" lon="4.59397">
        <ele>524.306641</ele>
        <time>2018-08-20T08:51:33Z</time>
      </trkpt>
      <trkpt lat="47.25823" lon="4.59396">
        <ele>524.226135</ele>
        <time>2018-08-20T08:51:34Z</time>
      </trkpt>
      <trkpt lat="47.25818" lon="4.59394">
        <ele>524.155029</ele>
        <time>2018-08-20T08:51:35Z</time>
      </trkpt>
      <trkpt lat="47.25812" lon="4.59392">
        <ele>524.097229</ele>
        <time>2018-08-20T08:51:36Z</time>
      </trkpt>
      <trkpt lat="47.25806" lon="4.59391">
        <ele>524.052795</ele>
        <time>2018-08-20T08:51:37Z</time>
      </trkpt>
      <trkpt lat="47.25801" lon="4.59389">
        <ele>524.021729</ele>
        <time>2018-08-20T08:51:38Z</time>
      </trkpt>
      <trkpt lat="47.25795" lon="4.59387">
        <ele>524.003967</ele>
        <time>2018-08-20T08:51:39Z</time>
      </trkpt>
      <trkpt lat="47.2579" lon="4.59385">
        <ele>524</ele>
        <time>2018-08-20T08:51:40Z</time>
      </trkpt>
      <trkpt lat="47.25784" lon="4.59384">
        <ele>524</ele>
        <time>2018-08-20T08:51:41Z</time>
      </trkpt>
      <trkpt lat="47.25779" lon="4.59382">
        <ele>524</ele>
        <time>2018-08-20T08:51:42Z</time>
      </trkpt>
      <trkpt lat="47.25773" lon="4.59381">
        <ele>524</ele>
        <time>2018-08-20T08:51:43Z</time>
      </trkpt>
      <trkpt lat="47.25768" lon="4.59379">
        <ele>524</ele>
        <time>2018-08-20T08:51:44Z</time>
      </trkpt>
      <trkpt lat="47.25763" lon="4.59377">
        <ele>524</ele>
        <time>2018-08-20T08:51:45Z</time>
      </trkpt>
      <trkpt lat="47.25757" lon="4.59376">
        <ele>524</ele>
        <time>2018-08-20T08:51:46Z</time>
      </trkpt>
      <trkpt lat="47.25752" lon="4.59374">
        <ele>524.000488</ele>
        <time>2018-08-20T08:51:47Z</time>
      </trkpt>
      <trkpt lat="47.25747" lon="4.59373">
        <ele>524.003113</ele>
        <time>2018-08-20T08:51:48Z</time>
      </trkpt>
      <trkpt lat="47.25743" lon="4.59371">
        <ele>524.007141</ele>
        <time>2018-08-20T08:51:49Z</time>
      </trkpt>
      <trkpt lat="47.25737" lon="4.5937">
        <ele>524.012207</ele>
        <time>2018-08-20T08:51:50Z</time>
      </trkpt>
      <trkpt lat="47.25733" lon="4.59368">
        <ele>524.016357</ele>
        <time>2018-08-20T08:51:51Z</time>
      </trkpt>
      <trkpt lat="47.25728" lon="4.59366">
        <ele>524.019104</ele>
        <time>2018-08-20T08:51:52Z</time>
      </trkpt>
      <trkpt lat="47.25723" lon="4.59365">
        <ele>524.019287</ele>
        <time>2018-08-20T08:51:53Z</time>
      </trkpt>
      <trkpt lat="47.25718" lon="4.59363">
        <ele>524.019287</ele>
        <time>2018-08-20T08:51:54Z</time>
      </trkpt>
      <trkpt lat="47.25714" lon="4.59362">
        <ele>524.019287</ele>
        <time>2018-08-20T08:51:55Z</time>
      </trkpt>
      <trkpt lat="47.25708" lon="4.5936">
        <ele>524.019287</ele>
        <time>2018-08-20T08:51:56Z</time>
      </trkpt>
      <trkpt lat="47.25704" lon="4.59358">
        <ele>524.015076</ele>
        <time>2018-08-20T08:51:57Z</time>
      </trkpt>
      <trkpt lat="47.25699" lon="4.59355">
        <ele>524.002686</ele>
        <time>2018-08-20T08:51:58Z</time>
      </trkpt>
      <trkpt lat="47.25694" lon="4.59353">
        <ele>523.984863</ele>
        <time>2018-08-20T08:51:59Z</time>
      </trkpt>
      <trkpt lat="47.2569" lon="4.5935">
        <ele>523.963623</ele>
        <time>2018-08-20T08:52:00Z</time>
      </trkpt>
      <trkpt lat="47.25685" lon="4.59348">
        <ele>523.949219</ele>
        <time>2018-08-20T08:52:01Z</time>
      </trkpt>
      <trkpt lat="47.2568" lon="4.59345">
        <ele>523.941956</ele>
        <time>2018-08-20T08:52:02Z</time>
      </trkpt>
      <trkpt lat="47.25675" lon="4.59342">
        <ele>523.941956</ele>
        <time>2018-08-20T08:52:03Z</time>
      </trkpt>
      <trkpt lat="47.25671" lon="4.59339">
        <ele>523.941956</ele>
        <time>2018-08-20T08:52:04Z</time>
      </trkpt>
      <trkpt lat="47.25666" lon="4.59336">
        <ele>523.942444</ele>
        <time>2018-08-20T08:52:05Z</time>
      </trkpt>
      <trkpt lat="47.25661" lon="4.59333">
        <ele>523.953857</ele>
        <time>2018-08-20T08:52:06Z</time>
      </trkpt>
      <trkpt lat="47.25656" lon="4.5933">
        <ele>523.97406</ele>
        <time>2018-08-20T08:52:07Z</time>
      </trkpt>
      <trkpt lat="47.25652" lon="4.59327">
        <ele>524.001953</ele>
        <time>2018-08-20T08:52:08Z</time>
      </trkpt>
      <trkpt lat="47.25647" lon="4.59324">
        <ele>524.028625</ele>
        <time>2018-08-20T08:52:09Z</time>
      </trkpt>
      <trkpt lat="47.25642" lon="4.59321">
        <ele>524.054138</ele>
        <time>2018-08-20T08:52:10Z</time>
      </trkpt>
      <trkpt lat="47.25637" lon="4.59318">
        <ele>524.078796</ele>
        <time>2018-08-20T08:52:11Z</time>
      </trkpt>
      <trkpt lat="47.25633" lon="4.59314">
        <ele>524.103516</ele>
        <time>2018-08-20T08:52:12Z</time>
      </trkpt>
      <trkpt lat="47.25628" lon="4.59311">
        <ele>524.128601</ele>
        <time>2018-08-20T08:52:13Z</time>
      </trkpt>
      <trkpt lat="47.25623" lon="4.59307">
        <ele>524.153748</ele>
        <time>2018-08-20T08:52:14Z</time>
      </trkpt>
      <trkpt lat="47.25618" lon="4.59304">
        <ele>524.178406</ele>
        <time>2018-08-20T08:52:15Z</time>
      </trkpt>
      <trkpt lat="47.25613" lon="4.593">
        <ele>524.21167</ele>
        <time>2018-08-20T08:52:16Z</time>
      </trkpt>
      <trkpt lat="47.25609" lon="4.59296">
        <ele>524.255371</ele>
        <time>2018-08-20T08:52:17Z</time>
      </trkpt>
      <trkpt lat="47.25605" lon="4.59292">
        <ele>524.308899</ele>
        <time>2018-08-20T08:52:18Z</time>
      </trkpt>
      <trkpt lat="47.256" lon="4.59288">
        <ele>524.370911</ele>
        <time>2018-08-20T08:52:19Z</time>
      </trkpt>
      <trkpt lat="47.25596" lon="4.59283">
        <ele>524.442322</ele>
        <time>2018-08-20T08:52:20Z</time>
      </trkpt>
      <trkpt lat="47.25591" lon="4.59279">
        <ele>524.525696</ele>
        <time>2018-08-20T08:52:21Z</time>
      </trkpt>
      <trkpt lat="47.25587" lon="4.59275">
        <ele>524.612854</ele>
        <time>2018-08-20T08:52:22Z</time>
      </trkpt>
      <trkpt lat="47.25583" lon="4.59271">
        <ele>524.703796</ele>
        <time>2018-08-20T08:52:23Z</time>
      </trkpt>
      <trkpt lat="47.25578" lon="4.59266">
        <ele>524.799194</ele>
        <time>2018-08-20T08:52:24Z</time>
      </trkpt>
      <trkpt lat="47.25574" lon="4.59262">
        <ele>524.901855</ele>
        <time>2018-08-20T08:52:25Z</time>
      </trkpt>
      <trkpt lat="47.25569" lon="4.59258">
        <ele>525.013855</ele>
        <time>2018-08-20T08:52:26Z</time>
      </trkpt>
      <trkpt lat="47.25564" lon="4.59255">
        <ele>525.135193</ele>
        <time>2018-08-20T08:52:27Z</time>
      </trkpt>
      <trkpt lat="47.25559" lon="4.59251">
        <ele>525.265381</ele>
        <time>2018-08-20T08:52:28Z</time>
      </trkpt>
      <trkpt lat="47.25555" lon="4.59248">
        <ele>525.403503</ele>
        <time>2018-08-20T08:52:29Z</time>
      </trkpt>
      <trkpt lat="47.2555" lon="4.59245">
        <ele>525.552734</ele>
        <time>2018-08-20T08:52:30Z</time>
      </trkpt>
      <trkpt lat="47.25545" lon="4.59241">
        <ele>525.70697</ele>
        <time>2018-08-20T08:52:31Z</time>
      </trkpt>
      <trkpt lat="47.25541" lon="4.59238">
        <ele>525.862122</ele>
        <time>2018-08-20T08:52:32Z</time>
      </trkpt>
      <trkpt lat="47.25536" lon="4.59235">
        <ele>525.862122</ele>
        <time>2018-08-20T08:52:33Z</time>
      </trkpt>
      <trkpt lat="47.25532" lon="4.59233">
        <ele>526.015198</ele>
        <time>2018-08-20T08:52:34Z</time>
      </trkpt>
      <trkpt lat="47.25527" lon="4.5923">
        <ele>526.16571</ele>
        <time>2018-08-20T08:52:35Z</time>
      </trkpt>
      <trkpt lat="47.25522" lon="4.59227">
        <ele>526.333252</ele>
        <time>2018-08-20T08:52:36Z</time>
      </trkpt>
      <trkpt lat="47.25518" lon="4.59224">
        <ele>526.493469</ele>
        <time>2018-08-20T08:52:37Z</time>
      </trkpt>
      <trkpt lat="47.25514" lon="4.59221">
        <ele>526.650574</ele>
        <time>2018-08-20T08:52:38Z</time>
      </trkpt>
      <trkpt lat="47.25509" lon="4.59218">
        <ele>526.807678</ele>
        <time>2018-08-20T08:52:39Z</time>
      </trkpt>
      <trkpt lat="47.25505" lon="4.59215">
        <ele>526.965149</ele>
        <time>2018-08-20T08:52:40Z</time>
      </trkpt>
      <trkpt lat="47.25501" lon="4.59213">
        <ele>527.122253</ele>
        <time>2018-08-20T08:52:41Z</time>
      </trkpt>
      <trkpt lat="47.25497" lon="4.5921">
        <ele>527.257385</ele>
        <time>2018-08-20T08:52:42Z</time>
      </trkpt>
      <trkpt lat="47.25493" lon="4.59207">
        <ele>527.390442</ele>
        <time>2018-08-20T08:52:43Z</time>
      </trkpt>
      <trkpt lat="47.25489" lon="4.59205">
        <ele>527.521057</ele>
        <time>2018-08-20T08:52:44Z</time>
      </trkpt>
      <trkpt lat="47.25485" lon="4.59202">
        <ele>527.64624</ele>
        <time>2018-08-20T08:52:45Z</time>
      </trkpt>
      <trkpt lat="47.25481" lon="4.59199">
        <ele>527.759705</ele>
        <time>2018-08-20T08:52:46Z</time>
      </trkpt>
      <trkpt lat="47.25477" lon="4.59196">
        <ele>527.853455</ele>
        <time>2018-08-20T08:52:47Z</time>
      </trkpt>
      <trkpt lat="47.25473" lon="4.59194">
        <ele>527.923828</ele>
        <time>2018-08-20T08:52:48Z</time>
      </trkpt>
      <trkpt lat="47.2547" lon="4.59191">
        <ele>527.970276</ele>
        <time>2018-08-20T08:52:49Z</time>
      </trkpt>
      <trkpt lat="47.25466" lon="4.59189">
        <ele>527.992981</ele>
        <time>2018-08-20T08:52:50Z</time>
      </trkpt>
      <trkpt lat="47.25462" lon="4.59187">
        <ele>527.992981</ele>
        <time>2018-08-20T08:52:51Z</time>
      </trkpt>
      <trkpt lat="47.25459" lon="4.59184">
        <ele>527.992981</ele>
        <time>2018-08-20T08:52:52Z</time>
      </trkpt>
      <trkpt lat="47.25456" lon="4.59182">
        <ele>527.992249</ele>
        <time>2018-08-20T08:52:53Z</time>
      </trkpt>
      <trkpt lat="47.25452" lon="4.5918">
        <ele>527.973328</ele>
        <time>2018-08-20T08:52:54Z</time>
      </trkpt>
      <trkpt lat="47.25449" lon="4.59177">
        <ele>527.943909</ele>
        <time>2018-08-20T08:52:55Z</time>
      </trkpt>
      <trkpt lat="47.25445" lon="4.59175">
        <ele>527.943909</ele>
        <time>2018-08-20T08:52:56Z</time>
      </trkpt>
      <trkpt lat="47.25442" lon="4.59173">
        <ele>527.907288</ele>
        <time>2018-08-20T08:52:57Z</time>
      </trkpt>
      <trkpt lat="47.25438" lon="4.59171">
        <ele>527.864807</ele>
        <time>2018-08-20T08:52:58Z</time>
      </trkpt>
      <trkpt lat="47.25435" lon="4.59168">
        <ele>527.803223</ele>
        <time>2018-08-20T08:52:59Z</time>
      </trkpt>
      <trkpt lat="47.25431" lon="4.59166">
        <ele>527.734375</ele>
        <time>2018-08-20T08:53:00Z</time>
      </trkpt>
      <trkpt lat="47.25428" lon="4.59163">
        <ele>527.657654</ele>
        <time>2018-08-20T08:53:01Z</time>
      </trkpt>
      <trkpt lat="47.25425" lon="4.59161">
        <ele>527.571838</ele>
        <time>2018-08-20T08:53:02Z</time>
      </trkpt>
      <trkpt lat="47.25422" lon="4.59159">
        <ele>527.478333</ele>
        <time>2018-08-20T08:53:03Z</time>
      </trkpt>
      <trkpt lat="47.25418" lon="4.59157">
        <ele>527.376282</ele>
        <time>2018-08-20T08:53:04Z</time>
      </trkpt>
      <trkpt lat="47.25415" lon="4.59155">
        <ele>527.271301</ele>
        <time>2018-08-20T08:53:05Z</time>
      </trkpt>
      <trkpt lat="47.25411" lon="4.59154">
        <ele>527.125183</ele>
        <time>2018-08-20T08:53:06Z</time>
      </trkpt>
      <trkpt lat="47.25409" lon="4.59152">
        <ele>526.934082</ele>
        <time>2018-08-20T08:53:07Z</time>
      </trkpt>
      <trkpt lat="47.25408" lon="4.5915">
        <ele>526.703308</ele>
        <time>2018-08-20T08:53:08Z</time>
      </trkpt>
      <trkpt lat="47.25407" lon="4.59148">
        <ele>526.433533</ele>
        <time>2018-08-20T08:53:09Z</time>
      </trkpt>
      <trkpt lat="47.25408" lon="4.59145">
        <ele>526.13916</ele>
        <time>2018-08-20T08:53:10Z</time>
      </trkpt>
      <trkpt lat="47.25409" lon="4.59142">
        <ele>525.835449</ele>
        <time>2018-08-20T08:53:11Z</time>
      </trkpt>
      <trkpt lat="47.25412" lon="4.5914">
        <ele>525.555725</ele>
        <time>2018-08-20T08:53:12Z</time>
      </trkpt>
      <trkpt lat="47.25415" lon="4.59137">
        <ele>525.330078</ele>
        <time>2018-08-20T08:53:13Z</time>
      </trkpt>
      <trkpt lat="47.25417" lon="4.59135">
        <ele>525.174377</ele>
        <time>2018-08-20T08:53:14Z</time>
      </trkpt>
      <trkpt lat="47.2542" lon="4.59131">
        <ele>525.091003</ele>
        <time>2018-08-20T08:53:15Z</time>
      </trkpt>
      <trkpt lat="47.25422" lon="4.59128">
        <ele>525.062317</ele>
        <time>2018-08-20T08:53:16Z</time>
      </trkpt>
      <trkpt lat="47.25424" lon="4.59124">
        <ele>525.062317</ele>
        <time>2018-08-20T08:53:17Z</time>
      </trkpt>
      <trkpt lat="47.25427" lon="4.5912">
        <ele>525.062317</ele>
        <time>2018-08-20T08:53:18Z</time>
      </trkpt>
      <trkpt lat="47.25429" lon="4.59116">
        <ele>525.079285</ele>
        <time>2018-08-20T08:53:19Z</time>
      </trkpt>
      <trkpt lat="47.2543" lon="4.59111">
        <ele>525.117004</ele>
        <time>2018-08-20T08:53:20Z</time>
      </trkpt>
      <trkpt lat="47.25432" lon="4.59107">
        <ele>525.142578</ele>
        <time>2018-08-20T08:53:21Z</time>
      </trkpt>
      <trkpt lat="47.25434" lon="4.59103">
        <ele>525.142578</ele>
        <time>2018-08-20T08:53:22Z</time>
      </trkpt>
      <trkpt lat="47.25435" lon="4.59099">
        <ele>525.142578</ele>
        <time>2018-08-20T08:53:23Z</time>
      </trkpt>
      <trkpt lat="47.25437" lon="4.59095">
        <ele>525.142578</ele>
        <time>2018-08-20T08:53:24Z</time>
      </trkpt>
      <trkpt lat="47.25438" lon="4.59091">
        <ele>525.141052</ele>
        <time>2018-08-20T08:53:25Z</time>
      </trkpt>
      <trkpt lat="47.25439" lon="4.59087">
        <ele>525.099304</ele>
        <time>2018-08-20T08:53:26Z</time>
      </trkpt>
      <trkpt lat="47.25441" lon="4.59083">
        <ele>525.029114</ele>
        <time>2018-08-20T08:53:27Z</time>
      </trkpt>
      <trkpt lat="47.25441" lon="4.59079">
        <ele>524.937073</ele>
        <time>2018-08-20T08:53:28Z</time>
      </trkpt>
      <trkpt lat="47.2544" lon="4.59076">
        <ele>524.837341</ele>
        <time>2018-08-20T08:53:29Z</time>
      </trkpt>
      <trkpt lat="47.25439" lon="4.59072">
        <ele>524.737549</ele>
        <time>2018-08-20T08:53:30Z</time>
      </trkpt>
      <trkpt lat="47.25437" lon="4.59069">
        <ele>524.622864</ele>
        <time>2018-08-20T08:53:31Z</time>
      </trkpt>
      <trkpt lat="47.25436" lon="4.59067">
        <ele>524.497986</ele>
        <time>2018-08-20T08:53:32Z</time>
      </trkpt>
      <trkpt lat="47.25435" lon="4.59064">
        <ele>524.347961</ele>
        <time>2018-08-20T08:53:33Z</time>
      </trkpt>
      <trkpt lat="47.25434" lon="4.59061">
        <ele>524.170593</ele>
        <time>2018-08-20T08:53:34Z</time>
      </trkpt>
      <trkpt lat="47.25432" lon="4.59058">
        <ele>523.971985</ele>
        <time>2018-08-20T08:53:35Z</time>
      </trkpt>
      <trkpt lat="47.2543" lon="4.59055">
        <ele>523.753601</ele>
        <time>2018-08-20T08:53:36Z</time>
      </trkpt>
      <trkpt lat="47.25428" lon="4.59053">
        <ele>523.523438</ele>
        <time>2018-08-20T08:53:37Z</time>
      </trkpt>
      <trkpt lat="47.25425" lon="4.59051">
        <ele>523.278015</ele>
        <time>2018-08-20T08:53:38Z</time>
      </trkpt>
      <trkpt lat="47.25423" lon="4.59049">
        <ele>523.015076</ele>
        <time>2018-08-20T08:53:39Z</time>
      </trkpt>
      <trkpt lat="47.25421" lon="4.59048">
        <ele>522.736328</ele>
        <time>2018-08-20T08:53:40Z</time>
      </trkpt>
      <trkpt lat="47.25418" lon="4.59046">
        <ele>522.43866</ele>
        <time>2018-08-20T08:53:41Z</time>
      </trkpt>
      <trkpt lat="47.25416" lon="4.59044">
        <ele>522.104675</ele>
        <time>2018-08-20T08:53:42Z</time>
      </trkpt>
      <trkpt lat="47.25414" lon="4.59043">
        <ele>521.732239</ele>
        <time>2018-08-20T08:53:43Z</time>
      </trkpt>
      <trkpt lat="47.25412" lon="4.59041">
        <ele>521.331055</ele>
        <time>2018-08-20T08:53:44Z</time>
      </trkpt>
      <trkpt lat="47.25411" lon="4.59039">
        <ele>520.916809</ele>
        <time>2018-08-20T08:53:45Z</time>
      </trkpt>
      <trkpt lat="47.25411" lon="4.59036">
        <ele>520.493835</ele>
        <time>2018-08-20T08:53:46Z</time>
      </trkpt>
      <trkpt lat="47.25411" lon="4.59032">
        <ele>520.493835</ele>
        <time>2018-08-20T08:53:47Z</time>
      </trkpt>
      <trkpt lat="47.25412" lon="4.59029">
        <ele>520.068054</ele>
        <time>2018-08-20T08:53:48Z</time>
      </trkpt>
      <trkpt lat="47.25411" lon="4.59026">
        <ele>519.663147</ele>
        <time>2018-08-20T08:53:49Z</time>
      </trkpt>
      <trkpt lat="47.2541" lon="4.59025">
        <ele>519.265808</ele>
        <time>2018-08-20T08:53:50Z</time>
      </trkpt>
      <trkpt lat="47.25409" lon="4.59026">
        <ele>518.921936</ele>
        <time>2018-08-20T08:53:51Z</time>
      </trkpt>
      <trkpt lat="47.25408" lon="4.59028">
        <ele>518.606567</ele>
        <time>2018-08-20T08:53:52Z</time>
      </trkpt>
      <trkpt lat="47.25408" lon="4.59031">
        <ele>518.311096</ele>
        <time>2018-08-20T08:53:53Z</time>
      </trkpt>
      <trkpt lat="47.25409" lon="4.59032">
        <ele>518.094482</ele>
        <time>2018-08-20T08:53:54Z</time>
      </trkpt>
      <trkpt lat="47.25411" lon="4.59033">
        <ele>517.974792</ele>
        <time>2018-08-20T08:53:55Z</time>
      </trkpt>
      <trkpt lat="47.25412" lon="4.59035">
        <ele>517.974792</ele>
        <time>2018-08-20T08:53:56Z</time>
      </trkpt>
      <trkpt lat="47.25413" lon="4.59038">
        <ele>517.974792</ele>
        <time>2018-08-20T08:53:57Z</time>
      </trkpt>
      <trkpt lat="47.25414" lon="4.59042">
        <ele>517.974792</ele>
        <time>2018-08-20T08:53:58Z</time>
      </trkpt>
      <trkpt lat="47.25416" lon="4.59046">
        <ele>518.013977</ele>
        <time>2018-08-20T08:53:59Z</time>
      </trkpt>
      <trkpt lat="47.25418" lon="4.59049">
        <ele>518.143982</ele>
        <time>2018-08-20T08:54:00Z</time>
      </trkpt>
      <trkpt lat="47.25421" lon="4.59051">
        <ele>518.388977</ele>
        <time>2018-08-20T08:54:01Z</time>
      </trkpt>
      <trkpt lat="47.25424" lon="4.59053">
        <ele>518.762268</ele>
        <time>2018-08-20T08:54:02Z</time>
      </trkpt>
      <trkpt lat="47.25428" lon="4.59056">
        <ele>519.211182</ele>
        <time>2018-08-20T08:54:03Z</time>
      </trkpt>
      <trkpt lat="47.2543" lon="4.59058">
        <ele>519.707336</ele>
        <time>2018-08-20T08:54:04Z</time>
      </trkpt>
      <trkpt lat="47.25433" lon="4.59062">
        <ele>520.211975</ele>
        <time>2018-08-20T08:54:05Z</time>
      </trkpt>
      <trkpt lat="47.25436" lon="4.59065">
        <ele>520.732239</ele>
        <time>2018-08-20T08:54:06Z</time>
      </trkpt>
      <trkpt lat="47.25439" lon="4.59068">
        <ele>521.249084</ele>
        <time>2018-08-20T08:54:07Z</time>
      </trkpt>
      <trkpt lat="47.25441" lon="4.5907">
        <ele>521.749817</ele>
        <time>2018-08-20T08:54:08Z</time>
      </trkpt>
      <trkpt lat="47.25444" lon="4.59072">
        <ele>522.223206</ele>
        <time>2018-08-20T08:54:09Z</time>
      </trkpt>
      <trkpt lat="47.25446" lon="4.59074">
        <ele>522.661743</ele>
        <time>2018-08-20T08:54:10Z</time>
      </trkpt>
      <trkpt lat="47.25448" lon="4.59073">
        <ele>523.054565</ele>
        <time>2018-08-20T08:54:11Z</time>
      </trkpt>
      <trkpt lat="47.25451" lon="4.59072">
        <ele>523.410461</ele>
        <time>2018-08-20T08:54:12Z</time>
      </trkpt>
      <trkpt lat="47.25452" lon="4.59069">
        <ele>523.734802</ele>
        <time>2018-08-20T08:54:13Z</time>
      </trkpt>
      <trkpt lat="47.25454" lon="4.59066">
        <ele>524.018494</ele>
        <time>2018-08-20T08:54:14Z</time>
      </trkpt>
      <trkpt lat="47.25457" lon="4.59063">
        <ele>524.250671</ele>
        <time>2018-08-20T08:54:15Z</time>
      </trkpt>
      <trkpt lat="47.25459" lon="4.5906">
        <ele>524.436707</ele>
        <time>2018-08-20T08:54:16Z</time>
      </trkpt>
      <trkpt lat="47.25461" lon="4.59056">
        <ele>524.586365</ele>
        <time>2018-08-20T08:54:17Z</time>
      </trkpt>
      <trkpt lat="47.25464" lon="4.59053">
        <ele>524.703613</ele>
        <time>2018-08-20T08:54:18Z</time>
      </trkpt>
      <trkpt lat="47.25465" lon="4.59048">
        <ele>524.795715</ele>
        <time>2018-08-20T08:54:19Z</time>
      </trkpt>
      <trkpt lat="47.25467" lon="4.59044">
        <ele>524.879639</ele>
        <time>2018-08-20T08:54:20Z</time>
      </trkpt>
      <trkpt lat="47.25469" lon="4.59039">
        <ele>524.964722</ele>
        <time>2018-08-20T08:54:21Z</time>
      </trkpt>
      <trkpt lat="47.2547" lon="4.59034">
        <ele>524.964722</ele>
        <time>2018-08-20T08:54:22Z</time>
      </trkpt>
      <trkpt lat="47.25472" lon="4.5903">
        <ele>525.049988</ele>
        <time>2018-08-20T08:54:23Z</time>
      </trkpt>
      <trkpt lat="47.25474" lon="4.59026">
        <ele>525.136658</ele>
        <time>2018-08-20T08:54:24Z</time>
      </trkpt>
      <trkpt lat="47.25476" lon="4.59023">
        <ele>525.227295</ele>
        <time>2018-08-20T08:54:25Z</time>
      </trkpt>
      <trkpt lat="47.25478" lon="4.59018">
        <ele>525.322998</ele>
        <time>2018-08-20T08:54:26Z</time>
      </trkpt>
      <trkpt lat="47.2548" lon="4.59014">
        <ele>525.42218</ele>
        <time>2018-08-20T08:54:27Z</time>
      </trkpt>
      <trkpt lat="47.25481" lon="4.59009">
        <ele>525.528137</ele>
        <time>2018-08-20T08:54:28Z</time>
      </trkpt>
      <trkpt lat="47.25483" lon="4.59005">
        <ele>525.627686</ele>
        <time>2018-08-20T08:54:29Z</time>
      </trkpt>
      <trkpt lat="47.25484" lon="4.59">
        <ele>525.71936</ele>
        <time>2018-08-20T08:54:30Z</time>
      </trkpt>
      <trkpt lat="47.25485" lon="4.58995">
        <ele>525.807434</ele>
        <time>2018-08-20T08:54:31Z</time>
      </trkpt>
      <trkpt lat="47.25486" lon="4.5899">
        <ele>525.877563</ele>
        <time>2018-08-20T08:54:32Z</time>
      </trkpt>
      <trkpt lat="47.25487" lon="4.58985">
        <ele>525.917847</ele>
        <time>2018-08-20T08:54:33Z</time>
      </trkpt>
      <trkpt lat="47.25488" lon="4.5898">
        <ele>525.924133</ele>
        <time>2018-08-20T08:54:34Z</time>
      </trkpt>
      <trkpt lat="47.25489" lon="4.58975">
        <ele>525.924133</ele>
        <time>2018-08-20T08:54:35Z</time>
      </trkpt>
      <trkpt lat="47.2549" lon="4.58969">
        <ele>525.924133</ele>
        <time>2018-08-20T08:54:36Z</time>
      </trkpt>
      <trkpt lat="47.25492" lon="4.58964">
        <ele>525.920654</ele>
        <time>2018-08-20T08:54:37Z</time>
      </trkpt>
      <trkpt lat="47.25495" lon="4.5896">
        <ele>525.925293</ele>
        <time>2018-08-20T08:54:38Z</time>
      </trkpt>
      <trkpt lat="47.25498" lon="4.58955">
        <ele>525.929321</ele>
        <time>2018-08-20T08:54:39Z</time>
      </trkpt>
      <trkpt lat="47.25501" lon="4.58952">
        <ele>525.929321</ele>
        <time>2018-08-20T08:54:40Z</time>
      </trkpt>
      <trkpt lat="47.25505" lon="4.58949">
        <ele>525.951965</ele>
        <time>2018-08-20T08:54:41Z</time>
      </trkpt>
      <trkpt lat="47.25509" lon="4.58947">
        <ele>525.970398</ele>
        <time>2018-08-20T08:54:42Z</time>
      </trkpt>
      <trkpt lat="47.25513" lon="4.58945">
        <ele>525.993164</ele>
        <time>2018-08-20T08:54:43Z</time>
      </trkpt>
      <trkpt lat="47.25517" lon="4.58943">
        <ele>526.02832</ele>
        <time>2018-08-20T08:54:44Z</time>
      </trkpt>
      <trkpt lat="47.25521" lon="4.58941">
        <ele>526.075378</ele>
        <time>2018-08-20T08:54:45Z</time>
      </trkpt>
      <trkpt lat="47.25525" lon="4.58939">
        <ele>526.114746</ele>
        <time>2018-08-20T08:54:46Z</time>
      </trkpt>
      <trkpt lat="47.25529" lon="4.58938">
        <ele>526.13324</ele>
        <time>2018-08-20T08:54:47Z</time>
      </trkpt>
      <trkpt lat="47.25533" lon="4.58936">
        <ele>526.13324</ele>
        <time>2018-08-20T08:54:48Z</time>
      </trkpt>
      <trkpt lat="47.25537" lon="4.58934">
        <ele>526.151855</ele>
        <time>2018-08-20T08:54:49Z</time>
      </trkpt>
      <trkpt lat="47.25541" lon="4.58933">
        <ele>526.159912</ele>
        <time>2018-08-20T08:54:50Z</time>
      </trkpt>
      <trkpt lat="47.25544" lon="4.58932">
        <ele>526.192566</ele>
        <time>2018-08-20T08:54:51Z</time>
      </trkpt>
      <trkpt lat="47.25548" lon="4.5893">
        <ele>526.249573</ele>
        <time>2018-08-20T08:54:52Z</time>
      </trkpt>
      <trkpt lat="47.25551" lon="4.58928">
        <ele>526.330811</ele>
        <time>2018-08-20T08:54:53Z</time>
      </trkpt>
      <trkpt lat="47.25552" lon="4.58924">
        <ele>526.425964</ele>
        <time>2018-08-20T08:54:54Z</time>
      </trkpt>
      <trkpt lat="47.25554" lon="4.58921">
        <ele>526.507141</ele>
        <time>2018-08-20T08:54:55Z</time>
      </trkpt>
      <trkpt lat="47.25555" lon="4.58919">
        <ele>526.564453</ele>
        <time>2018-08-20T08:54:56Z</time>
      </trkpt>
      <trkpt lat="47.25557" lon="4.58917">
        <ele>526.564453</ele>
        <time>2018-08-20T08:54:57Z</time>
      </trkpt>
      <trkpt lat="47.25559" lon="4.58914">
        <ele>526.577454</ele>
        <time>2018-08-20T08:54:58Z</time>
      </trkpt>
      <trkpt lat="47.25561" lon="4.58913">
        <ele>526.577454</ele>
        <time>2018-08-20T08:54:59Z</time>
      </trkpt>
      <trkpt lat="47.25553" lon="4.58924">
        <ele>526.527039</ele>
        <time>2018-08-20T08:55:34Z</time>
      </trkpt>
      <trkpt lat="47.25551" lon="4.58926">
        <ele>526.555847</ele>
        <time>2018-08-20T08:55:36Z</time>
      </trkpt>
      <trkpt lat="47.25548" lon="4.58928">
        <ele>526.586914</ele>
        <time>2018-08-20T08:55:37Z</time>
      </trkpt>
      <trkpt lat="47.25546" lon="4.58931">
        <ele>526.615295</ele>
        <time>2018-08-20T08:55:38Z</time>
      </trkpt>
      <trkpt lat="47.25542" lon="4.58933">
        <ele>526.638</ele>
        <time>2018-08-20T08:55:39Z</time>
      </trkpt>
      <trkpt lat="47.25539" lon="4.58934">
        <ele>526.656311</ele>
        <time>2018-08-20T08:55:40Z</time>
      </trkpt>
      <trkpt lat="47.25536" lon="4.58936">
        <ele>526.658447</ele>
        <time>2018-08-20T08:55:41Z</time>
      </trkpt>
      <trkpt lat="47.25534" lon="4.58937">
        <ele>526.658447</ele>
        <time>2018-08-20T08:55:42Z</time>
      </trkpt>
      <trkpt lat="47.2553" lon="4.58938">
        <ele>526.658447</ele>
        <time>2018-08-20T08:55:43Z</time>
      </trkpt>
      <trkpt lat="47.25527" lon="4.58939">
        <ele>526.646423</ele>
        <time>2018-08-20T08:55:44Z</time>
      </trkpt>
      <trkpt lat="47.25524" lon="4.58941">
        <ele>526.622009</ele>
        <time>2018-08-20T08:55:45Z</time>
      </trkpt>
      <trkpt lat="47.2552" lon="4.58943">
        <ele>526.580994</ele>
        <time>2018-08-20T08:55:46Z</time>
      </trkpt>
      <trkpt lat="47.25517" lon="4.58944">
        <ele>526.528076</ele>
        <time>2018-08-20T08:55:47Z</time>
      </trkpt>
      <trkpt lat="47.25514" lon="4.58946">
        <ele>526.466187</ele>
        <time>2018-08-20T08:55:48Z</time>
      </trkpt>
      <trkpt lat="47.2551" lon="4.58948">
        <ele>526.406067</ele>
        <time>2018-08-20T08:55:49Z</time>
      </trkpt>
      <trkpt lat="47.25507" lon="4.5895">
        <ele>526.350769</ele>
        <time>2018-08-20T08:55:50Z</time>
      </trkpt>
      <trkpt lat="47.25504" lon="4.58952">
        <ele>526.303467</ele>
        <time>2018-08-20T08:55:51Z</time>
      </trkpt>
      <trkpt lat="47.25501" lon="4.58955">
        <ele>526.272522</ele>
        <time>2018-08-20T08:55:52Z</time>
      </trkpt>
      <trkpt lat="47.25498" lon="4.58959">
        <ele>526.263611</ele>
        <time>2018-08-20T08:55:53Z</time>
      </trkpt>
      <trkpt lat="47.25495" lon="4.58962">
        <ele>526.257813</ele>
        <time>2018-08-20T08:55:54Z</time>
      </trkpt>
      <trkpt lat="47.25493" lon="4.58966">
        <ele>526.251526</ele>
        <time>2018-08-20T08:55:55Z</time>
      </trkpt>
      <trkpt lat="47.25491" lon="4.58971">
        <ele>526.24054</ele>
        <time>2018-08-20T08:55:56Z</time>
      </trkpt>
      <trkpt lat="47.25489" lon="4.58976">
        <ele>526.231018</ele>
        <time>2018-08-20T08:55:57Z</time>
      </trkpt>
      <trkpt lat="47.25489" lon="4.58981">
        <ele>526.209412</ele>
        <time>2018-08-20T08:55:58Z</time>
      </trkpt>
      <trkpt lat="47.25488" lon="4.58986">
        <ele>526.209412</ele>
        <time>2018-08-20T08:55:59Z</time>
      </trkpt>
      <trkpt lat="47.25487" lon="4.58992">
        <ele>526.178284</ele>
        <time>2018-08-20T08:56:00Z</time>
      </trkpt>
      <trkpt lat="47.25486" lon="4.58997">
        <ele>526.162964</ele>
        <time>2018-08-20T08:56:01Z</time>
      </trkpt>
      <trkpt lat="47.25486" lon="4.59002">
        <ele>526.163208</ele>
        <time>2018-08-20T08:56:02Z</time>
      </trkpt>
      <trkpt lat="47.25485" lon="4.59008">
        <ele>526.168884</ele>
        <time>2018-08-20T08:56:03Z</time>
      </trkpt>
      <trkpt lat="47.25483" lon="4.59013">
        <ele>526.168884</ele>
        <time>2018-08-20T08:56:04Z</time>
      </trkpt>
      <trkpt lat="47.2548" lon="4.59019">
        <ele>526.165833</ele>
        <time>2018-08-20T08:56:05Z</time>
      </trkpt>
      <trkpt lat="47.25478" lon="4.59024">
        <ele>526.154175</ele>
        <time>2018-08-20T08:56:06Z</time>
      </trkpt>
      <trkpt lat="47.25476" lon="4.5903">
        <ele>526.153625</ele>
        <time>2018-08-20T08:56:07Z</time>
      </trkpt>
      <trkpt lat="47.25473" lon="4.59035">
        <ele>526.153625</ele>
        <time>2018-08-20T08:56:08Z</time>
      </trkpt>
      <trkpt lat="47.25472" lon="4.59041">
        <ele>526.153625</ele>
        <time>2018-08-20T08:56:09Z</time>
      </trkpt>
      <trkpt lat="47.2547" lon="4.59046">
        <ele>526.137512</ele>
        <time>2018-08-20T08:56:10Z</time>
      </trkpt>
      <trkpt lat="47.25467" lon="4.59051">
        <ele>526.086243</ele>
        <time>2018-08-20T08:56:11Z</time>
      </trkpt>
      <trkpt lat="47.25464" lon="4.59056">
        <ele>526.004395</ele>
        <time>2018-08-20T08:56:12Z</time>
      </trkpt>
      <trkpt lat="47.25462" lon="4.5906">
        <ele>525.893555</ele>
        <time>2018-08-20T08:56:13Z</time>
      </trkpt>
      <trkpt lat="47.25459" lon="4.59065">
        <ele>525.771484</ele>
        <time>2018-08-20T08:56:14Z</time>
      </trkpt>
      <trkpt lat="47.25457" lon="4.59069">
        <ele>525.644836</ele>
        <time>2018-08-20T08:56:15Z</time>
      </trkpt>
      <trkpt lat="47.25454" lon="4.59073">
        <ele>525.530212</ele>
        <time>2018-08-20T08:56:16Z</time>
      </trkpt>
      <trkpt lat="47.25451" lon="4.59078">
        <ele>525.421814</ele>
        <time>2018-08-20T08:56:17Z</time>
      </trkpt>
      <trkpt lat="47.25448" lon="4.59082">
        <ele>525.315491</ele>
        <time>2018-08-20T08:56:18Z</time>
      </trkpt>
      <trkpt lat="47.25446" lon="4.59087">
        <ele>525.214417</ele>
        <time>2018-08-20T08:56:19Z</time>
      </trkpt>
      <trkpt lat="47.25444" lon="4.59093">
        <ele>525.133789</ele>
        <time>2018-08-20T08:56:20Z</time>
      </trkpt>
      <trkpt lat="47.25441" lon="4.59098">
        <ele>525.088806</ele>
        <time>2018-08-20T08:56:21Z</time>
      </trkpt>
      <trkpt lat="47.25439" lon="4.59104">
        <ele>525.071533</ele>
        <time>2018-08-20T08:56:22Z</time>
      </trkpt>
      <trkpt lat="47.25437" lon="4.5911">
        <ele>525.071533</ele>
        <time>2018-08-20T08:56:23Z</time>
      </trkpt>
      <trkpt lat="47.25435" lon="4.59116">
        <ele>525.071533</ele>
        <time>2018-08-20T08:56:24Z</time>
      </trkpt>
      <trkpt lat="47.25433" lon="4.59121">
        <ele>525.083801</ele>
        <time>2018-08-20T08:56:25Z</time>
      </trkpt>
      <trkpt lat="47.25431" lon="4.59127">
        <ele>525.128174</ele>
        <time>2018-08-20T08:56:26Z</time>
      </trkpt>
      <trkpt lat="47.25428" lon="4.59132">
        <ele>525.209167</ele>
        <time>2018-08-20T08:56:27Z</time>
      </trkpt>
      <trkpt lat="47.25426" lon="4.59136">
        <ele>525.313049</ele>
        <time>2018-08-20T08:56:28Z</time>
      </trkpt>
      <trkpt lat="47.25423" lon="4.5914">
        <ele>525.42572</ele>
        <time>2018-08-20T08:56:29Z</time>
      </trkpt>
      <trkpt lat="47.25419" lon="4.59144">
        <ele>525.542908</ele>
        <time>2018-08-20T08:56:30Z</time>
      </trkpt>
      <trkpt lat="47.25415" lon="4.59148">
        <ele>525.628967</ele>
        <time>2018-08-20T08:56:31Z</time>
      </trkpt>
      <trkpt lat="47.25411" lon="4.59151">
        <ele>525.672852</ele>
        <time>2018-08-20T08:56:32Z</time>
      </trkpt>
      <trkpt lat="47.25407" lon="4.59155">
        <ele>525.673889</ele>
        <time>2018-08-20T08:56:33Z</time>
      </trkpt>
      <trkpt lat="47.25403" lon="4.59159">
        <ele>525.673889</ele>
        <time>2018-08-20T08:56:34Z</time>
      </trkpt>
      <trkpt lat="47.25399" lon="4.59162">
        <ele>525.673889</ele>
        <time>2018-08-20T08:56:35Z</time>
      </trkpt>
      <trkpt lat="47.25395" lon="4.59164">
        <ele>525.635742</ele>
        <time>2018-08-20T08:56:36Z</time>
      </trkpt>
      <trkpt lat="47.25391" lon="4.59166">
        <ele>525.56012</ele>
        <time>2018-08-20T08:56:37Z</time>
      </trkpt>
      <trkpt lat="47.25388" lon="4.59168">
        <ele>525.444397</ele>
        <time>2018-08-20T08:56:38Z</time>
      </trkpt>
      <trkpt lat="47.25383" lon="4.5917">
        <ele>525.318542</ele>
        <time>2018-08-20T08:56:39Z</time>
      </trkpt>
      <trkpt lat="47.2538" lon="4.59172">
        <ele>525.185242</ele>
        <time>2018-08-20T08:56:40Z</time>
      </trkpt>
      <trkpt lat="47.25375" lon="4.59173">
        <ele>525.045959</ele>
        <time>2018-08-20T08:56:41Z</time>
      </trkpt>
      <trkpt lat="47.25372" lon="4.59174">
        <ele>524.89502</ele>
        <time>2018-08-20T08:56:42Z</time>
      </trkpt>
      <trkpt lat="47.25367" lon="4.59174">
        <ele>524.734314</ele>
        <time>2018-08-20T08:56:43Z</time>
      </trkpt>
      <trkpt lat="47.25363" lon="4.59175">
        <ele>524.56665</ele>
        <time>2018-08-20T08:56:44Z</time>
      </trkpt>
      <trkpt lat="47.25359" lon="4.59176">
        <ele>524.39093</ele>
        <time>2018-08-20T08:56:45Z</time>
      </trkpt>
      <trkpt lat="47.25355" lon="4.59176">
        <ele>524.207031</ele>
        <time>2018-08-20T08:56:46Z</time>
      </trkpt>
      <trkpt lat="47.25351" lon="4.59176">
        <ele>524.014648</ele>
        <time>2018-08-20T08:56:47Z</time>
      </trkpt>
      <trkpt lat="47.25347" lon="4.59177">
        <ele>523.812805</ele>
        <time>2018-08-20T08:56:48Z</time>
      </trkpt>
      <trkpt lat="47.25344" lon="4.59177">
        <ele>523.554077</ele>
        <time>2018-08-20T08:56:49Z</time>
      </trkpt>
      <trkpt lat="47.25341" lon="4.59177">
        <ele>523.203735</ele>
        <time>2018-08-20T08:56:50Z</time>
      </trkpt>
      <trkpt lat="47.25339" lon="4.59177">
        <ele>522.786072</ele>
        <time>2018-08-20T08:56:51Z</time>
      </trkpt>
      <trkpt lat="47.25337" lon="4.59177">
        <ele>522.310974</ele>
        <time>2018-08-20T08:56:52Z</time>
      </trkpt>
      <trkpt lat="47.25335" lon="4.59177">
        <ele>521.790405</ele>
        <time>2018-08-20T08:56:53Z</time>
      </trkpt>
      <trkpt lat="47.25333" lon="4.59176">
        <ele>521.227356</ele>
        <time>2018-08-20T08:56:54Z</time>
      </trkpt>
      <trkpt lat="47.2533" lon="4.59176">
        <ele>520.670898</ele>
        <time>2018-08-20T08:56:55Z</time>
      </trkpt>
      <trkpt lat="47.25328" lon="4.59175">
        <ele>520.167297</ele>
        <time>2018-08-20T08:56:56Z</time>
      </trkpt>
      <trkpt lat="47.25325" lon="4.59173">
        <ele>519.698914</ele>
        <time>2018-08-20T08:56:57Z</time>
      </trkpt>
      <trkpt lat="47.25323" lon="4.59171">
        <ele>519.25061</ele>
        <time>2018-08-20T08:56:58Z</time>
      </trkpt>
      <trkpt lat="47.25322" lon="4.59167">
        <ele>518.794128</ele>
        <time>2018-08-20T08:56:59Z</time>
      </trkpt>
      <trkpt lat="47.2532" lon="4.59163">
        <ele>518.322205</ele>
        <time>2018-08-20T08:57:00Z</time>
      </trkpt>
      <trkpt lat="47.2532" lon="4.59158">
        <ele>517.822693</ele>
        <time>2018-08-20T08:57:01Z</time>
      </trkpt>
      <trkpt lat="47.25319" lon="4.59153">
        <ele>517.295715</ele>
        <time>2018-08-20T08:57:02Z</time>
      </trkpt>
      <trkpt lat="47.25319" lon="4.59148">
        <ele>516.740662</ele>
        <time>2018-08-20T08:57:03Z</time>
      </trkpt>
      <trkpt lat="47.25319" lon="4.59143">
        <ele>516.164795</ele>
        <time>2018-08-20T08:57:04Z</time>
      </trkpt>
      <trkpt lat="47.25319" lon="4.59138">
        <ele>515.595337</ele>
        <time>2018-08-20T08:57:05Z</time>
      </trkpt>
      <trkpt lat="47.25319" lon="4.59133">
        <ele>515.048523</ele>
        <time>2018-08-20T08:57:06Z</time>
      </trkpt>
      <trkpt lat="47.25319" lon="4.59127">
        <ele>515.048523</ele>
        <time>2018-08-20T08:57:07Z</time>
      </trkpt>
      <trkpt lat="47.25318" lon="4.59121">
        <ele>514.528992</ele>
        <time>2018-08-20T08:57:08Z</time>
      </trkpt>
      <trkpt lat="47.25319" lon="4.59116">
        <ele>514.029785</ele>
        <time>2018-08-20T08:57:09Z</time>
      </trkpt>
      <trkpt lat="47.25319" lon="4.59111">
        <ele>513.452881</ele>
        <time>2018-08-20T08:57:10Z</time>
      </trkpt>
      <trkpt lat="47.2532" lon="4.59105">
        <ele>512.880371</ele>
        <time>2018-08-20T08:57:11Z</time>
      </trkpt>
      <trkpt lat="47.2532" lon="4.59099">
        <ele>512.324524</ele>
        <time>2018-08-20T08:57:12Z</time>
      </trkpt>
      <trkpt lat="47.2532" lon="4.59093">
        <ele>511.781494</ele>
        <time>2018-08-20T08:57:13Z</time>
      </trkpt>
      <trkpt lat="47.2532" lon="4.59086">
        <ele>511.247406</ele>
        <time>2018-08-20T08:57:14Z</time>
      </trkpt>
      <trkpt lat="47.25321" lon="4.5908">
        <ele>510.714508</ele>
        <time>2018-08-20T08:57:15Z</time>
      </trkpt>
      <trkpt lat="47.25322" lon="4.59073">
        <ele>510.269623</ele>
        <time>2018-08-20T08:57:16Z</time>
      </trkpt>
      <trkpt lat="47.25322" lon="4.59066">
        <ele>509.823486</ele>
        <time>2018-08-20T08:57:17Z</time>
      </trkpt>
      <trkpt lat="47.25322" lon="4.5906">
        <ele>509.349762</ele>
        <time>2018-08-20T08:57:18Z</time>
      </trkpt>
      <trkpt lat="47.25323" lon="4.59054">
        <ele>508.833252</ele>
        <time>2018-08-20T08:57:19Z</time>
      </trkpt>
      <trkpt lat="47.25324" lon="4.59049">
        <ele>508.280182</ele>
        <time>2018-08-20T08:57:20Z</time>
      </trkpt>
      <trkpt lat="47.25324" lon="4.59044">
        <ele>507.709717</ele>
        <time>2018-08-20T08:57:21Z</time>
      </trkpt>
      <trkpt lat="47.25324" lon="4.5904">
        <ele>507.148682</ele>
        <time>2018-08-20T08:57:22Z</time>
      </trkpt>
      <trkpt lat="47.25325" lon="4.59035">
        <ele>506.609711</ele>
        <time>2018-08-20T08:57:23Z</time>
      </trkpt>
      <trkpt lat="47.25325" lon="4.59031">
        <ele>506.093903</ele>
        <time>2018-08-20T08:57:24Z</time>
      </trkpt>
      <trkpt lat="47.25326" lon="4.59027">
        <ele>505.607025</ele>
        <time>2018-08-20T08:57:25Z</time>
      </trkpt>
      <trkpt lat="47.25327" lon="4.59022">
        <ele>505.164215</ele>
        <time>2018-08-20T08:57:26Z</time>
      </trkpt>
      <trkpt lat="47.25328" lon="4.59018">
        <ele>504.765625</ele>
        <time>2018-08-20T08:57:27Z</time>
      </trkpt>
      <trkpt lat="47.2533" lon="4.59013">
        <ele>504.397949</ele>
        <time>2018-08-20T08:57:28Z</time>
      </trkpt>
      <trkpt lat="47.25332" lon="4.59008">
        <ele>504.052246</ele>
        <time>2018-08-20T08:57:29Z</time>
      </trkpt>
      <trkpt lat="47.25333" lon="4.59004">
        <ele>503.738281</ele>
        <time>2018-08-20T08:57:30Z</time>
      </trkpt>
      <trkpt lat="47.25335" lon="4.58999">
        <ele>503.461334</ele>
        <time>2018-08-20T08:57:31Z</time>
      </trkpt>
      <trkpt lat="47.25337" lon="4.58995">
        <ele>503.215179</ele>
        <time>2018-08-20T08:57:32Z</time>
      </trkpt>
      <trkpt lat="47.25339" lon="4.58991">
        <ele>502.998444</ele>
        <time>2018-08-20T08:57:33Z</time>
      </trkpt>
      <trkpt lat="47.2534" lon="4.58987">
        <ele>502.810638</ele>
        <time>2018-08-20T08:57:34Z</time>
      </trkpt>
      <trkpt lat="47.25342" lon="4.58983">
        <ele>502.667328</ele>
        <time>2018-08-20T08:57:35Z</time>
      </trkpt>
      <trkpt lat="47.25343" lon="4.58979">
        <ele>502.548248</ele>
        <time>2018-08-20T08:57:36Z</time>
      </trkpt>
      <trkpt lat="47.25344" lon="4.58974">
        <ele>502.440186</ele>
        <time>2018-08-20T08:57:37Z</time>
      </trkpt>
      <trkpt lat="47.25345" lon="4.5897">
        <ele>502.337006</ele>
        <time>2018-08-20T08:57:38Z</time>
      </trkpt>
      <trkpt lat="47.25345" lon="4.58966">
        <ele>502.213867</ele>
        <time>2018-08-20T08:57:39Z</time>
      </trkpt>
      <trkpt lat="47.25346" lon="4.58963">
        <ele>502.064301</ele>
        <time>2018-08-20T08:57:40Z</time>
      </trkpt>
      <trkpt lat="47.25346" lon="4.5896">
        <ele>501.870605</ele>
        <time>2018-08-20T08:57:41Z</time>
      </trkpt>
      <trkpt lat="47.25347" lon="4.58956">
        <ele>501.64859</ele>
        <time>2018-08-20T08:57:42Z</time>
      </trkpt>
      <trkpt lat="47.25349" lon="4.58953">
        <ele>501.406097</ele>
        <time>2018-08-20T08:57:43Z</time>
      </trkpt>
      <trkpt lat="47.25351" lon="4.58949">
        <ele>501.157074</ele>
        <time>2018-08-20T08:57:44Z</time>
      </trkpt>
      <trkpt lat="47.25354" lon="4.58946">
        <ele>500.929108</ele>
        <time>2018-08-20T08:57:45Z</time>
      </trkpt>
      <trkpt lat="47.25356" lon="4.58943">
        <ele>500.777252</ele>
        <time>2018-08-20T08:57:46Z</time>
      </trkpt>
      <trkpt lat="47.25359" lon="4.5894">
        <ele>500.718506</ele>
        <time>2018-08-20T08:57:47Z</time>
      </trkpt>
      <trkpt lat="47.25361" lon="4.58936">
        <ele>500.718506</ele>
        <time>2018-08-20T08:57:48Z</time>
      </trkpt>
      <trkpt lat="47.25364" lon="4.58933">
        <ele>500.718506</ele>
        <time>2018-08-20T08:57:49Z</time>
      </trkpt>
      <trkpt lat="47.25367" lon="4.5893">
        <ele>500.736481</ele>
        <time>2018-08-20T08:57:50Z</time>
      </trkpt>
      <trkpt lat="47.25369" lon="4.58927">
        <ele>500.825928</ele>
        <time>2018-08-20T08:57:51Z</time>
      </trkpt>
      <trkpt lat="47.25372" lon="4.58923">
        <ele>500.975433</ele>
        <time>2018-08-20T08:57:52Z</time>
      </trkpt>
      <trkpt lat="47.25374" lon="4.5892">
        <ele>501.177155</ele>
        <time>2018-08-20T08:57:53Z</time>
      </trkpt>
      <trkpt lat="47.25376" lon="4.58917">
        <ele>501.380463</ele>
        <time>2018-08-20T08:57:54Z</time>
      </trkpt>
      <trkpt lat="47.25378" lon="4.58915">
        <ele>501.564301</ele>
        <time>2018-08-20T08:57:55Z</time>
      </trkpt>
      <trkpt lat="47.2538" lon="4.58911">
        <ele>501.745758</ele>
        <time>2018-08-20T08:57:56Z</time>
      </trkpt>
      <trkpt lat="47.25382" lon="4.58908">
        <ele>501.929443</ele>
        <time>2018-08-20T08:57:57Z</time>
      </trkpt>
      <trkpt lat="47.25383" lon="4.58905">
        <ele>502.104004</ele>
        <time>2018-08-20T08:57:58Z</time>
      </trkpt>
      <trkpt lat="47.25385" lon="4.58902">
        <ele>502.247406</ele>
        <time>2018-08-20T08:57:59Z</time>
      </trkpt>
      <trkpt lat="47.25387" lon="4.58899">
        <ele>502.372467</ele>
        <time>2018-08-20T08:58:00Z</time>
      </trkpt>
      <trkpt lat="47.25389" lon="4.58896">
        <ele>502.372467</ele>
        <time>2018-08-20T08:58:01Z</time>
      </trkpt>
      <trkpt lat="47.25391" lon="4.58893">
        <ele>502.48941</ele>
        <time>2018-08-20T08:58:02Z</time>
      </trkpt>
      <trkpt lat="47.25392" lon="4.5889">
        <ele>502.590485</ele>
        <time>2018-08-20T08:58:03Z</time>
      </trkpt>
      <trkpt lat="47.25394" lon="4.58888">
        <ele>502.69223</ele>
        <time>2018-08-20T08:58:04Z</time>
      </trkpt>
      <trkpt lat="47.25397" lon="4.58887">
        <ele>502.776215</ele>
        <time>2018-08-20T08:58:05Z</time>
      </trkpt>
      <trkpt lat="47.25399" lon="4.58886">
        <ele>502.873291</ele>
        <time>2018-08-20T08:58:06Z</time>
      </trkpt>
      <trkpt lat="47.25401" lon="4.58885">
        <ele>502.985931</ele>
        <time>2018-08-20T08:58:07Z</time>
      </trkpt>
      <trkpt lat="47.25404" lon="4.58885">
        <ele>503.139893</ele>
        <time>2018-08-20T08:58:08Z</time>
      </trkpt>
      <trkpt lat="47.25406" lon="4.58885">
        <ele>503.33902</ele>
        <time>2018-08-20T08:58:09Z</time>
      </trkpt>
      <trkpt lat="47.25408" lon="4.58885">
        <ele>503.575439</ele>
        <time>2018-08-20T08:58:10Z</time>
      </trkpt>
      <trkpt lat="47.2541" lon="4.58884">
        <ele>503.887543</ele>
        <time>2018-08-20T08:58:11Z</time>
      </trkpt>
      <trkpt lat="47.25412" lon="4.58883">
        <ele>504.258301</ele>
        <time>2018-08-20T08:58:12Z</time>
      </trkpt>
      <trkpt lat="47.25415" lon="4.58882">
        <ele>504.651276</ele>
        <time>2018-08-20T08:58:13Z</time>
      </trkpt>
      <trkpt lat="47.25417" lon="4.58881">
        <ele>505.036133</ele>
        <time>2018-08-20T08:58:14Z</time>
      </trkpt>
      <trkpt lat="47.25419" lon="4.58881">
        <ele>505.397858</ele>
        <time>2018-08-20T08:58:15Z</time>
      </trkpt>
      <trkpt lat="47.25421" lon="4.5888">
        <ele>505.751373</ele>
        <time>2018-08-20T08:58:16Z</time>
      </trkpt>
      <trkpt lat="47.25423" lon="4.58879">
        <ele>506.079437</ele>
        <time>2018-08-20T08:58:17Z</time>
      </trkpt>
      <trkpt lat="47.25425" lon="4.58878">
        <ele>506.392426</ele>
        <time>2018-08-20T08:58:18Z</time>
      </trkpt>
      <trkpt lat="47.25427" lon="4.58875">
        <ele>506.710297</ele>
        <time>2018-08-20T08:58:19Z</time>
      </trkpt>
      <trkpt lat="47.25427" lon="4.58873">
        <ele>507.029541</ele>
        <time>2018-08-20T08:58:20Z</time>
      </trkpt>
      <trkpt lat="47.25427" lon="4.58871">
        <ele>507.318848</ele>
        <time>2018-08-20T08:58:21Z</time>
      </trkpt>
      <trkpt lat="47.25428" lon="4.58868">
        <ele>507.518646</ele>
        <time>2018-08-20T08:58:22Z</time>
      </trkpt>
      <trkpt lat="47.25428" lon="4.58866">
        <ele>507.635834</ele>
        <time>2018-08-20T08:58:23Z</time>
      </trkpt>
      <trkpt lat="47.25428" lon="4.58864">
        <ele>507.658447</ele>
        <time>2018-08-20T08:58:24Z</time>
      </trkpt>
      <trkpt lat="47.25429" lon="4.58862">
        <ele>507.658447</ele>
        <time>2018-08-20T08:58:25Z</time>
      </trkpt>
      <trkpt lat="47.25429" lon="4.5886">
        <ele>507.658447</ele>
        <time>2018-08-20T08:58:26Z</time>
      </trkpt>
      <trkpt lat="47.25429" lon="4.58859">
        <ele>507.60083</ele>
        <time>2018-08-20T08:58:27Z</time>
      </trkpt>
      <trkpt lat="47.25429" lon="4.58859">
        <ele>507.470795</ele>
        <time>2018-08-20T09:07:04Z</time>
      </trkpt>
      <trkpt lat="47.25428" lon="4.58875">
        <ele>507.585052</ele>
        <time>2018-08-20T09:07:06Z</time>
      </trkpt>
      <trkpt lat="47.25428" lon="4.58877">
        <ele>507.687256</ele>
        <time>2018-08-20T09:07:07Z</time>
      </trkpt>
      <trkpt lat="47.25426" lon="4.58879">
        <ele>507.817963</ele>
        <time>2018-08-20T09:07:08Z</time>
      </trkpt>
      <trkpt lat="47.25424" lon="4.58881">
        <ele>507.817963</ele>
        <time>2018-08-20T09:07:09Z</time>
      </trkpt>
      <trkpt lat="47.25423" lon="4.58882">
        <ele>507.947998</ele>
        <time>2018-08-20T09:07:10Z</time>
      </trkpt>
      <trkpt lat="47.25421" lon="4.58882">
        <ele>508.018646</ele>
        <time>2018-08-20T09:07:11Z</time>
      </trkpt>
      <trkpt lat="47.25418" lon="4.58883">
        <ele>508.018707</ele>
        <time>2018-08-20T09:07:12Z</time>
      </trkpt>
      <trkpt lat="47.25416" lon="4.58883">
        <ele>508.018707</ele>
        <time>2018-08-20T09:07:13Z</time>
      </trkpt>
      <trkpt lat="47.25414" lon="4.58882">
        <ele>508.018707</ele>
        <time>2018-08-20T09:07:14Z</time>
      </trkpt>
      <trkpt lat="47.25411" lon="4.58882">
        <ele>507.932526</ele>
        <time>2018-08-20T09:07:15Z</time>
      </trkpt>
      <trkpt lat="47.25409" lon="4.58883">
        <ele>507.748688</ele>
        <time>2018-08-20T09:07:16Z</time>
      </trkpt>
      <trkpt lat="47.25407" lon="4.58883">
        <ele>507.449707</ele>
        <time>2018-08-20T09:07:17Z</time>
      </trkpt>
      <trkpt lat="47.25405" lon="4.58883">
        <ele>507.067139</ele>
        <time>2018-08-20T09:07:18Z</time>
      </trkpt>
      <trkpt lat="47.25403" lon="4.58883">
        <ele>506.661774</ele>
        <time>2018-08-20T09:07:19Z</time>
      </trkpt>
      <trkpt lat="47.25401" lon="4.58882">
        <ele>506.239105</ele>
        <time>2018-08-20T09:07:20Z</time>
      </trkpt>
      <trkpt lat="47.25399" lon="4.58881">
        <ele>505.822754</ele>
        <time>2018-08-20T09:07:21Z</time>
      </trkpt>
      <trkpt lat="47.25397" lon="4.5888">
        <ele>505.407379</ele>
        <time>2018-08-20T09:07:22Z</time>
      </trkpt>
      <trkpt lat="47.25395" lon="4.58879">
        <ele>504.999359</ele>
        <time>2018-08-20T09:07:23Z</time>
      </trkpt>
      <trkpt lat="47.25394" lon="4.58876">
        <ele>504.585846</ele>
        <time>2018-08-20T09:07:24Z</time>
      </trkpt>
      <trkpt lat="47.25394" lon="4.58874">
        <ele>504.154388</ele>
        <time>2018-08-20T09:07:25Z</time>
      </trkpt>
      <trkpt lat="47.25394" lon="4.58871">
        <ele>503.709869</ele>
        <time>2018-08-20T09:07:26Z</time>
      </trkpt>
      <trkpt lat="47.25395" lon="4.58869">
        <ele>503.24765</ele>
        <time>2018-08-20T09:07:27Z</time>
      </trkpt>
      <trkpt lat="47.25396" lon="4.58867">
        <ele>502.812836</ele>
        <time>2018-08-20T09:07:28Z</time>
      </trkpt>
      <trkpt lat="47.25396" lon="4.58865">
        <ele>502.426422</ele>
        <time>2018-08-20T09:07:29Z</time>
      </trkpt>
      <trkpt lat="47.25398" lon="4.58862">
        <ele>502.0961</ele>
        <time>2018-08-20T09:07:30Z</time>
      </trkpt>
      <trkpt lat="47.25398" lon="4.5886">
        <ele>501.835205</ele>
        <time>2018-08-20T09:07:31Z</time>
      </trkpt>
      <trkpt lat="47.25399" lon="4.58858">
        <ele>501.639801</ele>
        <time>2018-08-20T09:07:32Z</time>
      </trkpt>
      <trkpt lat="47.254" lon="4.58856">
        <ele>501.510895</ele>
        <time>2018-08-20T09:07:33Z</time>
      </trkpt>
      <trkpt lat="47.25401" lon="4.58854">
        <ele>501.418457</ele>
        <time>2018-08-20T09:07:34Z</time>
      </trkpt>
      <trkpt lat="47.25401" lon="4.58852">
        <ele>501.339447</ele>
        <time>2018-08-20T09:07:35Z</time>
      </trkpt>
      <trkpt lat="47.25402" lon="4.5885">
        <ele>501.270355</ele>
        <time>2018-08-20T09:07:36Z</time>
      </trkpt>
      <trkpt lat="47.25403" lon="4.58848">
        <ele>501.21225</ele>
        <time>2018-08-20T09:07:37Z</time>
      </trkpt>
      <trkpt lat="47.25404" lon="4.58846">
        <ele>501.159821</ele>
        <time>2018-08-20T09:07:38Z</time>
      </trkpt>
      <trkpt lat="47.25405" lon="4.58845">
        <ele>501.111084</ele>
        <time>2018-08-20T09:07:39Z</time>
      </trkpt>
      <trkpt lat="47.25406" lon="4.58844">
        <ele>501.056396</ele>
        <time>2018-08-20T09:07:40Z</time>
      </trkpt>
      <trkpt lat="47.25406" lon="4.58843">
        <ele>501.020599</ele>
        <time>2018-08-20T09:07:41Z</time>
      </trkpt>
      <trkpt lat="47.25406" lon="4.58843">
        <ele>501.005615</ele>
        <time>2018-08-20T09:20:03Z</time>
      </trkpt>
      <trkpt lat="47.25401" lon="4.58858">
        <ele>501.133148</ele>
        <time>2018-08-20T09:20:05Z</time>
      </trkpt>
      <trkpt lat="47.254" lon="4.58861">
        <ele>501.194672</ele>
        <time>2018-08-20T09:20:06Z</time>
      </trkpt>
      <trkpt lat="47.25398" lon="4.58864">
        <ele>501.273773</ele>
        <time>2018-08-20T09:20:07Z</time>
      </trkpt>
      <trkpt lat="47.25398" lon="4.58868">
        <ele>501.353424</ele>
        <time>2018-08-20T09:20:08Z</time>
      </trkpt>
      <trkpt lat="47.25396" lon="4.58871">
        <ele>501.426422</ele>
        <time>2018-08-20T09:20:09Z</time>
      </trkpt>
      <trkpt lat="47.25395" lon="4.58875">
        <ele>501.502533</ele>
        <time>2018-08-20T09:20:10Z</time>
      </trkpt>
      <trkpt lat="47.25394" lon="4.58878">
        <ele>501.603607</ele>
        <time>2018-08-20T09:20:11Z</time>
      </trkpt>
      <trkpt lat="47.25393" lon="4.58882">
        <ele>501.702881</ele>
        <time>2018-08-20T09:20:12Z</time>
      </trkpt>
      <trkpt lat="47.25392" lon="4.58886">
        <ele>501.807373</ele>
        <time>2018-08-20T09:20:13Z</time>
      </trkpt>
      <trkpt lat="47.25391" lon="4.58889">
        <ele>501.94165</ele>
        <time>2018-08-20T09:20:14Z</time>
      </trkpt>
      <trkpt lat="47.25389" lon="4.58892">
        <ele>501.94165</ele>
        <time>2018-08-20T09:20:15Z</time>
      </trkpt>
      <trkpt lat="47.25388" lon="4.58895">
        <ele>502.099365</ele>
        <time>2018-08-20T09:20:16Z</time>
      </trkpt>
      <trkpt lat="47.25385" lon="4.58899">
        <ele>502.255127</ele>
        <time>2018-08-20T09:20:17Z</time>
      </trkpt>
      <trkpt lat="47.25383" lon="4.58902">
        <ele>502.367676</ele>
        <time>2018-08-20T09:20:18Z</time>
      </trkpt>
      <trkpt lat="47.25382" lon="4.58907">
        <ele>502.448242</ele>
        <time>2018-08-20T09:20:19Z</time>
      </trkpt>
      <trkpt lat="47.25381" lon="4.58911">
        <ele>502.524261</ele>
        <time>2018-08-20T09:20:20Z</time>
      </trkpt>
      <trkpt lat="47.2538" lon="4.58915">
        <ele>502.580566</ele>
        <time>2018-08-20T09:20:21Z</time>
      </trkpt>
      <trkpt lat="47.25378" lon="4.58919">
        <ele>502.61142</ele>
        <time>2018-08-20T09:20:22Z</time>
      </trkpt>
      <trkpt lat="47.25376" lon="4.58922">
        <ele>502.657959</ele>
        <time>2018-08-20T09:20:23Z</time>
      </trkpt>
      <trkpt lat="47.25374" lon="4.58925">
        <ele>502.706543</ele>
        <time>2018-08-20T09:20:24Z</time>
      </trkpt>
      <trkpt lat="47.25372" lon="4.58929">
        <ele>502.713623</ele>
        <time>2018-08-20T09:20:25Z</time>
      </trkpt>
      <trkpt lat="47.25369" lon="4.58933">
        <ele>502.695465</ele>
        <time>2018-08-20T09:20:26Z</time>
      </trkpt>
      <trkpt lat="47.25367" lon="4.58936">
        <ele>502.680328</ele>
        <time>2018-08-20T09:20:27Z</time>
      </trkpt>
      <trkpt lat="47.25364" lon="4.5894">
        <ele>502.675873</ele>
        <time>2018-08-20T09:20:28Z</time>
      </trkpt>
      <trkpt lat="47.25361" lon="4.58943">
        <ele>502.663086</ele>
        <time>2018-08-20T09:20:29Z</time>
      </trkpt>
      <trkpt lat="47.25358" lon="4.58946">
        <ele>502.601166</ele>
        <time>2018-08-20T09:20:30Z</time>
      </trkpt>
      <trkpt lat="47.25356" lon="4.5895">
        <ele>502.463531</ele>
        <time>2018-08-20T09:20:31Z</time>
      </trkpt>
      <trkpt lat="47.25353" lon="4.58953">
        <ele>502.274567</ele>
        <time>2018-08-20T09:20:32Z</time>
      </trkpt>
      <trkpt lat="47.25351" lon="4.58958">
        <ele>502.072754</ele>
        <time>2018-08-20T09:20:33Z</time>
      </trkpt>
      <trkpt lat="47.25349" lon="4.58963">
        <ele>501.868988</ele>
        <time>2018-08-20T09:20:34Z</time>
      </trkpt>
      <trkpt lat="47.25348" lon="4.58967">
        <ele>501.705902</ele>
        <time>2018-08-20T09:20:35Z</time>
      </trkpt>
      <trkpt lat="47.25348" lon="4.58971">
        <ele>501.60791</ele>
        <time>2018-08-20T09:20:36Z</time>
      </trkpt>
      <trkpt lat="47.25346" lon="4.58975">
        <ele>501.597504</ele>
        <time>2018-08-20T09:20:37Z</time>
      </trkpt>
      <trkpt lat="47.25346" lon="4.5898">
        <ele>501.597504</ele>
        <time>2018-08-20T09:20:38Z</time>
      </trkpt>
      <trkpt lat="47.25344" lon="4.58984">
        <ele>501.597504</ele>
        <time>2018-08-20T09:20:39Z</time>
      </trkpt>
      <trkpt lat="47.25343" lon="4.58988">
        <ele>501.681549</ele>
        <time>2018-08-20T09:20:40Z</time>
      </trkpt>
      <trkpt lat="47.25341" lon="4.58992">
        <ele>501.837311</ele>
        <time>2018-08-20T09:20:41Z</time>
      </trkpt>
      <trkpt lat="47.25339" lon="4.58997">
        <ele>502.041901</ele>
        <time>2018-08-20T09:20:42Z</time>
      </trkpt>
      <trkpt lat="47.25337" lon="4.59001">
        <ele>502.257172</ele>
        <time>2018-08-20T09:20:43Z</time>
      </trkpt>
      <trkpt lat="47.25335" lon="4.59005">
        <ele>502.462311</ele>
        <time>2018-08-20T09:20:44Z</time>
      </trkpt>
      <trkpt lat="47.25333" lon="4.59009">
        <ele>502.630463</ele>
        <time>2018-08-20T09:20:45Z</time>
      </trkpt>
      <trkpt lat="47.25333" lon="4.59013">
        <ele>502.757813</ele>
        <time>2018-08-20T09:20:46Z</time>
      </trkpt>
      <trkpt lat="47.25332" lon="4.59018">
        <ele>502.856934</ele>
        <time>2018-08-20T09:20:47Z</time>
      </trkpt>
      <trkpt lat="47.2533" lon="4.59022">
        <ele>502.947357</ele>
        <time>2018-08-20T09:20:48Z</time>
      </trkpt>
      <trkpt lat="47.25329" lon="4.59027">
        <ele>503.056488</ele>
        <time>2018-08-20T09:20:49Z</time>
      </trkpt>
      <trkpt lat="47.25328" lon="4.59031">
        <ele>503.184235</ele>
        <time>2018-08-20T09:20:50Z</time>
      </trkpt>
      <trkpt lat="47.25327" lon="4.59035">
        <ele>503.349457</ele>
        <time>2018-08-20T09:20:51Z</time>
      </trkpt>
      <trkpt lat="47.25325" lon="4.59038">
        <ele>503.55014</ele>
        <time>2018-08-20T09:20:52Z</time>
      </trkpt>
      <trkpt lat="47.25323" lon="4.5904">
        <ele>503.765625</ele>
        <time>2018-08-20T09:20:53Z</time>
      </trkpt>
      <trkpt lat="47.25321" lon="4.59043">
        <ele>503.972809</ele>
        <time>2018-08-20T09:20:54Z</time>
      </trkpt>
      <trkpt lat="47.25319" lon="4.59045">
        <ele>504.114105</ele>
        <time>2018-08-20T09:20:55Z</time>
      </trkpt>
      <trkpt lat="47.25317" lon="4.59047">
        <ele>504.191498</ele>
        <time>2018-08-20T09:20:56Z</time>
      </trkpt>
      <trkpt lat="47.25316" lon="4.59049">
        <ele>504.209473</ele>
        <time>2018-08-20T09:20:57Z</time>
      </trkpt>
      <trkpt lat="47.25314" lon="4.59051">
        <ele>504.209473</ele>
        <time>2018-08-20T09:20:58Z</time>
      </trkpt>
      <trkpt lat="47.25312" lon="4.59052">
        <ele>504.209473</ele>
        <time>2018-08-20T09:20:59Z</time>
      </trkpt>
      <trkpt lat="47.2531" lon="4.59054">
        <ele>504.162109</ele>
        <time>2018-08-20T09:21:00Z</time>
      </trkpt>
      <trkpt lat="47.25308" lon="4.59056">
        <ele>504.056732</ele>
        <time>2018-08-20T09:21:01Z</time>
      </trkpt>
      <trkpt lat="47.25306" lon="4.59059">
        <ele>503.910797</ele>
        <time>2018-08-20T09:21:02Z</time>
      </trkpt>
      <trkpt lat="47.25304" lon="4.59061">
        <ele>503.758789</ele>
        <time>2018-08-20T09:21:03Z</time>
      </trkpt>
      <trkpt lat="47.25302" lon="4.59063">
        <ele>503.596191</ele>
        <time>2018-08-20T09:21:04Z</time>
      </trkpt>
      <trkpt lat="47.25299" lon="4.59065">
        <ele>503.420563</ele>
        <time>2018-08-20T09:21:05Z</time>
      </trkpt>
      <trkpt lat="47.25297" lon="4.59067">
        <ele>503.245758</ele>
        <time>2018-08-20T09:21:06Z</time>
      </trkpt>
      <trkpt lat="47.25295" lon="4.59069">
        <ele>503.066071</ele>
        <time>2018-08-20T09:21:07Z</time>
      </trkpt>
      <trkpt lat="47.25292" lon="4.59071">
        <ele>502.87851</ele>
        <time>2018-08-20T09:21:08Z</time>
      </trkpt>
      <trkpt lat="47.2529" lon="4.59073">
        <ele>502.681305</ele>
        <time>2018-08-20T09:21:09Z</time>
      </trkpt>
      <trkpt lat="47.25287" lon="4.59075">
        <ele>502.477051</ele>
        <time>2018-08-20T09:21:10Z</time>
      </trkpt>
      <trkpt lat="47.25285" lon="4.59076">
        <ele>502.257324</ele>
        <time>2018-08-20T09:21:11Z</time>
      </trkpt>
      <trkpt lat="47.25282" lon="4.59078">
        <ele>502.011963</ele>
        <time>2018-08-20T09:21:12Z</time>
      </trkpt>
      <trkpt lat="47.2528" lon="4.59079">
        <ele>501.748047</ele>
        <time>2018-08-20T09:21:13Z</time>
      </trkpt>
      <trkpt lat="47.25277" lon="4.59081">
        <ele>501.464111</ele>
        <time>2018-08-20T09:21:14Z</time>
      </trkpt>
      <trkpt lat="47.25274" lon="4.59084">
        <ele>501.152954</ele>
        <time>2018-08-20T09:21:15Z</time>
      </trkpt>
      <trkpt lat="47.25272" lon="4.59086">
        <ele>500.818237</ele>
        <time>2018-08-20T09:21:16Z</time>
      </trkpt>
      <trkpt lat="47.25269" lon="4.59088">
        <ele>500.818237</ele>
        <time>2018-08-20T09:21:17Z</time>
      </trkpt>
      <trkpt lat="47.25266" lon="4.59091">
        <ele>500.462067</ele>
        <time>2018-08-20T09:21:18Z</time>
      </trkpt>
      <trkpt lat="47.25263" lon="4.59094">
        <ele>500.097168</ele>
        <time>2018-08-20T09:21:19Z</time>
      </trkpt>
      <trkpt lat="47.25261" lon="4.59098">
        <ele>499.671539</ele>
        <time>2018-08-20T09:21:20Z</time>
      </trkpt>
      <trkpt lat="47.25258" lon="4.59103">
        <ele>499.243408</ele>
        <time>2018-08-20T09:21:21Z</time>
      </trkpt>
      <trkpt lat="47.25255" lon="4.59108">
        <ele>498.816315</ele>
        <time>2018-08-20T09:21:22Z</time>
      </trkpt>
      <trkpt lat="47.25251" lon="4.59114">
        <ele>498.414459</ele>
        <time>2018-08-20T09:21:23Z</time>
      </trkpt>
      <trkpt lat="47.25249" lon="4.59118">
        <ele>498.041168</ele>
        <time>2018-08-20T09:21:24Z</time>
      </trkpt>
      <trkpt lat="47.25246" lon="4.59122">
        <ele>497.71167</ele>
        <time>2018-08-20T09:21:25Z</time>
      </trkpt>
      <trkpt lat="47.25243" lon="4.59126">
        <ele>497.481201</ele>
        <time>2018-08-20T09:21:26Z</time>
      </trkpt>
      <trkpt lat="47.25241" lon="4.5913">
        <ele>497.283661</ele>
        <time>2018-08-20T09:21:27Z</time>
      </trkpt>
      <trkpt lat="47.25238" lon="4.59134">
        <ele>497.118988</ele>
        <time>2018-08-20T09:21:28Z</time>
      </trkpt>
      <trkpt lat="47.25236" lon="4.59137">
        <ele>496.959503</ele>
        <time>2018-08-20T09:21:29Z</time>
      </trkpt>
      <trkpt lat="47.25234" lon="4.59141">
        <ele>496.812531</ele>
        <time>2018-08-20T09:21:30Z</time>
      </trkpt>
      <trkpt lat="47.25232" lon="4.59145">
        <ele>496.661011</ele>
        <time>2018-08-20T09:21:31Z</time>
      </trkpt>
      <trkpt lat="47.2523" lon="4.59149">
        <ele>496.500732</ele>
        <time>2018-08-20T09:21:32Z</time>
      </trkpt>
      <trkpt lat="47.25228" lon="4.59153">
        <ele>496.35672</ele>
        <time>2018-08-20T09:21:33Z</time>
      </trkpt>
      <trkpt lat="47.25225" lon="4.59156">
        <ele>496.242401</ele>
        <time>2018-08-20T09:21:34Z</time>
      </trkpt>
      <trkpt lat="47.25223" lon="4.59159">
        <ele>496.140594</ele>
        <time>2018-08-20T09:21:35Z</time>
      </trkpt>
      <trkpt lat="47.25221" lon="4.59162">
        <ele>496.048676</ele>
        <time>2018-08-20T09:21:36Z</time>
      </trkpt>
      <trkpt lat="47.25219" lon="4.59165">
        <ele>495.973175</ele>
        <time>2018-08-20T09:21:37Z</time>
      </trkpt>
      <trkpt lat="47.25217" lon="4.59169">
        <ele>495.89151</ele>
        <time>2018-08-20T09:21:38Z</time>
      </trkpt>
      <trkpt lat="47.25216" lon="4.59171">
        <ele>495.794281</ele>
        <time>2018-08-20T09:21:39Z</time>
      </trkpt>
      <trkpt lat="47.25214" lon="4.59174">
        <ele>495.685394</ele>
        <time>2018-08-20T09:21:40Z</time>
      </trkpt>
      <trkpt lat="47.25213" lon="4.59177">
        <ele>495.593719</ele>
        <time>2018-08-20T09:21:41Z</time>
      </trkpt>
      <trkpt lat="47.25211" lon="4.59181">
        <ele>495.514618</ele>
        <time>2018-08-20T09:21:42Z</time>
      </trkpt>
      <trkpt lat="47.25208" lon="4.59184">
        <ele>495.436798</ele>
        <time>2018-08-20T09:21:43Z</time>
      </trkpt>
      <trkpt lat="47.25206" lon="4.59187">
        <ele>495.387939</ele>
        <time>2018-08-20T09:21:44Z</time>
      </trkpt>
      <trkpt lat="47.25203" lon="4.59191">
        <ele>495.364258</ele>
        <time>2018-08-20T09:21:45Z</time>
      </trkpt>
      <trkpt lat="47.25201" lon="4.59194">
        <ele>495.337738</ele>
        <time>2018-08-20T09:21:46Z</time>
      </trkpt>
      <trkpt lat="47.25199" lon="4.59197">
        <ele>495.301422</ele>
        <time>2018-08-20T09:21:47Z</time>
      </trkpt>
      <trkpt lat="47.25196" lon="4.592">
        <ele>495.248932</ele>
        <time>2018-08-20T09:21:48Z</time>
      </trkpt>
      <trkpt lat="47.25195" lon="4.59204">
        <ele>495.169922</ele>
        <time>2018-08-20T09:21:49Z</time>
      </trkpt>
      <trkpt lat="47.25193" lon="4.59208">
        <ele>495.082275</ele>
        <time>2018-08-20T09:21:50Z</time>
      </trkpt>
      <trkpt lat="47.25191" lon="4.59212">
        <ele>495.002045</ele>
        <time>2018-08-20T09:21:51Z</time>
      </trkpt>
      <trkpt lat="47.25189" lon="4.59216">
        <ele>494.944489</ele>
        <time>2018-08-20T09:21:52Z</time>
      </trkpt>
      <trkpt lat="47.25186" lon="4.5922">
        <ele>494.898773</ele>
        <time>2018-08-20T09:21:53Z</time>
      </trkpt>
      <trkpt lat="47.25184" lon="4.59223">
        <ele>494.873291</ele>
        <time>2018-08-20T09:21:54Z</time>
      </trkpt>
      <trkpt lat="47.25182" lon="4.59227">
        <ele>494.862305</ele>
        <time>2018-08-20T09:21:55Z</time>
      </trkpt>
      <trkpt lat="47.2518" lon="4.5923">
        <ele>494.853516</ele>
        <time>2018-08-20T09:21:56Z</time>
      </trkpt>
      <trkpt lat="47.25179" lon="4.59234">
        <ele>494.848785</ele>
        <time>2018-08-20T09:21:57Z</time>
      </trkpt>
      <trkpt lat="47.25177" lon="4.59237">
        <ele>494.858154</ele>
        <time>2018-08-20T09:21:58Z</time>
      </trkpt>
      <trkpt lat="47.25175" lon="4.5924">
        <ele>494.869629</ele>
        <time>2018-08-20T09:21:59Z</time>
      </trkpt>
      <trkpt lat="47.25173" lon="4.59243">
        <ele>494.888336</ele>
        <time>2018-08-20T09:22:00Z</time>
      </trkpt>
      <trkpt lat="47.25171" lon="4.59246">
        <ele>494.920013</ele>
        <time>2018-08-20T09:22:01Z</time>
      </trkpt>
      <trkpt lat="47.25169" lon="4.59249">
        <ele>494.96524</ele>
        <time>2018-08-20T09:22:02Z</time>
      </trkpt>
      <trkpt lat="47.25167" lon="4.59252">
        <ele>495.022614</ele>
        <time>2018-08-20T09:22:03Z</time>
      </trkpt>
      <trkpt lat="47.25164" lon="4.59255">
        <ele>495.076996</ele>
        <time>2018-08-20T09:22:04Z</time>
      </trkpt>
      <trkpt lat="47.25163" lon="4.59259">
        <ele>495.140472</ele>
        <time>2018-08-20T09:22:05Z</time>
      </trkpt>
      <trkpt lat="47.25161" lon="4.59262">
        <ele>495.191315</ele>
        <time>2018-08-20T09:22:06Z</time>
      </trkpt>
      <trkpt lat="47.25159" lon="4.59266">
        <ele>495.231445</ele>
        <time>2018-08-20T09:22:07Z</time>
      </trkpt>
      <trkpt lat="47.25157" lon="4.59269">
        <ele>495.263092</ele>
        <time>2018-08-20T09:22:08Z</time>
      </trkpt>
      <trkpt lat="47.25155" lon="4.59271">
        <ele>495.301361</ele>
        <time>2018-08-20T09:22:09Z</time>
      </trkpt>
      <trkpt lat="47.25153" lon="4.59275">
        <ele>495.35083</ele>
        <time>2018-08-20T09:22:10Z</time>
      </trkpt>
      <trkpt lat="47.25151" lon="4.59278">
        <ele>495.414551</ele>
        <time>2018-08-20T09:22:11Z</time>
      </trkpt>
      <trkpt lat="47.2515" lon="4.59281">
        <ele>495.478516</ele>
        <time>2018-08-20T09:22:12Z</time>
      </trkpt>
      <trkpt lat="47.25148" lon="4.59285">
        <ele>495.544037</ele>
        <time>2018-08-20T09:22:13Z</time>
      </trkpt>
      <trkpt lat="47.25147" lon="4.59288">
        <ele>495.609955</ele>
        <time>2018-08-20T09:22:14Z</time>
      </trkpt>
      <trkpt lat="47.25145" lon="4.59291">
        <ele>495.682892</ele>
        <time>2018-08-20T09:22:15Z</time>
      </trkpt>
      <trkpt lat="47.25143" lon="4.59294">
        <ele>495.763916</ele>
        <time>2018-08-20T09:22:16Z</time>
      </trkpt>
      <trkpt lat="47.25142" lon="4.59298">
        <ele>495.850494</ele>
        <time>2018-08-20T09:22:17Z</time>
      </trkpt>
      <trkpt lat="47.2514" lon="4.59301">
        <ele>495.944214</ele>
        <time>2018-08-20T09:22:18Z</time>
      </trkpt>
      <trkpt lat="47.25138" lon="4.59304">
        <ele>496.045868</ele>
        <time>2018-08-20T09:22:19Z</time>
      </trkpt>
      <trkpt lat="47.25136" lon="4.59307">
        <ele>496.154144</ele>
        <time>2018-08-20T09:22:20Z</time>
      </trkpt>
      <trkpt lat="47.25134" lon="4.5931">
        <ele>496.257172</ele>
        <time>2018-08-20T09:22:21Z</time>
      </trkpt>
      <trkpt lat="47.25134" lon="4.59313">
        <ele>496.342194</ele>
        <time>2018-08-20T09:22:22Z</time>
      </trkpt>
      <trkpt lat="47.25132" lon="4.59315">
        <ele>496.342194</ele>
        <time>2018-08-20T09:22:23Z</time>
      </trkpt>
      <trkpt lat="47.25131" lon="4.59317">
        <ele>496.406403</ele>
        <time>2018-08-20T09:22:24Z</time>
      </trkpt>
      <trkpt lat="47.2513" lon="4.59319">
        <ele>496.465973</ele>
        <time>2018-08-20T09:22:25Z</time>
      </trkpt>
      <trkpt lat="47.25129" lon="4.59321">
        <ele>496.522797</ele>
        <time>2018-08-20T09:22:26Z</time>
      </trkpt>
      <trkpt lat="47.25127" lon="4.59323">
        <ele>496.567841</ele>
        <time>2018-08-20T09:22:27Z</time>
      </trkpt>
      <trkpt lat="47.25126" lon="4.59326">
        <ele>496.594574</ele>
        <time>2018-08-20T09:22:28Z</time>
      </trkpt>
      <trkpt lat="47.25125" lon="4.59329">
        <ele>496.63443</ele>
        <time>2018-08-20T09:22:29Z</time>
      </trkpt>
      <trkpt lat="47.25124" lon="4.59331">
        <ele>496.68042</ele>
        <time>2018-08-20T09:22:30Z</time>
      </trkpt>
      <trkpt lat="47.25123" lon="4.59333">
        <ele>496.731903</ele>
        <time>2018-08-20T09:22:31Z</time>
      </trkpt>
      <trkpt lat="47.25122" lon="4.59336">
        <ele>496.782745</ele>
        <time>2018-08-20T09:22:32Z</time>
      </trkpt>
      <trkpt lat="47.25121" lon="4.59338">
        <ele>496.833099</ele>
        <time>2018-08-20T09:22:33Z</time>
      </trkpt>
      <trkpt lat="47.2512" lon="4.5934">
        <ele>496.893219</ele>
        <time>2018-08-20T09:22:34Z</time>
      </trkpt>
      <trkpt lat="47.25119" lon="4.59342">
        <ele>496.956787</ele>
        <time>2018-08-20T09:22:35Z</time>
      </trkpt>
      <trkpt lat="47.25118" lon="4.59345">
        <ele>497.031281</ele>
        <time>2018-08-20T09:22:36Z</time>
      </trkpt>
      <trkpt lat="47.25118" lon="4.59347">
        <ele>497.101166</ele>
        <time>2018-08-20T09:22:37Z</time>
      </trkpt>
      <trkpt lat="47.25118" lon="4.59349">
        <ele>497.172272</ele>
        <time>2018-08-20T09:22:38Z</time>
      </trkpt>
      <trkpt lat="47.25117" lon="4.59351">
        <ele>497.26358</ele>
        <time>2018-08-20T09:22:39Z</time>
      </trkpt>
      <trkpt lat="47.25116" lon="4.59353">
        <ele>497.378174</ele>
        <time>2018-08-20T09:22:40Z</time>
      </trkpt>
      <trkpt lat="47.25115" lon="4.59355">
        <ele>497.498871</ele>
        <time>2018-08-20T09:22:41Z</time>
      </trkpt>
      <trkpt lat="47.25114" lon="4.59358">
        <ele>497.615814</ele>
        <time>2018-08-20T09:22:42Z</time>
      </trkpt>
      <trkpt lat="47.25112" lon="4.59361">
        <ele>497.728424</ele>
        <time>2018-08-20T09:22:43Z</time>
      </trkpt>
      <trkpt lat="47.25111" lon="4.59364">
        <ele>497.835846</ele>
        <time>2018-08-20T09:22:44Z</time>
      </trkpt>
      <trkpt lat="47.2511" lon="4.59368">
        <ele>497.919525</ele>
        <time>2018-08-20T09:22:45Z</time>
      </trkpt>
      <trkpt lat="47.25108" lon="4.59371">
        <ele>497.977875</ele>
        <time>2018-08-20T09:22:46Z</time>
      </trkpt>
      <trkpt lat="47.25107" lon="4.59374">
        <ele>498.030762</ele>
        <time>2018-08-20T09:22:47Z</time>
      </trkpt>
      <trkpt lat="47.25105" lon="4.59377">
        <ele>498.09729</ele>
        <time>2018-08-20T09:22:48Z</time>
      </trkpt>
      <trkpt lat="47.25104" lon="4.5938">
        <ele>498.168701</ele>
        <time>2018-08-20T09:22:49Z</time>
      </trkpt>
      <trkpt lat="47.25103" lon="4.59384">
        <ele>498.235352</ele>
        <time>2018-08-20T09:22:50Z</time>
      </trkpt>
      <trkpt lat="47.25102" lon="4.59388">
        <ele>498.300293</ele>
        <time>2018-08-20T09:22:51Z</time>
      </trkpt>
      <trkpt lat="47.251" lon="4.59393">
        <ele>498.361969</ele>
        <time>2018-08-20T09:22:52Z</time>
      </trkpt>
      <trkpt lat="47.25098" lon="4.59397">
        <ele>498.409424</ele>
        <time>2018-08-20T09:22:53Z</time>
      </trkpt>
      <trkpt lat="47.25097" lon="4.59402">
        <ele>498.452057</ele>
        <time>2018-08-20T09:22:54Z</time>
      </trkpt>
      <trkpt lat="47.25095" lon="4.59407">
        <ele>498.508575</ele>
        <time>2018-08-20T09:22:55Z</time>
      </trkpt>
      <trkpt lat="47.25094" lon="4.59411">
        <ele>498.589386</ele>
        <time>2018-08-20T09:22:56Z</time>
      </trkpt>
      <trkpt lat="47.25093" lon="4.59416">
        <ele>498.689362</ele>
        <time>2018-08-20T09:22:57Z</time>
      </trkpt>
      <trkpt lat="47.25091" lon="4.5942">
        <ele>498.803223</ele>
        <time>2018-08-20T09:22:58Z</time>
      </trkpt>
      <trkpt lat="47.2509" lon="4.59424">
        <ele>498.936798</ele>
        <time>2018-08-20T09:22:59Z</time>
      </trkpt>
      <trkpt lat="47.25089" lon="4.59429">
        <ele>499.068268</ele>
        <time>2018-08-20T09:23:00Z</time>
      </trkpt>
      <trkpt lat="47.25087" lon="4.59432">
        <ele>499.195892</ele>
        <time>2018-08-20T09:23:01Z</time>
      </trkpt>
      <trkpt lat="47.25085" lon="4.59436">
        <ele>499.323486</ele>
        <time>2018-08-20T09:23:02Z</time>
      </trkpt>
      <trkpt lat="47.25084" lon="4.5944">
        <ele>499.43335</ele>
        <time>2018-08-20T09:23:03Z</time>
      </trkpt>
      <trkpt lat="47.25082" lon="4.59444">
        <ele>499.514404</ele>
        <time>2018-08-20T09:23:04Z</time>
      </trkpt>
      <trkpt lat="47.25082" lon="4.59448">
        <ele>499.568237</ele>
        <time>2018-08-20T09:23:05Z</time>
      </trkpt>
      <trkpt lat="47.25081" lon="4.59452">
        <ele>499.605835</ele>
        <time>2018-08-20T09:23:06Z</time>
      </trkpt>
      <trkpt lat="47.25079" lon="4.59456">
        <ele>499.620026</ele>
        <time>2018-08-20T09:23:07Z</time>
      </trkpt>
      <trkpt lat="47.25078" lon="4.5946">
        <ele>499.620026</ele>
        <time>2018-08-20T09:23:08Z</time>
      </trkpt>
      <trkpt lat="47.25076" lon="4.59465">
        <ele>499.620026</ele>
        <time>2018-08-20T09:23:09Z</time>
      </trkpt>
      <trkpt lat="47.25075" lon="4.5947">
        <ele>499.600922</ele>
        <time>2018-08-20T09:23:10Z</time>
      </trkpt>
      <trkpt lat="47.25073" lon="4.59475">
        <ele>499.568726</ele>
        <time>2018-08-20T09:23:11Z</time>
      </trkpt>
      <trkpt lat="47.25071" lon="4.59481">
        <ele>499.531982</ele>
        <time>2018-08-20T09:23:12Z</time>
      </trkpt>
      <trkpt lat="47.25069" lon="4.59487">
        <ele>499.48999</ele>
        <time>2018-08-20T09:23:13Z</time>
      </trkpt>
      <trkpt lat="47.25066" lon="4.59493">
        <ele>499.443512</ele>
        <time>2018-08-20T09:23:14Z</time>
      </trkpt>
      <trkpt lat="47.25065" lon="4.59498">
        <ele>499.376373</ele>
        <time>2018-08-20T09:23:15Z</time>
      </trkpt>
      <trkpt lat="47.25063" lon="4.59503">
        <ele>499.292145</ele>
        <time>2018-08-20T09:23:16Z</time>
      </trkpt>
      <trkpt lat="47.25061" lon="4.59508">
        <ele>499.193359</ele>
        <time>2018-08-20T09:23:17Z</time>
      </trkpt>
      <trkpt lat="47.2506" lon="4.59513">
        <ele>499.105957</ele>
        <time>2018-08-20T09:23:18Z</time>
      </trkpt>
      <trkpt lat="47.25058" lon="4.59517">
        <ele>499.012451</ele>
        <time>2018-08-20T09:23:19Z</time>
      </trkpt>
      <trkpt lat="47.25057" lon="4.59522">
        <ele>498.879486</ele>
        <time>2018-08-20T09:23:20Z</time>
      </trkpt>
      <trkpt lat="47.25055" lon="4.59526">
        <ele>498.73349</ele>
        <time>2018-08-20T09:23:21Z</time>
      </trkpt>
      <trkpt lat="47.25054" lon="4.5953">
        <ele>498.57132</ele>
        <time>2018-08-20T09:23:22Z</time>
      </trkpt>
      <trkpt lat="47.25053" lon="4.59534">
        <ele>498.57132</ele>
        <time>2018-08-20T09:23:23Z</time>
      </trkpt>
      <trkpt lat="47.25052" lon="4.59539">
        <ele>498.394867</ele>
        <time>2018-08-20T09:23:24Z</time>
      </trkpt>
      <trkpt lat="47.25051" lon="4.59544">
        <ele>498.172089</ele>
        <time>2018-08-20T09:23:25Z</time>
      </trkpt>
      <trkpt lat="47.2505" lon="4.59548">
        <ele>497.901886</ele>
        <time>2018-08-20T09:23:26Z</time>
      </trkpt>
      <trkpt lat="47.25049" lon="4.59553">
        <ele>497.652344</ele>
        <time>2018-08-20T09:23:27Z</time>
      </trkpt>
      <trkpt lat="47.25048" lon="4.59558">
        <ele>497.431061</ele>
        <time>2018-08-20T09:23:28Z</time>
      </trkpt>
      <trkpt lat="47.25048" lon="4.59563">
        <ele>497.23645</ele>
        <time>2018-08-20T09:23:29Z</time>
      </trkpt>
      <trkpt lat="47.25047" lon="4.59568">
        <ele>497.065796</ele>
        <time>2018-08-20T09:23:30Z</time>
      </trkpt>
      <trkpt lat="47.25047" lon="4.59572">
        <ele>496.941498</ele>
        <time>2018-08-20T09:23:31Z</time>
      </trkpt>
      <trkpt lat="47.25047" lon="4.59577">
        <ele>496.87027</ele>
        <time>2018-08-20T09:23:32Z</time>
      </trkpt>
      <trkpt lat="47.25046" lon="4.59582">
        <ele>496.817139</ele>
        <time>2018-08-20T09:23:33Z</time>
      </trkpt>
      <trkpt lat="47.25046" lon="4.59586">
        <ele>496.768646</ele>
        <time>2018-08-20T09:23:34Z</time>
      </trkpt>
      <trkpt lat="47.25045" lon="4.59592">
        <ele>496.734131</ele>
        <time>2018-08-20T09:23:35Z</time>
      </trkpt>
      <trkpt lat="47.25045" lon="4.59597">
        <ele>496.706299</ele>
        <time>2018-08-20T09:23:36Z</time>
      </trkpt>
      <trkpt lat="47.25045" lon="4.59603">
        <ele>496.664307</ele>
        <time>2018-08-20T09:23:37Z</time>
      </trkpt>
      <trkpt lat="47.25044" lon="4.59608">
        <ele>496.615509</ele>
        <time>2018-08-20T09:23:38Z</time>
      </trkpt>
      <trkpt lat="47.25044" lon="4.59614">
        <ele>496.567993</ele>
        <time>2018-08-20T09:23:39Z</time>
      </trkpt>
      <trkpt lat="47.25043" lon="4.59619">
        <ele>496.51651</ele>
        <time>2018-08-20T09:23:40Z</time>
      </trkpt>
      <trkpt lat="47.25043" lon="4.59623">
        <ele>496.458282</ele>
        <time>2018-08-20T09:23:41Z</time>
      </trkpt>
      <trkpt lat="47.25042" lon="4.59628">
        <ele>496.393799</ele>
        <time>2018-08-20T09:23:42Z</time>
      </trkpt>
      <trkpt lat="47.25042" lon="4.59633">
        <ele>496.32901</ele>
        <time>2018-08-20T09:23:43Z</time>
      </trkpt>
      <trkpt lat="47.25041" lon="4.59637">
        <ele>496.262054</ele>
        <time>2018-08-20T09:23:44Z</time>
      </trkpt>
      <trkpt lat="47.25041" lon="4.59641">
        <ele>496.187836</ele>
        <time>2018-08-20T09:23:45Z</time>
      </trkpt>
      <trkpt lat="47.2504" lon="4.59646">
        <ele>496.104645</ele>
        <time>2018-08-20T09:23:46Z</time>
      </trkpt>
      <trkpt lat="47.25041" lon="4.5965">
        <ele>496.013184</ele>
        <time>2018-08-20T09:23:47Z</time>
      </trkpt>
      <trkpt lat="47.25041" lon="4.59655">
        <ele>495.923431</ele>
        <time>2018-08-20T09:23:48Z</time>
      </trkpt>
      <trkpt lat="47.25041" lon="4.5966">
        <ele>495.826904</ele>
        <time>2018-08-20T09:23:49Z</time>
      </trkpt>
      <trkpt lat="47.2504" lon="4.59664">
        <ele>495.743408</ele>
        <time>2018-08-20T09:23:50Z</time>
      </trkpt>
      <trkpt lat="47.25041" lon="4.59668">
        <ele>495.672852</ele>
        <time>2018-08-20T09:23:51Z</time>
      </trkpt>
      <trkpt lat="47.25041" lon="4.59672">
        <ele>495.600098</ele>
        <time>2018-08-20T09:23:52Z</time>
      </trkpt>
      <trkpt lat="47.25041" lon="4.59676">
        <ele>495.526611</ele>
        <time>2018-08-20T09:23:53Z</time>
      </trkpt>
      <trkpt lat="47.25041" lon="4.5968">
        <ele>495.462646</ele>
        <time>2018-08-20T09:23:54Z</time>
      </trkpt>
      <trkpt lat="47.25041" lon="4.59684">
        <ele>495.416595</ele>
        <time>2018-08-20T09:23:55Z</time>
      </trkpt>
      <trkpt lat="47.25041" lon="4.59687">
        <ele>495.367096</ele>
        <time>2018-08-20T09:23:56Z</time>
      </trkpt>
      <trkpt lat="47.25042" lon="4.59691">
        <ele>495.314941</ele>
        <time>2018-08-20T09:23:57Z</time>
      </trkpt>
      <trkpt lat="47.25042" lon="4.59695">
        <ele>495.276611</ele>
        <time>2018-08-20T09:23:58Z</time>
      </trkpt>
      <trkpt lat="47.25042" lon="4.59699">
        <ele>495.246826</ele>
        <time>2018-08-20T09:23:59Z</time>
      </trkpt>
      <trkpt lat="47.25042" lon="4.59702">
        <ele>495.217438</ele>
        <time>2018-08-20T09:24:00Z</time>
      </trkpt>
      <trkpt lat="47.25042" lon="4.59705">
        <ele>495.189301</ele>
        <time>2018-08-20T09:24:01Z</time>
      </trkpt>
      <trkpt lat="47.25042" lon="4.59707">
        <ele>495.1586</ele>
        <time>2018-08-20T09:24:02Z</time>
      </trkpt>
      <trkpt lat="47.25042" lon="4.59711">
        <ele>495.131256</ele>
        <time>2018-08-20T09:24:03Z</time>
      </trkpt>
      <trkpt lat="47.25042" lon="4.59714">
        <ele>495.101898</ele>
        <time>2018-08-20T09:24:04Z</time>
      </trkpt>
      <trkpt lat="47.25042" lon="4.59718">
        <ele>495.08017</ele>
        <time>2018-08-20T09:24:05Z</time>
      </trkpt>
      <trkpt lat="47.25042" lon="4.59722">
        <ele>495.058502</ele>
        <time>2018-08-20T09:24:06Z</time>
      </trkpt>
      <trkpt lat="47.25042" lon="4.59726">
        <ele>495.03476</ele>
        <time>2018-08-20T09:24:07Z</time>
      </trkpt>
      <trkpt lat="47.25042" lon="4.5973">
        <ele>495.015472</ele>
        <time>2018-08-20T09:24:08Z</time>
      </trkpt>
      <trkpt lat="47.25043" lon="4.59735">
        <ele>494.974274</ele>
        <time>2018-08-20T09:24:09Z</time>
      </trkpt>
      <trkpt lat="47.25043" lon="4.5974">
        <ele>494.933441</ele>
        <time>2018-08-20T09:24:10Z</time>
      </trkpt>
      <trkpt lat="47.25043" lon="4.59744">
        <ele>494.892242</ele>
        <time>2018-08-20T09:24:11Z</time>
      </trkpt>
      <trkpt lat="47.25043" lon="4.59749">
        <ele>494.850922</ele>
        <time>2018-08-20T09:24:12Z</time>
      </trkpt>
      <trkpt lat="47.25043" lon="4.59755">
        <ele>494.806396</ele>
        <time>2018-08-20T09:24:13Z</time>
      </trkpt>
      <trkpt lat="47.25043" lon="4.59761">
        <ele>494.762695</ele>
        <time>2018-08-20T09:24:14Z</time>
      </trkpt>
      <trkpt lat="47.25043" lon="4.59766">
        <ele>494.736816</ele>
        <time>2018-08-20T09:24:15Z</time>
      </trkpt>
      <trkpt lat="47.25043" lon="4.59772">
        <ele>494.709808</ele>
        <time>2018-08-20T09:24:16Z</time>
      </trkpt>
      <trkpt lat="47.25044" lon="4.59778">
        <ele>494.669342</ele>
        <time>2018-08-20T09:24:17Z</time>
      </trkpt>
      <trkpt lat="47.25044" lon="4.59784">
        <ele>494.669342</ele>
        <time>2018-08-20T09:24:18Z</time>
      </trkpt>
      <trkpt lat="47.25044" lon="4.59789">
        <ele>494.617676</ele>
        <time>2018-08-20T09:24:19Z</time>
      </trkpt>
      <trkpt lat="47.25044" lon="4.59794">
        <ele>494.567383</ele>
        <time>2018-08-20T09:24:20Z</time>
      </trkpt>
      <trkpt lat="47.25045" lon="4.598">
        <ele>494.522797</ele>
        <time>2018-08-20T09:24:21Z</time>
      </trkpt>
      <trkpt lat="47.25045" lon="4.59806">
        <ele>494.490509</ele>
        <time>2018-08-20T09:24:22Z</time>
      </trkpt>
      <trkpt lat="47.25045" lon="4.59811">
        <ele>494.47287</ele>
        <time>2018-08-20T09:24:23Z</time>
      </trkpt>
      <trkpt lat="47.25046" lon="4.59816">
        <ele>494.47287</ele>
        <time>2018-08-20T09:24:24Z</time>
      </trkpt>
      <trkpt lat="47.25047" lon="4.59821">
        <ele>494.47287</ele>
        <time>2018-08-20T09:24:25Z</time>
      </trkpt>
      <trkpt lat="47.25048" lon="4.59826">
        <ele>494.483887</ele>
        <time>2018-08-20T09:24:26Z</time>
      </trkpt>
      <trkpt lat="47.25049" lon="4.59831">
        <ele>494.523163</ele>
        <time>2018-08-20T09:24:27Z</time>
      </trkpt>
      <trkpt lat="47.25052" lon="4.59835">
        <ele>494.589844</ele>
        <time>2018-08-20T09:24:28Z</time>
      </trkpt>
      <trkpt lat="47.25053" lon="4.59839">
        <ele>494.695221</ele>
        <time>2018-08-20T09:24:29Z</time>
      </trkpt>
      <trkpt lat="47.25055" lon="4.59842">
        <ele>494.852051</ele>
        <time>2018-08-20T09:24:30Z</time>
      </trkpt>
      <trkpt lat="47.25057" lon="4.59845">
        <ele>495.075287</ele>
        <time>2018-08-20T09:24:31Z</time>
      </trkpt>
      <trkpt lat="47.25059" lon="4.59849">
        <ele>495.351685</ele>
        <time>2018-08-20T09:24:32Z</time>
      </trkpt>
      <trkpt lat="47.2506" lon="4.59852">
        <ele>495.672516</ele>
        <time>2018-08-20T09:24:33Z</time>
      </trkpt>
      <trkpt lat="47.25062" lon="4.59855">
        <ele>496.032745</ele>
        <time>2018-08-20T09:24:34Z</time>
      </trkpt>
      <trkpt lat="47.25063" lon="4.59859">
        <ele>496.423676</ele>
        <time>2018-08-20T09:24:35Z</time>
      </trkpt>
      <trkpt lat="47.25065" lon="4.59862">
        <ele>496.810944</ele>
        <time>2018-08-20T09:24:36Z</time>
      </trkpt>
      <trkpt lat="47.25066" lon="4.59865">
        <ele>497.18808</ele>
        <time>2018-08-20T09:24:37Z</time>
      </trkpt>
      <trkpt lat="47.25068" lon="4.59868">
        <ele>497.548828</ele>
        <time>2018-08-20T09:24:38Z</time>
      </trkpt>
      <trkpt lat="47.25069" lon="4.59871">
        <ele>497.900726</ele>
        <time>2018-08-20T09:24:39Z</time>
      </trkpt>
      <trkpt lat="47.25071" lon="4.59874">
        <ele>498.234772</ele>
        <time>2018-08-20T09:24:40Z</time>
      </trkpt>
      <trkpt lat="47.25072" lon="4.59877">
        <ele>498.548981</ele>
        <time>2018-08-20T09:24:41Z</time>
      </trkpt>
      <trkpt lat="47.25074" lon="4.59881">
        <ele>498.859283</ele>
        <time>2018-08-20T09:24:42Z</time>
      </trkpt>
      <trkpt lat="47.25075" lon="4.59884">
        <ele>499.163818</ele>
        <time>2018-08-20T09:24:43Z</time>
      </trkpt>
      <trkpt lat="47.25077" lon="4.59887">
        <ele>499.460602</ele>
        <time>2018-08-20T09:24:44Z</time>
      </trkpt>
      <trkpt lat="47.25079" lon="4.5989">
        <ele>499.750824</ele>
        <time>2018-08-20T09:24:45Z</time>
      </trkpt>
      <trkpt lat="47.25081" lon="4.59893">
        <ele>500.048828</ele>
        <time>2018-08-20T09:24:46Z</time>
      </trkpt>
      <trkpt lat="47.25083" lon="4.59896">
        <ele>500.365082</ele>
        <time>2018-08-20T09:24:47Z</time>
      </trkpt>
      <trkpt lat="47.25085" lon="4.59898">
        <ele>500.694733</ele>
        <time>2018-08-20T09:24:48Z</time>
      </trkpt>
      <trkpt lat="47.25086" lon="4.599">
        <ele>501.037445</ele>
        <time>2018-08-20T09:24:49Z</time>
      </trkpt>
      <trkpt lat="47.25088" lon="4.59902">
        <ele>501.402496</ele>
        <time>2018-08-20T09:24:50Z</time>
      </trkpt>
      <trkpt lat="47.2509" lon="4.59904">
        <ele>501.789703</ele>
        <time>2018-08-20T09:24:51Z</time>
      </trkpt>
      <trkpt lat="47.2509" lon="4.59905">
        <ele>502.187469</ele>
        <time>2018-08-20T09:24:52Z</time>
      </trkpt>
      <trkpt lat="47.25092" lon="4.59907">
        <ele>502.576447</ele>
        <time>2018-08-20T09:24:54Z</time>
      </trkpt>
      <trkpt lat="47.25094" lon="4.59909">
        <ele>502.959869</ele>
        <time>2018-08-20T09:24:55Z</time>
      </trkpt>
      <trkpt lat="47.25095" lon="4.5991">
        <ele>503.302277</ele>
        <time>2018-08-20T09:24:56Z</time>
      </trkpt>
      <trkpt lat="47.25097" lon="4.59912">
        <ele>503.639771</ele>
        <time>2018-08-20T09:24:57Z</time>
      </trkpt>
      <trkpt lat="47.25098" lon="4.59914">
        <ele>503.978058</ele>
        <time>2018-08-20T09:24:58Z</time>
      </trkpt>
      <trkpt lat="47.251" lon="4.59916">
        <ele>504.308075</ele>
        <time>2018-08-20T09:24:59Z</time>
      </trkpt>
      <trkpt lat="47.25102" lon="4.59918">
        <ele>504.63089</ele>
        <time>2018-08-20T09:25:00Z</time>
      </trkpt>
      <trkpt lat="47.25103" lon="4.59921">
        <ele>504.947784</ele>
        <time>2018-08-20T09:25:01Z</time>
      </trkpt>
      <trkpt lat="47.25105" lon="4.59923">
        <ele>505.272797</ele>
        <time>2018-08-20T09:25:02Z</time>
      </trkpt>
      <trkpt lat="47.25105" lon="4.59926">
        <ele>505.582916</ele>
        <time>2018-08-20T09:25:03Z</time>
      </trkpt>
      <trkpt lat="47.25106" lon="4.59929">
        <ele>505.873383</ele>
        <time>2018-08-20T09:25:04Z</time>
      </trkpt>
      <trkpt lat="47.25108" lon="4.59931">
        <ele>506.143829</ele>
        <time>2018-08-20T09:25:05Z</time>
      </trkpt>
      <trkpt lat="47.25109" lon="4.59934">
        <ele>506.386353</ele>
        <time>2018-08-20T09:25:06Z</time>
      </trkpt>
      <trkpt lat="47.2511" lon="4.59937">
        <ele>506.594086</ele>
        <time>2018-08-20T09:25:07Z</time>
      </trkpt>
      <trkpt lat="47.25111" lon="4.5994">
        <ele>506.789948</ele>
        <time>2018-08-20T09:25:08Z</time>
      </trkpt>
      <trkpt lat="47.25113" lon="4.59943">
        <ele>506.97168</ele>
        <time>2018-08-20T09:25:09Z</time>
      </trkpt>
      <trkpt lat="47.25114" lon="4.59947">
        <ele>507.13916</ele>
        <time>2018-08-20T09:25:10Z</time>
      </trkpt>
      <trkpt lat="47.25116" lon="4.5995">
        <ele>507.297699</ele>
        <time>2018-08-20T09:25:11Z</time>
      </trkpt>
      <trkpt lat="47.25117" lon="4.59953">
        <ele>507.455322</ele>
        <time>2018-08-20T09:25:12Z</time>
      </trkpt>
      <trkpt lat="47.25118" lon="4.59957">
        <ele>507.636627</ele>
        <time>2018-08-20T09:25:13Z</time>
      </trkpt>
      <trkpt lat="47.25119" lon="4.5996">
        <ele>507.820801</ele>
        <time>2018-08-20T09:25:14Z</time>
      </trkpt>
      <trkpt lat="47.25121" lon="4.59964">
        <ele>507.98056</ele>
        <time>2018-08-20T09:25:15Z</time>
      </trkpt>
      <trkpt lat="47.25123" lon="4.59967">
        <ele>508.131927</ele>
        <time>2018-08-20T09:25:16Z</time>
      </trkpt>
      <trkpt lat="47.25124" lon="4.59971">
        <ele>508.292389</ele>
        <time>2018-08-20T09:25:17Z</time>
      </trkpt>
      <trkpt lat="47.25125" lon="4.59975">
        <ele>508.460938</ele>
        <time>2018-08-20T09:25:18Z</time>
      </trkpt>
      <trkpt lat="47.25126" lon="4.59978">
        <ele>508.460938</ele>
        <time>2018-08-20T09:25:19Z</time>
      </trkpt>
      <trkpt lat="47.25127" lon="4.59982">
        <ele>508.62149</ele>
        <time>2018-08-20T09:25:20Z</time>
      </trkpt>
      <trkpt lat="47.25129" lon="4.59986">
        <ele>508.776123</ele>
        <time>2018-08-20T09:25:21Z</time>
      </trkpt>
      <trkpt lat="47.25131" lon="4.5999">
        <ele>508.961273</ele>
        <time>2018-08-20T09:25:22Z</time>
      </trkpt>
      <trkpt lat="47.25133" lon="4.59993">
        <ele>509.147705</ele>
        <time>2018-08-20T09:25:23Z</time>
      </trkpt>
      <trkpt lat="47.25135" lon="4.59996">
        <ele>509.333984</ele>
        <time>2018-08-20T09:25:24Z</time>
      </trkpt>
      <trkpt lat="47.25137" lon="4.59999">
        <ele>509.52124</ele>
        <time>2018-08-20T09:25:25Z</time>
      </trkpt>
      <trkpt lat="47.25139" lon="4.60002">
        <ele>509.705566</ele>
        <time>2018-08-20T09:25:26Z</time>
      </trkpt>
      <trkpt lat="47.25141" lon="4.60004">
        <ele>509.912842</ele>
        <time>2018-08-20T09:25:27Z</time>
      </trkpt>
      <trkpt lat="47.25143" lon="4.60005">
        <ele>510.131592</ele>
        <time>2018-08-20T09:25:28Z</time>
      </trkpt>
      <trkpt lat="47.25145" lon="4.60007">
        <ele>510.391602</ele>
        <time>2018-08-20T09:25:29Z</time>
      </trkpt>
      <trkpt lat="47.25147" lon="4.60008">
        <ele>510.682953</ele>
        <time>2018-08-20T09:25:30Z</time>
      </trkpt>
      <trkpt lat="47.2515" lon="4.6001">
        <ele>510.998688</ele>
        <time>2018-08-20T09:25:31Z</time>
      </trkpt>
      <trkpt lat="47.25151" lon="4.60011">
        <ele>511.35318</ele>
        <time>2018-08-20T09:25:32Z</time>
      </trkpt>
      <trkpt lat="47.25153" lon="4.60014">
        <ele>511.730469</ele>
        <time>2018-08-20T09:25:33Z</time>
      </trkpt>
      <trkpt lat="47.25155" lon="4.60016">
        <ele>512.122375</ele>
        <time>2018-08-20T09:25:34Z</time>
      </trkpt>
      <trkpt lat="47.25157" lon="4.60018">
        <ele>512.494812</ele>
        <time>2018-08-20T09:25:35Z</time>
      </trkpt>
      <trkpt lat="47.25158" lon="4.60021">
        <ele>512.834656</ele>
        <time>2018-08-20T09:25:36Z</time>
      </trkpt>
      <trkpt lat="47.2516" lon="4.60023">
        <ele>513.161804</ele>
        <time>2018-08-20T09:25:37Z</time>
      </trkpt>
      <trkpt lat="47.25161" lon="4.60026">
        <ele>513.466125</ele>
        <time>2018-08-20T09:25:38Z</time>
      </trkpt>
      <trkpt lat="47.25163" lon="4.60029">
        <ele>513.739258</ele>
        <time>2018-08-20T09:25:39Z</time>
      </trkpt>
      <trkpt lat="47.25164" lon="4.60031">
        <ele>513.975403</ele>
        <time>2018-08-20T09:25:40Z</time>
      </trkpt>
      <trkpt lat="47.25166" lon="4.60034">
        <ele>514.191589</ele>
        <time>2018-08-20T09:25:41Z</time>
      </trkpt>
      <trkpt lat="47.25168" lon="4.60037">
        <ele>514.395691</ele>
        <time>2018-08-20T09:25:42Z</time>
      </trkpt>
      <trkpt lat="47.25169" lon="4.6004">
        <ele>514.570984</ele>
        <time>2018-08-20T09:25:43Z</time>
      </trkpt>
      <trkpt lat="47.25171" lon="4.60043">
        <ele>514.731628</ele>
        <time>2018-08-20T09:25:44Z</time>
      </trkpt>
      <trkpt lat="47.25173" lon="4.60047">
        <ele>514.888184</ele>
        <time>2018-08-20T09:25:45Z</time>
      </trkpt>
      <trkpt lat="47.25176" lon="4.6005">
        <ele>515.043152</ele>
        <time>2018-08-20T09:25:46Z</time>
      </trkpt>
      <trkpt lat="47.25177" lon="4.60054">
        <ele>515.20459</ele>
        <time>2018-08-20T09:25:47Z</time>
      </trkpt>
      <trkpt lat="47.2518" lon="4.60057">
        <ele>515.380676</ele>
        <time>2018-08-20T09:25:48Z</time>
      </trkpt>
      <trkpt lat="47.25182" lon="4.60061">
        <ele>515.578796</ele>
        <time>2018-08-20T09:25:49Z</time>
      </trkpt>
      <trkpt lat="47.25184" lon="4.60064">
        <ele>515.776855</ele>
        <time>2018-08-20T09:25:50Z</time>
      </trkpt>
      <trkpt lat="47.25186" lon="4.60067">
        <ele>515.95636</ele>
        <time>2018-08-20T09:25:51Z</time>
      </trkpt>
      <trkpt lat="47.25188" lon="4.60069">
        <ele>516.124329</ele>
        <time>2018-08-20T09:25:52Z</time>
      </trkpt>
      <trkpt lat="47.2519" lon="4.60072">
        <ele>516.27002</ele>
        <time>2018-08-20T09:25:53Z</time>
      </trkpt>
      <trkpt lat="47.25192" lon="4.60076">
        <ele>516.407715</ele>
        <time>2018-08-20T09:25:54Z</time>
      </trkpt>
      <trkpt lat="47.25193" lon="4.60079">
        <ele>516.407715</ele>
        <time>2018-08-20T09:25:55Z</time>
      </trkpt>
      <trkpt lat="47.25195" lon="4.60083">
        <ele>516.539368</ele>
        <time>2018-08-20T09:25:56Z</time>
      </trkpt>
      <trkpt lat="47.25197" lon="4.60085">
        <ele>516.647034</ele>
        <time>2018-08-20T09:25:57Z</time>
      </trkpt>
      <trkpt lat="47.25198" lon="4.60088">
        <ele>516.743347</ele>
        <time>2018-08-20T09:25:58Z</time>
      </trkpt>
      <trkpt lat="47.25199" lon="4.60091">
        <ele>516.819092</ele>
        <time>2018-08-20T09:25:59Z</time>
      </trkpt>
      <trkpt lat="47.252" lon="4.60094">
        <ele>516.866943</ele>
        <time>2018-08-20T09:26:00Z</time>
      </trkpt>
      <trkpt lat="47.25203" lon="4.60097">
        <ele>516.888611</ele>
        <time>2018-08-20T09:26:01Z</time>
      </trkpt>
      <trkpt lat="47.25205" lon="4.601">
        <ele>516.914246</ele>
        <time>2018-08-20T09:26:02Z</time>
      </trkpt>
      <trkpt lat="47.25207" lon="4.60102">
        <ele>516.94043</ele>
        <time>2018-08-20T09:26:03Z</time>
      </trkpt>
      <trkpt lat="47.2521" lon="4.60104">
        <ele>516.960938</ele>
        <time>2018-08-20T09:26:04Z</time>
      </trkpt>
      <trkpt lat="47.25212" lon="4.60106">
        <ele>516.999695</ele>
        <time>2018-08-20T09:26:05Z</time>
      </trkpt>
      <trkpt lat="47.25214" lon="4.60108">
        <ele>517.07373</ele>
        <time>2018-08-20T09:26:06Z</time>
      </trkpt>
      <trkpt lat="47.25217" lon="4.6011">
        <ele>517.200745</ele>
        <time>2018-08-20T09:26:07Z</time>
      </trkpt>
      <trkpt lat="47.25219" lon="4.60113">
        <ele>517.364807</ele>
        <time>2018-08-20T09:26:08Z</time>
      </trkpt>
      <trkpt lat="47.25222" lon="4.60115">
        <ele>517.581299</ele>
        <time>2018-08-20T09:26:09Z</time>
      </trkpt>
      <trkpt lat="47.25225" lon="4.60117">
        <ele>517.83252</ele>
        <time>2018-08-20T09:26:10Z</time>
      </trkpt>
      <trkpt lat="47.25227" lon="4.6012">
        <ele>518.09967</ele>
        <time>2018-08-20T09:26:11Z</time>
      </trkpt>
      <trkpt lat="47.25229" lon="4.60122">
        <ele>518.342224</ele>
        <time>2018-08-20T09:26:12Z</time>
      </trkpt>
      <trkpt lat="47.25232" lon="4.60125">
        <ele>518.537659</ele>
        <time>2018-08-20T09:26:13Z</time>
      </trkpt>
      <trkpt lat="47.25234" lon="4.60127">
        <ele>518.690247</ele>
        <time>2018-08-20T09:26:14Z</time>
      </trkpt>
      <trkpt lat="47.25236" lon="4.60129">
        <ele>518.783508</ele>
        <time>2018-08-20T09:26:15Z</time>
      </trkpt>
      <trkpt lat="47.25238" lon="4.60132">
        <ele>518.826599</ele>
        <time>2018-08-20T09:26:16Z</time>
      </trkpt>
      <trkpt lat="47.2524" lon="4.60135">
        <ele>518.826599</ele>
        <time>2018-08-20T09:26:17Z</time>
      </trkpt>
      <trkpt lat="47.25242" lon="4.60138">
        <ele>518.826599</ele>
        <time>2018-08-20T09:26:18Z</time>
      </trkpt>
      <trkpt lat="47.25245" lon="4.60141">
        <ele>518.810852</ele>
        <time>2018-08-20T09:26:19Z</time>
      </trkpt>
      <trkpt lat="47.25247" lon="4.60144">
        <ele>518.766479</ele>
        <time>2018-08-20T09:26:20Z</time>
      </trkpt>
      <trkpt lat="47.2525" lon="4.60147">
        <ele>518.698792</ele>
        <time>2018-08-20T09:26:21Z</time>
      </trkpt>
      <trkpt lat="47.25252" lon="4.60149">
        <ele>518.621765</ele>
        <time>2018-08-20T09:26:22Z</time>
      </trkpt>
      <trkpt lat="47.25255" lon="4.60152">
        <ele>518.547241</ele>
        <time>2018-08-20T09:26:23Z</time>
      </trkpt>
      <trkpt lat="47.25258" lon="4.60155">
        <ele>518.465149</ele>
        <time>2018-08-20T09:26:24Z</time>
      </trkpt>
      <trkpt lat="47.2526" lon="4.60158">
        <ele>518.465149</ele>
        <time>2018-08-20T09:26:25Z</time>
      </trkpt>
      <trkpt lat="47.25263" lon="4.60162">
        <ele>518.382629</ele>
        <time>2018-08-20T09:26:26Z</time>
      </trkpt>
      <trkpt lat="47.25266" lon="4.60165">
        <ele>518.30957</ele>
        <time>2018-08-20T09:26:27Z</time>
      </trkpt>
      <trkpt lat="47.25269" lon="4.60169">
        <ele>518.251465</ele>
        <time>2018-08-20T09:26:28Z</time>
      </trkpt>
      <trkpt lat="47.25271" lon="4.60172">
        <ele>518.196472</ele>
        <time>2018-08-20T09:26:29Z</time>
      </trkpt>
      <trkpt lat="47.25273" lon="4.60176">
        <ele>518.140137</ele>
        <time>2018-08-20T09:26:30Z</time>
      </trkpt>
      <trkpt lat="47.25276" lon="4.60179">
        <ele>518.081482</ele>
        <time>2018-08-20T09:26:31Z</time>
      </trkpt>
      <trkpt lat="47.25279" lon="4.60182">
        <ele>518.015442</ele>
        <time>2018-08-20T09:26:32Z</time>
      </trkpt>
      <trkpt lat="47.25282" lon="4.60186">
        <ele>517.940674</ele>
        <time>2018-08-20T09:26:33Z</time>
      </trkpt>
      <trkpt lat="47.25284" lon="4.6019">
        <ele>517.872742</ele>
        <time>2018-08-20T09:26:34Z</time>
      </trkpt>
      <trkpt lat="47.25287" lon="4.60194">
        <ele>517.803284</ele>
        <time>2018-08-20T09:26:35Z</time>
      </trkpt>
      <trkpt lat="47.2529" lon="4.60197">
        <ele>517.734436</ele>
        <time>2018-08-20T09:26:36Z</time>
      </trkpt>
      <trkpt lat="47.25293" lon="4.602">
        <ele>517.66156</ele>
        <time>2018-08-20T09:26:37Z</time>
      </trkpt>
      <trkpt lat="47.25295" lon="4.60204">
        <ele>517.589417</ele>
        <time>2018-08-20T09:26:38Z</time>
      </trkpt>
      <trkpt lat="47.25298" lon="4.60208">
        <ele>517.518921</ele>
        <time>2018-08-20T09:26:39Z</time>
      </trkpt>
      <trkpt lat="47.25301" lon="4.60212">
        <ele>517.425415</ele>
        <time>2018-08-20T09:26:40Z</time>
      </trkpt>
      <trkpt lat="47.25304" lon="4.60216">
        <ele>517.306641</ele>
        <time>2018-08-20T09:26:41Z</time>
      </trkpt>
      <trkpt lat="47.25307" lon="4.6022">
        <ele>517.158752</ele>
        <time>2018-08-20T09:26:42Z</time>
      </trkpt>
      <trkpt lat="47.25309" lon="4.60223">
        <ele>516.988586</ele>
        <time>2018-08-20T09:26:43Z</time>
      </trkpt>
      <trkpt lat="47.25312" lon="4.60226">
        <ele>516.795166</ele>
        <time>2018-08-20T09:26:44Z</time>
      </trkpt>
      <trkpt lat="47.25315" lon="4.60229">
        <ele>516.588562</ele>
        <time>2018-08-20T09:26:45Z</time>
      </trkpt>
      <trkpt lat="47.25318" lon="4.60233">
        <ele>516.387756</ele>
        <time>2018-08-20T09:26:46Z</time>
      </trkpt>
      <trkpt lat="47.25321" lon="4.60235">
        <ele>516.20459</ele>
        <time>2018-08-20T09:26:47Z</time>
      </trkpt>
      <trkpt lat="47.25324" lon="4.60237">
        <ele>516.050842</ele>
        <time>2018-08-20T09:26:48Z</time>
      </trkpt>
      <trkpt lat="47.25328" lon="4.60239">
        <ele>515.938049</ele>
        <time>2018-08-20T09:26:49Z</time>
      </trkpt>
      <trkpt lat="47.25331" lon="4.6024">
        <ele>515.894531</ele>
        <time>2018-08-20T09:26:50Z</time>
      </trkpt>
      <trkpt lat="47.25335" lon="4.60241">
        <ele>515.894531</ele>
        <time>2018-08-20T09:26:51Z</time>
      </trkpt>
      <trkpt lat="47.25338" lon="4.60242">
        <ele>515.894531</ele>
        <time>2018-08-20T09:26:52Z</time>
      </trkpt>
      <trkpt lat="47.25341" lon="4.60243">
        <ele>515.915527</ele>
        <time>2018-08-20T09:26:53Z</time>
      </trkpt>
      <trkpt lat="47.25344" lon="4.60244">
        <ele>515.99707</ele>
        <time>2018-08-20T09:26:54Z</time>
      </trkpt>
      <trkpt lat="47.25346" lon="4.60244">
        <ele>516.132507</ele>
        <time>2018-08-20T09:26:55Z</time>
      </trkpt>
      <trkpt lat="47.2535" lon="4.60245">
        <ele>516.31134</ele>
        <time>2018-08-20T09:26:56Z</time>
      </trkpt>
      <trkpt lat="47.25353" lon="4.60246">
        <ele>516.517517</ele>
        <time>2018-08-20T09:26:57Z</time>
      </trkpt>
      <trkpt lat="47.25357" lon="4.60247">
        <ele>516.731934</ele>
        <time>2018-08-20T09:26:58Z</time>
      </trkpt>
      <trkpt lat="47.2536" lon="4.60248">
        <ele>516.951965</ele>
        <time>2018-08-20T09:26:59Z</time>
      </trkpt>
      <trkpt lat="47.25363" lon="4.60248">
        <ele>517.174072</ele>
        <time>2018-08-20T09:27:00Z</time>
      </trkpt>
      <trkpt lat="47.25365" lon="4.60249">
        <ele>517.399475</ele>
        <time>2018-08-20T09:27:01Z</time>
      </trkpt>
      <trkpt lat="47.25368" lon="4.6025">
        <ele>517.631592</ele>
        <time>2018-08-20T09:27:02Z</time>
      </trkpt>
      <trkpt lat="47.25371" lon="4.60251">
        <ele>517.871521</ele>
        <time>2018-08-20T09:27:03Z</time>
      </trkpt>
      <trkpt lat="47.25374" lon="4.60251">
        <ele>518.107483</ele>
        <time>2018-08-20T09:27:04Z</time>
      </trkpt>
      <trkpt lat="47.25376" lon="4.60252">
        <ele>518.334412</ele>
        <time>2018-08-20T09:27:05Z</time>
      </trkpt>
      <trkpt lat="47.25379" lon="4.60253">
        <ele>518.547302</ele>
        <time>2018-08-20T09:27:06Z</time>
      </trkpt>
      <trkpt lat="47.25382" lon="4.60253">
        <ele>518.755615</ele>
        <time>2018-08-20T09:27:07Z</time>
      </trkpt>
      <trkpt lat="47.25385" lon="4.60255">
        <ele>518.956299</ele>
        <time>2018-08-20T09:27:08Z</time>
      </trkpt>
      <trkpt lat="47.25388" lon="4.60256">
        <ele>518.956299</ele>
        <time>2018-08-20T09:27:09Z</time>
      </trkpt>
      <trkpt lat="47.25391" lon="4.60257">
        <ele>519.163025</ele>
        <time>2018-08-20T09:27:10Z</time>
      </trkpt>
      <trkpt lat="47.25394" lon="4.60258">
        <ele>519.382507</ele>
        <time>2018-08-20T09:27:11Z</time>
      </trkpt>
      <trkpt lat="47.25397" lon="4.60259">
        <ele>519.639343</ele>
        <time>2018-08-20T09:27:12Z</time>
      </trkpt>
      <trkpt lat="47.25399" lon="4.60261">
        <ele>519.897278</ele>
        <time>2018-08-20T09:27:13Z</time>
      </trkpt>
      <trkpt lat="47.25401" lon="4.60262">
        <ele>520.160583</ele>
        <time>2018-08-20T09:27:14Z</time>
      </trkpt>
      <trkpt lat="47.25404" lon="4.60264">
        <ele>520.419434</ele>
        <time>2018-08-20T09:27:15Z</time>
      </trkpt>
      <trkpt lat="47.25407" lon="4.60265">
        <ele>520.644897</ele>
        <time>2018-08-20T09:27:16Z</time>
      </trkpt>
      <trkpt lat="47.25409" lon="4.60267">
        <ele>520.84259</ele>
        <time>2018-08-20T09:27:17Z</time>
      </trkpt>
      <trkpt lat="47.25412" lon="4.60268">
        <ele>520.990051</ele>
        <time>2018-08-20T09:27:18Z</time>
      </trkpt>
      <trkpt lat="47.25415" lon="4.60269">
        <ele>521.131775</ele>
        <time>2018-08-20T09:27:19Z</time>
      </trkpt>
      <trkpt lat="47.25418" lon="4.60272">
        <ele>521.253174</ele>
        <time>2018-08-20T09:27:20Z</time>
      </trkpt>
      <trkpt lat="47.2542" lon="4.60274">
        <ele>521.253174</ele>
        <time>2018-08-20T09:27:21Z</time>
      </trkpt>
      <trkpt lat="47.25423" lon="4.60277">
        <ele>521.371521</ele>
        <time>2018-08-20T09:27:22Z</time>
      </trkpt>
      <trkpt lat="47.25425" lon="4.6028">
        <ele>521.510254</ele>
        <time>2018-08-20T09:27:23Z</time>
      </trkpt>
      <trkpt lat="47.25428" lon="4.60284">
        <ele>521.652344</ele>
        <time>2018-08-20T09:27:24Z</time>
      </trkpt>
      <trkpt lat="47.25431" lon="4.60289">
        <ele>521.767883</ele>
        <time>2018-08-20T09:27:25Z</time>
      </trkpt>
      <trkpt lat="47.25434" lon="4.60293">
        <ele>521.835388</ele>
        <time>2018-08-20T09:27:26Z</time>
      </trkpt>
      <trkpt lat="47.25437" lon="4.60298">
        <ele>521.862793</ele>
        <time>2018-08-20T09:27:27Z</time>
      </trkpt>
      <trkpt lat="47.25439" lon="4.60302">
        <ele>521.862793</ele>
        <time>2018-08-20T09:27:28Z</time>
      </trkpt>
      <trkpt lat="47.25442" lon="4.60307">
        <ele>521.862793</ele>
        <time>2018-08-20T09:27:29Z</time>
      </trkpt>
      <trkpt lat="47.25444" lon="4.60311">
        <ele>521.850342</ele>
        <time>2018-08-20T09:27:30Z</time>
      </trkpt>
      <trkpt lat="47.25448" lon="4.60316">
        <ele>521.782288</ele>
        <time>2018-08-20T09:27:31Z</time>
      </trkpt>
      <trkpt lat="47.25451" lon="4.60321">
        <ele>521.676758</ele>
        <time>2018-08-20T09:27:32Z</time>
      </trkpt>
      <trkpt lat="47.25454" lon="4.60326">
        <ele>521.554749</ele>
        <time>2018-08-20T09:27:33Z</time>
      </trkpt>
      <trkpt lat="47.25457" lon="4.60331">
        <ele>521.441101</ele>
        <time>2018-08-20T09:27:34Z</time>
      </trkpt>
      <trkpt lat="47.2546" lon="4.60336">
        <ele>521.334167</ele>
        <time>2018-08-20T09:27:35Z</time>
      </trkpt>
      <trkpt lat="47.25464" lon="4.60341">
        <ele>521.226501</ele>
        <time>2018-08-20T09:27:36Z</time>
      </trkpt>
      <trkpt lat="47.25467" lon="4.60347">
        <ele>521.074646</ele>
        <time>2018-08-20T09:27:37Z</time>
      </trkpt>
      <trkpt lat="47.2547" lon="4.60352">
        <ele>520.858337</ele>
        <time>2018-08-20T09:27:38Z</time>
      </trkpt>
      <trkpt lat="47.25473" lon="4.60357">
        <ele>520.592957</ele>
        <time>2018-08-20T09:27:39Z</time>
      </trkpt>
      <trkpt lat="47.25477" lon="4.60362">
        <ele>520.270508</ele>
        <time>2018-08-20T09:27:40Z</time>
      </trkpt>
      <trkpt lat="47.2548" lon="4.60367">
        <ele>519.893127</ele>
        <time>2018-08-20T09:27:41Z</time>
      </trkpt>
      <trkpt lat="47.25484" lon="4.60372">
        <ele>519.470947</ele>
        <time>2018-08-20T09:27:42Z</time>
      </trkpt>
      <trkpt lat="47.25488" lon="4.60377">
        <ele>519.051514</ele>
        <time>2018-08-20T09:27:43Z</time>
      </trkpt>
      <trkpt lat="47.25493" lon="4.60383">
        <ele>518.646484</ele>
        <time>2018-08-20T09:27:44Z</time>
      </trkpt>
      <trkpt lat="47.25497" lon="4.60389">
        <ele>518.255188</ele>
        <time>2018-08-20T09:27:45Z</time>
      </trkpt>
      <trkpt lat="47.25502" lon="4.60395">
        <ele>517.880188</ele>
        <time>2018-08-20T09:27:46Z</time>
      </trkpt>
      <trkpt lat="47.25507" lon="4.60403">
        <ele>517.880188</ele>
        <time>2018-08-20T09:27:47Z</time>
      </trkpt>
      <trkpt lat="47.25511" lon="4.6041">
        <ele>517.521667</ele>
        <time>2018-08-20T09:27:48Z</time>
      </trkpt>
      <trkpt lat="47.25516" lon="4.60418">
        <ele>517.133362</ele>
        <time>2018-08-20T09:27:49Z</time>
      </trkpt>
      <trkpt lat="47.25521" lon="4.60425">
        <ele>516.483948</ele>
        <time>2018-08-20T09:27:50Z</time>
      </trkpt>
      <trkpt lat="47.25525" lon="4.60433">
        <ele>515.698181</ele>
        <time>2018-08-20T09:27:51Z</time>
      </trkpt>
      <trkpt lat="47.25529" lon="4.6044">
        <ele>514.777344</ele>
        <time>2018-08-20T09:27:52Z</time>
      </trkpt>
      <trkpt lat="47.25533" lon="4.60446">
        <ele>513.720764</ele>
        <time>2018-08-20T09:27:53Z</time>
      </trkpt>
      <trkpt lat="47.25537" lon="4.60452">
        <ele>512.517578</ele>
        <time>2018-08-20T09:27:54Z</time>
      </trkpt>
      <trkpt lat="47.25542" lon="4.60458">
        <ele>511.226227</ele>
        <time>2018-08-20T09:27:55Z</time>
      </trkpt>
      <trkpt lat="47.25546" lon="4.60464">
        <ele>510.086578</ele>
        <time>2018-08-20T09:27:56Z</time>
      </trkpt>
      <trkpt lat="47.25552" lon="4.60469">
        <ele>508.9935</ele>
        <time>2018-08-20T09:27:57Z</time>
      </trkpt>
      <trkpt lat="47.25557" lon="4.60474">
        <ele>507.947418</ele>
        <time>2018-08-20T09:27:58Z</time>
      </trkpt>
      <trkpt lat="47.25562" lon="4.60479">
        <ele>506.950195</ele>
        <time>2018-08-20T09:27:59Z</time>
      </trkpt>
      <trkpt lat="47.25567" lon="4.60484">
        <ele>506.014496</ele>
        <time>2018-08-20T09:28:00Z</time>
      </trkpt>
      <trkpt lat="47.25573" lon="4.60489">
        <ele>505.124481</ele>
        <time>2018-08-20T09:28:01Z</time>
      </trkpt>
      <trkpt lat="47.25578" lon="4.60492">
        <ele>504.272858</ele>
        <time>2018-08-20T09:28:02Z</time>
      </trkpt>
      <trkpt lat="47.25584" lon="4.60492">
        <ele>503.407349</ele>
        <time>2018-08-20T09:28:03Z</time>
      </trkpt>
      <trkpt lat="47.25591" lon="4.60493">
        <ele>502.505615</ele>
        <time>2018-08-20T09:28:04Z</time>
      </trkpt>
      <trkpt lat="47.25597" lon="4.60493">
        <ele>501.604034</ele>
        <time>2018-08-20T09:28:05Z</time>
      </trkpt>
      <trkpt lat="47.25604" lon="4.60494">
        <ele>500.799438</ele>
        <time>2018-08-20T09:28:06Z</time>
      </trkpt>
      <trkpt lat="47.25611" lon="4.60493">
        <ele>500.071198</ele>
        <time>2018-08-20T09:28:07Z</time>
      </trkpt>
      <trkpt lat="47.25617" lon="4.60493">
        <ele>499.434052</ele>
        <time>2018-08-20T09:28:08Z</time>
      </trkpt>
      <trkpt lat="47.25624" lon="4.60492">
        <ele>498.910248</ele>
        <time>2018-08-20T09:28:09Z</time>
      </trkpt>
      <trkpt lat="47.25631" lon="4.60492">
        <ele>498.541962</ele>
        <time>2018-08-20T09:28:10Z</time>
      </trkpt>
      <trkpt lat="47.25637" lon="4.60491">
        <ele>498.294556</ele>
        <time>2018-08-20T09:28:11Z</time>
      </trkpt>
      <trkpt lat="47.25643" lon="4.6049">
        <ele>498.066132</ele>
        <time>2018-08-20T09:28:12Z</time>
      </trkpt>
      <trkpt lat="47.2565" lon="4.60489">
        <ele>497.873749</ele>
        <time>2018-08-20T09:28:13Z</time>
      </trkpt>
      <trkpt lat="47.25656" lon="4.60488">
        <ele>497.70755</ele>
        <time>2018-08-20T09:28:14Z</time>
      </trkpt>
      <trkpt lat="47.25662" lon="4.60488">
        <ele>497.596588</ele>
        <time>2018-08-20T09:28:15Z</time>
      </trkpt>
      <trkpt lat="47.25666" lon="4.60488">
        <ele>497.494843</ele>
        <time>2018-08-20T09:28:16Z</time>
      </trkpt>
      <trkpt lat="47.25671" lon="4.60489">
        <ele>497.494843</ele>
        <time>2018-08-20T09:28:17Z</time>
      </trkpt>
      <trkpt lat="47.25675" lon="4.60489">
        <ele>497.380859</ele>
        <time>2018-08-20T09:28:18Z</time>
      </trkpt>
      <trkpt lat="47.25679" lon="4.60489">
        <ele>497.24649</ele>
        <time>2018-08-20T09:28:19Z</time>
      </trkpt>
      <trkpt lat="47.25682" lon="4.60489">
        <ele>497.050293</ele>
        <time>2018-08-20T09:28:20Z</time>
      </trkpt>
      <trkpt lat="47.25685" lon="4.60488">
        <ele>496.827148</ele>
        <time>2018-08-20T09:28:21Z</time>
      </trkpt>
      <trkpt lat="47.25689" lon="4.60488">
        <ele>496.827148</ele>
        <time>2018-08-20T09:28:22Z</time>
      </trkpt>
      <trkpt lat="47.25692" lon="4.60488">
        <ele>496.583649</ele>
        <time>2018-08-20T09:28:23Z</time>
      </trkpt>
      <trkpt lat="47.25697" lon="4.60488">
        <ele>496.356445</ele>
        <time>2018-08-20T09:28:24Z</time>
      </trkpt>
      <trkpt lat="47.25701" lon="4.60488">
        <ele>496.135742</ele>
        <time>2018-08-20T09:28:25Z</time>
      </trkpt>
      <trkpt lat="47.25705" lon="4.60488">
        <ele>495.93515</ele>
        <time>2018-08-20T09:28:26Z</time>
      </trkpt>
      <trkpt lat="47.25709" lon="4.60487">
        <ele>495.793701</ele>
        <time>2018-08-20T09:28:27Z</time>
      </trkpt>
      <trkpt lat="47.25714" lon="4.60487">
        <ele>495.667084</ele>
        <time>2018-08-20T09:28:28Z</time>
      </trkpt>
      <trkpt lat="47.25718" lon="4.60487">
        <ele>495.541168</ele>
        <time>2018-08-20T09:28:29Z</time>
      </trkpt>
      <trkpt lat="47.25722" lon="4.60486">
        <ele>495.402435</ele>
        <time>2018-08-20T09:28:30Z</time>
      </trkpt>
      <trkpt lat="47.25726" lon="4.60485">
        <ele>495.281891</ele>
        <time>2018-08-20T09:28:31Z</time>
      </trkpt>
      <trkpt lat="47.25731" lon="4.60485">
        <ele>495.182037</ele>
        <time>2018-08-20T09:28:32Z</time>
      </trkpt>
      <trkpt lat="47.25734" lon="4.60485">
        <ele>495.104156</ele>
        <time>2018-08-20T09:28:33Z</time>
      </trkpt>
      <trkpt lat="47.25738" lon="4.60485">
        <ele>495.054047</ele>
        <time>2018-08-20T09:28:34Z</time>
      </trkpt>
      <trkpt lat="47.25741" lon="4.60485">
        <ele>495.003906</ele>
        <time>2018-08-20T09:28:35Z</time>
      </trkpt>
      <trkpt lat="47.25744" lon="4.60485">
        <ele>494.962067</ele>
        <time>2018-08-20T09:28:36Z</time>
      </trkpt>
      <trkpt lat="47.25747" lon="4.60485">
        <ele>494.916016</ele>
        <time>2018-08-20T09:28:37Z</time>
      </trkpt>
      <trkpt lat="47.2575" lon="4.60485">
        <ele>494.83725</ele>
        <time>2018-08-20T09:28:38Z</time>
      </trkpt>
      <trkpt lat="47.25753" lon="4.60485">
        <ele>494.753906</ele>
        <time>2018-08-20T09:28:39Z</time>
      </trkpt>
      <trkpt lat="47.25757" lon="4.60486">
        <ele>494.670746</ele>
        <time>2018-08-20T09:28:40Z</time>
      </trkpt>
      <trkpt lat="47.2576" lon="4.60486">
        <ele>494.585938</ele>
        <time>2018-08-20T09:28:41Z</time>
      </trkpt>
      <trkpt lat="47.25763" lon="4.60486">
        <ele>494.482269</ele>
        <time>2018-08-20T09:28:42Z</time>
      </trkpt>
      <trkpt lat="47.25768" lon="4.60487">
        <ele>494.348969</ele>
        <time>2018-08-20T09:28:43Z</time>
      </trkpt>
      <trkpt lat="47.25771" lon="4.60487">
        <ele>494.226074</ele>
        <time>2018-08-20T09:28:44Z</time>
      </trkpt>
      <trkpt lat="47.25775" lon="4.60488">
        <ele>494.092621</ele>
        <time>2018-08-20T09:28:45Z</time>
      </trkpt>
      <trkpt lat="47.25778" lon="4.60488">
        <ele>493.951263</ele>
        <time>2018-08-20T09:28:46Z</time>
      </trkpt>
      <trkpt lat="47.25782" lon="4.60488">
        <ele>493.858734</ele>
        <time>2018-08-20T09:28:47Z</time>
      </trkpt>
      <trkpt lat="47.25785" lon="4.60489">
        <ele>493.82077</ele>
        <time>2018-08-20T09:28:48Z</time>
      </trkpt>
      <trkpt lat="47.25789" lon="4.60489">
        <ele>493.82077</ele>
        <time>2018-08-20T09:28:49Z</time>
      </trkpt>
      <trkpt lat="47.25792" lon="4.6049">
        <ele>493.82077</ele>
        <time>2018-08-20T09:28:50Z</time>
      </trkpt>
      <trkpt lat="47.25796" lon="4.6049">
        <ele>493.832397</ele>
        <time>2018-08-20T09:28:51Z</time>
      </trkpt>
      <trkpt lat="47.258" lon="4.60491">
        <ele>493.885406</ele>
        <time>2018-08-20T09:28:52Z</time>
      </trkpt>
      <trkpt lat="47.25803" lon="4.60492">
        <ele>493.971283</ele>
        <time>2018-08-20T09:28:53Z</time>
      </trkpt>
      <trkpt lat="47.25807" lon="4.60493">
        <ele>494.088531</ele>
        <time>2018-08-20T09:28:54Z</time>
      </trkpt>
      <trkpt lat="47.2581" lon="4.60494">
        <ele>494.189697</ele>
        <time>2018-08-20T09:28:55Z</time>
      </trkpt>
      <trkpt lat="47.25814" lon="4.60494">
        <ele>494.271484</ele>
        <time>2018-08-20T09:28:56Z</time>
      </trkpt>
      <trkpt lat="47.25817" lon="4.60495">
        <ele>494.353851</ele>
        <time>2018-08-20T09:28:57Z</time>
      </trkpt>
      <trkpt lat="47.25819" lon="4.60495">
        <ele>494.425323</ele>
        <time>2018-08-20T09:28:58Z</time>
      </trkpt>
      <trkpt lat="47.25823" lon="4.60496">
        <ele>494.5065</ele>
        <time>2018-08-20T09:28:59Z</time>
      </trkpt>
      <trkpt lat="47.25826" lon="4.60497">
        <ele>494.588409</ele>
        <time>2018-08-20T09:29:00Z</time>
      </trkpt>
      <trkpt lat="47.25829" lon="4.60498">
        <ele>494.671509</ele>
        <time>2018-08-20T09:29:01Z</time>
      </trkpt>
      <trkpt lat="47.25833" lon="4.60498">
        <ele>494.75061</ele>
        <time>2018-08-20T09:29:02Z</time>
      </trkpt>
      <trkpt lat="47.25836" lon="4.60499">
        <ele>494.835083</ele>
        <time>2018-08-20T09:29:03Z</time>
      </trkpt>
      <trkpt lat="47.25839" lon="4.605">
        <ele>494.93399</ele>
        <time>2018-08-20T09:29:04Z</time>
      </trkpt>
      <trkpt lat="47.25841" lon="4.605">
        <ele>495.030304</ele>
        <time>2018-08-20T09:29:05Z</time>
      </trkpt>
      <trkpt lat="47.25843" lon="4.60502">
        <ele>495.119507</ele>
        <time>2018-08-20T09:29:06Z</time>
      </trkpt>
      <trkpt lat="47.25845" lon="4.60504">
        <ele>495.209747</ele>
        <time>2018-08-20T09:29:07Z</time>
      </trkpt>
      <trkpt lat="47.25846" lon="4.60507">
        <ele>495.29187</ele>
        <time>2018-08-20T09:29:08Z</time>
      </trkpt>
      <trkpt lat="47.25847" lon="4.6051">
        <ele>495.306</ele>
        <time>2018-08-20T09:29:09Z</time>
      </trkpt>
      <trkpt lat="47.25847" lon="4.60513">
        <ele>495.306</ele>
        <time>2018-08-20T09:29:10Z</time>
      </trkpt>
      <trkpt lat="47.25846" lon="4.60516">
        <ele>495.306</ele>
        <time>2018-08-20T09:29:11Z</time>
      </trkpt>
      <trkpt lat="47.25845" lon="4.60519">
        <ele>495.235962</ele>
        <time>2018-08-20T09:29:12Z</time>
      </trkpt>
      <trkpt lat="47.25842" lon="4.60523">
        <ele>495.06604</ele>
        <time>2018-08-20T09:29:13Z</time>
      </trkpt>
      <trkpt lat="47.25839" lon="4.60526">
        <ele>494.785034</ele>
        <time>2018-08-20T09:29:14Z</time>
      </trkpt>
      <trkpt lat="47.25835" lon="4.6053">
        <ele>494.376251</ele>
        <time>2018-08-20T09:29:15Z</time>
      </trkpt>
      <trkpt lat="47.25831" lon="4.60534">
        <ele>493.834442</ele>
        <time>2018-08-20T09:29:16Z</time>
      </trkpt>
      <trkpt lat="47.25827" lon="4.6054">
        <ele>493.183136</ele>
        <time>2018-08-20T09:29:17Z</time>
      </trkpt>
      <trkpt lat="47.25824" lon="4.60546">
        <ele>493.183136</ele>
        <time>2018-08-20T09:29:18Z</time>
      </trkpt>
      <trkpt lat="47.25819" lon="4.60553">
        <ele>492.437042</ele>
        <time>2018-08-20T09:29:19Z</time>
      </trkpt>
      <trkpt lat="47.25815" lon="4.6056">
        <ele>491.606415</ele>
        <time>2018-08-20T09:29:20Z</time>
      </trkpt>
      <trkpt lat="47.2581" lon="4.60568">
        <ele>490.521851</ele>
        <time>2018-08-20T09:29:21Z</time>
      </trkpt>
      <trkpt lat="47.25805" lon="4.60577">
        <ele>490.521851</ele>
        <time>2018-08-20T09:29:22Z</time>
      </trkpt>
      <trkpt lat="47.258" lon="4.60584">
        <ele>489.340088</ele>
        <time>2018-08-20T09:29:23Z</time>
      </trkpt>
      <trkpt lat="47.25794" lon="4.60592">
        <ele>488.055634</ele>
        <time>2018-08-20T09:29:24Z</time>
      </trkpt>
      <trkpt lat="47.25787" lon="4.60599">
        <ele>486.38327</ele>
        <time>2018-08-20T09:29:25Z</time>
      </trkpt>
      <trkpt lat="47.2578" lon="4.60607">
        <ele>484.586151</ele>
        <time>2018-08-20T09:29:26Z</time>
      </trkpt>
      <trkpt lat="47.25772" lon="4.60615">
        <ele>482.650635</ele>
        <time>2018-08-20T09:29:27Z</time>
      </trkpt>
      <trkpt lat="47.25764" lon="4.60623">
        <ele>480.736816</ele>
        <time>2018-08-20T09:29:28Z</time>
      </trkpt>
      <trkpt lat="47.25756" lon="4.6063">
        <ele>478.808197</ele>
        <time>2018-08-20T09:29:29Z</time>
      </trkpt>
      <trkpt lat="47.25748" lon="4.60638">
        <ele>476.930817</ele>
        <time>2018-08-20T09:29:30Z</time>
      </trkpt>
      <trkpt lat="47.25739" lon="4.60645">
        <ele>475.500336</ele>
        <time>2018-08-20T09:29:31Z</time>
      </trkpt>
      <trkpt lat="47.25731" lon="4.60652">
        <ele>474.285553</ele>
        <time>2018-08-20T09:29:32Z</time>
      </trkpt>
      <trkpt lat="47.25722" lon="4.60659">
        <ele>473.284302</ele>
        <time>2018-08-20T09:29:33Z</time>
      </trkpt>
      <trkpt lat="47.25715" lon="4.60666">
        <ele>472.503571</ele>
        <time>2018-08-20T09:29:34Z</time>
      </trkpt>
      <trkpt lat="47.25706" lon="4.60673">
        <ele>471.819244</ele>
        <time>2018-08-20T09:29:35Z</time>
      </trkpt>
      <trkpt lat="47.25697" lon="4.60679">
        <ele>471.170563</ele>
        <time>2018-08-20T09:29:36Z</time>
      </trkpt>
      <trkpt lat="47.25687" lon="4.60684">
        <ele>470.467529</ele>
        <time>2018-08-20T09:29:37Z</time>
      </trkpt>
      <trkpt lat="47.25677" lon="4.60689">
        <ele>469.660645</ele>
        <time>2018-08-20T09:29:38Z</time>
      </trkpt>
      <trkpt lat="47.25667" lon="4.60693">
        <ele>468.810089</ele>
        <time>2018-08-20T09:29:39Z</time>
      </trkpt>
      <trkpt lat="47.25657" lon="4.60697">
        <ele>467.969574</ele>
        <time>2018-08-20T09:29:40Z</time>
      </trkpt>
      <trkpt lat="47.25648" lon="4.60701">
        <ele>467.147949</ele>
        <time>2018-08-20T09:29:41Z</time>
      </trkpt>
      <trkpt lat="47.25637" lon="4.60706">
        <ele>466.353912</ele>
        <time>2018-08-20T09:29:42Z</time>
      </trkpt>
      <trkpt lat="47.25627" lon="4.60713">
        <ele>465.583862</ele>
        <time>2018-08-20T09:29:43Z</time>
      </trkpt>
      <trkpt lat="47.25617" lon="4.60722">
        <ele>464.834473</ele>
        <time>2018-08-20T09:29:44Z</time>
      </trkpt>
      <trkpt lat="47.25605" lon="4.60732">
        <ele>464.019287</ele>
        <time>2018-08-20T09:29:45Z</time>
      </trkpt>
      <trkpt lat="47.25594" lon="4.60742">
        <ele>463.084808</ele>
        <time>2018-08-20T09:29:46Z</time>
      </trkpt>
      <trkpt lat="47.25583" lon="4.60753">
        <ele>462.057037</ele>
        <time>2018-08-20T09:29:47Z</time>
      </trkpt>
      <trkpt lat="47.25573" lon="4.60764">
        <ele>460.910309</ele>
        <time>2018-08-20T09:29:48Z</time>
      </trkpt>
      <trkpt lat="47.25562" lon="4.60776">
        <ele>459.632538</ele>
        <time>2018-08-20T09:29:49Z</time>
      </trkpt>
      <trkpt lat="47.25551" lon="4.60787">
        <ele>458.212006</ele>
        <time>2018-08-20T09:29:50Z</time>
      </trkpt>
      <trkpt lat="47.25541" lon="4.608">
        <ele>456.660675</ele>
        <time>2018-08-20T09:29:51Z</time>
      </trkpt>
      <trkpt lat="47.2553" lon="4.60811">
        <ele>454.96228</ele>
        <time>2018-08-20T09:29:52Z</time>
      </trkpt>
      <trkpt lat="47.2552" lon="4.60822">
        <ele>453.152466</ele>
        <time>2018-08-20T09:29:53Z</time>
      </trkpt>
      <trkpt lat="47.25512" lon="4.60834">
        <ele>451.260864</ele>
        <time>2018-08-20T09:29:54Z</time>
      </trkpt>
      <trkpt lat="47.25502" lon="4.60845">
        <ele>451.260864</ele>
        <time>2018-08-20T09:29:55Z</time>
      </trkpt>
      <trkpt lat="47.25493" lon="4.60855">
        <ele>449.356445</ele>
        <time>2018-08-20T09:29:56Z</time>
      </trkpt>
      <trkpt lat="47.25484" lon="4.60866">
        <ele>447.532959</ele>
        <time>2018-08-20T09:29:57Z</time>
      </trkpt>
      <trkpt lat="47.25475" lon="4.60877">
        <ele>445.600494</ele>
        <time>2018-08-20T09:29:58Z</time>
      </trkpt>
      <trkpt lat="47.25466" lon="4.60888">
        <ele>443.824951</ele>
        <time>2018-08-20T09:29:59Z</time>
      </trkpt>
      <trkpt lat="47.25457" lon="4.609">
        <ele>442.244476</ele>
        <time>2018-08-20T09:30:00Z</time>
      </trkpt>
      <trkpt lat="47.25448" lon="4.60911">
        <ele>440.876831</ele>
        <time>2018-08-20T09:30:01Z</time>
      </trkpt>
      <trkpt lat="47.2544" lon="4.60921">
        <ele>439.715088</ele>
        <time>2018-08-20T09:30:02Z</time>
      </trkpt>
      <trkpt lat="47.25431" lon="4.60929">
        <ele>438.675201</ele>
        <time>2018-08-20T09:30:03Z</time>
      </trkpt>
      <trkpt lat="47.25424" lon="4.60937">
        <ele>437.971283</ele>
        <time>2018-08-20T09:30:04Z</time>
      </trkpt>
      <trkpt lat="47.25417" lon="4.60945">
        <ele>437.376556</ele>
        <time>2018-08-20T09:30:05Z</time>
      </trkpt>
      <trkpt lat="47.2541" lon="4.60953">
        <ele>436.812744</ele>
        <time>2018-08-20T09:30:06Z</time>
      </trkpt>
      <trkpt lat="47.25403" lon="4.60963">
        <ele>436.264374</ele>
        <time>2018-08-20T09:30:07Z</time>
      </trkpt>
      <trkpt lat="47.25395" lon="4.60972">
        <ele>435.676544</ele>
        <time>2018-08-20T09:30:08Z</time>
      </trkpt>
      <trkpt lat="47.25388" lon="4.6098">
        <ele>435.059906</ele>
        <time>2018-08-20T09:30:09Z</time>
      </trkpt>
      <trkpt lat="47.25381" lon="4.60989">
        <ele>434.396271</ele>
        <time>2018-08-20T09:30:10Z</time>
      </trkpt>
      <trkpt lat="47.25374" lon="4.60997">
        <ele>433.675323</ele>
        <time>2018-08-20T09:30:11Z</time>
      </trkpt>
      <trkpt lat="47.25366" lon="4.61005">
        <ele>432.878387</ele>
        <time>2018-08-20T09:30:12Z</time>
      </trkpt>
      <trkpt lat="47.25358" lon="4.61011">
        <ele>431.998199</ele>
        <time>2018-08-20T09:30:13Z</time>
      </trkpt>
      <trkpt lat="47.25351" lon="4.61017">
        <ele>431.05069</ele>
        <time>2018-08-20T09:30:14Z</time>
      </trkpt>
      <trkpt lat="47.25343" lon="4.61022">
        <ele>430.043793</ele>
        <time>2018-08-20T09:30:15Z</time>
      </trkpt>
      <trkpt lat="47.25334" lon="4.61025">
        <ele>429.01651</ele>
        <time>2018-08-20T09:30:16Z</time>
      </trkpt>
      <trkpt lat="47.25325" lon="4.61026">
        <ele>427.878082</ele>
        <time>2018-08-20T09:30:17Z</time>
      </trkpt>
      <trkpt lat="47.25315" lon="4.61027">
        <ele>426.639984</ele>
        <time>2018-08-20T09:30:18Z</time>
      </trkpt>
      <trkpt lat="47.25306" lon="4.61029">
        <ele>425.347565</ele>
        <time>2018-08-20T09:30:19Z</time>
      </trkpt>
      <trkpt lat="47.25297" lon="4.61032">
        <ele>424.021393</ele>
        <time>2018-08-20T09:30:20Z</time>
      </trkpt>
      <trkpt lat="47.25288" lon="4.61035">
        <ele>422.659821</ele>
        <time>2018-08-20T09:30:21Z</time>
      </trkpt>
      <trkpt lat="47.2528" lon="4.61039">
        <ele>421.236572</ele>
        <time>2018-08-20T09:30:22Z</time>
      </trkpt>
      <trkpt lat="47.25271" lon="4.61042">
        <ele>421.236572</ele>
        <time>2018-08-20T09:30:23Z</time>
      </trkpt>
      <trkpt lat="47.25264" lon="4.61044">
        <ele>419.846802</ele>
        <time>2018-08-20T09:30:24Z</time>
      </trkpt>
      <trkpt lat="47.25256" lon="4.61047">
        <ele>418.49118</ele>
        <time>2018-08-20T09:30:25Z</time>
      </trkpt>
      <trkpt lat="47.25249" lon="4.6105">
        <ele>416.944489</ele>
        <time>2018-08-20T09:30:26Z</time>
      </trkpt>
      <trkpt lat="47.25242" lon="4.61052">
        <ele>415.424683</ele>
        <time>2018-08-20T09:30:27Z</time>
      </trkpt>
      <trkpt lat="47.25235" lon="4.61053">
        <ele>413.940582</ele>
        <time>2018-08-20T09:30:28Z</time>
      </trkpt>
      <trkpt lat="47.25229" lon="4.61056">
        <ele>412.524017</ele>
        <time>2018-08-20T09:30:29Z</time>
      </trkpt>
      <trkpt lat="47.25224" lon="4.61057">
        <ele>411.188385</ele>
        <time>2018-08-20T09:30:30Z</time>
      </trkpt>
      <trkpt lat="47.25219" lon="4.6106">
        <ele>409.94931</ele>
        <time>2018-08-20T09:30:31Z</time>
      </trkpt>
      <trkpt lat="47.25214" lon="4.61062">
        <ele>409.002777</ele>
        <time>2018-08-20T09:30:32Z</time>
      </trkpt>
      <trkpt lat="47.2521" lon="4.61065">
        <ele>408.137695</ele>
        <time>2018-08-20T09:30:33Z</time>
      </trkpt>
      <trkpt lat="47.25206" lon="4.61068">
        <ele>407.355347</ele>
        <time>2018-08-20T09:30:34Z</time>
      </trkpt>
      <trkpt lat="47.25202" lon="4.61071">
        <ele>406.682587</ele>
        <time>2018-08-20T09:30:35Z</time>
      </trkpt>
      <trkpt lat="47.25197" lon="4.61073">
        <ele>406.112091</ele>
        <time>2018-08-20T09:30:36Z</time>
      </trkpt>
      <trkpt lat="47.25192" lon="4.61076">
        <ele>405.629547</ele>
        <time>2018-08-20T09:30:37Z</time>
      </trkpt>
      <trkpt lat="47.25186" lon="4.6108">
        <ele>405.233612</ele>
        <time>2018-08-20T09:30:38Z</time>
      </trkpt>
      <trkpt lat="47.25181" lon="4.61082">
        <ele>404.897858</ele>
        <time>2018-08-20T09:30:39Z</time>
      </trkpt>
      <trkpt lat="47.25176" lon="4.61085">
        <ele>404.605988</ele>
        <time>2018-08-20T09:30:40Z</time>
      </trkpt>
      <trkpt lat="47.25171" lon="4.61088">
        <ele>404.317017</ele>
        <time>2018-08-20T09:30:41Z</time>
      </trkpt>
      <trkpt lat="47.25166" lon="4.61091">
        <ele>404.031219</ele>
        <time>2018-08-20T09:30:42Z</time>
      </trkpt>
      <trkpt lat="47.2516" lon="4.61094">
        <ele>403.752106</ele>
        <time>2018-08-20T09:30:43Z</time>
      </trkpt>
      <trkpt lat="47.25155" lon="4.61097">
        <ele>403.482819</ele>
        <time>2018-08-20T09:30:44Z</time>
      </trkpt>
      <trkpt lat="47.2515" lon="4.611">
        <ele>403.224274</ele>
        <time>2018-08-20T09:30:45Z</time>
      </trkpt>
      <trkpt lat="47.25144" lon="4.61103">
        <ele>402.977051</ele>
        <time>2018-08-20T09:30:46Z</time>
      </trkpt>
      <trkpt lat="47.25137" lon="4.61106">
        <ele>402.739532</ele>
        <time>2018-08-20T09:30:47Z</time>
      </trkpt>
      <trkpt lat="47.25131" lon="4.61109">
        <ele>402.51001</ele>
        <time>2018-08-20T09:30:48Z</time>
      </trkpt>
      <trkpt lat="47.25125" lon="4.61112">
        <ele>402.27832</ele>
        <time>2018-08-20T09:30:49Z</time>
      </trkpt>
      <trkpt lat="47.25119" lon="4.61115">
        <ele>402.038086</ele>
        <time>2018-08-20T09:30:50Z</time>
      </trkpt>
      <trkpt lat="47.25113" lon="4.61118">
        <ele>401.786865</ele>
        <time>2018-08-20T09:30:51Z</time>
      </trkpt>
      <trkpt lat="47.25107" lon="4.61121">
        <ele>401.529541</ele>
        <time>2018-08-20T09:30:52Z</time>
      </trkpt>
      <trkpt lat="47.25102" lon="4.61126">
        <ele>401.266113</ele>
        <time>2018-08-20T09:30:53Z</time>
      </trkpt>
      <trkpt lat="47.25095" lon="4.61131">
        <ele>400.999023</ele>
        <time>2018-08-20T09:30:54Z</time>
      </trkpt>
      <trkpt lat="47.25089" lon="4.61137">
        <ele>400.731934</ele>
        <time>2018-08-20T09:30:55Z</time>
      </trkpt>
      <trkpt lat="47.25084" lon="4.61143">
        <ele>400.467285</ele>
        <time>2018-08-20T09:30:56Z</time>
      </trkpt>
      <trkpt lat="47.25077" lon="4.61149">
        <ele>400.20752</ele>
        <time>2018-08-20T09:30:57Z</time>
      </trkpt>
      <trkpt lat="47.2507" lon="4.61155">
        <ele>399.948975</ele>
        <time>2018-08-20T09:30:58Z</time>
      </trkpt>
      <trkpt lat="47.25063" lon="4.61161">
        <ele>399.692871</ele>
        <time>2018-08-20T09:30:59Z</time>
      </trkpt>
      <trkpt lat="47.25056" lon="4.61167">
        <ele>399.446198</ele>
        <time>2018-08-20T09:31:00Z</time>
      </trkpt>
      <trkpt lat="47.25048" lon="4.61172">
        <ele>399.206879</ele>
        <time>2018-08-20T09:31:01Z</time>
      </trkpt>
      <trkpt lat="47.2504" lon="4.61177">
        <ele>398.970215</ele>
        <time>2018-08-20T09:31:02Z</time>
      </trkpt>
      <trkpt lat="47.25033" lon="4.61182">
        <ele>398.73111</ele>
        <time>2018-08-20T09:31:03Z</time>
      </trkpt>
      <trkpt lat="47.25026" lon="4.61186">
        <ele>398.487915</ele>
        <time>2018-08-20T09:31:04Z</time>
      </trkpt>
      <trkpt lat="47.25019" lon="4.6119">
        <ele>398.237305</ele>
        <time>2018-08-20T09:31:05Z</time>
      </trkpt>
      <trkpt lat="47.25013" lon="4.61193">
        <ele>398.237305</ele>
        <time>2018-08-20T09:31:06Z</time>
      </trkpt>
      <trkpt lat="47.25008" lon="4.61197">
        <ele>397.967316</ele>
        <time>2018-08-20T09:31:07Z</time>
      </trkpt>
      <trkpt lat="47.25004" lon="4.612">
        <ele>397.683136</ele>
        <time>2018-08-20T09:31:08Z</time>
      </trkpt>
      <trkpt lat="47.25" lon="4.61203">
        <ele>397.346588</ele>
        <time>2018-08-20T09:31:09Z</time>
      </trkpt>
      <trkpt lat="47.24997" lon="4.61206">
        <ele>397.025055</ele>
        <time>2018-08-20T09:31:10Z</time>
      </trkpt>
      <trkpt lat="47.24993" lon="4.61208">
        <ele>396.724396</ele>
        <time>2018-08-20T09:31:11Z</time>
      </trkpt>
      <trkpt lat="47.2499" lon="4.61208">
        <ele>396.450287</ele>
        <time>2018-08-20T09:31:12Z</time>
      </trkpt>
      <trkpt lat="47.24987" lon="4.61205">
        <ele>396.204712</ele>
        <time>2018-08-20T09:31:13Z</time>
      </trkpt>
      <trkpt lat="47.24985" lon="4.612">
        <ele>395.986786</ele>
        <time>2018-08-20T09:31:14Z</time>
      </trkpt>
      <trkpt lat="47.24986" lon="4.61195">
        <ele>395.852264</ele>
        <time>2018-08-20T09:31:15Z</time>
      </trkpt>
      <trkpt lat="47.24987" lon="4.61188">
        <ele>395.76709</ele>
        <time>2018-08-20T09:31:16Z</time>
      </trkpt>
      <trkpt lat="47.24989" lon="4.61182">
        <ele>395.736176</ele>
        <time>2018-08-20T09:31:17Z</time>
      </trkpt>
      <trkpt lat="47.24992" lon="4.61174">
        <ele>395.736176</ele>
        <time>2018-08-20T09:31:18Z</time>
      </trkpt>
      <trkpt lat="47.24994" lon="4.61166">
        <ele>395.736176</ele>
        <time>2018-08-20T09:31:19Z</time>
      </trkpt>
      <trkpt lat="47.24996" lon="4.61159">
        <ele>395.760406</ele>
        <time>2018-08-20T09:31:20Z</time>
      </trkpt>
      <trkpt lat="47.24998" lon="4.61151">
        <ele>395.841309</ele>
        <time>2018-08-20T09:31:21Z</time>
      </trkpt>
      <trkpt lat="47.24999" lon="4.61144">
        <ele>395.976471</ele>
        <time>2018-08-20T09:31:22Z</time>
      </trkpt>
      <trkpt lat="47.25001" lon="4.61136">
        <ele>396.149139</ele>
        <time>2018-08-20T09:31:23Z</time>
      </trkpt>
      <trkpt lat="47.25002" lon="4.61128">
        <ele>396.149139</ele>
        <time>2018-08-20T09:31:24Z</time>
      </trkpt>
      <trkpt lat="47.25003" lon="4.61121">
        <ele>396.3284</ele>
        <time>2018-08-20T09:31:25Z</time>
      </trkpt>
      <trkpt lat="47.25003" lon="4.61114">
        <ele>396.509521</ele>
        <time>2018-08-20T09:31:26Z</time>
      </trkpt>
      <trkpt lat="47.25003" lon="4.61107">
        <ele>396.714935</ele>
        <time>2018-08-20T09:31:27Z</time>
      </trkpt>
      <trkpt lat="47.25003" lon="4.61101">
        <ele>396.910645</ele>
        <time>2018-08-20T09:31:28Z</time>
      </trkpt>
      <trkpt lat="47.25002" lon="4.61094">
        <ele>397.096191</ele>
        <time>2018-08-20T09:31:29Z</time>
      </trkpt>
      <trkpt lat="47.25001" lon="4.61088">
        <ele>397.274658</ele>
        <time>2018-08-20T09:31:30Z</time>
      </trkpt>
      <trkpt lat="47.24999" lon="4.61082">
        <ele>397.446686</ele>
        <time>2018-08-20T09:31:31Z</time>
      </trkpt>
      <trkpt lat="47.24997" lon="4.61077">
        <ele>397.611481</ele>
        <time>2018-08-20T09:31:32Z</time>
      </trkpt>
      <trkpt lat="47.24994" lon="4.61074">
        <ele>397.744537</ele>
        <time>2018-08-20T09:31:33Z</time>
      </trkpt>
      <trkpt lat="47.24989" lon="4.61071">
        <ele>397.879364</ele>
        <time>2018-08-20T09:31:34Z</time>
      </trkpt>
      <trkpt lat="47.24985" lon="4.6107">
        <ele>398.027832</ele>
        <time>2018-08-20T09:31:35Z</time>
      </trkpt>
      <trkpt lat="47.24981" lon="4.61069">
        <ele>398.187042</ele>
        <time>2018-08-20T09:31:36Z</time>
      </trkpt>
      <trkpt lat="47.24975" lon="4.61069">
        <ele>398.354492</ele>
        <time>2018-08-20T09:31:37Z</time>
      </trkpt>
      <trkpt lat="47.2497" lon="4.61069">
        <ele>398.523346</ele>
        <time>2018-08-20T09:31:38Z</time>
      </trkpt>
      <trkpt lat="47.24965" lon="4.61069">
        <ele>398.686432</ele>
        <time>2018-08-20T09:31:39Z</time>
      </trkpt>
      <trkpt lat="47.24961" lon="4.61069">
        <ele>398.842865</ele>
        <time>2018-08-20T09:31:40Z</time>
      </trkpt>
      <trkpt lat="47.24955" lon="4.6107">
        <ele>398.981415</ele>
        <time>2018-08-20T09:31:41Z</time>
      </trkpt>
      <trkpt lat="47.2495" lon="4.6107">
        <ele>399.10376</ele>
        <time>2018-08-20T09:31:42Z</time>
      </trkpt>
      <trkpt lat="47.24945" lon="4.6107">
        <ele>399.211029</ele>
        <time>2018-08-20T09:31:43Z</time>
      </trkpt>
      <trkpt lat="47.24941" lon="4.6107">
        <ele>399.310303</ele>
        <time>2018-08-20T09:31:44Z</time>
      </trkpt>
      <trkpt lat="47.24936" lon="4.6107">
        <ele>399.409332</ele>
        <time>2018-08-20T09:31:45Z</time>
      </trkpt>
      <trkpt lat="47.24932" lon="4.6107">
        <ele>399.506622</ele>
        <time>2018-08-20T09:31:46Z</time>
      </trkpt>
      <trkpt lat="47.24928" lon="4.61071">
        <ele>399.506622</ele>
        <time>2018-08-20T09:31:47Z</time>
      </trkpt>
      <trkpt lat="47.24923" lon="4.61072">
        <ele>399.626587</ele>
        <time>2018-08-20T09:31:48Z</time>
      </trkpt>
      <trkpt lat="47.24918" lon="4.61074">
        <ele>399.773834</ele>
        <time>2018-08-20T09:31:49Z</time>
      </trkpt>
      <trkpt lat="47.24914" lon="4.61076">
        <ele>399.978394</ele>
        <time>2018-08-20T09:31:50Z</time>
      </trkpt>
      <trkpt lat="47.24909" lon="4.61079">
        <ele>400.199921</ele>
        <time>2018-08-20T09:31:51Z</time>
      </trkpt>
      <trkpt lat="47.24905" lon="4.61082">
        <ele>400.433441</ele>
        <time>2018-08-20T09:31:52Z</time>
      </trkpt>
      <trkpt lat="47.249" lon="4.61086">
        <ele>400.674805</ele>
        <time>2018-08-20T09:31:53Z</time>
      </trkpt>
      <trkpt lat="47.24896" lon="4.6109">
        <ele>400.894867</ele>
        <time>2018-08-20T09:31:54Z</time>
      </trkpt>
      <trkpt lat="47.24892" lon="4.61094">
        <ele>401.08139</ele>
        <time>2018-08-20T09:31:55Z</time>
      </trkpt>
      <trkpt lat="47.24887" lon="4.61098">
        <ele>401.189972</ele>
        <time>2018-08-20T09:31:56Z</time>
      </trkpt>
      <trkpt lat="47.24883" lon="4.61103">
        <ele>401.257813</ele>
        <time>2018-08-20T09:31:57Z</time>
      </trkpt>
      <trkpt lat="47.24878" lon="4.61108">
        <ele>401.278564</ele>
        <time>2018-08-20T09:31:58Z</time>
      </trkpt>
      <trkpt lat="47.24873" lon="4.61113">
        <ele>401.278564</ele>
        <time>2018-08-20T09:31:59Z</time>
      </trkpt>
      <trkpt lat="47.24868" lon="4.61118">
        <ele>401.278564</ele>
        <time>2018-08-20T09:32:00Z</time>
      </trkpt>
      <trkpt lat="47.24862" lon="4.61122">
        <ele>401.254913</ele>
        <time>2018-08-20T09:32:01Z</time>
      </trkpt>
      <trkpt lat="47.24857" lon="4.61127">
        <ele>401.197174</ele>
        <time>2018-08-20T09:32:02Z</time>
      </trkpt>
      <trkpt lat="47.24851" lon="4.61132">
        <ele>401.11557</ele>
        <time>2018-08-20T09:32:03Z</time>
      </trkpt>
      <trkpt lat="47.24844" lon="4.61136">
        <ele>401.026154</ele>
        <time>2018-08-20T09:32:04Z</time>
      </trkpt>
      <trkpt lat="47.24838" lon="4.61141">
        <ele>400.933838</ele>
        <time>2018-08-20T09:32:05Z</time>
      </trkpt>
      <trkpt lat="47.24832" lon="4.61145">
        <ele>400.846039</ele>
        <time>2018-08-20T09:32:06Z</time>
      </trkpt>
      <trkpt lat="47.24825" lon="4.6115">
        <ele>400.76712</ele>
        <time>2018-08-20T09:32:07Z</time>
      </trkpt>
      <trkpt lat="47.24819" lon="4.61154">
        <ele>400.691193</ele>
        <time>2018-08-20T09:32:08Z</time>
      </trkpt>
      <trkpt lat="47.24813" lon="4.61158">
        <ele>400.616974</ele>
        <time>2018-08-20T09:32:09Z</time>
      </trkpt>
      <trkpt lat="47.24806" lon="4.61162">
        <ele>400.547821</ele>
        <time>2018-08-20T09:32:10Z</time>
      </trkpt>
      <trkpt lat="47.248" lon="4.61166">
        <ele>400.497192</ele>
        <time>2018-08-20T09:32:11Z</time>
      </trkpt>
      <trkpt lat="47.24794" lon="4.6117">
        <ele>400.479095</ele>
        <time>2018-08-20T09:32:12Z</time>
      </trkpt>
      <trkpt lat="47.24788" lon="4.61174">
        <ele>400.479095</ele>
        <time>2018-08-20T09:32:13Z</time>
      </trkpt>
      <trkpt lat="47.24781" lon="4.61178">
        <ele>400.479095</ele>
        <time>2018-08-20T09:32:14Z</time>
      </trkpt>
      <trkpt lat="47.24775" lon="4.61181">
        <ele>400.489899</ele>
        <time>2018-08-20T09:32:15Z</time>
      </trkpt>
      <trkpt lat="47.24769" lon="4.61184">
        <ele>400.529449</ele>
        <time>2018-08-20T09:32:16Z</time>
      </trkpt>
      <trkpt lat="47.24764" lon="4.61187">
        <ele>400.598877</ele>
        <time>2018-08-20T09:32:17Z</time>
      </trkpt>
      <trkpt lat="47.24758" lon="4.61191">
        <ele>400.697235</ele>
        <time>2018-08-20T09:32:18Z</time>
      </trkpt>
      <trkpt lat="47.24753" lon="4.61194">
        <ele>400.806976</ele>
        <time>2018-08-20T09:32:19Z</time>
      </trkpt>
      <trkpt lat="47.24747" lon="4.61197">
        <ele>400.906769</ele>
        <time>2018-08-20T09:32:20Z</time>
      </trkpt>
      <trkpt lat="47.24741" lon="4.612">
        <ele>400.995392</ele>
        <time>2018-08-20T09:32:21Z</time>
      </trkpt>
      <trkpt lat="47.24736" lon="4.61204">
        <ele>401.075897</ele>
        <time>2018-08-20T09:32:22Z</time>
      </trkpt>
      <trkpt lat="47.2473" lon="4.61207">
        <ele>401.146454</ele>
        <time>2018-08-20T09:32:23Z</time>
      </trkpt>
      <trkpt lat="47.24724" lon="4.6121">
        <ele>401.146454</ele>
        <time>2018-08-20T09:32:24Z</time>
      </trkpt>
      <trkpt lat="47.24719" lon="4.61213">
        <ele>401.171478</ele>
        <time>2018-08-20T09:32:25Z</time>
      </trkpt>
      <trkpt lat="47.24713" lon="4.61216">
        <ele>401.17334</ele>
        <time>2018-08-20T09:32:26Z</time>
      </trkpt>
      <trkpt lat="47.24707" lon="4.61219">
        <ele>401.17334</ele>
        <time>2018-08-20T09:32:27Z</time>
      </trkpt>
      <trkpt lat="47.24702" lon="4.61221">
        <ele>401.17334</ele>
        <time>2018-08-20T09:32:28Z</time>
      </trkpt>
      <trkpt lat="47.24697" lon="4.61222">
        <ele>401.156036</ele>
        <time>2018-08-20T09:32:29Z</time>
      </trkpt>
      <trkpt lat="47.24692" lon="4.61223">
        <ele>401.129791</ele>
        <time>2018-08-20T09:32:30Z</time>
      </trkpt>
      <trkpt lat="47.24688" lon="4.61223">
        <ele>401.107666</ele>
        <time>2018-08-20T09:32:31Z</time>
      </trkpt>
      <trkpt lat="47.24684" lon="4.61224">
        <ele>401.092926</ele>
        <time>2018-08-20T09:32:32Z</time>
      </trkpt>
      <trkpt lat="47.2468" lon="4.61226">
        <ele>401.092926</ele>
        <time>2018-08-20T09:32:33Z</time>
      </trkpt>
      <trkpt lat="47.24677" lon="4.61227">
        <ele>401.092926</ele>
        <time>2018-08-20T09:32:34Z</time>
      </trkpt>
      <trkpt lat="47.24673" lon="4.61229">
        <ele>401.102203</ele>
        <time>2018-08-20T09:32:35Z</time>
      </trkpt>
      <trkpt lat="47.24669" lon="4.61232">
        <ele>401.102631</ele>
        <time>2018-08-20T09:32:36Z</time>
      </trkpt>
      <trkpt lat="47.24666" lon="4.61236">
        <ele>401.095123</ele>
        <time>2018-08-20T09:32:37Z</time>
      </trkpt>
      <trkpt lat="47.24662" lon="4.6124">
        <ele>401.091644</ele>
        <time>2018-08-20T09:32:38Z</time>
      </trkpt>
      <trkpt lat="47.24657" lon="4.61243">
        <ele>401.078094</ele>
        <time>2018-08-20T09:32:39Z</time>
      </trkpt>
      <trkpt lat="47.24653" lon="4.61245">
        <ele>400.996582</ele>
        <time>2018-08-20T09:32:40Z</time>
      </trkpt>
      <trkpt lat="47.24648" lon="4.61247">
        <ele>400.842865</ele>
        <time>2018-08-20T09:32:41Z</time>
      </trkpt>
      <trkpt lat="47.24643" lon="4.6125">
        <ele>400.623779</ele>
        <time>2018-08-20T09:32:42Z</time>
      </trkpt>
      <trkpt lat="47.24639" lon="4.61252">
        <ele>400.364777</ele>
        <time>2018-08-20T09:32:43Z</time>
      </trkpt>
      <trkpt lat="47.24633" lon="4.61255">
        <ele>400.082397</ele>
        <time>2018-08-20T09:32:44Z</time>
      </trkpt>
      <trkpt lat="47.24628" lon="4.61257">
        <ele>399.793579</ele>
        <time>2018-08-20T09:32:45Z</time>
      </trkpt>
      <trkpt lat="47.24622" lon="4.6126">
        <ele>399.528656</ele>
        <time>2018-08-20T09:32:46Z</time>
      </trkpt>
      <trkpt lat="47.24616" lon="4.61263">
        <ele>399.28067</ele>
        <time>2018-08-20T09:32:47Z</time>
      </trkpt>
      <trkpt lat="47.24611" lon="4.61266">
        <ele>399.041626</ele>
        <time>2018-08-20T09:32:48Z</time>
      </trkpt>
      <trkpt lat="47.24605" lon="4.61268">
        <ele>398.803711</ele>
        <time>2018-08-20T09:32:49Z</time>
      </trkpt>
      <trkpt lat="47.246" lon="4.61271">
        <ele>398.563477</ele>
        <time>2018-08-20T09:32:50Z</time>
      </trkpt>
      <trkpt lat="47.24593" lon="4.61274">
        <ele>398.563477</ele>
        <time>2018-08-20T09:32:51Z</time>
      </trkpt>
      <trkpt lat="47.24587" lon="4.61276">
        <ele>398.323975</ele>
        <time>2018-08-20T09:32:52Z</time>
      </trkpt>
      <trkpt lat="47.24581" lon="4.61279">
        <ele>398.082764</ele>
        <time>2018-08-20T09:32:53Z</time>
      </trkpt>
      <trkpt lat="47.24575" lon="4.61281">
        <ele>397.789063</ele>
        <time>2018-08-20T09:32:54Z</time>
      </trkpt>
      <trkpt lat="47.24569" lon="4.61284">
        <ele>397.488037</ele>
        <time>2018-08-20T09:32:55Z</time>
      </trkpt>
      <trkpt lat="47.24563" lon="4.61287">
        <ele>397.18335</ele>
        <time>2018-08-20T09:32:56Z</time>
      </trkpt>
      <trkpt lat="47.24557" lon="4.6129">
        <ele>396.871582</ele>
        <time>2018-08-20T09:32:57Z</time>
      </trkpt>
      <trkpt lat="47.2455" lon="4.61292">
        <ele>396.552124</ele>
        <time>2018-08-20T09:32:58Z</time>
      </trkpt>
      <trkpt lat="47.24544" lon="4.61295">
        <ele>396.224243</ele>
        <time>2018-08-20T09:32:59Z</time>
      </trkpt>
      <trkpt lat="47.24538" lon="4.61298">
        <ele>395.949463</ele>
        <time>2018-08-20T09:33:00Z</time>
      </trkpt>
      <trkpt lat="47.24531" lon="4.613">
        <ele>395.685883</ele>
        <time>2018-08-20T09:33:01Z</time>
      </trkpt>
      <trkpt lat="47.24524" lon="4.61303">
        <ele>395.429688</ele>
        <time>2018-08-20T09:33:02Z</time>
      </trkpt>
      <trkpt lat="47.24518" lon="4.61305">
        <ele>395.187347</ele>
        <time>2018-08-20T09:33:03Z</time>
      </trkpt>
      <trkpt lat="47.24512" lon="4.61307">
        <ele>394.963867</ele>
        <time>2018-08-20T09:33:04Z</time>
      </trkpt>
      <trkpt lat="47.24506" lon="4.61308">
        <ele>394.76181</ele>
        <time>2018-08-20T09:33:05Z</time>
      </trkpt>
      <trkpt lat="47.245" lon="4.6131">
        <ele>394.578949</ele>
        <time>2018-08-20T09:33:06Z</time>
      </trkpt>
      <trkpt lat="47.24493" lon="4.61312">
        <ele>394.414764</ele>
        <time>2018-08-20T09:33:07Z</time>
      </trkpt>
      <trkpt lat="47.24487" lon="4.61314">
        <ele>394.271362</ele>
        <time>2018-08-20T09:33:08Z</time>
      </trkpt>
      <trkpt lat="47.2448" lon="4.61316">
        <ele>394.144318</ele>
        <time>2018-08-20T09:33:09Z</time>
      </trkpt>
      <trkpt lat="47.24474" lon="4.61318">
        <ele>394.031982</ele>
        <time>2018-08-20T09:33:10Z</time>
      </trkpt>
      <trkpt lat="47.24467" lon="4.6132">
        <ele>393.931122</ele>
        <time>2018-08-20T09:33:11Z</time>
      </trkpt>
      <trkpt lat="47.2446" lon="4.61322">
        <ele>393.842072</ele>
        <time>2018-08-20T09:33:12Z</time>
      </trkpt>
      <trkpt lat="47.24454" lon="4.61324">
        <ele>393.762787</ele>
        <time>2018-08-20T09:33:13Z</time>
      </trkpt>
      <trkpt lat="47.24447" lon="4.61326">
        <ele>393.692871</ele>
        <time>2018-08-20T09:33:14Z</time>
      </trkpt>
      <trkpt lat="47.2444" lon="4.61328">
        <ele>393.633331</ele>
        <time>2018-08-20T09:33:15Z</time>
      </trkpt>
      <trkpt lat="47.24434" lon="4.6133">
        <ele>393.584229</ele>
        <time>2018-08-20T09:33:16Z</time>
      </trkpt>
      <trkpt lat="47.24427" lon="4.61332">
        <ele>393.547516</ele>
        <time>2018-08-20T09:33:17Z</time>
      </trkpt>
      <trkpt lat="47.2442" lon="4.61334">
        <ele>393.525299</ele>
        <time>2018-08-20T09:33:18Z</time>
      </trkpt>
      <trkpt lat="47.24414" lon="4.61336">
        <ele>393.517822</ele>
        <time>2018-08-20T09:33:19Z</time>
      </trkpt>
      <trkpt lat="47.24407" lon="4.61338">
        <ele>393.517822</ele>
        <time>2018-08-20T09:33:20Z</time>
      </trkpt>
      <trkpt lat="47.244" lon="4.6134">
        <ele>393.517822</ele>
        <time>2018-08-20T09:33:21Z</time>
      </trkpt>
      <trkpt lat="47.24393" lon="4.61342">
        <ele>393.524933</ele>
        <time>2018-08-20T09:33:22Z</time>
      </trkpt>
      <trkpt lat="47.24386" lon="4.61344">
        <ele>393.547516</ele>
        <time>2018-08-20T09:33:23Z</time>
      </trkpt>
      <trkpt lat="47.24379" lon="4.61346">
        <ele>393.585968</ele>
        <time>2018-08-20T09:33:24Z</time>
      </trkpt>
      <trkpt lat="47.24373" lon="4.61348">
        <ele>393.585968</ele>
        <time>2018-08-20T09:33:25Z</time>
      </trkpt>
      <trkpt lat="47.24366" lon="4.61351">
        <ele>393.647095</ele>
        <time>2018-08-20T09:33:26Z</time>
      </trkpt>
      <trkpt lat="47.24359" lon="4.61353">
        <ele>393.739227</ele>
        <time>2018-08-20T09:33:27Z</time>
      </trkpt>
      <trkpt lat="47.24352" lon="4.61355">
        <ele>393.899017</ele>
        <time>2018-08-20T09:33:28Z</time>
      </trkpt>
      <trkpt lat="47.24345" lon="4.61357">
        <ele>394.089264</ele>
        <time>2018-08-20T09:33:29Z</time>
      </trkpt>
      <trkpt lat="47.24339" lon="4.61359">
        <ele>394.309601</ele>
        <time>2018-08-20T09:33:30Z</time>
      </trkpt>
      <trkpt lat="47.24331" lon="4.61362">
        <ele>394.558868</ele>
        <time>2018-08-20T09:33:31Z</time>
      </trkpt>
      <trkpt lat="47.24324" lon="4.61365">
        <ele>394.827026</ele>
        <time>2018-08-20T09:33:32Z</time>
      </trkpt>
      <trkpt lat="47.24318" lon="4.61368">
        <ele>395.098541</ele>
        <time>2018-08-20T09:33:33Z</time>
      </trkpt>
      <trkpt lat="47.24311" lon="4.61372">
        <ele>395.337646</ele>
        <time>2018-08-20T09:33:34Z</time>
      </trkpt>
      <trkpt lat="47.24305" lon="4.61375">
        <ele>395.579865</ele>
        <time>2018-08-20T09:33:35Z</time>
      </trkpt>
      <trkpt lat="47.24298" lon="4.61379">
        <ele>395.825684</ele>
        <time>2018-08-20T09:33:36Z</time>
      </trkpt>
      <trkpt lat="47.24292" lon="4.61382">
        <ele>396.07666</ele>
        <time>2018-08-20T09:33:37Z</time>
      </trkpt>
      <trkpt lat="47.24285" lon="4.61386">
        <ele>396.333252</ele>
        <time>2018-08-20T09:33:38Z</time>
      </trkpt>
      <trkpt lat="47.24278" lon="4.6139">
        <ele>396.598785</ele>
        <time>2018-08-20T09:33:39Z</time>
      </trkpt>
      <trkpt lat="47.24272" lon="4.61393">
        <ele>396.873779</ele>
        <time>2018-08-20T09:33:40Z</time>
      </trkpt>
      <trkpt lat="47.24265" lon="4.61397">
        <ele>397.158844</ele>
        <time>2018-08-20T09:33:41Z</time>
      </trkpt>
      <trkpt lat="47.24258" lon="4.61401">
        <ele>397.455597</ele>
        <time>2018-08-20T09:33:42Z</time>
      </trkpt>
      <trkpt lat="47.24251" lon="4.61405">
        <ele>397.761993</ele>
        <time>2018-08-20T09:33:43Z</time>
      </trkpt>
      <trkpt lat="47.24244" lon="4.61409">
        <ele>398.08017</ele>
        <time>2018-08-20T09:33:44Z</time>
      </trkpt>
      <trkpt lat="47.24237" lon="4.61412">
        <ele>398.412994</ele>
        <time>2018-08-20T09:33:45Z</time>
      </trkpt>
      <trkpt lat="47.24231" lon="4.61416">
        <ele>398.747314</ele>
        <time>2018-08-20T09:33:46Z</time>
      </trkpt>
      <trkpt lat="47.24224" lon="4.6142">
        <ele>399.080933</ele>
        <time>2018-08-20T09:33:47Z</time>
      </trkpt>
      <trkpt lat="47.24217" lon="4.61423">
        <ele>399.411285</ele>
        <time>2018-08-20T09:33:48Z</time>
      </trkpt>
      <trkpt lat="47.2421" lon="4.61427">
        <ele>399.738068</ele>
        <time>2018-08-20T09:33:49Z</time>
      </trkpt>
      <trkpt lat="47.24204" lon="4.6143">
        <ele>400.056488</ele>
        <time>2018-08-20T09:33:50Z</time>
      </trkpt>
      <trkpt lat="47.24197" lon="4.61433">
        <ele>400.363281</ele>
        <time>2018-08-20T09:33:51Z</time>
      </trkpt>
      <trkpt lat="47.24189" lon="4.61436">
        <ele>400.658936</ele>
        <time>2018-08-20T09:33:52Z</time>
      </trkpt>
      <trkpt lat="47.24183" lon="4.61439">
        <ele>400.913483</ele>
        <time>2018-08-20T09:33:53Z</time>
      </trkpt>
      <trkpt lat="47.24176" lon="4.61442">
        <ele>401.124908</ele>
        <time>2018-08-20T09:33:54Z</time>
      </trkpt>
      <trkpt lat="47.24169" lon="4.61445">
        <ele>401.289063</ele>
        <time>2018-08-20T09:33:55Z</time>
      </trkpt>
      <trkpt lat="47.24162" lon="4.61447">
        <ele>401.399323</ele>
        <time>2018-08-20T09:33:56Z</time>
      </trkpt>
      <trkpt lat="47.24154" lon="4.6145">
        <ele>401.457367</ele>
        <time>2018-08-20T09:33:57Z</time>
      </trkpt>
      <trkpt lat="47.24147" lon="4.61453">
        <ele>401.470856</ele>
        <time>2018-08-20T09:33:58Z</time>
      </trkpt>
      <trkpt lat="47.24141" lon="4.61456">
        <ele>401.470856</ele>
        <time>2018-08-20T09:33:59Z</time>
      </trkpt>
      <trkpt lat="47.24134" lon="4.61459">
        <ele>401.470856</ele>
        <time>2018-08-20T09:34:00Z</time>
      </trkpt>
      <trkpt lat="47.24127" lon="4.61462">
        <ele>401.469391</ele>
        <time>2018-08-20T09:34:01Z</time>
      </trkpt>
      <trkpt lat="47.24121" lon="4.61465">
        <ele>401.455566</ele>
        <time>2018-08-20T09:34:02Z</time>
      </trkpt>
      <trkpt lat="47.24114" lon="4.61468">
        <ele>401.431732</ele>
        <time>2018-08-20T09:34:03Z</time>
      </trkpt>
      <trkpt lat="47.24107" lon="4.61471">
        <ele>401.408203</ele>
        <time>2018-08-20T09:34:04Z</time>
      </trkpt>
      <trkpt lat="47.24101" lon="4.61474">
        <ele>401.382324</ele>
        <time>2018-08-20T09:34:05Z</time>
      </trkpt>
      <trkpt lat="47.24095" lon="4.61478">
        <ele>401.357666</ele>
        <time>2018-08-20T09:34:06Z</time>
      </trkpt>
      <trkpt lat="47.24089" lon="4.61481">
        <ele>401.336914</ele>
        <time>2018-08-20T09:34:07Z</time>
      </trkpt>
      <trkpt lat="47.24083" lon="4.61485">
        <ele>401.315643</ele>
        <time>2018-08-20T09:34:08Z</time>
      </trkpt>
      <trkpt lat="47.24077" lon="4.6149">
        <ele>401.290771</ele>
        <time>2018-08-20T09:34:09Z</time>
      </trkpt>
      <trkpt lat="47.24072" lon="4.61496">
        <ele>401.256256</ele>
        <time>2018-08-20T09:34:10Z</time>
      </trkpt>
      <trkpt lat="47.24066" lon="4.61501">
        <ele>401.208221</ele>
        <time>2018-08-20T09:34:11Z</time>
      </trkpt>
      <trkpt lat="47.2406" lon="4.61507">
        <ele>401.136017</ele>
        <time>2018-08-20T09:34:12Z</time>
      </trkpt>
      <trkpt lat="47.24056" lon="4.61513">
        <ele>401.025879</ele>
        <time>2018-08-20T09:34:13Z</time>
      </trkpt>
      <trkpt lat="47.24051" lon="4.6152">
        <ele>400.871002</ele>
        <time>2018-08-20T09:34:14Z</time>
      </trkpt>
      <trkpt lat="47.24046" lon="4.61527">
        <ele>400.66745</ele>
        <time>2018-08-20T09:34:15Z</time>
      </trkpt>
      <trkpt lat="47.24041" lon="4.61534">
        <ele>400.411743</ele>
        <time>2018-08-20T09:34:16Z</time>
      </trkpt>
      <trkpt lat="47.24035" lon="4.61542">
        <ele>400.411743</ele>
        <time>2018-08-20T09:34:17Z</time>
      </trkpt>
      <trkpt lat="47.24029" lon="4.61551">
        <ele>400.10083</ele>
        <time>2018-08-20T09:34:18Z</time>
      </trkpt>
      <trkpt lat="47.24024" lon="4.61561">
        <ele>399.733551</ele>
        <time>2018-08-20T09:34:19Z</time>
      </trkpt>
      <trkpt lat="47.24018" lon="4.61572">
        <ele>399.21347</ele>
        <time>2018-08-20T09:34:20Z</time>
      </trkpt>
      <trkpt lat="47.24012" lon="4.61584">
        <ele>398.633209</ele>
        <time>2018-08-20T09:34:21Z</time>
      </trkpt>
      <trkpt lat="47.24006" lon="4.61597">
        <ele>397.991211</ele>
        <time>2018-08-20T09:34:22Z</time>
      </trkpt>
      <trkpt lat="47.23999" lon="4.6161">
        <ele>397.239838</ele>
        <time>2018-08-20T09:34:23Z</time>
      </trkpt>
      <trkpt lat="47.23994" lon="4.61624">
        <ele>396.360443</ele>
        <time>2018-08-20T09:34:24Z</time>
      </trkpt>
      <trkpt lat="47.23988" lon="4.61638">
        <ele>395.346436</ele>
        <time>2018-08-20T09:34:25Z</time>
      </trkpt>
      <trkpt lat="47.23982" lon="4.61652">
        <ele>394.29776</ele>
        <time>2018-08-20T09:34:26Z</time>
      </trkpt>
      <trkpt lat="47.23977" lon="4.61665">
        <ele>393.125732</ele>
        <time>2018-08-20T09:34:27Z</time>
      </trkpt>
      <trkpt lat="47.23972" lon="4.61679">
        <ele>391.852448</ele>
        <time>2018-08-20T09:34:28Z</time>
      </trkpt>
      <trkpt lat="47.23967" lon="4.61693">
        <ele>391.852448</ele>
        <time>2018-08-20T09:34:29Z</time>
      </trkpt>
      <trkpt lat="47.23962" lon="4.61707">
        <ele>390.548004</ele>
        <time>2018-08-20T09:34:30Z</time>
      </trkpt>
      <trkpt lat="47.23958" lon="4.61721">
        <ele>389.24472</ele>
        <time>2018-08-20T09:34:31Z</time>
      </trkpt>
      <trkpt lat="47.23954" lon="4.61735">
        <ele>387.788849</ele>
        <time>2018-08-20T09:34:32Z</time>
      </trkpt>
      <trkpt lat="47.23951" lon="4.61749">
        <ele>386.438446</ele>
        <time>2018-08-20T09:34:33Z</time>
      </trkpt>
      <trkpt lat="47.23948" lon="4.61763">
        <ele>385.261261</ele>
        <time>2018-08-20T09:34:34Z</time>
      </trkpt>
      <trkpt lat="47.23944" lon="4.61776">
        <ele>384.245972</ele>
        <time>2018-08-20T09:34:35Z</time>
      </trkpt>
      <trkpt lat="47.2394" lon="4.6179">
        <ele>383.377716</ele>
        <time>2018-08-20T09:34:36Z</time>
      </trkpt>
      <trkpt lat="47.23937" lon="4.61803">
        <ele>382.652069</ele>
        <time>2018-08-20T09:34:37Z</time>
      </trkpt>
      <trkpt lat="47.23933" lon="4.61817">
        <ele>382.249603</ele>
        <time>2018-08-20T09:34:38Z</time>
      </trkpt>
      <trkpt lat="47.23929" lon="4.6183">
        <ele>381.933563</ele>
        <time>2018-08-20T09:34:39Z</time>
      </trkpt>
      <trkpt lat="47.23925" lon="4.61844">
        <ele>381.645233</ele>
        <time>2018-08-20T09:34:40Z</time>
      </trkpt>
      <trkpt lat="47.23921" lon="4.61857">
        <ele>381.388428</ele>
        <time>2018-08-20T09:34:41Z</time>
      </trkpt>
      <trkpt lat="47.23918" lon="4.61872">
        <ele>381.166473</ele>
        <time>2018-08-20T09:34:42Z</time>
      </trkpt>
      <trkpt lat="47.23913" lon="4.61886">
        <ele>380.980927</ele>
        <time>2018-08-20T09:34:43Z</time>
      </trkpt>
      <trkpt lat="47.23909" lon="4.619">
        <ele>380.825958</ele>
        <time>2018-08-20T09:34:44Z</time>
      </trkpt>
      <trkpt lat="47.23904" lon="4.61914">
        <ele>380.692352</ele>
        <time>2018-08-20T09:34:45Z</time>
      </trkpt>
      <trkpt lat="47.239" lon="4.61928">
        <ele>380.574707</ele>
        <time>2018-08-20T09:34:46Z</time>
      </trkpt>
      <trkpt lat="47.23895" lon="4.61942">
        <ele>380.460541</ele>
        <time>2018-08-20T09:34:47Z</time>
      </trkpt>
      <trkpt lat="47.23891" lon="4.61956">
        <ele>380.331085</ele>
        <time>2018-08-20T09:34:48Z</time>
      </trkpt>
      <trkpt lat="47.23887" lon="4.6197">
        <ele>380.175507</ele>
        <time>2018-08-20T09:34:49Z</time>
      </trkpt>
      <trkpt lat="47.23882" lon="4.61984">
        <ele>379.991943</ele>
        <time>2018-08-20T09:34:50Z</time>
      </trkpt>
      <trkpt lat="47.23879" lon="4.61998">
        <ele>379.78183</ele>
        <time>2018-08-20T09:34:51Z</time>
      </trkpt>
      <trkpt lat="47.23874" lon="4.62012">
        <ele>379.551056</ele>
        <time>2018-08-20T09:34:52Z</time>
      </trkpt>
      <trkpt lat="47.23869" lon="4.62026">
        <ele>379.289795</ele>
        <time>2018-08-20T09:34:53Z</time>
      </trkpt>
      <trkpt lat="47.23864" lon="4.62039">
        <ele>379.000244</ele>
        <time>2018-08-20T09:34:54Z</time>
      </trkpt>
      <trkpt lat="47.23859" lon="4.62052">
        <ele>378.689789</ele>
        <time>2018-08-20T09:34:55Z</time>
      </trkpt>
      <trkpt lat="47.23854" lon="4.62065">
        <ele>378.351776</ele>
        <time>2018-08-20T09:34:56Z</time>
      </trkpt>
      <trkpt lat="47.23848" lon="4.62077">
        <ele>377.978546</ele>
        <time>2018-08-20T09:34:57Z</time>
      </trkpt>
      <trkpt lat="47.23842" lon="4.62089">
        <ele>377.561035</ele>
        <time>2018-08-20T09:34:58Z</time>
      </trkpt>
      <trkpt lat="47.23836" lon="4.62101">
        <ele>377.119019</ele>
        <time>2018-08-20T09:34:59Z</time>
      </trkpt>
      <trkpt lat="47.23829" lon="4.62113">
        <ele>376.669922</ele>
        <time>2018-08-20T09:35:00Z</time>
      </trkpt>
      <trkpt lat="47.23823" lon="4.62125">
        <ele>376.197968</ele>
        <time>2018-08-20T09:35:01Z</time>
      </trkpt>
      <trkpt lat="47.23818" lon="4.62138">
        <ele>375.698273</ele>
        <time>2018-08-20T09:35:02Z</time>
      </trkpt>
      <trkpt lat="47.23814" lon="4.62153">
        <ele>375.166534</ele>
        <time>2018-08-20T09:35:03Z</time>
      </trkpt>
      <trkpt lat="47.23811" lon="4.62168">
        <ele>374.611115</ele>
        <time>2018-08-20T09:35:04Z</time>
      </trkpt>
      <trkpt lat="47.23808" lon="4.62184">
        <ele>374.026978</ele>
        <time>2018-08-20T09:35:05Z</time>
      </trkpt>
      <trkpt lat="47.23807" lon="4.622">
        <ele>373.40271</ele>
        <time>2018-08-20T09:35:06Z</time>
      </trkpt>
      <trkpt lat="47.23805" lon="4.62216">
        <ele>372.748535</ele>
        <time>2018-08-20T09:35:07Z</time>
      </trkpt>
      <trkpt lat="47.23804" lon="4.62231">
        <ele>372.076935</ele>
        <time>2018-08-20T09:35:08Z</time>
      </trkpt>
      <trkpt lat="47.23802" lon="4.62246">
        <ele>371.414825</ele>
        <time>2018-08-20T09:35:09Z</time>
      </trkpt>
      <trkpt lat="47.23801" lon="4.62261">
        <ele>370.762451</ele>
        <time>2018-08-20T09:35:10Z</time>
      </trkpt>
      <trkpt lat="47.23799" lon="4.62275">
        <ele>370.125519</ele>
        <time>2018-08-20T09:35:11Z</time>
      </trkpt>
      <trkpt lat="47.23797" lon="4.6229">
        <ele>369.581573</ele>
        <time>2018-08-20T09:35:12Z</time>
      </trkpt>
      <trkpt lat="47.23795" lon="4.62304">
        <ele>369.212036</ele>
        <time>2018-08-20T09:35:13Z</time>
      </trkpt>
      <trkpt lat="47.23793" lon="4.62318">
        <ele>369.016449</ele>
        <time>2018-08-20T09:35:14Z</time>
      </trkpt>
      <trkpt lat="47.23789" lon="4.62331">
        <ele>368.981964</ele>
        <time>2018-08-20T09:35:15Z</time>
      </trkpt>
      <trkpt lat="47.23785" lon="4.62343">
        <ele>368.981964</ele>
        <time>2018-08-20T09:35:16Z</time>
      </trkpt>
      <trkpt lat="47.23781" lon="4.62355">
        <ele>368.981964</ele>
        <time>2018-08-20T09:35:17Z</time>
      </trkpt>
      <trkpt lat="47.23777" lon="4.62367">
        <ele>369.167236</ele>
        <time>2018-08-20T09:35:18Z</time>
      </trkpt>
      <trkpt lat="47.23773" lon="4.62378">
        <ele>369.577972</ele>
        <time>2018-08-20T09:35:19Z</time>
      </trkpt>
      <trkpt lat="47.23769" lon="4.62388">
        <ele>370.153107</ele>
        <time>2018-08-20T09:35:20Z</time>
      </trkpt>
      <trkpt lat="47.23766" lon="4.62398">
        <ele>370.825317</ele>
        <time>2018-08-20T09:35:21Z</time>
      </trkpt>
      <trkpt lat="47.23762" lon="4.62408">
        <ele>371.60318</ele>
        <time>2018-08-20T09:35:22Z</time>
      </trkpt>
      <trkpt lat="47.23759" lon="4.62417">
        <ele>372.473145</ele>
        <time>2018-08-20T09:35:23Z</time>
      </trkpt>
      <trkpt lat="47.23756" lon="4.62425">
        <ele>373.356079</ele>
        <time>2018-08-20T09:35:24Z</time>
      </trkpt>
      <trkpt lat="47.23753" lon="4.62433">
        <ele>374.248138</ele>
        <time>2018-08-20T09:35:25Z</time>
      </trkpt>
      <trkpt lat="47.23751" lon="4.62441">
        <ele>374.248138</ele>
        <time>2018-08-20T09:35:26Z</time>
      </trkpt>
      <trkpt lat="47.23748" lon="4.62448">
        <ele>375.141144</ele>
        <time>2018-08-20T09:35:27Z</time>
      </trkpt>
      <trkpt lat="47.23747" lon="4.62454">
        <ele>376.015503</ele>
        <time>2018-08-20T09:35:28Z</time>
      </trkpt>
      <trkpt lat="47.23745" lon="4.6246">
        <ele>376.980988</ele>
        <time>2018-08-20T09:35:29Z</time>
      </trkpt>
      <trkpt lat="47.23744" lon="4.62467">
        <ele>377.905792</ele>
        <time>2018-08-20T09:35:30Z</time>
      </trkpt>
      <trkpt lat="47.23742" lon="4.62472">
        <ele>378.795624</ele>
        <time>2018-08-20T09:35:31Z</time>
      </trkpt>
      <trkpt lat="47.23741" lon="4.62478">
        <ele>379.647858</ele>
        <time>2018-08-20T09:35:32Z</time>
      </trkpt>
      <trkpt lat="47.23739" lon="4.62482">
        <ele>380.456879</ele>
        <time>2018-08-20T09:35:33Z</time>
      </trkpt>
      <trkpt lat="47.23739" lon="4.62487">
        <ele>381.230682</ele>
        <time>2018-08-20T09:35:34Z</time>
      </trkpt>
      <trkpt lat="47.23737" lon="4.6249">
        <ele>381.841553</ele>
        <time>2018-08-20T09:35:35Z</time>
      </trkpt>
      <trkpt lat="47.23737" lon="4.62493">
        <ele>382.417572</ele>
        <time>2018-08-20T09:35:36Z</time>
      </trkpt>
      <trkpt lat="47.23735" lon="4.62496">
        <ele>382.965576</ele>
        <time>2018-08-20T09:35:37Z</time>
      </trkpt>
      <trkpt lat="47.23733" lon="4.62496">
        <ele>383.470612</ele>
        <time>2018-08-20T09:35:38Z</time>
      </trkpt>
      <trkpt lat="47.23731" lon="4.62495">
        <ele>383.927338</ele>
        <time>2018-08-20T09:35:39Z</time>
      </trkpt>
      <trkpt lat="47.23729" lon="4.62493">
        <ele>384.34433</ele>
        <time>2018-08-20T09:35:40Z</time>
      </trkpt>
      <trkpt lat="47.23727" lon="4.62489">
        <ele>384.719116</ele>
        <time>2018-08-20T09:35:41Z</time>
      </trkpt>
      <trkpt lat="47.23725" lon="4.62486">
        <ele>385.047455</ele>
        <time>2018-08-20T09:35:42Z</time>
      </trkpt>
      <trkpt lat="47.23724" lon="4.62482">
        <ele>385.324005</ele>
        <time>2018-08-20T09:35:43Z</time>
      </trkpt>
      <trkpt lat="47.23723" lon="4.62477">
        <ele>385.534393</ele>
        <time>2018-08-20T09:35:44Z</time>
      </trkpt>
      <trkpt lat="47.23722" lon="4.62473">
        <ele>385.670319</ele>
        <time>2018-08-20T09:35:45Z</time>
      </trkpt>
      <trkpt lat="47.23721" lon="4.62469">
        <ele>385.729126</ele>
        <time>2018-08-20T09:35:46Z</time>
      </trkpt>
      <trkpt lat="47.23719" lon="4.62465">
        <ele>385.729126</ele>
        <time>2018-08-20T09:35:47Z</time>
      </trkpt>
      <trkpt lat="47.23718" lon="4.62461">
        <ele>385.729126</ele>
        <time>2018-08-20T09:35:48Z</time>
      </trkpt>
      <trkpt lat="47.23717" lon="4.62457">
        <ele>385.715179</ele>
        <time>2018-08-20T09:35:49Z</time>
      </trkpt>
      <trkpt lat="47.23715" lon="4.62453">
        <ele>385.641876</ele>
        <time>2018-08-20T09:35:50Z</time>
      </trkpt>
      <trkpt lat="47.23713" lon="4.62448">
        <ele>385.529449</ele>
        <time>2018-08-20T09:35:51Z</time>
      </trkpt>
      <trkpt lat="47.23711" lon="4.62443">
        <ele>385.401825</ele>
        <time>2018-08-20T09:35:52Z</time>
      </trkpt>
      <trkpt lat="47.23709" lon="4.62438">
        <ele>385.271637</ele>
        <time>2018-08-20T09:35:53Z</time>
      </trkpt>
      <trkpt lat="47.23707" lon="4.62434">
        <ele>385.135529</ele>
        <time>2018-08-20T09:35:54Z</time>
      </trkpt>
      <trkpt lat="47.23705" lon="4.62429">
        <ele>385.009277</ele>
        <time>2018-08-20T09:35:55Z</time>
      </trkpt>
      <trkpt lat="47.23702" lon="4.62424">
        <ele>384.88205</ele>
        <time>2018-08-20T09:35:56Z</time>
      </trkpt>
      <trkpt lat="47.237" lon="4.62419">
        <ele>384.748016</ele>
        <time>2018-08-20T09:35:57Z</time>
      </trkpt>
      <trkpt lat="47.23697" lon="4.62414">
        <ele>384.623138</ele>
        <time>2018-08-20T09:35:58Z</time>
      </trkpt>
      <trkpt lat="47.23694" lon="4.62409">
        <ele>384.511749</ele>
        <time>2018-08-20T09:35:59Z</time>
      </trkpt>
      <trkpt lat="47.23691" lon="4.62404">
        <ele>384.404816</ele>
        <time>2018-08-20T09:36:00Z</time>
      </trkpt>
      <trkpt lat="47.23688" lon="4.62398">
        <ele>384.299713</ele>
        <time>2018-08-20T09:36:01Z</time>
      </trkpt>
      <trkpt lat="47.23685" lon="4.62393">
        <ele>384.2117</ele>
        <time>2018-08-20T09:36:02Z</time>
      </trkpt>
      <trkpt lat="47.23682" lon="4.62387">
        <ele>384.128418</ele>
        <time>2018-08-20T09:36:03Z</time>
      </trkpt>
      <trkpt lat="47.2368" lon="4.62381">
        <ele>384.038666</ele>
        <time>2018-08-20T09:36:04Z</time>
      </trkpt>
      <trkpt lat="47.23677" lon="4.62375">
        <ele>383.938965</ele>
        <time>2018-08-20T09:36:05Z</time>
      </trkpt>
      <trkpt lat="47.23674" lon="4.6237">
        <ele>383.833099</ele>
        <time>2018-08-20T09:36:06Z</time>
      </trkpt>
      <trkpt lat="47.2367" lon="4.62364">
        <ele>383.693756</ele>
        <time>2018-08-20T09:36:07Z</time>
      </trkpt>
      <trkpt lat="47.23666" lon="4.62358">
        <ele>383.51944</ele>
        <time>2018-08-20T09:36:08Z</time>
      </trkpt>
      <trkpt lat="47.23662" lon="4.62352">
        <ele>383.330719</ele>
        <time>2018-08-20T09:36:09Z</time>
      </trkpt>
      <trkpt lat="47.23658" lon="4.62346">
        <ele>383.129303</ele>
        <time>2018-08-20T09:36:10Z</time>
      </trkpt>
      <trkpt lat="47.23654" lon="4.62339">
        <ele>382.914795</ele>
        <time>2018-08-20T09:36:11Z</time>
      </trkpt>
      <trkpt lat="47.2365" lon="4.62333">
        <ele>382.690216</ele>
        <time>2018-08-20T09:36:12Z</time>
      </trkpt>
      <trkpt lat="47.23646" lon="4.62326">
        <ele>382.690216</ele>
        <time>2018-08-20T09:36:13Z</time>
      </trkpt>
      <trkpt lat="47.23641" lon="4.62318">
        <ele>382.477814</ele>
        <time>2018-08-20T09:36:14Z</time>
      </trkpt>
      <trkpt lat="47.23637" lon="4.62311">
        <ele>382.271637</ele>
        <time>2018-08-20T09:36:15Z</time>
      </trkpt>
      <trkpt lat="47.23633" lon="4.62305">
        <ele>382.006744</ele>
        <time>2018-08-20T09:36:16Z</time>
      </trkpt>
      <trkpt lat="47.23629" lon="4.62298">
        <ele>381.717773</ele>
        <time>2018-08-20T09:36:17Z</time>
      </trkpt>
      <trkpt lat="47.23625" lon="4.62292">
        <ele>381.414337</ele>
        <time>2018-08-20T09:36:18Z</time>
      </trkpt>
      <trkpt lat="47.23621" lon="4.62286">
        <ele>381.108917</ele>
        <time>2018-08-20T09:36:19Z</time>
      </trkpt>
      <trkpt lat="47.23616" lon="4.6228">
        <ele>380.800781</ele>
        <time>2018-08-20T09:36:20Z</time>
      </trkpt>
      <trkpt lat="47.23613" lon="4.62274">
        <ele>380.494843</ele>
        <time>2018-08-20T09:36:21Z</time>
      </trkpt>
      <trkpt lat="47.23609" lon="4.62268">
        <ele>380.245453</ele>
        <time>2018-08-20T09:36:22Z</time>
      </trkpt>
      <trkpt lat="47.23605" lon="4.62263">
        <ele>380.019043</ele>
        <time>2018-08-20T09:36:23Z</time>
      </trkpt>
      <trkpt lat="47.23602" lon="4.62258">
        <ele>379.807129</ele>
        <time>2018-08-20T09:36:24Z</time>
      </trkpt>
      <trkpt lat="47.23598" lon="4.62254">
        <ele>379.60376</ele>
        <time>2018-08-20T09:36:25Z</time>
      </trkpt>
      <trkpt lat="47.23595" lon="4.6225">
        <ele>379.60376</ele>
        <time>2018-08-20T09:36:26Z</time>
      </trkpt>
      <trkpt lat="47.23592" lon="4.62245">
        <ele>379.408936</ele>
        <time>2018-08-20T09:36:27Z</time>
      </trkpt>
      <trkpt lat="47.23588" lon="4.62241">
        <ele>379.230377</ele>
        <time>2018-08-20T09:36:28Z</time>
      </trkpt>
      <trkpt lat="47.23585" lon="4.62237">
        <ele>379.118927</ele>
        <time>2018-08-20T09:36:29Z</time>
      </trkpt>
      <trkpt lat="47.23582" lon="4.62232">
        <ele>379.065063</ele>
        <time>2018-08-20T09:36:30Z</time>
      </trkpt>
      <trkpt lat="47.23578" lon="4.62228">
        <ele>379.065063</ele>
        <time>2018-08-20T09:36:31Z</time>
      </trkpt>
      <trkpt lat="47.23575" lon="4.62223">
        <ele>379.065063</ele>
        <time>2018-08-20T09:36:32Z</time>
      </trkpt>
      <trkpt lat="47.23571" lon="4.62218">
        <ele>379.065338</ele>
        <time>2018-08-20T09:36:33Z</time>
      </trkpt>
      <trkpt lat="47.23568" lon="4.62213">
        <ele>379.121246</ele>
        <time>2018-08-20T09:36:34Z</time>
      </trkpt>
      <trkpt lat="47.23564" lon="4.62209">
        <ele>379.222015</ele>
        <time>2018-08-20T09:36:35Z</time>
      </trkpt>
      <trkpt lat="47.2356" lon="4.62204">
        <ele>379.362793</ele>
        <time>2018-08-20T09:36:36Z</time>
      </trkpt>
      <trkpt lat="47.23557" lon="4.622">
        <ele>379.50647</ele>
        <time>2018-08-20T09:36:37Z</time>
      </trkpt>
      <trkpt lat="47.23553" lon="4.62196">
        <ele>379.659149</ele>
        <time>2018-08-20T09:36:38Z</time>
      </trkpt>
      <trkpt lat="47.2355" lon="4.62191">
        <ele>379.830719</ele>
        <time>2018-08-20T09:36:39Z</time>
      </trkpt>
      <trkpt lat="47.23546" lon="4.62186">
        <ele>380.014252</ele>
        <time>2018-08-20T09:36:40Z</time>
      </trkpt>
      <trkpt lat="47.23543" lon="4.62181">
        <ele>380.221924</ele>
        <time>2018-08-20T09:36:41Z</time>
      </trkpt>
      <trkpt lat="47.2354" lon="4.62177">
        <ele>380.449219</ele>
        <time>2018-08-20T09:36:42Z</time>
      </trkpt>
      <trkpt lat="47.23537" lon="4.62176">
        <ele>380.670013</ele>
        <time>2018-08-20T09:36:43Z</time>
      </trkpt>
      <trkpt lat="47.23534" lon="4.62177">
        <ele>380.868439</ele>
        <time>2018-08-20T09:36:44Z</time>
      </trkpt>
      <trkpt lat="47.23532" lon="4.62179">
        <ele>381.079926</ele>
        <time>2018-08-20T09:36:45Z</time>
      </trkpt>
      <trkpt lat="47.23531" lon="4.62183">
        <ele>381.316284</ele>
        <time>2018-08-20T09:36:46Z</time>
      </trkpt>
      <trkpt lat="47.23532" lon="4.62186">
        <ele>381.568726</ele>
        <time>2018-08-20T09:36:47Z</time>
      </trkpt>
      <trkpt lat="47.23532" lon="4.62189">
        <ele>381.827118</ele>
        <time>2018-08-20T09:36:48Z</time>
      </trkpt>
      <trkpt lat="47.23533" lon="4.62191">
        <ele>382.088654</ele>
        <time>2018-08-20T09:36:49Z</time>
      </trkpt>
      <trkpt lat="47.23534" lon="4.62193">
        <ele>382.354645</ele>
        <time>2018-08-20T09:36:50Z</time>
      </trkpt>
      <trkpt lat="47.23536" lon="4.62194">
        <ele>382.354645</ele>
        <time>2018-08-20T09:36:51Z</time>
      </trkpt>
      <trkpt lat="47.23538" lon="4.62196">
        <ele>382.542084</ele>
        <time>2018-08-20T09:36:52Z</time>
      </trkpt>
    </trkseg>
  </trk>
</gpx>